# Wetter Temperatur Luftdruck Luftfeuchtigkeit Sichtweite Windgeschwindigkeit Windrichtung Zeit
1 Clouds 23 1015 47 10000 6.7 40 08:20 14.07.2020
2 Clouds 22 1015 49 10000 5.7 50 07:44 14.07.2020
3 Clouds 22 1015 49 10000 5.7 50 07:19 14.07.2020
4 Clouds 21 1015 53 10000 5.1 30 06:57 14.07.2020
5 Clouds 21 1015 53 10000 4.6 30 06:26 14.07.2020
6 Rain 21 1015 56 10000 4.6 30 05:50 14.07.2020
7 Clouds 20 1014 56 10000 5.1 40 04:51 14.07.2020
8 Clouds 20 1014 56 10000 4.1 30 04:33 14.07.2020
9 Clouds 20 1014 64 10000 5.1 30 03:27 14.07.2020
10 Clouds 20 1014 64 10000 5.7 20 02:27 14.07.2020
11 Clouds 20 1014 64 10000 6.2 20 01:41 14.07.2020
12 Clouds 20 1014 64 10000 6.2 20 01:21 14.07.2020
13 Clouds 20 1014 64 10000 6.7 20 00:41 14.07.2020
14 Clouds 20 1014 64 10000 7.2 20 00:21 14.07.2020
15 Clouds 20 1014 64 10000 7.7 20 23:38 13.07.2020
16 Clouds 20 1015 64 10000 6.2 20 23:19 13.07.2020
17 Clouds 20 1014 64 10000 6.2 30 22:57 13.07.2020
18 Clouds 19 1015 68 10000 6.7 30 22:38 13.07.2020
19 Clouds 19 1015 68 10000 6.7 30 22:19 13.07.2020
20 Clouds 19 1015 68 10000 6.7 10 21:54 13.07.2020
21 Clouds 20 1014 73 10000 7.7 20 21:36 13.07.2020
22 Clouds 20 1014 73 10000 7.7 20 21:36 13.07.2020
23 Clouds 20 1014 73 10000 7.7 20 21:18 13.07.2020
24 Clouds 20 1014 73 10000 6.7 10 20:41 13.07.2020
25 Clouds 20 1014 77 10000 7.7 20 20:23 13.07.2020
26 Clouds 20 1014 73 10000 6.7 10 19:58 13.07.2020
27 Clouds 20 1014 73 10000 6.7 10 19:39 13.07.2020
28 Clouds 20 1014 68 10000 7.2 10 19:21 13.07.2020
29 Clouds 20 1014 68 10000 7.2 10 18:55 13.07.2020
30 Clouds 20 1014 68 10000 7.7 10 18:36 13.07.2020
31 Clouds 20 1014 68 10000 7.7 10 18:18 13.07.2020
32 Clouds 21 1014 64 10000 8.2 10 17:42 13.07.2020
33 Clouds 21 1013 73 10000 8.2 360 17:21 13.07.2020
34 Clouds 21 1013 73 10000 8.2 10 16:59 13.07.2020
35 Clouds 21 1014 73 10000 9.3 360 16:40 13.07.2020
36 Clouds 21 1014 73 10000 9.3 360 16:20 13.07.2020
37 Clouds 21 1014 73 10000 8.7 10 15:57 13.07.2020
38 Clouds 21 1014 73 10000 8.7 10 15:38 13.07.2020
39 Clouds 21 1014 73 10000 7.7 10 15:19 13.07.2020
40 Clouds 21 1013 73 10000 7.2 10 14:57 13.07.2020
41 Clouds 21 1014 77 10000 8.7 10 14:38 13.07.2020
42 Clouds 21 1014 77 10000 8.7 10 14:19 13.07.2020
43 Clouds 21 1014 73 10000 9.8 360 13:43 13.07.2020
44 Clouds 21 1014 73 10000 9.8 360 13:43 13.07.2020
45 Clouds 21 1014 73 10000 10.3 10 13:22 13.07.2020
46 Clouds 22 1014 69 10000 10.3 20 12:57 13.07.2020
47 Clouds 22 1013 69 10000 11.8 10 12:39 13.07.2020
48 Clouds 22 1013 69 10000 11.8 10 12:21 13.07.2020
49 Clouds 22 1013 73 10000 11.8 10 11:42 13.07.2020
50 Clouds 22 1013 69 10000 11.8 350 11:24 13.07.2020
51 Clouds 22 1013 69 10000 11.8 350 11:24 13.07.2020
52 Clouds 22 1013 69 10000 11.3 350 10:54 13.07.2020
53 Clouds 22 1013 69 10000 11.3 350 10:36 13.07.2020
54 Clouds 22 1013 73 10000 11.8 350 10:18 13.07.2020
55 Clouds 22 1013 73 10000 12.3 350 09:41 13.07.2020
56 Clouds 22 1013 73 10000 12.3 350 09:22 13.07.2020
57 Clouds 23 1013 73 10000 12.9 350 08:50 13.07.2020
58 Clouds 23 1012 73 10000 11.3 360 08:32 13.07.2020
59 Clouds 22 1012 78 10000 8.7 360 07:34 13.07.2020
60 Clouds 22 1012 83 10000 4.6 360 06:55 13.07.2020
61 Clouds 21 1012 83 10000 2.1 310 06:36 13.07.2020
62 Clouds 21 1012 83 10000 2.1 310 05:59 13.07.2020
63 Clouds 21 1011 83 10000 3.1 340 04:34 13.07.2020
64 Clear 20 1011 83 10000 3.6 350 01:52 13.07.2020
65 Clear 20 1011 83 10000 3.6 350 01:26 13.07.2020
66 Clear 21 1011 83 10000 3.1 10 00:55 13.07.2020
67 Clear 21 1011 83 10000 3.6 10 00:25 13.07.2020
68 Clear 22 1011 73 10000 3.1 10 23:57 12.07.2020
69 Clear 22 1011 73 10000 3.1 10 23:39 12.07.2020
70 Clear 22 1011 73 10000 2.6 20 23:20 12.07.2020
71 Clear 22 1012 73 10000 2.6 10 22:38 12.07.2020
72 Clear 22 1012 73 10000 2.6 30 22:20 12.07.2020
73 Clear 22 1012 73 10000 2.6 30 22:20 12.07.2020
74 Clear 22 1012 73 10000 3.1 40 21:57 12.07.2020
75 Clear 23 1011 73 10000 4.1 30 21:39 12.07.2020
76 Clear 23 1011 73 10000 4.1 30 21:20 12.07.2020
77 Clear 24 1011 65 10000 5.1 40 20:58 12.07.2020
78 Clear 24 1011 65 10000 5.1 40 20:39 12.07.2020
79 Clear 24 1011 65 10000 6.2 20 20:19 12.07.2020
80 Clear 25 1011 57 10000 5.1 20 19:54 12.07.2020
81 Clear 25 1011 47 10000 6.2 20 19:36 12.07.2020
82 Clear 25 1011 47 10000 6.2 20 19:18 12.07.2020
83 Clear 27 1011 48 10000 7.2 10 18:40 12.07.2020
84 Clear 27 1011 48 10000 7.2 10 18:19 12.07.2020
85 Clear 27 1011 51 10000 7.7 20 17:42 12.07.2020
86 Clear 27 1011 51 10000 8.2 350 17:22 12.07.2020
87 Clear 28 1011 51 10000 7.7 350 16:58 12.07.2020
88 Clear 28 1011 51 10000 7.7 350 16:40 12.07.2020
89 Clear 28 1011 48 10000 7.7 10 16:19 12.07.2020
90 Clear 28 1011 45 10000 7.7 20 15:43 12.07.2020
91 Clear 29 1011 40 10000 8.2 10 15:23 12.07.2020
92 Clouds 29 1011 42 10000 7.7 10 14:44 12.07.2020
93 Clouds 29 1011 35 10000 7.2 20 14:25 12.07.2020
94 Clouds 29 1011 42 10000 7.2 30 13:54 12.07.2020
95 Clouds 29 1011 42 10000 7.2 30 13:36 12.07.2020
96 Clouds 29 1011 45 10000 7.7 10 13:18 12.07.2020
97 Clouds 29 1011 45 10000 7.7 360 12:42 12.07.2020
98 Clouds 29 1011 45 10000 7.7 360 12:20 12.07.2020
99 Clouds 29 1011 51 10000 6.2 20 11:58 12.07.2020
100 Clouds 29 1011 51 10000 6.2 20 11:40 12.07.2020
101 Clouds 28 1011 51 10000 6.2 10 11:19 12.07.2020
102 Clouds 28 1011 51 10000 6.2 10 11:19 12.07.2020
103 Clouds 28 1011 51 10000 6.2 60 10:42 12.07.2020
104 Clouds 28 1012 48 10000 5.7 30 10:20 12.07.2020
105 Clouds 27 1011 51 10000 6.2 50 09:43 12.07.2020
106 Clouds 26 1011 57 10000 5.7 50 09:24 12.07.2020
107 Clouds 25 1011 61 10000 5.7 50 08:58 12.07.2020
108 Clouds 25 1011 69 10000 5.1 20 08:40 12.07.2020
109 Clouds 25 1011 69 10000 5.1 20 08:21 12.07.2020
110 Clouds 24 1012 69 10000 4.1 30 07:50 12.07.2020
111 Clouds 23 1011 73 10000 4.6 30 07:31 12.07.2020
112 Clear 23 1011 78 10000 3.6 30 06:57 12.07.2020
113 Clear 22 1011 83 10000 3.1 20 06:38 12.07.2020
114 Clear 22 1011 83 10000 3.1 20 06:19 12.07.2020
115 Clear 21 1011 83 10000 2.6 40 04:59 12.07.2020
116 Clear 21 1010 83 10000 2.1 40 04:29 12.07.2020
117 Clear 21 1011 83 10000 3.1 20 03:46 12.07.2020
118 Clear 21 1011 83 10000 3.1 30 03:28 12.07.2020
119 Clear 22 1011 83 10000 4.6 20 02:26 12.07.2020
120 Clouds 22 1012 83 10000 4.1 40 01:29 12.07.2020
121 Clouds 22 1012 83 10000 4.1 30 00:39 12.07.2020
122 Clouds 22 1012 78 10000 4.1 20 00:21 12.07.2020
123 Clouds 23 1013 78 10000 3.6 30 23:41 11.07.2020
124 Clouds 23 1013 78 10000 3.6 30 23:22 11.07.2020
125 Clear 23 1013 73 10000 4.6 40 23:00 11.07.2020
126 Clear 23 1013 73 10000 4.6 40 22:41 11.07.2020
127 Clouds 23 1013 73 10000 5.7 40 22:23 11.07.2020
128 Clouds 23 1013 69 10000 5.7 40 21:56 11.07.2020
129 Clouds 23 1013 73 10000 6.2 40 21:37 11.07.2020
130 Clouds 23 1013 73 10000 6.2 40 21:19 11.07.2020
131 Clouds 24 1013 69 10000 6.2 40 20:54 11.07.2020
132 Clouds 24 1013 73 10000 6.7 40 20:36 11.07.2020
133 Clouds 24 1013 73 10000 6.7 40 20:18 11.07.2020
134 Clouds 24 1012 65 10000 6.2 50 19:46 11.07.2020
135 Clouds 25 1012 65 10000 6.2 60 19:27 11.07.2020
136 Clouds 26 1012 57 10000 7.2 50 18:58 11.07.2020
137 Clouds 26 1012 57 10000 7.2 50 18:39 11.07.2020
138 Clouds 26 1012 61 10000 7.7 40 18:20 11.07.2020
139 Clouds 26 1012 61 10000 7.2 40 17:56 11.07.2020
140 Clouds 26 1012 61 10000 7.2 40 17:38 11.07.2020
141 Clouds 27 1013 58 10000 8.2 50 17:19 11.07.2020
142 Clouds 28 1013 58 10000 8.2 30 16:44 11.07.2020
143 Clouds 28 1013 54 10000 8.2 40 16:25 11.07.2020
144 Clouds 28 1013 61 10000 7.7 50 16:00 11.07.2020
145 Clouds 28 1013 61 10000 7.7 50 15:41 11.07.2020
146 Clouds 28 1013 54 10000 8.2 30 15:20 11.07.2020
147 Clouds 28 1013 48 10000 8.2 20 14:58 11.07.2020
148 Clouds 28 1014 54 10000 8.7 30 14:39 11.07.2020
149 Clouds 28 1014 54 10000 8.7 30 14:20 11.07.2020
150 Clouds 28 1014 51 10000 7.2 30 13:43 11.07.2020
151 Clouds 28 1014 51 10000 8.2 20 13:22 11.07.2020
152 Clouds 28 1014 48 10000 7.7 50 12:58 11.07.2020
153 Clouds 28 1014 51 10000 8.2 40 12:40 11.07.2020
154 Clouds 28 1014 51 10000 8.2 40 12:20 11.07.2020
155 Clouds 28 1014 51 10000 9.3 50 11:55 11.07.2020
156 Clouds 28 1014 51 10000 9.3 50 11:36 11.07.2020
157 Clouds 28 1014 51 10000 9.3 50 11:18 11.07.2020
158 Clouds 27 1014 54 10000 8.2 50 10:40 11.07.2020
159 Clouds 27 1014 54 10000 8.7 40 10:22 11.07.2020
160 Clouds 26 1014 57 10000 8.2 30 09:44 11.07.2020
161 Clouds 26 1014 57 10000 7.2 40 09:21 11.07.2020
162 Clouds 26 1014 57 10000 7.2 40 09:20 11.07.2020
163 Clouds 25 1014 61 10000 8.2 40 08:49 11.07.2020
164 Clouds 25 1014 61 10000 7.7 50 08:31 11.07.2020
165 Clouds 24 1014 65 10000 7.2 50 07:59 11.07.2020
166 Clouds 24 1014 69 10000 7.2 50 07:40 11.07.2020
167 Clouds 24 1014 69 10000 7.2 50 07:19 11.07.2020
168 Clouds 23 1014 69 10000 5.7 40 06:51 11.07.2020
169 Clouds 22 1014 69 10000 4.1 40 06:20 11.07.2020
170 Clouds 21 1014 73 10000 4.6 40 05:20 11.07.2020
171 Clouds 21 1015 69 10000 4.1 40 04:54 11.07.2020
172 Clouds 21 1015 69 10000 4.1 50 04:31 11.07.2020
173 Clouds 21 1015 69 10000 5.1 40 02:58 11.07.2020
174 Clouds 21 1015 69 10000 5.1 40 02:36 11.07.2020
175 Clouds 21 1015 69 10000 4.1 60 01:27 11.07.2020
176 Clouds 22 1015 64 10000 5.7 60 00:59 11.07.2020
177 Clouds 22 1015 64 10000 5.7 60 00:40 11.07.2020
178 Clouds 22 1015 64 10000 4.6 50 00:21 11.07.2020
179 Clear 22 1016 69 10000 4.6 50 23:57 10.07.2020
180 Clear 22 1016 69 10000 4.6 50 23:38 10.07.2020
181 Clear 22 1016 69 10000 4.6 50 23:38 10.07.2020
182 Clouds 22 1016 64 10000 5.7 50 23:18 10.07.2020
183 Clouds 22 1016 64 10000 5.1 50 22:43 10.07.2020
184 Clouds 22 1016 64 10000 5.7 50 22:19 10.07.2020
185 Clouds 23 1016 60 10000 5.7 50 21:41 10.07.2020
186 Clouds 23 1016 60 10000 5.7 50 21:21 10.07.2020
187 Clear 23 1016 60 10000 6.2 50 20:59 10.07.2020
188 Clear 23 1016 60 10000 6.2 50 20:40 10.07.2020
189 Clear 23 1016 60 10000 8.2 50 20:21 10.07.2020
190 Clouds 23 1016 57 10000 8.7 60 19:57 10.07.2020
191 Clouds 23 1016 57 10000 8.7 60 19:39 10.07.2020
192 Clouds 24 1016 57 10000 7.2 40 19:19 10.07.2020
193 Clouds 25 1016 57 10000 7.7 40 18:41 10.07.2020
194 Clouds 25 1016 50 10000 9.3 40 18:20 10.07.2020
195 Clouds 26 1016 50 10000 7.7 50 17:57 10.07.2020
196 Clouds 26 1016 50 10000 7.7 50 17:57 10.07.2020
197 Clouds 26 1016 50 10000 7.7 50 17:38 10.07.2020
198 Clouds 27 1016 47 10000 7.7 30 17:20 10.07.2020
199 Clouds 27 1016 54 10000 8.7 40 16:42 10.07.2020
200 Clouds 27 1016 51 10000 9.3 20 16:20 10.07.2020
201 Clouds 27 1016 45 10000 8.2 20 15:45 10.07.2020
202 Clouds 27 1016 51 10000 9.8 30 15:25 10.07.2020
203 Clouds 27 1016 54 10000 8.2 30 14:55 10.07.2020
204 Clouds 27 1016 54 10000 8.2 30 14:37 10.07.2020
205 Clouds 27 1016 54 10000 8.2 30 14:19 10.07.2020
206 Clouds 27 1016 54 10000 9.8 20 13:57 10.07.2020
207 Clouds 27 1016 57 10000 9.3 20 13:38 10.07.2020
208 Clouds 26 1016 57 10000 9.3 20 13:20 10.07.2020
209 Clouds 27 1016 54 10000 10.3 20 12:44 10.07.2020
210 Clouds 27 1016 54 10000 8.2 20 12:25 10.07.2020
211 Clouds 26 1017 54 10000 8.7 40 11:59 10.07.2020
212 Clouds 26 1017 57 10000 8.7 30 11:38 10.07.2020
213 Clouds 26 1017 57 10000 8.7 30 11:38 10.07.2020
214 Clouds 26 1017 57 10000 6.7 30 11:19 10.07.2020
215 Clouds 26 1017 57 10000 8.7 20 10:55 10.07.2020
216 Clouds 26 1017 57 10000 8.7 20 10:36 10.07.2020
217 Clouds 25 1017 61 10000 6.7 40 10:18 10.07.2020
218 Clouds 25 1017 61 10000 7.2 30 09:38 10.07.2020
219 Clouds 25 1017 61 10000 7.2 30 09:20 10.07.2020
220 Clouds 24 1017 61 10000 7.2 30 08:58 10.07.2020
221 Clouds 24 1017 61 10000 6.7 40 08:39 10.07.2020
222 Clouds 24 1017 61 10000 6.7 40 08:21 10.07.2020
223 Clouds 23 1017 64 10000 7.2 30 07:43 10.07.2020
224 Clouds 23 1017 64 10000 6.2 20 07:23 10.07.2020
225 Clouds 22 1017 69 10000 5.1 20 06:51 10.07.2020
226 Clouds 21 1017 64 10000 3.6 20 06:27 10.07.2020
227 Clouds 20 1017 68 10000 3.6 30 05:19 10.07.2020
228 Clear 20 1017 64 10000 4.6 40 03:39 10.07.2020
229 Clear 20 1017 68 10000 4.1 40 02:53 10.07.2020
230 Clouds 20 1017 64 10000 5.1 40 01:50 10.07.2020
231 Clear 20 1017 64 10000 4.6 40 00:49 10.07.2020
232 Clear 21 1017 60 10000 5.1 50 00:21 10.07.2020
233 Clear 21 1017 60 10000 5.1 40 23:49 09.07.2020
234 Clear 21 1017 60 10000 5.1 50 23:24 09.07.2020
235 Clear 21 1017 56 10000 6.2 50 22:59 09.07.2020
236 Clear 21 1017 56 10000 6.2 50 22:41 09.07.2020
237 Clear 22 1017 60 10000 5.7 50 22:21 09.07.2020
238 Clear 22 1017 60 10000 6.7 50 21:57 09.07.2020
239 Clear 22 1017 60 10000 6.7 50 21:39 09.07.2020
240 Clouds 22 1017 60 10000 6.7 40 21:19 09.07.2020
241 Clouds 23 1017 57 10000 7.2 50 20:58 09.07.2020
242 Clouds 23 1017 57 10000 7.2 50 20:39 09.07.2020
243 Clouds 23 1017 57 10000 7.7 40 20:21 09.07.2020
244 Clouds 23 1017 57 10000 8.7 40 19:42 09.07.2020
245 Clouds 23 1017 57 10000 8.2 40 19:21 09.07.2020
246 Clouds 24 1017 53 10000 8.2 50 18:43 09.07.2020
247 Clouds 25 1017 53 10000 8.2 50 18:24 09.07.2020
248 Clouds 25 1017 50 10000 9.3 50 17:56 09.07.2020
249 Clouds 25 1017 50 10000 7.7 40 17:38 09.07.2020
250 Clouds 25 1017 50 10000 7.7 40 17:20 09.07.2020
251 Clouds 25 1017 50 10000 8.2 50 16:56 09.07.2020
252 Clouds 26 1017 50 10000 9.3 40 16:38 09.07.2020
253 Clouds 26 1017 50 10000 9.3 40 16:19 09.07.2020
254 Clouds 27 1017 47 10000 8.2 30 15:55 09.07.2020
255 Clouds 26 1017 47 10000 8.7 30 15:36 09.07.2020
256 Clouds 26 1017 47 10000 8.7 30 15:18 09.07.2020
257 Clouds 27 1017 47 10000 8.2 30 14:57 09.07.2020
258 Clouds 27 1017 47 10000 8.2 30 14:39 09.07.2020
259 Clouds 27 1017 47 10000 8.2 30 14:19 09.07.2020
260 Clouds 27 1017 47 10000 9.8 10 13:55 09.07.2020
261 Clouds 27 1017 47 10000 9.8 10 13:36 09.07.2020
262 Clouds 27 1017 50 10000 8.7 30 13:18 09.07.2020
263 Clouds 27 1017 44 10000 7.2 40 12:40 09.07.2020
264 Clouds 26 1017 42 10000 6.7 60 12:21 09.07.2020
265 Clouds 27 1017 42 10000 8.2 30 11:56 09.07.2020
266 Clouds 27 1017 42 10000 8.2 30 11:37 09.07.2020
267 Clouds 26 1017 47 10000 7.2 40 11:18 09.07.2020
268 Clouds 26 1017 50 10000 7.2 50 10:55 09.07.2020
269 Clouds 26 1017 47 10000 6.7 50 10:37 09.07.2020
270 Clouds 26 1017 47 10000 6.7 50 10:18 09.07.2020
271 Clear 25 1017 41 10000 7.2 50 09:41 09.07.2020
272 Clear 25 1017 41 10000 7.2 50 09:21 09.07.2020
273 Clear 24 1018 44 10000 7.2 40 08:45 09.07.2020
274 Clear 24 1017 47 10000 7.2 60 08:25 09.07.2020
275 Clear 23 1017 50 10000 5.7 50 07:47 09.07.2020
276 Clear 23 1017 56 10000 5.1 50 07:25 09.07.2020
277 Clear 22 1017 56 10000 4.1 30 06:55 09.07.2020
278 Clear 21 1017 64 10000 4.1 20 06:20 09.07.2020
279 Clear 20 1017 64 10000 3.6 20 05:37 09.07.2020
280 Clear 20 1017 64 10000 3.1 40 04:28 09.07.2020
281 Clear 19 1017 68 10000 3.1 50 02:33 09.07.2020
282 Clear 20 1017 64 10000 3.6 50 01:39 09.07.2020
283 Clear 20 1017 64 10000 4.6 40 00:55 09.07.2020
284 Clear 20 1017 64 10000 4.6 40 00:25 09.07.2020
285 Clear 21 1017 64 10000 5.1 50 23:47 08.07.2020
286 Clear 20 1017 64 10000 5.7 50 23:28 08.07.2020
287 Clear 20 1017 64 10000 5.1 50 22:59 08.07.2020
288 Clear 20 1017 64 10000 5.1 50 22:41 08.07.2020
289 Clear 20 1017 64 10000 5.1 50 22:23 08.07.2020
290 Clear 20 1017 64 10000 4.1 40 21:58 08.07.2020
291 Clear 21 1017 64 10000 4.1 40 21:39 08.07.2020
292 Clear 20 1017 68 10000 5.1 30 21:21 08.07.2020
293 Clear 21 1017 64 10000 5.7 20 20:55 08.07.2020
294 Clear 21 1017 64 10000 5.7 20 20:37 08.07.2020
295 Clouds 21 1017 64 10000 6.7 30 20:19 08.07.2020
296 Clouds 22 1016 56 10000 6.2 30 19:43 08.07.2020
297 Clouds 22 1016 60 10000 8.2 10 19:22 08.07.2020
298 Clouds 22 1016 60 10000 6.7 20 18:57 08.07.2020
299 Clouds 23 1016 57 10000 7.2 20 18:39 08.07.2020
300 Clouds 23 1016 57 10000 7.2 20 18:19 08.07.2020
301 Clouds 23 1016 60 10000 7.7 20 17:55 08.07.2020
302 Clouds 23 1016 57 10000 7.7 20 17:37 08.07.2020
303 Clouds 23 1016 57 10000 7.7 20 17:19 08.07.2020
304 Clouds 23 1016 60 10000 7.7 30 16:40 08.07.2020
305 Clouds 23 1016 57 10000 7.2 30 16:22 08.07.2020
306 Clouds 24 1016 60 10000 7.7 20 15:59 08.07.2020
307 Clouds 24 1016 61 10000 7.7 10 15:41 08.07.2020
308 Clouds 24 1016 61 10000 7.7 10 15:20 08.07.2020
309 Clouds 24 1016 57 10000 8.2 20 14:57 08.07.2020
310 Clouds 24 1016 57 10000 8.7 20 14:39 08.07.2020
311 Clouds 25 1016 57 10000 8.7 20 14:18 08.07.2020
312 Clouds 24 1016 64 10000 9.3 10 13:42 08.07.2020
313 Clouds 24 1016 64 10000 9.3 10 13:23 08.07.2020
314 Clouds 24 1015 64 10000 7.7 20 12:46 08.07.2020
315 Clouds 24 1015 64 10000 7.7 20 12:21 08.07.2020
316 Clouds 24 1015 64 10000 8.2 10 11:59 08.07.2020
317 Clouds 24 1015 64 10000 9.8 360 11:38 08.07.2020
318 Clouds 24 1015 64 10000 9.8 360 11:20 08.07.2020
319 Clouds 24 1014 61 10000 9.3 10 10:54 08.07.2020
320 Clouds 24 1014 61 10000 9.3 10 10:36 08.07.2020
321 Clouds 24 1014 64 10000 10.8 360 10:18 08.07.2020
322 Clouds 23 1014 64 10000 11.8 350 09:41 08.07.2020
323 Clouds 23 1014 69 10000 12.3 360 09:21 08.07.2020
324 Clouds 23 1013 69 10000 12.3 360 08:42 08.07.2020
325 Clouds 22 1013 73 10000 10.8 360 08:24 08.07.2020
326 Clouds 22 1013 73 10000 11.8 360 07:47 08.07.2020
327 Clouds 22 1012 73 10000 11.8 360 07:23 08.07.2020
328 Clouds 22 1012 73 10000 10.3 360 06:55 08.07.2020
329 Clouds 22 1011 73 10000 13.4 350 06:35 08.07.2020
330 Clouds 22 1011 73 10000 12.3 350 05:55 08.07.2020
331 Clouds 22 1011 73 10000 11.8 360 05:20 08.07.2020
332 Clouds 22 1010 78 10000 11.3 350 04:32 08.07.2020
333 Clouds 24 1009 78 10000 8.7 360 02:22 08.07.2020
334 Clouds 25 1009 78 10000 8.7 360 01:45 08.07.2020
335 Clouds 24 1009 78 10000 8.2 10 01:19 08.07.2020
336 Clouds 25 1008 69 10000 6.2 20 00:25 08.07.2020
337 Clouds 26 1007 65 10000 7.7 10 23:55 07.07.2020
338 Clouds 26 1007 65 10000 9.3 360 23:37 07.07.2020
339 Clouds 26 1007 65 10000 9.3 360 23:18 07.07.2020
340 Clouds 26 1007 78 10000 10.3 360 22:41 07.07.2020
341 Clouds 26 1006 74 10000 7.2 350 22:22 07.07.2020
342 Clouds 26 1006 83 10000 4.6 350 21:59 07.07.2020
343 Clouds 26 1006 83 10000 4.6 350 21:39 07.07.2020
344 Clouds 26 1006 83 10000 6.2 360 21:21 07.07.2020
345 Clouds 26 1005 83 10000 6.2 360 20:57 07.07.2020
346 Clouds 26 1005 83 10000 6.2 360 20:38 07.07.2020
347 Clouds 26 1005 74 10000 7.2 350 20:20 07.07.2020
348 Clouds 26 1005 74 10000 7.2 350 20:20 07.07.2020
349 Clouds 26 1004 78 10000 8.2 350 19:41 07.07.2020
350 Clouds 27 1004 69 10000 6.2 340 19:21 07.07.2020
351 Clouds 28 1003 62 10000 5.7 340 18:57 07.07.2020
352 Clouds 28 1003 62 10000 5.7 340 18:38 07.07.2020
353 Clouds 29 1003 58 10000 3.1 80 18:38 07.07.2020
354 Clouds 29 1003 58 10000 3.1 80 18:20 07.07.2020
355 Clouds 30 1003 62 10000 5.7 100 17:58 07.07.2020
356 Clouds 30 1003 62 10000 5.7 100 17:38 07.07.2020
357 Clear 30 1003 49 10000 3.1 30 17:20 07.07.2020
358 Clear 31 1003 49 10000 3.1 30 17:20 07.07.2020
359 Clear 30 1002 49 10000 5.1 10 16:43 07.07.2020
360 Clear 31 1003 46 10000 5.1 40 16:24 07.07.2020
361 Clear 30 1003 55 10000 4.1 10 15:58 07.07.2020
362 Clear 31 1003 55 10000 4.1 10 15:39 07.07.2020
363 Clouds 30 1003 55 10000 5.1 10 15:20 07.07.2020
364 Clouds 30 1003 58 10000 6.7 350 14:47 07.07.2020
365 Clouds 30 1003 55 10000 5.7 20 14:26 07.07.2020
366 Clouds 31 1003 55 10000 5.1 30 13:57 07.07.2020
367 Clouds 30 1003 55 10000 5.1 40 13:38 07.07.2020
368 Clouds 30 1003 55 10000 5.1 40 13:18 07.07.2020
369 Clouds 30 1003 58 10000 2.6 0 12:40 07.07.2020
370 Clouds 30 1003 58 10000 2.6 0 12:22 07.07.2020
371 Clouds 29 1003 74 10000 3.1 210 11:50 07.07.2020
372 Clouds 29 1003 70 10000 2.1 190 11:26 07.07.2020
373 Clouds 29 1003 58 10000 3.6 30 10:59 07.07.2020
374 Clouds 29 1003 58 10000 3.6 30 10:41 07.07.2020
375 Clouds 28 1003 55 10000 4.6 30 10:22 07.07.2020
376 Clouds 28 1002 66 10000 4.6 30 09:59 07.07.2020
377 Clouds 27 1002 69 10000 4.6 50 09:38 07.07.2020
378 Clouds 27 1002 69 10000 4.6 50 09:19 07.07.2020
379 Clouds 26 1002 74 10000 4.6 40 08:42 07.07.2020
380 Clouds 26 1002 74 10000 4.6 40 08:23 07.07.2020
381 Clouds 25 1002 83 10000 4.6 30 07:43 07.07.2020
382 Clouds 25 1002 83 10000 4.6 30 07:22 07.07.2020
383 Clouds 24 1002 88 10000 5.7 10 06:49 07.07.2020
384 Clouds 24 1002 88 10000 5.7 10 06:29 07.07.2020
385 Clouds 24 1002 88 10000 3.6 30 05:53 07.07.2020
386 Clouds 24 1002 88 10000 4.6 30 05:22 07.07.2020
387 Clouds 23 1001 88 10000 5.7 10 04:38 07.07.2020
388 Clouds 23 1002 88 10000 4.1 20 03:35 07.07.2020
389 Clouds 23 1002 88 10000 3.1 60 02:21 07.07.2020
390 Clouds 24 1002 88 10000 3.6 40 01:23 07.07.2020
391 Clear 24 1002 88 10000 4.6 30 00:43 07.07.2020
392 Clear 24 1002 88 10000 4.6 30 00:24 07.07.2020
393 Clear 24 1002 83 10000 5.1 30 23:55 06.07.2020
394 Clear 24 1002 83 10000 6.2 10 23:37 06.07.2020
395 Clear 24 1002 83 10000 6.2 10 23:18 06.07.2020
396 Clear 24 1002 83 10000 7.2 20 22:41 06.07.2020
397 Clear 24 1002 83 10000 7.7 10 22:20 06.07.2020
398 Clear 25 1003 78 10000 5.1 20 21:57 06.07.2020
399 Clouds 25 1003 78 10000 5.1 20 21:39 06.07.2020
400 Clouds 25 1003 78 10000 5.1 20 21:39 06.07.2020
401 Clouds 25 1003 74 10000 6.2 20 21:19 06.07.2020
402 Clouds 25 1003 69 10000 6.2 20 20:59 06.07.2020
403 Clouds 26 1003 69 10000 5.7 10 20:38 06.07.2020
404 Clear 26 1003 69 10000 5.7 10 20:20 06.07.2020
405 Clear 26 1003 65 10000 6.2 30 19:56 06.07.2020
406 Clear 27 1003 58 10000 6.2 30 19:38 06.07.2020
407 Clear 27 1003 58 10000 6.2 30 19:20 06.07.2020
408 Clear 28 1002 58 10000 7.2 20 18:41 06.07.2020
409 Clear 29 1002 58 10000 7.2 20 18:23 06.07.2020
410 Clear 30 1002 55 10000 7.7 10 17:59 06.07.2020
411 Clear 30 1002 52 10000 8.2 20 17:41 06.07.2020
412 Clear 30 1002 52 10000 8.2 20 17:21 06.07.2020
413 Clear 30 1003 48 10000 8.2 30 16:55 06.07.2020
414 Clear 31 1003 48 10000 9.3 20 16:37 06.07.2020
415 Clear 31 1003 48 10000 9.3 20 16:18 06.07.2020
416 Clear 31 1003 48 10000 9.3 20 16:18 06.07.2020
417 Clear 32 1003 46 10000 9.3 10 15:42 06.07.2020
418 Clear 32 1003 43 10000 8.7 20 15:24 06.07.2020
419 Clear 32 1004 46 10000 8.2 20 14:56 06.07.2020
420 Clear 32 1004 43 10000 7.7 10 14:37 06.07.2020
421 Clear 32 1004 43 10000 7.7 10 14:19 06.07.2020
422 Clear 32 1004 43 10000 7.7 50 13:46 06.07.2020
423 Clear 32 1004 43 10000 7.7 50 13:27 06.07.2020
424 Clear 32 1004 41 10000 6.7 60 12:57 06.07.2020
425 Clear 31 1005 49 10000 7.7 10 12:39 06.07.2020
426 Clear 31 1005 49 10000 7.7 10 12:18 06.07.2020
427 Clear 31 1005 46 10000 7.2 20 11:57 06.07.2020
428 Clear 31 1005 52 10000 7.7 10 11:37 06.07.2020
429 Clear 31 1005 52 10000 7.7 10 11:18 06.07.2020
430 Clear 30 1005 55 10000 6.2 20 10:42 06.07.2020
431 Clouds 29 1005 58 10000 7.2 10 10:21 06.07.2020
432 Clouds 29 1005 62 10000 6.2 20 09:56 06.07.2020
433 Clouds 28 1005 62 10000 5.7 20 09:38 06.07.2020
434 Clouds 28 1005 62 10000 5.7 20 09:20 06.07.2020
435 Clouds 27 1006 69 10000 5.1 20 08:41 06.07.2020
436 Clouds 27 1006 65 10000 4.6 50 08:22 06.07.2020
437 Clouds 26 1006 74 10000 5.1 30 07:54 06.07.2020
438 Clouds 25 1006 78 10000 6.2 20 07:35 06.07.2020
439 Clouds 25 1006 83 10000 5.1 20 06:57 06.07.2020
440 Clear 24 1006 78 10000 5.1 30 06:38 06.07.2020
441 Clear 24 1006 78 10000 5.1 30 06:19 06.07.2020
442 Clear 24 1006 78 10000 5.1 40 05:29 06.07.2020
443 Clouds 24 1006 78 10000 4.6 30 04:36 06.07.2020
444 Clouds 24 1007 83 10000 4.1 30 02:50 06.07.2020
445 Clouds 24 1007 83 10000 4.6 30 02:19 06.07.2020
446 Clouds 24 1008 83 10000 4.6 30 00:52 06.07.2020
447 Clouds 24 1008 83 10000 5.7 20 00:28 06.07.2020
448 Clouds 24 1008 83 10000 4.6 30 23:58 05.07.2020
449 Clouds 24 1008 83 10000 4.6 30 23:40 05.07.2020
450 Clouds 24 1008 83 10000 3.6 40 23:21 05.07.2020
451 Clouds 24 1008 78 10000 4.6 30 22:58 05.07.2020
452 Clouds 24 1008 78 10000 4.6 30 22:37 05.07.2020
453 Clouds 24 1008 78 10000 4.6 30 22:19 05.07.2020
454 Clouds 24 1008 78 10000 4.6 40 21:56 05.07.2020
455 Clear 25 1008 78 10000 7.2 20 21:37 05.07.2020
456 Clear 25 1008 78 10000 7.2 20 21:37 05.07.2020
457 Clear 25 1008 78 10000 7.2 20 21:18 05.07.2020
458 Clear 25 1008 78 10000 7.2 20 20:41 05.07.2020
459 Clear 25 1008 78 10000 7.2 20 20:23 05.07.2020
460 Clear 26 1008 74 10000 7.7 20 19:58 05.07.2020
461 Clear 26 1008 74 10000 7.7 20 19:40 05.07.2020
462 Clear 27 1008 69 10000 6.7 20 19:19 05.07.2020
463 Clear 28 1008 62 10000 8.7 20 18:42 05.07.2020
464 Clear 28 1008 62 10000 8.7 20 18:24 05.07.2020
465 Clear 29 1008 58 10000 9.8 20 17:59 05.07.2020
466 Clear 29 1008 51 10000 8.7 20 17:41 05.07.2020
467 Clear 30 1008 51 10000 8.7 20 17:19 05.07.2020
468 Clear 30 1008 58 10000 8.7 10 16:45 05.07.2020
469 Clear 30 1008 58 10000 8.7 10 16:45 05.07.2020
470 Clear 30 1009 52 10000 8.2 20 16:25 05.07.2020
471 Clear 30 1009 55 10000 7.2 20 15:58 05.07.2020
472 Clear 30 1009 55 10000 7.7 20 15:38 05.07.2020
473 Clear 30 1009 55 10000 7.7 20 15:19 05.07.2020
474 Clear 30 1009 55 10000 7.7 20 14:42 05.07.2020
475 Clear 30 1009 55 10000 7.7 20 14:42 05.07.2020
476 Clear 30 1009 55 10000 7.2 10 14:23 05.07.2020
477 Clear 30 1009 55 10000 6.7 20 13:58 05.07.2020
478 Clear 30 1009 55 10000 7.2 10 13:39 05.07.2020
479 Clear 31 1009 55 10000 7.2 10 13:19 05.07.2020
480 Clouds 30 1010 55 10000 6.2 20 12:40 05.07.2020
481 Clouds 31 1010 55 10000 6.2 20 12:20 05.07.2020
482 Clouds 31 1010 55 10000 6.2 30 11:55 05.07.2020
483 Clouds 30 1010 55 10000 6.2 30 11:36 05.07.2020
484 Clouds 30 1010 55 10000 5.7 20 11:36 05.07.2020
485 Clouds 30 1010 55 10000 5.7 20 11:18 05.07.2020
486 Clouds 29 1010 55 10000 5.7 10 10:42 05.07.2020
487 Clouds 29 1010 55 10000 5.1 20 10:20 05.07.2020
488 Clouds 29 1010 58 10000 5.7 20 09:59 05.07.2020
489 Clouds 28 1010 65 10000 5.7 10 09:41 05.07.2020
490 Clouds 28 1010 65 10000 5.7 10 09:20 05.07.2020
491 Clouds 27 1010 65 10000 4.1 30 08:53 05.07.2020
492 Clouds 27 1010 65 10000 4.1 30 08:34 05.07.2020
493 Clouds 26 1010 74 10000 4.1 40 07:51 05.07.2020
494 Clouds 25 1010 83 10000 4.6 50 07:30 05.07.2020
495 Clouds 24 1010 83 10000 4.1 50 06:53 05.07.2020
496 Clouds 23 1010 88 10000 3.1 30 05:58 05.07.2020
497 Clouds 23 1010 88 10000 3.6 20 03:37 05.07.2020
498 Clear 23 1010 83 10000 3.6 50 02:46 05.07.2020
499 Clear 23 1010 83 10000 3.1 40 02:28 05.07.2020
500 Clear 23 1010 83 10000 3.1 30 01:41 05.07.2020
501 Clear 23 1010 83 10000 3.6 50 01:20 05.07.2020
502 Clear 24 1010 83 10000 4.6 20 00:41 05.07.2020
503 Clear 24 1010 83 10000 4.6 20 00:23 05.07.2020
504 Clear 24 1010 83 10000 4.6 20 00:23 05.07.2020
505 Clear 24 1010 83 10000 4.1 30 23:48 04.07.2020
506 Clear 24 1010 78 10000 4.1 20 23:30 04.07.2020
507 Clear 24 1011 74 10000 4.1 30 22:57 04.07.2020
508 Clear 24 1011 74 10000 4.1 30 22:38 04.07.2020
509 Clear 24 1011 74 10000 4.1 40 22:20 04.07.2020
510 Clear 25 1011 74 10000 4.6 50 21:43 04.07.2020
511 Clear 25 1011 69 10000 4.1 60 21:24 04.07.2020
512 Clear 25 1011 69 10000 4.1 50 20:59 04.07.2020
513 Clear 25 1011 69 10000 4.1 50 20:41 04.07.2020
514 Clear 25 1011 69 10000 5.1 40 20:20 04.07.2020
515 Clear 26 1010 65 10000 5.7 40 19:45 04.07.2020
516 Clear 27 1010 58 10000 6.2 40 19:22 04.07.2020
517 Clear 28 1010 54 10000 7.2 50 18:59 04.07.2020
518 Clear 28 1010 62 10000 6.2 20 18:41 04.07.2020
519 Clear 28 1010 62 10000 6.2 20 18:21 04.07.2020
520 Clear 29 1010 62 10000 6.2 20 17:44 04.07.2020
521 Clear 29 1010 58 10000 7.2 20 17:26 04.07.2020
522 Clouds 30 1010 62 10000 7.7 20 16:58 04.07.2020
523 Clouds 30 1010 62 10000 7.7 20 16:38 04.07.2020
524 Clouds 30 1010 58 10000 6.2 20 16:20 04.07.2020
525 Clouds 30 1011 58 10000 6.2 30 15:55 04.07.2020
526 Clouds 30 1011 58 10000 6.2 30 15:37 04.07.2020
527 Clouds 30 1011 55 10000 7.2 10 15:18 04.07.2020
528 Clouds 31 1011 55 10000 6.7 20 14:38 04.07.2020
529 Clouds 31 1011 55 10000 6.7 20 14:19 04.07.2020
530 Clouds 30 1011 55 10000 4.6 30 13:58 04.07.2020
531 Clouds 31 1011 55 10000 4.6 30 13:40 04.07.2020
532 Clouds 31 1011 55 10000 5.1 50 13:18 04.07.2020
533 Clouds 31 1011 52 10000 5.1 40 12:42 04.07.2020
534 Clouds 30 1011 55 10000 4.6 40 12:21 04.07.2020
535 Clouds 30 1011 52 10000 4.1 60 11:56 04.07.2020
536 Clouds 30 1011 52 10000 4.1 60 11:38 04.07.2020
537 Clouds 30 1011 62 10000 4.1 50 11:19 04.07.2020
538 Clouds 29 1011 62 10000 4.1 40 10:41 04.07.2020
539 Clouds 30 1011 58 10000 3.6 60 10:21 04.07.2020
540 Clouds 28 1011 62 10000 3.1 30 09:58 04.07.2020
541 Clouds 28 1011 62 10000 3.1 30 09:58 04.07.2020
542 Clouds 28 1011 62 10000 3.1 30 09:37 04.07.2020
543 Clouds 28 1011 58 10000 3.1 50 09:19 04.07.2020
544 Clouds 27 1011 69 10000 4.1 50 08:46 04.07.2020
545 Clouds 26 1011 74 10000 3.6 50 08:27 04.07.2020
546 Clouds 26 1011 78 10000 2.6 90 07:46 04.07.2020
547 Clouds 25 1011 83 10000 3.1 80 07:28 04.07.2020
548 Clouds 24 1011 83 10000 2.1 90 06:55 04.07.2020
549 Clouds 23 1011 83 10000 2.1 60 06:22 04.07.2020
550 Clouds 23 1011 83 10000 2.1 30 05:35 04.07.2020
551 Clouds 23 1011 83 10000 1.5 30 04:43 04.07.2020
552 Clear 23 1010 83 10000 3.1 40 02:51 04.07.2020
553 Clear 23 1010 88 10000 2.6 30 02:19 04.07.2020
554 Clear 24 1010 83 10000 4.1 40 01:31 04.07.2020
555 Clear 23 1010 83 10000 4.6 40 00:41 04.07.2020
556 Clear 24 1010 83 10000 4.6 40 00:22 04.07.2020
557 Clear 24 1010 83 10000 4.1 20 23:40 03.07.2020
558 Clear 24 1010 78 10000 3.6 30 23:19 03.07.2020
559 Clear 24 1010 78 10000 4.1 30 22:55 03.07.2020
560 Clear 24 1010 78 10000 4.1 30 22:37 03.07.2020
561 Clear 24 1010 78 10000 4.1 40 22:19 03.07.2020
562 Clear 24 1010 74 10000 4.6 50 21:41 03.07.2020
563 Clear 24 1010 74 10000 5.1 40 21:20 03.07.2020
564 Clouds 24 1009 74 10000 6.2 30 20:55 03.07.2020
565 Clear 25 1009 74 10000 6.2 30 20:37 03.07.2020
566 Clear 25 1009 74 10000 6.2 30 20:18 03.07.2020
567 Clear 26 1009 69 10000 6.7 30 19:41 03.07.2020
568 Clear 27 1009 61 10000 6.7 30 19:19 03.07.2020
569 Clear 27 1009 61 10000 6.7 30 18:55 03.07.2020
570 Clear 28 1009 58 10000 6.2 40 18:37 03.07.2020
571 Clear 28 1009 58 10000 6.2 40 18:18 03.07.2020
572 Clear 29 1008 55 10000 5.7 40 17:41 03.07.2020
573 Clear 29 1008 51 10000 6.2 50 17:22 03.07.2020
574 Clear 30 1009 48 10000 6.2 50 16:45 03.07.2020
575 Clear 30 1009 48 10000 6.2 50 16:26 03.07.2020
576 Clear 30 1009 52 10000 5.7 40 15:48 03.07.2020
577 Clear 31 1009 52 10000 5.7 40 15:25 03.07.2020
578 Clear 31 1009 48 10000 6.7 60 14:58 03.07.2020
579 Clear 31 1009 48 10000 6.7 60 14:40 03.07.2020
580 Clear 31 1009 48 10000 6.2 60 14:21 03.07.2020
581 Clear 30 1009 48 10000 6.2 60 13:48 03.07.2020
582 Clear 30 1009 48 10000 5.1 50 13:29 03.07.2020
583 Clear 30 1009 45 10000 6.2 50 12:57 03.07.2020
584 Clear 30 1009 48 10000 5.7 60 12:39 03.07.2020
585 Clear 30 1009 48 10000 5.7 60 12:20 03.07.2020
586 Clear 30 1009 48 10000 5.7 50 11:43 03.07.2020
587 Clear 30 1009 52 10000 5.7 50 11:25 03.07.2020
588 Clouds 29 1010 55 10000 6.2 50 10:58 03.07.2020
589 Clouds 29 1010 55 10000 6.2 50 10:39 03.07.2020
590 Clouds 29 1009 62 10000 5.7 20 10:20 03.07.2020
591 Clouds 28 1009 58 10000 5.1 40 09:55 03.07.2020
592 Clouds 27 1009 65 10000 5.1 30 09:37 03.07.2020
593 Clouds 27 1009 65 10000 5.1 30 09:18 03.07.2020
594 Clouds 27 1010 65 10000 5.1 20 08:40 03.07.2020
595 Clouds 26 1010 69 10000 5.1 20 08:19 03.07.2020
596 Clouds 26 1010 69 10000 4.1 50 07:48 03.07.2020
597 Clouds 25 1009 74 10000 4.1 40 07:26 03.07.2020
598 Clear 25 1009 78 10000 4.1 40 06:49 03.07.2020
599 Clear 23 1009 83 10000 4.1 40 06:18 03.07.2020
600 Clear 23 1009 83 10000 4.1 40 04:53 03.07.2020
601 Clear 23 1009 83 10000 5.1 30 03:28 03.07.2020
602 Clear 23 1009 83 10000 4.6 20 02:47 03.07.2020
603 Clear 23 1009 88 10000 5.1 20 02:25 03.07.2020
604 Clear 23 1009 83 10000 5.7 10 01:28 03.07.2020
605 Clear 23 1009 78 10000 5.7 20 00:49 03.07.2020
606 Clear 23 1010 83 10000 6.7 20 00:28 03.07.2020
607 Clear 23 1010 83 10000 5.1 20 23:47 02.07.2020
608 Clear 24 1010 78 10000 4.6 30 23:20 02.07.2020
609 Clear 24 1010 78 10000 5.1 40 22:58 02.07.2020
610 Clear 24 1010 78 10000 5.1 40 22:39 02.07.2020
611 Clear 24 1010 78 10000 5.7 30 22:20 02.07.2020
612 Clear 24 1010 78 10000 5.7 30 22:20 02.07.2020
613 Clear 24 1010 78 10000 5.1 40 21:55 02.07.2020
614 Clear 24 1010 74 10000 6.2 50 21:37 02.07.2020
615 Clear 24 1010 74 10000 6.2 50 21:18 02.07.2020
616 Clear 24 1010 69 10000 6.2 50 20:57 02.07.2020
617 Clear 24 1010 69 10000 6.2 50 20:39 02.07.2020
618 Clear 25 1010 69 10000 5.1 50 20:18 02.07.2020
619 Clear 26 1010 69 10000 7.2 40 19:41 02.07.2020
620 Clear 26 1010 69 10000 7.2 40 19:22 02.07.2020
621 Clear 27 1010 69 10000 7.7 30 18:57 02.07.2020
622 Clear 27 1010 69 10000 7.7 30 18:39 02.07.2020
623 Clear 28 1010 65 10000 7.7 30 18:20 02.07.2020
624 Clear 28 1010 58 10000 7.2 30 17:40 02.07.2020
625 Clear 29 1010 54 10000 8.7 50 17:20 02.07.2020
626 Clear 29 1010 54 10000 8.7 50 17:20 02.07.2020
627 Clear 29 1010 48 10000 8.7 40 16:56 02.07.2020
628 Clear 29 1010 48 10000 8.7 40 16:56 02.07.2020
629 Clear 29 1010 48 10000 8.7 40 16:38 02.07.2020
630 Clear 30 1010 48 10000 7.7 40 16:19 02.07.2020
631 Clear 30 1010 48 10000 8.2 40 15:55 02.07.2020
632 Clear 30 1010 52 10000 7.2 20 15:36 02.07.2020
633 Clear 30 1010 52 10000 7.2 20 15:36 02.07.2020
634 Clear 30 1010 52 10000 7.2 20 15:18 02.07.2020
635 Clear 31 1010 49 10000 6.7 30 14:42 02.07.2020
636 Clear 31 1010 49 10000 6.7 30 14:19 02.07.2020
637 Clear 31 1010 43 10000 6.7 50 13:55 02.07.2020
638 Clear 30 1011 38 10000 7.2 50 13:36 02.07.2020
639 Clear 30 1011 38 10000 7.2 50 13:18 02.07.2020
640 Clear 31 1011 40 10000 7.7 50 12:40 02.07.2020
641 Clear 31 1011 38 10000 7.2 60 12:22 02.07.2020
642 Clear 30 1011 40 10000 6.7 30 11:45 02.07.2020
643 Clear 30 1011 48 10000 6.2 30 11:27 02.07.2020
644 Clear 30 1011 48 10000 5.1 20 10:58 02.07.2020
645 Clear 30 1011 48 10000 5.1 20 10:39 02.07.2020
646 Clear 29 1011 51 10000 5.1 40 10:21 02.07.2020
647 Clear 29 1011 51 10000 5.1 30 09:43 02.07.2020
648 Clear 28 1011 58 10000 5.7 30 09:22 02.07.2020
649 Clear 27 1012 61 10000 4.1 50 08:58 02.07.2020
650 Clouds 26 1012 69 10000 4.6 70 08:39 02.07.2020
651 Clouds 26 1012 69 10000 4.6 70 08:19 02.07.2020
652 Clouds 25 1011 74 10000 4.6 50 07:41 02.07.2020
653 Clouds 25 1011 78 10000 4.1 40 07:20 02.07.2020
654 Clouds 24 1011 83 10000 4.6 40 06:41 02.07.2020
655 Clouds 23 1011 83 10000 5.1 30 06:20 02.07.2020
656 Clouds 23 1011 88 10000 4.6 20 05:47 02.07.2020
657 Clouds 23 1011 88 10000 6.2 360 04:50 02.07.2020
658 Clouds 23 1011 88 10000 5.1 360 03:33 02.07.2020
659 Clouds 23 1012 88 10000 4.1 30 01:49 02.07.2020
660 Clouds 23 1012 83 10000 5.1 40 00:28 02.07.2020
661 Clouds 24 1012 83 10000 4.6 30 23:57 01.07.2020
662 Clouds 24 1012 83 10000 5.7 20 23:38 01.07.2020
663 Clouds 24 1012 83 10000 5.7 20 23:20 01.07.2020
664 Clear 24 1012 83 10000 5.1 30 22:54 01.07.2020
665 Clear 24 1012 83 10000 6.2 20 22:36 01.07.2020
666 Clear 24 1012 83 10000 6.2 20 22:18 01.07.2020
667 Clear 24 1012 83 10000 5.1 20 21:55 01.07.2020
668 Clear 25 1012 78 10000 5.7 20 21:37 01.07.2020
669 Clear 25 1012 78 10000 5.7 20 21:19 01.07.2020
670 Clear 25 1012 74 10000 6.2 20 20:44 01.07.2020
671 Clear 25 1012 74 10000 6.7 10 20:25 01.07.2020
672 Clear 26 1012 69 10000 6.2 20 19:56 01.07.2020
673 Clear 26 1012 69 10000 6.2 20 19:38 01.07.2020
674 Clear 26 1012 69 10000 6.2 360 19:20 01.07.2020
675 Clear 27 1012 65 10000 6.7 10 18:54 01.07.2020
676 Clear 28 1012 69 10000 6.7 20 18:36 01.07.2020
677 Clear 28 1012 69 10000 6.7 20 18:18 01.07.2020
678 Clear 28 1012 62 10000 7.2 360 17:41 01.07.2020
679 Clear 28 1012 62 10000 7.2 360 17:41 01.07.2020
680 Clear 29 1012 58 10000 7.2 10 17:19 01.07.2020
681 Clear 30 1011 55 10000 6.7 360 16:48 01.07.2020
682 Clear 30 1012 55 10000 6.7 360 16:29 01.07.2020
683 Clear 31 1012 58 10000 6.2 350 15:58 01.07.2020
684 Clear 31 1012 58 10000 6.2 350 15:39 01.07.2020
685 Clear 31 1012 49 10000 5.1 360 15:21 01.07.2020
686 Clear 31 1012 52 10000 5.7 350 14:45 01.07.2020
687 Clear 31 1012 52 10000 4.6 350 14:22 01.07.2020
688 Clear 31 1012 52 10000 4.6 350 13:59 01.07.2020
689 Clear 31 1012 52 10000 4.6 350 13:39 01.07.2020
690 Clear 31 1012 48 10000 4.6 340 13:20 01.07.2020
691 Clear 31 1012 48 10000 5.1 350 12:58 01.07.2020
692 Clear 31 1013 52 10000 6.2 340 12:39 01.07.2020
693 Clear 30 1013 52 10000 6.2 340 12:20 01.07.2020
694 Clear 30 1013 45 10000 4.6 10 11:44 01.07.2020
695 Clear 30 1013 45 10000 4.6 10 11:44 01.07.2020
696 Clear 30 1013 45 10000 4.6 10 11:44 01.07.2020
697 Clear 30 1013 45 10000 4.6 10 11:44 01.07.2020
698 Clear 30 1013 45 10000 4.6 10 11:44 01.07.2020
699 Clear 30 1013 45 10000 4.6 10 11:44 01.07.2020
700 Clear 30 1013 45 10000 4.6 10 11:44 01.07.2020
701 Clear 30 1013 45 10000 4.6 10 11:44 01.07.2020
702 Clear 30 1013 45 10000 5.7 10 11:25 01.07.2020
703 Clear 29 1013 48 10000 5.1 10 10:59 01.07.2020
704 Clear 29 1013 48 10000 5.1 10 10:41 01.07.2020
705 Clear 29 1013 51 10000 5.1 20 10:22 01.07.2020
706 Clear 29 1013 45 10000 4.6 10 09:54 01.07.2020
707 Clear 28 1012 48 10000 5.7 360 09:36 01.07.2020
708 Clear 28 1012 48 10000 5.7 360 09:18 01.07.2020
709 Clear 27 1012 51 10000 6.2 360 08:41 01.07.2020
710 Clear 27 1012 48 10000 6.2 360 08:22 01.07.2020
711 Clear 27 1012 48 10000 6.2 360 07:57 01.07.2020
712 Clear 26 1012 51 10000 6.7 360 07:36 01.07.2020
713 Clear 26 1012 51 10000 6.7 360 07:18 01.07.2020
714 Clear 25 1012 47 10000 5.7 360 06:48 01.07.2020
715 Clear 22 1012 69 10000 4.1 350 06:27 01.07.2020
716 Clear 22 1011 68 10000 1.5 340 04:31 01.07.2020
717 Clear 22 1011 73 10000 3.1 350 03:46 01.07.2020
718 Clear 23 1011 73 10000 2.6 330 03:26 01.07.2020
719 Clear 23 1011 69 10000 1.5 360 02:36 01.07.2020
720 Clear 23 1011 69 10000 1.76 8 01:45 01.07.2020
721 Clear 23 1011 69 10000 1.5 100 00:41 01.07.2020
722 Clear 23 1011 61 10000 1.5 80 00:23 01.07.2020
723 Clear 24 1011 69 10000 1.5 70 23:41 30.06.2020
724 Clear 24 1011 69 10000 1.5 70 23:22 30.06.2020
725 Clear 24 1011 73 10000 2.1 80 22:43 30.06.2020
726 Clear 24 1011 73 10000 2.1 120 22:20 30.06.2020
727 Clear 25 1010 57 10000 1 0 21:59 30.06.2020
728 Clear 25 1010 57 10000 1 0 21:40 30.06.2020
729 Clear 25 1010 47 10000 2.1 100 21:19 30.06.2020
730 Clear 26 1010 45 10000 1.5 100 20:43 30.06.2020
731 Clear 26 1010 51 10000 2.1 250 20:21 30.06.2020
732 Clear 26 1010 54 10000 2.1 230 19:55 30.06.2020
733 Clear 27 1010 57 10000 2.1 240 19:36 30.06.2020
734 Clear 27 1010 57 10000 2.1 240 19:18 30.06.2020
735 Clear 29 1010 48 10000 2.1 230 18:42 30.06.2020
736 Clear 30 1010 45 10000 2.1 240 18:20 30.06.2020
737 Clear 30 1009 51 10000 3.1 250 17:54 30.06.2020
738 Clear 30 1009 51 10000 3.1 250 17:36 30.06.2020
739 Clear 30 1009 51 10000 3.6 250 17:18 30.06.2020
740 Clear 31 1010 45 10000 3.6 240 16:41 30.06.2020
741 Clear 30 1010 45 10000 4.1 240 16:21 30.06.2020
742 Clear 31 1010 48 10000 5.1 250 15:57 30.06.2020
743 Clear 30 1010 48 10000 5.1 250 15:38 30.06.2020
744 Clear 30 1010 45 10000 4.1 240 15:20 30.06.2020
745 Clear 29 1010 45 10000 4.1 240 14:44 30.06.2020
746 Clear 29 1010 51 10000 3.6 240 14:22 30.06.2020
747 Clear 30 1010 48 10000 3.1 230 13:59 30.06.2020
748 Clear 30 1010 48 10000 3.1 230 13:38 30.06.2020
749 Clear 29 1010 54 10000 3.6 240 13:19 30.06.2020
750 Clear 29 1010 54 10000 3.6 230 12:57 30.06.2020
751 Clear 28 1010 54 10000 3.6 230 12:39 30.06.2020
752 Clear 28 1010 57 10000 3.6 220 12:20 30.06.2020
753 Clear 28 1011 57 10000 3.6 230 11:57 30.06.2020
754 Clear 28 1011 57 10000 3.6 230 11:38 30.06.2020
755 Clear 28 1011 54 10000 3.1 220 11:18 30.06.2020
756 Clear 27 1010 54 10000 2.6 200 10:54 30.06.2020
757 Clear 29 1013 45 10000 7.2 20 16:38 28.06.2020
758 Clear 28 1013 42 10000 7.2 20 16:18 28.06.2020
759 Clear 29 1013 33 10000 7.7 50 15:54 28.06.2020
760 Clear 30 1013 33 10000 7.7 50 15:36 28.06.2020
761 Clear 29 1013 35 10000 8.2 50 15:18 28.06.2020
762 Clear 29 1014 35 10000 7.7 40 14:41 28.06.2020
763 Clear 29 1014 35 10000 7.2 40 14:23 28.06.2020
764 Clear 29 1014 37 10000 8.7 30 13:40 28.06.2020
765 Clear 29 1014 42 10000 7.7 20 13:21 28.06.2020
766 Clear 29 1014 42 10000 6.2 60 12:58 28.06.2020
767 Clear 29 1014 42 10000 6.2 60 12:38 28.06.2020
768 Clear 29 1014 45 10000 6.7 40 12:38 28.06.2020
769 Clear 29 1014 45 10000 6.7 40 12:19 28.06.2020
770 Clear 28 1014 48 10000 6.2 50 11:59 28.06.2020
771 Clear 28 1014 45 10000 6.7 90 11:40 28.06.2020
772 Clear 28 1014 45 10000 6.7 90 11:20 28.06.2020
773 Clear 28 1015 48 10000 5.7 50 10:58 28.06.2020
774 Clear 28 1015 48 10000 5.7 50 10:40 28.06.2020
775 Clear 27 1015 45 10000 7.2 70 10:21 28.06.2020
776 Clear 27 1015 47 10000 6.2 50 09:41 28.06.2020
777 Clear 26 1015 47 10000 6.7 40 09:23 28.06.2020
778 Clear 25 1015 54 10000 6.2 50 08:56 28.06.2020
779 Clear 25 1015 54 10000 6.2 50 08:36 28.06.2020
780 Clear 25 1015 65 10000 5.1 40 08:18 28.06.2020
781 Clear 23 1015 69 10000 4.6 50 07:33 28.06.2020
782 Clear 23 1014 73 10000 3.6 50 06:56 28.06.2020
783 Clear 22 1014 78 10000 3.1 50 06:32 28.06.2020
784 Clear 20 1014 78 10000 4.1 30 05:45 28.06.2020
785 Clear 20 1014 83 10000 3.6 50 04:24 28.06.2020
786 Clear 21 1014 83 10000 2.6 80 02:57 28.06.2020
787 Clear 21 1014 83 10000 3.1 50 02:20 28.06.2020
788 Clear 21 1014 83 10000 4.6 40 01:27 28.06.2020
789 Clear 21 1014 83 10000 3.6 40 00:55 28.06.2020
790 Clear 21 1014 78 10000 4.1 40 00:29 28.06.2020
791 Clear 21 1014 78 10000 4.1 40 23:46 27.06.2020
792 Clear 22 1015 78 10000 5.1 50 23:24 27.06.2020
793 Clear 22 1015 78 10000 5.7 40 22:59 27.06.2020
794 Clear 22 1015 78 10000 5.7 40 22:41 27.06.2020
795 Clear 22 1015 78 10000 5.7 40 22:23 27.06.2020
796 Clear 22 1015 78 10000 6.2 40 21:57 27.06.2020
797 Clear 22 1015 78 10000 6.2 40 21:39 27.06.2020
798 Clear 22 1015 73 10000 5.7 50 21:20 27.06.2020
799 Clear 23 1015 73 10000 7.2 20 20:45 27.06.2020
800 Clear 23 1015 73 10000 7.2 20 20:19 27.06.2020
801 Clear 23 1015 69 10000 6.7 30 19:59 27.06.2020
802 Clear 24 1015 57 10000 8.2 40 19:37 27.06.2020
803 Clear 24 1015 57 10000 8.2 40 19:19 27.06.2020
804 Clear 25 1015 57 10000 8.2 20 18:47 27.06.2020
805 Clear 25 1015 57 10000 8.2 20 18:47 27.06.2020
806 Clear 26 1015 54 10000 8.7 20 18:28 27.06.2020
807 Clear 26 1015 51 10000 9.3 20 17:59 27.06.2020
808 Clear 27 1015 51 10000 9.3 20 17:40 27.06.2020
809 Clear 27 1015 45 10000 8.7 30 17:20 27.06.2020
810 Clear 27 1015 45 10000 8.2 30 16:56 27.06.2020
811 Clear 28 1015 45 10000 8.2 30 16:38 27.06.2020
812 Clear 27 1015 39 10000 9.3 50 16:18 27.06.2020
813 Clear 28 1015 39 10000 8.7 40 15:42 27.06.2020
814 Clear 28 1016 42 10000 9.3 30 15:22 27.06.2020
815 Clouds 28 1016 45 10000 8.7 20 14:43 27.06.2020
816 Clouds 28 1016 45 10000 7.2 30 14:25 27.06.2020
817 Clear 27 1016 51 10000 7.7 20 13:59 27.06.2020
818 Clear 28 1016 45 10000 7.7 40 13:38 27.06.2020
819 Clear 28 1016 45 10000 7.7 40 13:20 27.06.2020
820 Clouds 28 1016 51 10000 7.2 40 12:58 27.06.2020
821 Clear 27 1016 51 10000 8.2 30 12:39 27.06.2020
822 Clear 27 1016 51 10000 8.2 30 12:21 27.06.2020
823 Clear 28 1016 48 10000 8.2 20 11:55 27.06.2020
824 Clear 28 1016 48 10000 8.2 20 11:37 27.06.2020
825 Clear 27 1017 51 10000 7.2 50 11:18 27.06.2020
826 Clear 27 1017 51 10000 7.2 50 11:18 27.06.2020
827 Clear 27 1017 51 10000 7.2 50 11:18 27.06.2020
828 Clear 27 1017 47 10000 7.2 30 10:39 27.06.2020
829 Clear 27 1017 48 10000 6.2 30 10:19 27.06.2020
830 Clear 26 1017 51 10000 5.1 40 09:41 27.06.2020
831 Clear 25 1017 54 10000 6.2 30 09:23 27.06.2020
832 Clouds 25 1017 61 10000 5.7 60 08:59 27.06.2020
833 Clouds 25 1017 61 10000 5.7 60 08:39 27.06.2020
834 Clouds 24 1017 65 10000 4.1 50 08:21 27.06.2020
835 Clouds 24 1017 65 10000 5.1 50 07:45 27.06.2020
836 Clouds 24 1017 73 10000 4.6 40 07:24 27.06.2020
837 Clear 23 1017 78 10000 4.6 40 06:46 27.06.2020
838 Clear 22 1017 78 10000 4.6 30 06:27 27.06.2020
839 Clear 20 1016 83 10000 3.6 30 04:23 27.06.2020
840 Clear 21 1016 83 10000 3.6 30 03:52 27.06.2020
841 Clear 21 1016 83 10000 3.6 30 02:56 27.06.2020
842 Clear 21 1016 83 10000 3.6 30 02:34 27.06.2020
843 Clouds 21 1017 78 10000 5.1 40 01:45 27.06.2020
844 Clouds 21 1017 78 10000 4.1 30 01:22 27.06.2020
845 Clouds 22 1017 78 10000 4.6 40 00:36 27.06.2020
846 Clear 22 1017 78 10000 4.1 50 23:45 26.06.2020
847 Clear 22 1017 78 10000 4.1 40 23:25 26.06.2020
848 Clear 22 1017 78 10000 3.6 40 22:56 26.06.2020
849 Clear 22 1017 78 10000 3.6 40 22:38 26.06.2020
850 Clear 23 1017 73 10000 4.6 50 22:19 26.06.2020
851 Clear 23 1017 73 10000 5.1 40 21:57 26.06.2020
852 Clear 23 1017 73 10000 5.1 40 21:37 26.06.2020
853 Clear 23 1017 73 10000 6.2 40 21:19 26.06.2020
854 Clear 23 1017 73 10000 6.2 50 20:43 26.06.2020
855 Clouds 23 1016 73 10000 6.7 30 20:21 26.06.2020
856 Clouds 23 1016 73 10000 7.7 30 19:47 26.06.2020
857 Clouds 24 1016 65 10000 8.2 40 19:23 26.06.2020
858 Clouds 25 1016 61 10000 8.7 40 18:57 26.06.2020
859 Clouds 25 1016 61 10000 9.3 30 18:37 26.06.2020
860 Clouds 25 1016 61 10000 9.3 30 18:19 26.06.2020
861 Clouds 26 1016 57 10000 8.2 40 17:44 26.06.2020
862 Clouds 26 1017 61 10000 8.2 30 17:24 26.06.2020
863 Clouds 27 1017 54 10000 8.7 20 16:49 26.06.2020
864 Clouds 27 1017 51 10000 8.2 40 16:26 26.06.2020
865 Clouds 27 1017 54 10000 8.7 30 15:55 26.06.2020
866 Clouds 27 1017 54 10000 8.7 30 15:37 26.06.2020
867 Clouds 27 1017 51 10000 8.7 30 15:19 26.06.2020
868 Clouds 27 1017 54 10000 8.7 50 14:56 26.06.2020
869 Clouds 27 1017 51 10000 8.2 40 14:38 26.06.2020
870 Clouds 27 1017 51 10000 8.2 40 14:19 26.06.2020
871 Clouds 27 1017 48 10000 7.7 30 13:44 26.06.2020
872 Clouds 27 1017 54 10000 9.3 50 13:22 26.06.2020
873 Clouds 26 1017 65 10000 7.7 40 12:43 26.06.2020
874 Clouds 27 1017 65 10000 7.7 40 12:24 26.06.2020
875 Clouds 25 1017 73 10000 7.7 30 11:59 26.06.2020
876 Clouds 25 1017 73 10000 7.7 30 11:41 26.06.2020
877 Clouds 25 1017 65 10000 7.2 40 11:22 26.06.2020
878 Clouds 25 1017 61 10000 8.2 30 10:59 26.06.2020
879 Clouds 25 1017 61 10000 8.2 30 10:40 26.06.2020
880 Clouds 25 1017 65 10000 7.2 40 10:19 26.06.2020
881 Clouds 25 1017 65 10000 7.7 30 09:54 26.06.2020
882 Clouds 25 1017 69 10000 6.2 40 09:36 26.06.2020
883 Clouds 25 1017 69 10000 6.2 40 09:18 26.06.2020
884 Clouds 24 1017 69 10000 6.2 30 08:43 26.06.2020
885 Clouds 24 1017 69 10000 5.1 40 08:25 26.06.2020
886 Clouds 23 1017 73 10000 5.1 50 07:45 26.06.2020
887 Clouds 23 1017 73 10000 5.7 40 07:23 26.06.2020
888 Clouds 22 1017 78 10000 3.6 60 06:48 26.06.2020
889 Clouds 22 1017 78 10000 3.1 50 06:29 26.06.2020
890 Clear 21 1016 88 10000 3.1 40 05:51 26.06.2020
891 Clear 21 1016 88 10000 2.6 40 04:44 26.06.2020
892 Clear 21 1016 88 10000 4.1 10 02:29 26.06.2020
893 Clouds 21 1017 88 10000 4.6 360 01:26 26.06.2020
894 Clouds 21 1017 88 10000 5.1 360 00:42 26.06.2020
895 Clouds 22 1017 83 10000 5.1 10 00:22 26.06.2020
896 Clouds 22 1017 83 10000 5.1 360 23:46 25.06.2020
897 Clouds 22 1017 83 10000 5.1 10 23:22 25.06.2020
898 Clouds 22 1017 83 10000 6.2 10 22:57 25.06.2020
899 Clouds 22 1017 83 10000 6.2 10 22:38 25.06.2020
900 Clouds 22 1017 83 10000 6.2 360 22:20 25.06.2020
901 Clouds 22 1017 83 10000 6.2 10 21:57 25.06.2020
902 Clouds 22 1017 83 10000 6.2 10 21:39 25.06.2020
903 Clouds 22 1017 83 8000 6.2 360 21:20 25.06.2020
904 Clouds 23 1017 83 8000 6.7 360 20:56 25.06.2020
905 Clouds 23 1017 78 8000 6.7 360 20:37 25.06.2020
906 Clouds 23 1017 78 8000 6.7 360 20:19 25.06.2020
907 Clouds 24 1017 69 10000 7.7 10 19:41 25.06.2020
908 Clouds 24 1017 73 10000 7.2 360 19:20 25.06.2020
909 Clouds 24 1017 73 10000 7.2 360 18:59 25.06.2020
910 Clouds 24 1017 73 10000 7.2 360 18:39 25.06.2020
911 Clouds 25 1017 69 10000 6.2 10 18:20 25.06.2020
912 Clouds 26 1017 65 10000 6.7 360 17:44 25.06.2020
913 Clouds 27 1017 61 10000 5.7 20 17:20 25.06.2020
914 Clouds 27 1017 54 10000 6.2 10 16:58 25.06.2020
915 Clouds 27 1017 54 10000 6.2 10 16:37 25.06.2020
916 Clouds 27 1017 58 10000 5.1 360 16:19 25.06.2020
917 Clouds 27 1018 51 10000 4.6 20 15:43 25.06.2020
918 Clouds 27 1018 51 10000 5.1 20 15:24 25.06.2020
919 Clouds 27 1018 51 10000 5.1 10 14:54 25.06.2020
920 Clouds 28 1018 45 10000 5.1 10 14:36 25.06.2020
921 Clouds 28 1018 45 10000 5.1 10 14:18 25.06.2020
922 Clouds 28 1018 48 10000 5.7 350 13:41 25.06.2020
923 Clouds 28 1018 48 10000 5.7 20 13:20 25.06.2020
924 Clouds 27 1018 54 10000 5.7 360 12:57 25.06.2020
925 Clouds 27 1018 54 10000 4.1 30 12:39 25.06.2020
926 Clouds 27 1018 54 10000 4.1 30 12:19 25.06.2020
927 Clouds 26 1018 51 10000 5.1 40 11:42 25.06.2020
928 Clouds 26 1018 51 10000 5.1 20 11:21 25.06.2020
929 Clouds 26 1019 57 10000 5.1 20 10:44 25.06.2020
930 Clouds 25 1018 61 10000 5.1 360 10:26 25.06.2020
931 Clouds 25 1018 65 10000 4.6 10 09:58 25.06.2020
932 Clouds 24 1018 65 10000 4.6 10 09:40 25.06.2020
933 Clouds 24 1018 65 10000 4.6 30 09:18 25.06.2020
934 Clouds 23 1018 69 10000 5.1 20 08:43 25.06.2020
935 Clouds 23 1018 69 10000 4.6 20 08:19 25.06.2020
936 Clouds 23 1018 78 10000 3.6 360 07:44 25.06.2020
937 Clouds 22 1018 78 10000 3.6 360 07:26 25.06.2020
938 Clouds 21 1018 88 10000 3.6 360 06:45 25.06.2020
939 Clouds 20 1018 88 10000 3.1 340 06:25 25.06.2020
940 Clouds 19 1018 93 10000 1.5 340 05:39 25.06.2020
941 Clear 19 1018 93 10000 2.1 340 03:51 25.06.2020
942 Clear 19 1018 88 10000 3.1 350 02:59 25.06.2020
943 Clear 20 1018 88 10000 3.1 350 02:41 25.06.2020
944 Clear 20 1018 83 10000 3.1 360 01:43 25.06.2020
945 Clear 19 1018 88 10000 3.1 350 00:52 25.06.2020
946 Clear 19 1018 88 10000 1.5 340 00:26 25.06.2020
947 Clear 20 1018 83 10000 3.6 350 23:59 24.06.2020
948 Clear 20 1018 83 10000 3.6 350 23:39 24.06.2020
949 Clear 20 1018 83 10000 3.6 360 23:21 24.06.2020
950 Clear 20 1018 83 10000 3.1 360 22:55 24.06.2020
951 Clear 20 1018 83 10000 3.1 360 22:36 24.06.2020
952 Clear 21 1018 83 10000 3.1 340 22:18 24.06.2020
953 Clear 21 1018 83 10000 3.6 340 21:54 24.06.2020
954 Clear 21 1018 83 10000 3.6 340 21:36 24.06.2020
955 Clouds 21 1018 73 10000 4.1 340 21:18 24.06.2020
956 Clouds 22 1018 73 10000 5.1 330 20:55 24.06.2020
957 Clouds 22 1018 73 10000 5.1 330 20:37 24.06.2020
958 Clear 22 1017 73 10000 5.1 330 20:37 24.06.2020
959 Clear 22 1017 73 10000 5.1 330 20:18 24.06.2020
960 Clouds 23 1017 64 10000 6.2 340 19:39 24.06.2020
961 Clear 24 1017 64 10000 6.2 330 19:21 24.06.2020
962 Clouds 24 1017 61 10000 5.1 330 18:59 24.06.2020
963 Clouds 25 1017 61 10000 5.1 330 18:41 24.06.2020
964 Clouds 25 1016 57 10000 4.1 310 18:23 24.06.2020
965 Clouds 25 1016 65 10000 3.1 320 17:58 24.06.2020
966 Clouds 26 1016 65 10000 3.1 270 17:40 24.06.2020
967 Clouds 26 1016 65 10000 3.1 270 17:19 24.06.2020
968 Clouds 25 1017 78 10000 3.6 260 16:56 24.06.2020
969 Clouds 25 1017 78 10000 3.6 260 16:56 24.06.2020
970 Clouds 25 1017 78 10000 3.6 260 16:56 24.06.2020
971 Clouds 25 1017 78 10000 3.6 260 16:38 24.06.2020
972 Clouds 25 1017 73 10000 2.6 210 16:20 24.06.2020
973 Clouds 25 1017 69 10000 2.1 210 15:56 24.06.2020
974 Clouds 24 1016 83 10000 1 0 15:38 24.06.2020
975 Clouds 24 1016 83 10000 1 0 15:19 24.06.2020
976 Rain 23 1016 88 10000 2.1 10 14:43 24.06.2020
977 Rain 24 1017 73 5000 4.6 250 14:24 24.06.2020
978 Clouds 25 1016 69 10000 4.6 230 13:43 24.06.2020
979 Clouds 25 1016 69 10000 5.1 230 13:22 24.06.2020
980 Clouds 25 1016 69 10000 4.6 230 12:57 24.06.2020
981 Clouds 25 1016 65 10000 4.6 220 12:38 24.06.2020
982 Clouds 25 1016 65 10000 4.6 220 12:20 24.06.2020
983 Clouds 25 1016 69 10000 4.1 220 11:55 24.06.2020
984 Clouds 24 1016 73 10000 4.6 220 11:37 24.06.2020
985 Clouds 24 1016 73 10000 4.6 220 11:18 24.06.2020
986 Clouds 24 1016 69 10000 4.6 230 10:41 24.06.2020
987 Clouds 24 1016 73 10000 4.6 250 10:19 24.06.2020
988 Clouds 24 1015 69 10000 5.1 230 09:43 24.06.2020
989 Clouds 24 1015 69 10000 4.1 240 09:22 24.06.2020
990 Clouds 23 1015 69 10000 3.1 240 08:43 24.06.2020
991 Clouds 23 1015 64 10000 3.1 250 08:21 24.06.2020
992 Clouds 22 1015 60 10000 3.1 240 07:51 24.06.2020
993 Clouds 22 1015 60 10000 2.1 270 07:32 24.06.2020
994 Clouds 21 1014 64 10000 2.1 280 06:51 24.06.2020
995 Clouds 21 1014 73 10000 2.1 260 06:26 24.06.2020
996 Clouds 20 1014 77 10000 2.1 280 05:58 24.06.2020
997 Clouds 20 1014 72 10000 1 260 05:20 24.06.2020
998 Clouds 20 1013 73 10000 1.5 250 04:35 24.06.2020
999 Clouds 20 1013 77 10000 2.1 260 03:35 24.06.2020
1000 Clouds 20 1013 77 10000 2.6 280 02:51 24.06.2020
1001 Clouds 20 1013 83 10000 2.1 270 01:45 24.06.2020
1002 Clouds 20 1013 83 10000 2.6 260 00:47 24.06.2020
1003 Clouds 20 1012 82 10000 1.5 240 00:27 24.06.2020
1004 Clouds 20 1012 82 10000 2.42 223 23:46 23.06.2020
1005 Clouds 20 1012 82 10000 1 0 23:20 23.06.2020
1006 Clouds 21 1012 77 10000 1.5 250 22:54 23.06.2020
1007 Clouds 21 1012 77 10000 1.5 250 22:36 23.06.2020
1008 Clouds 20 1012 77 10000 1.5 270 22:18 23.06.2020
1009 Clouds 21 1012 77 10000 2.1 220 21:41 23.06.2020
1010 Clouds 21 1012 77 10000 2.1 220 21:20 23.06.2020
1011 Clouds 21 1011 77 10000 2.1 200 20:56 23.06.2020
1012 Clouds 21 1011 73 10000 2.1 200 20:37 23.06.2020
1013 Clouds 21 1011 73 10000 2.1 200 20:18 23.06.2020
1014 Clouds 21 1011 77 10000 2.1 170 19:45 23.06.2020
1015 Clouds 21 1011 77 10000 2.1 170 19:27 23.06.2020
1016 Clouds 22 1011 64 10000 1 0 18:42 23.06.2020
1017 Clouds 21 1011 64 10000 1 0 18:19 23.06.2020
1018 Clouds 21 1010 68 10000 1 0 17:58 23.06.2020
1019 Clouds 21 1010 68 10000 2.6 360 17:39 23.06.2020
1020 Clouds 23 1010 68 10000 2.6 360 17:20 23.06.2020
1021 Clouds 22 1010 72 10000 5.1 330 16:55 23.06.2020
1022 Clouds 22 1010 72 10000 5.1 330 16:37 23.06.2020
1023 Clouds 22 1010 72 10000 5.1 330 16:37 23.06.2020
1024 Clouds 21 1010 72 10000 4.6 310 16:18 23.06.2020
1025 Clouds 22 1010 72 10000 4.6 310 16:18 23.06.2020
1026 Clouds 20 1010 72 10000 4.1 270 15:45 23.06.2020
1027 Rain 20 1011 82 10000 6.7 260 15:25 23.06.2020
1028 Thunderstorm 20 1012 88 10000 6.7 310 14:58 23.06.2020
1029 Thunderstorm 20 1012 88 10000 6.7 310 14:40 23.06.2020
1030 Thunderstorm 22 1011 82 10000 9.8 230 14:18 23.06.2020
1031 Thunderstorm 23 1010 64 10000 7.2 110 13:55 23.06.2020
1032 Thunderstorm 24 1010 60 10000 7.2 120 13:37 23.06.2020
1033 Thunderstorm 24 1010 60 10000 7.2 120 13:18 23.06.2020
1034 Clouds 25 1009 73 10000 5.1 170 12:40 23.06.2020
1035 Clouds 25 1009 73 10000 5.1 170 12:22 23.06.2020
1036 Clouds 26 1009 65 10000 3.1 170 11:44 23.06.2020
1037 Clouds 26 1009 69 10000 2.6 220 11:23 23.06.2020
1038 Clouds 27 1009 65 10000 3.6 160 10:59 23.06.2020
1039 Clouds 27 1009 65 10000 3.6 160 10:41 23.06.2020
1040 Clouds 26 1009 69 10000 3.6 160 10:41 23.06.2020
1041 Clouds 26 1009 69 10000 3.6 160 10:22 23.06.2020
1042 Clouds 26 1009 65 10000 1.5 0 09:58 23.06.2020
1043 Clouds 25 1009 69 10000 2.6 100 09:39 23.06.2020
1044 Clouds 25 1009 69 10000 2.6 100 09:20 23.06.2020
1045 Clouds 24 1010 73 10000 3.1 110 08:47 23.06.2020
1046 Clouds 23 1009 73 10000 2.6 120 08:27 23.06.2020
1047 Clouds 23 1009 73 10000 3.6 110 07:56 23.06.2020
1048 Clouds 23 1009 73 10000 2.1 70 07:38 23.06.2020
1049 Clouds 23 1009 73 10000 2.1 70 07:19 23.06.2020
1050 Clouds 23 1009 73 10000 2.1 70 07:19 23.06.2020
1051 Clouds 22 1009 83 10000 3.1 50 06:43 23.06.2020
1052 Clouds 22 1009 83 10000 3.1 50 06:25 23.06.2020
1053 Clouds 20 1009 83 6000 3.6 50 05:39 23.06.2020
1054 Clear 19 1008 88 10000 3.6 340 03:29 23.06.2020
1055 Clear 19 1008 88 10000 3.1 340 02:54 23.06.2020
1056 Clear 20 1008 83 10000 3.1 360 02:35 23.06.2020
1057 Clouds 20 1008 83 10000 3.6 340 01:46 23.06.2020
1058 Clouds 20 1008 83 10000 3.6 340 01:28 23.06.2020
1059 Clouds 20 1008 83 10000 3.1 340 00:53 23.06.2020
1060 Clouds 20 1008 83 10000 2.6 330 00:22 23.06.2020
1061 Clouds 21 1008 78 10000 2.6 360 23:55 22.06.2020
1062 Clouds 21 1008 78 10000 2.6 360 23:55 22.06.2020
1063 Clouds 21 1008 78 10000 2.6 360 23:37 22.06.2020
1064 Clouds 21 1008 69 10000 2.6 40 23:18 22.06.2020
1065 Clouds 22 1008 69 10000 3.6 50 22:55 22.06.2020
1066 Clouds 22 1008 64 10000 4.1 50 22:37 22.06.2020
1067 Clouds 22 1008 64 10000 4.1 50 22:18 22.06.2020
1068 Clouds 22 1008 64 10000 3.1 50 21:54 22.06.2020
1069 Clouds 22 1008 64 10000 3.1 50 21:36 22.06.2020
1070 Clear 22 1008 64 10000 4.1 50 21:18 22.06.2020
1071 Clear 23 1008 64 10000 4.1 30 20:41 22.06.2020
1072 Clouds 23 1008 64 10000 4.1 10 20:21 22.06.2020
1073 Clouds 24 1007 53 10000 4.1 30 19:44 22.06.2020
1074 Clouds 24 1007 53 10000 4.1 30 19:20 22.06.2020
1075 Clouds 24 1007 53 10000 4.1 30 18:59 22.06.2020
1076 Clouds 25 1007 50 10000 5.1 40 18:39 22.06.2020
1077 Rain 25 1007 50 10000 5.1 40 18:21 22.06.2020
1078 Rain 25 1007 54 10000 5.1 50 17:56 22.06.2020
1079 Clouds 25 1008 61 10000 5.1 20 17:37 22.06.2020
1080 Clouds 26 1008 54 10000 5.7 10 17:19 22.06.2020
1081 Clouds 27 1007 57 10000 4.6 30 16:43 22.06.2020
1082 Clouds 27 1007 57 10000 4.6 30 16:24 22.06.2020
1083 Clouds 27 1007 54 10000 5.7 10 15:59 22.06.2020
1084 Clouds 27 1007 57 10000 3.6 40 15:40 22.06.2020
1085 Clouds 27 1007 57 10000 3.6 40 15:22 22.06.2020
1086 Clouds 27 1008 57 10000 2.1 250 14:41 22.06.2020
1087 Clouds 27 1008 57 10000 2.1 250 14:22 22.06.2020
1088 Clouds 26 1008 57 10000 3.1 190 13:59 22.06.2020
1089 Clouds 27 1008 54 10000 3.1 200 13:39 22.06.2020
1090 Clouds 26 1008 57 10000 3.1 200 13:21 22.06.2020
1091 Clouds 27 1008 57 10000 3.1 200 12:46 22.06.2020
1092 Clouds 26 1008 57 10000 3.1 200 12:25 22.06.2020
1093 Clouds 26 1008 57 10000 3.6 200 11:59 22.06.2020
1094 Clouds 26 1008 61 10000 3.6 170 11:37 22.06.2020
1095 Clouds 25 1008 65 10000 3.1 160 11:19 22.06.2020
1096 Clouds 25 1008 65 10000 3.1 160 10:55 22.06.2020
1097 Clouds 25 1008 73 10000 3.1 180 10:37 22.06.2020
1098 Clouds 25 1008 73 10000 3.1 170 10:18 22.06.2020
1099 Clouds 24 1008 73 10000 2.1 230 09:56 22.06.2020
1100 Clouds 24 1008 73 10000 2.1 230 09:38 22.06.2020
1101 Clouds 24 1008 73 10000 1 0 09:18 22.06.2020
1102 Clouds 23 1008 73 10000 1 0 08:54 22.06.2020
1103 Clouds 23 1008 73 10000 2.1 90 08:36 22.06.2020
1104 Clouds 23 1008 78 10000 2.1 100 08:18 22.06.2020
1105 Clouds 22 1007 78 10000 2.1 80 07:44 22.06.2020
1106 Clouds 22 1007 78 10000 1.5 70 07:23 22.06.2020
1107 Clouds 20 1007 88 10000 1.5 40 06:38 22.06.2020
1108 Clouds 19 1007 88 10000 2.1 50 06:19 22.06.2020
1109 Clouds 18 1007 88 10000 1.5 80 05:41 22.06.2020
1110 Clear 19 1007 83 10000 2.6 10 02:59 22.06.2020
1111 Clouds 18 1007 88 10000 3.1 350 01:38 22.06.2020
1112 Clouds 19 1006 82 10000 2.71 26 00:43 22.06.2020
1113 Clouds 19 1006 82 10000 2.6 35 00:22 22.06.2020
1114 Clouds 19 1006 82 10000 2.6 35 23:55 21.06.2020
1115 Clouds 19 1006 82 10000 2.6 35 23:55 21.06.2020
1116 Clouds 19 1006 77 10000 1.5 330 23:36 21.06.2020
1117 Clouds 19 1006 73 10000 1 0 23:18 21.06.2020
1118 Clouds 19 1006 73 10000 1 0 22:55 21.06.2020
1119 Clouds 20 1006 73 10000 2.1 80 22:36 21.06.2020
1120 Clouds 20 1006 73 10000 3.1 110 22:18 21.06.2020
1121 Clouds 20 1006 73 10000 3.1 110 21:54 21.06.2020
1122 Clouds 20 1006 77 10000 3.1 90 21:36 21.06.2020
1123 Clouds 21 1006 73 10000 4.1 100 21:18 21.06.2020
1124 Clouds 22 1006 69 10000 3.6 50 20:40 21.06.2020
1125 Clouds 22 1006 69 10000 3.1 50 20:19 21.06.2020
1126 Clouds 22 1006 69 10000 3.1 50 19:59 21.06.2020
1127 Clouds 22 1006 69 10000 3.1 60 19:40 21.06.2020
1128 Clouds 23 1004 64 10000 4.6 50 19:20 21.06.2020
1129 Clouds 23 1004 64 10000 4.6 50 18:55 21.06.2020
1130 Clouds 23 1005 69 10000 3.6 360 18:37 21.06.2020
1131 Rain 23 1007 69 10000 5.7 330 18:19 21.06.2020
1132 Rain 23 1007 69 10000 5.7 330 18:19 21.06.2020
1133 Rain 23 1007 64 10000 6.7 330 17:41 21.06.2020
1134 Rain 23 1007 64 10000 6.7 330 17:21 21.06.2020
1135 Clouds 24 1006 61 10000 6.2 340 16:57 21.06.2020
1136 Clouds 25 1006 57 10000 6.2 350 16:39 21.06.2020
1137 Clear 26 1005 54 10000 6.2 10 16:20 21.06.2020
1138 Clear 27 1005 51 10000 5.7 20 15:40 21.06.2020
1139 Clear 27 1005 51 10000 5.7 20 15:21 21.06.2020
1140 Clear 27 1006 51 10000 6.2 20 14:58 21.06.2020
1141 Clear 27 1006 54 10000 5.7 20 14:37 21.06.2020
1142 Clear 27 1006 51 10000 5.7 20 14:18 21.06.2020
1143 Clouds 27 1006 54 10000 5.1 20 13:43 21.06.2020
1144 Clear 26 1007 57 10000 5.7 10 13:25 21.06.2020
1145 Clear 26 1007 57 10000 5.7 10 12:59 21.06.2020
1146 Clouds 26 1007 54 10000 6.2 20 12:41 21.06.2020
1147 Clouds 26 1007 54 10000 6.2 20 12:23 21.06.2020
1148 Clouds 26 1007 51 10000 6.7 10 11:43 21.06.2020
1149 Clouds 26 1007 51 10000 6.7 10 11:24 21.06.2020
1150 Clear 26 1007 51 10000 6.2 10 10:59 21.06.2020
1151 Clear 26 1007 54 10000 6.7 20 10:40 21.06.2020
1152 Clear 26 1007 54 10000 6.7 20 10:22 21.06.2020
1153 Clouds 25 1007 61 10000 6.7 360 09:44 21.06.2020
1154 Clouds 25 1007 61 10000 6.7 360 09:25 21.06.2020
1155 Clouds 25 1007 54 10000 6.2 360 08:59 21.06.2020
1156 Clouds 24 1007 57 10000 6.7 20 08:41 21.06.2020
1157 Clouds 24 1007 57 10000 6.7 20 08:20 21.06.2020
1158 Rain 24 1007 61 10000 4.6 10 07:59 21.06.2020
1159 Rain 24 1007 64 10000 4.1 360 07:39 21.06.2020
1160 Rain 23 1007 64 10000 4.1 360 07:19 21.06.2020
1161 Rain 21 1007 73 10000 3.1 360 06:46 21.06.2020
1162 Clear 21 1007 73 10000 2.6 350 05:57 21.06.2020
1163 Clouds 21 1007 68 10000 4.6 330 04:48 21.06.2020
1164 Clear 21 1007 73 10000 1 0 03:20 21.06.2020
1165 Clear 21 1007 69 10000 1 0 02:46 21.06.2020
1166 Clear 21 1007 64 10000 1.5 120 01:48 21.06.2020
1167 Clear 22 1007 64 10000 0.5 0 01:20 21.06.2020
1168 Clear 22 1008 69 10000 2.1 120 00:46 21.06.2020
1169 Clear 22 1008 69 10000 2.1 120 00:27 21.06.2020
1170 Clear 22 1008 64 10000 2.1 100 23:57 20.06.2020
1171 Clear 23 1008 65 10000 1.5 60 23:37 20.06.2020
1172 Clear 22 1008 69 10000 1 0 23:18 20.06.2020
1173 Clear 22 1008 69 10000 1 0 22:55 20.06.2020
1174 Rain 22 1008 73 10000 0.5 0 22:36 20.06.2020
1175 Rain 22 1008 69 10000 1.5 110 22:18 20.06.2020
1176 Rain 23 1008 69 10000 1.5 110 21:54 20.06.2020
1177 Rain 23 1008 69 10000 1.43 196 21:36 20.06.2020
1178 Clouds 23 1008 69 10000 1.08 194 21:18 20.06.2020
1179 Clouds 24 1008 65 10000 1.5 220 20:54 20.06.2020
1180 Clouds 24 1008 65 10000 1.5 220 20:36 20.06.2020
1181 Clear 24 1008 65 10000 2.1 210 20:18 20.06.2020
1182 Clear 25 1008 65 10000 2.6 190 19:41 20.06.2020
1183 Clear 26 1008 73 10000 2.6 190 19:21 20.06.2020
1184 Clouds 27 1008 65 10000 2.6 190 18:43 20.06.2020
1185 Clouds 27 1008 65 10000 2.6 190 18:21 20.06.2020
1186 Clouds 28 1008 65 10000 3.1 210 17:58 20.06.2020
1187 Clouds 28 1008 61 10000 2.6 220 17:40 20.06.2020
1188 Clouds 28 1008 61 10000 2.6 220 17:40 20.06.2020
1189 Clouds 28 1008 61 10000 2.6 220 17:20 20.06.2020
1190 Clouds 28 1008 65 10000 3.1 200 16:56 20.06.2020
1191 Clouds 27 1009 69 10000 3.6 210 16:37 20.06.2020
1192 Clouds 27 1009 69 10000 3.6 200 16:18 20.06.2020
1193 Clouds 27 1009 65 10000 4.1 210 15:42 20.06.2020
1194 Clouds 26 1009 65 10000 4.6 230 15:18 20.06.2020
1195 Clouds 27 1009 69 10000 4.6 230 14:43 20.06.2020
1196 Clouds 26 1009 69 10000 4.6 230 14:21 20.06.2020
1197 Clouds 27 1010 74 10000 4.6 220 13:55 20.06.2020
1198 Clouds 27 1010 73 10000 4.6 220 13:37 20.06.2020
1199 Clouds 26 1010 73 10000 4.6 220 13:19 20.06.2020
1200 Clouds 26 1010 78 10000 4.6 230 12:42 20.06.2020
1201 Clouds 26 1010 73 10000 4.1 220 12:21 20.06.2020
1202 Clouds 26 1010 73 10000 4.1 220 11:57 20.06.2020
1203 Clouds 26 1011 73 10000 4.6 210 11:38 20.06.2020
1204 Clouds 26 1011 69 10000 4.1 200 11:20 20.06.2020
1205 Clear 25 1011 73 10000 4.6 230 10:50 20.06.2020
1206 Clear 25 1011 65 10000 4.1 240 10:22 20.06.2020
1207 Clear 25 1011 65 10000 4.1 240 09:56 20.06.2020
1208 Clear 25 1011 73 10000 4.6 240 09:38 20.06.2020
1209 Clear 25 1011 73 10000 4.6 240 09:20 20.06.2020
1210 Clear 24 1011 83 10000 3.1 240 08:46 20.06.2020
1211 Clear 24 1011 83 10000 3.1 240 08:27 20.06.2020
1212 Clear 23 1011 88 10000 4.1 250 07:52 20.06.2020
1213 Clouds 22 1010 83 10000 4.1 260 07:28 20.06.2020
1214 Clouds 22 1010 88 10000 3.6 260 06:58 20.06.2020
1215 Clouds 21 1010 88 10000 3.1 250 06:23 20.06.2020
1216 Clouds 19 1010 88 10000 3.1 260 05:53 20.06.2020
1217 Clouds 19 1010 88 10000 2.1 250 05:25 20.06.2020
1218 Clear 19 1010 88 10000 1.5 250 02:53 20.06.2020
1219 Rain 19 1010 88 10000 1.5 360 01:49 20.06.2020
1220 Rain 19 1010 82 10000 4.24 262 01:22 20.06.2020
1221 Rain 19 1010 88 10000 2.6 340 00:22 20.06.2020
1222 Rain 19 1010 88 10000 2.6 340 23:58 19.06.2020
1223 Rain 19 1010 88 10000 2.1 320 23:38 19.06.2020
1224 Rain 19 1010 88 10000 2.1 320 23:18 19.06.2020
1225 Thunderstorm 21 1011 77 10000 9.8 330 22:41 19.06.2020
1226 Thunderstorm 21 1011 77 10000 9.8 330 22:23 19.06.2020
1227 Thunderstorm 21 1010 88 10000 1 0 21:59 19.06.2020
1228 Clouds 21 1010 88 10000 2.1 120 21:38 19.06.2020
1229 Clouds 21 1010 88 10000 2.1 120 21:18 19.06.2020
1230 Clear 21 1010 94 10000 1 130 20:58 19.06.2020
1231 Clear 21 1010 88 10000 1.5 140 20:40 19.06.2020
1232 Rain 21 1010 88 10000 1.5 140 20:21 19.06.2020
1233 Rain 22 1010 83 10000 2.1 120 19:57 19.06.2020
1234 Rain 22 1010 83 10000 2.1 110 19:39 19.06.2020
1235 Rain 23 1010 83 10000 2.1 110 19:21 19.06.2020
1236 Clouds 23 1010 88 10000 2.1 100 18:42 19.06.2020
1237 Clouds 23 1010 88 10000 2.1 100 18:22 19.06.2020
1238 Clouds 23 1010 88 10000 1.5 120 17:59 19.06.2020
1239 Clouds 23 1010 88 10000 1.5 110 17:40 19.06.2020
1240 Clouds 23 1010 88 10000 1.5 110 17:22 19.06.2020
1241 Rain 23 1010 88 10000 1.5 130 16:56 19.06.2020
1242 Rain 22 1010 88 10000 1.5 70 16:37 19.06.2020
1243 Rain 22 1010 88 10000 1.5 70 16:19 19.06.2020
1244 Clouds 21 1010 94 10000 2.6 100 15:43 19.06.2020
1245 Clouds 21 1010 94 10000 2.6 100 15:24 19.06.2020
1246 Rain 21 1011 93 10000 2.6 70 14:56 19.06.2020
1247 Thunderstorm 22 1011 93 8000 3.6 60 14:38 19.06.2020
1248 Thunderstorm 21 1011 83 2000 6.2 230 14:19 19.06.2020
1249 Thunderstorm 23 1011 73 10000 4.6 140 13:45 19.06.2020
1250 Thunderstorm 23 1011 73 10000 4.6 140 13:26 19.06.2020
1251 Clouds 21 1011 73 10000 5.1 100 12:49 19.06.2020
1252 Clouds 22 1011 73 10000 5.1 100 12:24 19.06.2020
1253 Thunderstorm 22 1011 73 10000 2.6 210 11:59 19.06.2020
1254 Clouds 22 1011 78 10000 4.6 240 11:40 19.06.2020
1255 Clouds 23 1011 73 10000 4.6 240 11:19 19.06.2020
1256 Clouds 24 1011 73 10000 3.6 240 10:55 19.06.2020
1257 Clouds 24 1011 73 10000 3.6 240 10:55 19.06.2020
1258 Clouds 23 1011 73 10000 3.6 240 10:37 19.06.2020
1259 Clouds 23 1011 69 10000 2.6 230 10:18 19.06.2020
1260 Clouds 22 1011 78 10000 2.6 240 09:41 19.06.2020
1261 Clouds 22 1011 78 10000 2.6 240 09:21 19.06.2020
1262 Clouds 23 1011 73 10000 3.1 260 08:45 19.06.2020
1263 Clouds 22 1011 73 10000 3.1 260 08:27 19.06.2020
1264 Clouds 22 1011 78 10000 2.6 250 07:57 19.06.2020
1265 Rain 21 1011 88 10000 1.5 260 07:39 19.06.2020
1266 Rain 21 1011 88 10000 1.5 260 07:39 19.06.2020
1267 Rain 21 1011 88 10000 1.5 260 07:20 19.06.2020
1268 Rain 21 1010 83 10000 2.6 250 06:36 19.06.2020
1269 Rain 20 1010 83 10000 1.5 250 05:50 19.06.2020
1270 Rain 20 1010 88 10000 2.1 270 04:30 19.06.2020
1271 Clear 20 1010 83 10000 2.6 260 03:22 19.06.2020
1272 Clouds 20 1010 83 10000 2.1 250 00:59 19.06.2020
1273 Clouds 20 1010 83 10000 2.1 240 00:41 19.06.2020
1274 Clouds 20 1010 83 10000 2.1 240 00:21 19.06.2020
1275 Clear 20 1010 83 10000 2.1 240 23:42 18.06.2020
1276 Clear 21 1010 83 10000 1.5 240 23:24 18.06.2020
1277 Clear 21 1010 83 10000 1.5 240 22:59 18.06.2020
1278 Clear 21 1010 83 10000 2.1 240 22:39 18.06.2020
1279 Clear 21 1010 83 10000 2.1 240 22:19 18.06.2020
1280 Clear 21 1010 78 10000 1.5 240 22:19 18.06.2020
1281 Clear 21 1010 78 10000 2.6 220 21:40 18.06.2020
1282 Rain 21 1009 78 10000 2.6 220 21:21 18.06.2020
1283 Rain 21 1009 78 10000 2.6 220 20:59 18.06.2020
1284 Rain 21 1009 78 10000 2.6 240 20:40 18.06.2020
1285 Rain 22 1009 78 10000 2.6 240 20:19 18.06.2020
1286 Rain 22 1009 78 10000 3.1 230 19:54 18.06.2020
1287 Rain 23 1009 73 10000 2.6 240 19:36 18.06.2020
1288 Clouds 24 1009 73 10000 3.1 240 19:18 18.06.2020
1289 Clouds 24 1009 73 10000 3.1 250 18:38 18.06.2020
1290 Clouds 25 1009 64 10000 2.1 180 18:19 18.06.2020
1291 Clouds 25 1009 64 10000 2.1 180 18:19 18.06.2020
1292 Clouds 25 1009 64 10000 2.1 140 17:45 18.06.2020
1293 Clouds 26 1009 64 10000 2.1 140 17:25 18.06.2020
1294 Clouds 25 1009 64 10000 2.6 160 16:56 18.06.2020
1295 Clouds 25 1009 69 10000 2.6 140 16:38 18.06.2020
1296 Clouds 25 1009 69 10000 3.6 150 16:20 18.06.2020
1297 Clouds 24 1009 69 10000 3.6 150 15:57 18.06.2020
1298 Clouds 24 1009 73 10000 3.1 120 15:38 18.06.2020
1299 Clouds 24 1009 73 10000 3.1 120 15:18 18.06.2020
1300 Clouds 23 1009 78 10000 3.1 70 14:55 18.06.2020
1301 Rain 23 1009 83 10000 3.1 40 14:36 18.06.2020
1302 Rain 23 1009 83 10000 4.1 30 14:18 18.06.2020
1303 Thunderstorm 22 1009 77 10000 6.2 330 13:41 18.06.2020
1304 Thunderstorm 22 1009 77 10000 6.2 330 13:23 18.06.2020
1305 Thunderstorm 23 1009 64 10000 3.6 80 12:56 18.06.2020
1306 Thunderstorm 23 1009 53 10000 3.6 350 12:37 18.06.2020
1307 Thunderstorm 23 1009 53 10000 3.6 350 12:19 18.06.2020
1308 Clouds 23 1009 65 10000 3.6 0 11:47 18.06.2020
1309 Clouds 23 1009 61 10000 3.6 210 11:21 18.06.2020
1310 Clouds 23 1009 61 10000 3.6 210 10:56 18.06.2020
1311 Clouds 23 1009 61 10000 2.1 0 10:38 18.06.2020
1312 Clouds 23 1009 65 10000 1.5 0 10:18 18.06.2020
1313 Clouds 23 1009 73 10000 2.6 10 09:42 18.06.2020
1314 Clouds 23 1009 73 10000 2.6 10 09:23 18.06.2020
1315 Clouds 23 1008 64 10000 2.1 330 08:41 18.06.2020
1316 Clouds 23 1008 64 10000 2.1 330 08:23 18.06.2020
1317 Clouds 23 1008 64 10000 2.1 360 07:59 18.06.2020
1318 Clouds 22 1008 78 10000 3.1 350 07:40 18.06.2020
1319 Clouds 22 1008 83 10000 3.1 350 07:21 18.06.2020
1320 Clouds 21 1008 83 10000 3.1 330 06:28 18.06.2020
1321 Clouds 20 1007 88 10000 1.5 340 04:27 18.06.2020
1322 Clouds 20 1007 88 10000 2.6 330 03:26 18.06.2020
1323 Clouds 21 1008 78 10000 1.5 130 01:40 18.06.2020
1324 Rain 21 1008 83 10000 2.1 10 01:18 18.06.2020
1325 Rain 21 1008 83 10000 2.1 10 01:18 18.06.2020
1326 Rain 21 1008 83 10000 2.1 10 00:49 18.06.2020
1327 Rain 21 1008 83 10000 2.1 10 00:24 18.06.2020
1328 Rain 21 1007 83 10000 3.1 340 23:47 17.06.2020
1329 Rain 21 1007 83 10000 3.1 340 23:23 17.06.2020
1330 Rain 22 1008 73 10000 2.1 10 22:59 17.06.2020
1331 Rain 22 1008 73 10000 2.1 10 22:59 17.06.2020
1332 Rain 22 1008 73 10000 1.5 50 22:40 17.06.2020
1333 Clear 22 1008 69 10000 2.1 30 22:21 17.06.2020
1334 Clear 23 1008 69 10000 2.1 30 21:58 17.06.2020
1335 Clear 23 1007 69 10000 3.1 50 21:39 17.06.2020
1336 Clouds 23 1007 69 10000 3.1 20 21:20 17.06.2020
1337 Clouds 23 1007 69 10000 3.1 20 20:55 17.06.2020
1338 Clouds 23 1007 64 10000 5.1 30 20:36 17.06.2020
1339 Clear 23 1007 65 10000 5.7 20 20:18 17.06.2020
1340 Clear 24 1007 69 10000 5.1 360 19:41 17.06.2020
1341 Rain 25 1006 61 10000 4.6 20 19:19 17.06.2020
1342 Rain 26 1006 65 10000 5.7 20 18:48 17.06.2020
1343 Clear 26 1006 65 10000 5.7 20 18:28 17.06.2020
1344 Clouds 28 1006 58 10000 5.7 350 17:47 17.06.2020
1345 Clouds 28 1006 45 10000 4.1 240 17:23 17.06.2020
1346 Clouds 28 1006 45 10000 4.1 240 16:59 17.06.2020
1347 Clouds 28 1006 45 10000 4.1 240 16:59 17.06.2020
1348 Clouds 29 1006 42 10000 3.6 240 16:40 17.06.2020
1349 Clouds 29 1006 42 10000 3.6 240 16:21 17.06.2020
1350 Clouds 28 1006 48 10000 5.7 240 15:59 17.06.2020
1351 Clouds 27 1006 48 10000 5.7 250 15:39 17.06.2020
1352 Clouds 29 1006 48 10000 5.7 250 15:21 17.06.2020
1353 Clouds 29 1006 48 10000 5.7 250 15:21 17.06.2020
1354 Clouds 29 1006 48 10000 5.7 250 15:21 17.06.2020
1355 Clouds 29 1006 51 10000 4.1 240 14:58 17.06.2020
1356 Clouds 28 1007 65 10000 4.1 240 14:39 17.06.2020
1357 Clouds 29 1007 65 10000 4.1 240 14:19 17.06.2020
1358 Clouds 29 1007 65 10000 3.6 240 13:57 17.06.2020
1359 Clouds 28 1007 74 10000 3.6 220 13:38 17.06.2020
1360 Clouds 28 1007 74 10000 3.6 220 13:20 17.06.2020
1361 Clouds 28 1007 74 10000 4.1 220 13:20 17.06.2020
1362 Clouds 28 1007 69 10000 3.6 220 12:43 17.06.2020
1363 Clouds 28 1007 69 10000 3.6 220 12:23 17.06.2020
1364 Clouds 27 1007 69 10000 3.6 220 11:58 17.06.2020
1365 Clouds 27 1008 73 10000 3.6 200 11:38 17.06.2020
1366 Clouds 27 1008 73 10000 3.6 200 11:20 17.06.2020
1367 Clouds 26 1008 69 10000 2.6 220 10:39 17.06.2020
1368 Clouds 26 1008 73 10000 2.6 200 10:19 17.06.2020
1369 Clouds 26 1008 73 10000 2.6 200 10:19 17.06.2020
1370 Clouds 25 1008 73 10000 2.6 200 09:58 17.06.2020
1371 Clouds 25 1008 78 10000 2.6 210 09:40 17.06.2020
1372 Clear 24 1008 83 10000 3.1 200 09:20 17.06.2020
1373 Clouds 24 1008 78 10000 2.1 190 08:45 17.06.2020
1374 Clouds 24 1008 78 10000 2.1 190 08:21 17.06.2020
1375 Clouds 23 1008 83 10000 1 0 07:56 17.06.2020
1376 Clouds 22 1008 83 10000 1 0 07:38 17.06.2020
1377 Clouds 23 1007 88 10000 3.1 330 07:20 17.06.2020
1378 Clouds 22 1007 94 10000 2.1 320 06:55 17.06.2020
1379 Clouds 21 1007 94 10000 2.1 320 06:37 17.06.2020
1380 Clouds 21 1007 88 10000 1.5 280 06:19 17.06.2020
1381 Clear 19 1007 88 10000 2.1 330 04:53 17.06.2020
1382 Clear 20 1007 88 10000 2.6 310 02:49 17.06.2020
1383 Clouds 21 1007 78 10000 3.1 40 01:29 17.06.2020
1384 Clouds 22 1007 78 10000 3.6 360 00:38 17.06.2020
1385 Clouds 22 1007 78 10000 3.6 360 00:19 17.06.2020
1386 Clouds 22 1007 78 10000 3.6 360 23:55 16.06.2020
1387 Clouds 22 1007 78 10000 4.1 20 23:37 16.06.2020
1388 Clouds 22 1007 78 10000 4.6 20 23:18 16.06.2020
1389 Clouds 23 1007 78 10000 5.7 20 22:40 16.06.2020
1390 Clouds 23 1007 78 10000 5.7 20 22:19 16.06.2020
1391 Clouds 23 1007 78 10000 5.7 20 22:19 16.06.2020
1392 Clouds 23 1008 78 10000 5.7 20 21:58 16.06.2020
1393 Clouds 23 1007 78 10000 6.7 10 21:40 16.06.2020
1394 Clouds 23 1007 78 10000 6.2 10 21:22 16.06.2020
1395 Clouds 23 1007 78 10000 6.2 10 20:57 16.06.2020
1396 Clouds 23 1007 73 10000 5.7 20 20:39 16.06.2020
1397 Clouds 23 1007 73 10000 6.2 20 20:18 16.06.2020
1398 Clouds 23 1007 73 10000 6.2 20 19:56 16.06.2020
1399 Clouds 24 1007 69 10000 6.2 10 19:38 16.06.2020
1400 Clear 25 1007 69 10000 6.2 10 19:18 16.06.2020
1401 Clear 27 1007 58 10000 4.1 30 18:44 16.06.2020
1402 Clear 27 1007 58 10000 4.1 30 18:21 16.06.2020
1403 Clear 28 1006 61 10000 4.6 10 17:58 16.06.2020
1404 Clear 29 1006 58 10000 6.2 360 17:39 16.06.2020
1405 Clear 29 1006 35 10000 1.5 0 17:21 16.06.2020
1406 Clear 30 1006 35 10000 1.5 0 16:58 16.06.2020
1407 Clouds 30 1007 35 10000 2.1 240 16:39 16.06.2020
1408 Clear 30 1007 39 10000 2.6 240 16:20 16.06.2020
1409 Clear 30 1007 39 10000 2.6 240 15:57 16.06.2020
1410 Clouds 30 1007 37 10000 2.6 240 15:39 16.06.2020
1411 Clouds 30 1007 37 10000 2.6 240 15:21 16.06.2020
1412 Clouds 30 1008 37 10000 2.6 240 14:56 16.06.2020
1413 Clouds 30 1008 37 10000 2.1 0 14:37 16.06.2020
1414 Clouds 29 1008 37 10000 2.6 220 14:19 16.06.2020
1415 Clear 28 1008 54 10000 2.6 200 13:45 16.06.2020
1416 Clear 28 1008 54 10000 2.6 200 13:24 16.06.2020
1417 Clouds 27 1009 61 10000 2.6 220 12:42 16.06.2020
1418 Clouds 27 1009 61 10000 2.6 220 12:23 16.06.2020
1419 Clouds 27 1009 61 10000 3.6 210 11:58 16.06.2020
1420 Clouds 26 1009 69 10000 3.6 240 11:40 16.06.2020
1421 Clouds 26 1009 69 10000 3.6 240 11:22 16.06.2020
1422 Clouds 26 1009 69 10000 3.1 200 10:58 16.06.2020
1423 Clouds 26 1009 65 10000 3.1 200 10:39 16.06.2020
1424 Clouds 25 1009 69 10000 3.1 210 10:20 16.06.2020
1425 Clouds 25 1009 69 10000 2.6 130 09:45 16.06.2020
1426 Clear 24 1009 73 10000 2.1 150 09:23 16.06.2020
1427 Clouds 24 1009 73 10000 2.1 150 08:53 16.06.2020
1428 Clouds 24 1009 73 10000 2.1 160 08:32 16.06.2020
1429 Clouds 23 1009 78 10000 2.1 70 07:52 16.06.2020
1430 Clouds 22 1009 78 10000 2.1 70 07:30 16.06.2020
1431 Clouds 21 1009 88 10000 2.1 50 06:57 16.06.2020
1432 Clouds 20 1009 94 10000 3.1 10 06:34 16.06.2020
1433 Clouds 19 1008 94 10000 4.1 350 05:52 16.06.2020
1434 Clouds 18 1008 93 10000 3.1 340 04:55 16.06.2020
1435 Clouds 18 1008 93 10000 3.6 350 04:25 16.06.2020
1436 Clouds 20 1008 83 10000 3.1 340 02:46 16.06.2020
1437 Clouds 20 1008 88 10000 2.6 330 01:34 16.06.2020
1438 Rain 20 1008 77 10000 1 0 00:57 16.06.2020
1439 Clouds 21 1008 73 10000 1.5 80 00:25 16.06.2020
1440 Clouds 22 1008 73 10000 3.1 60 23:56 15.06.2020
1441 Clouds 22 1008 73 10000 3.1 60 23:38 15.06.2020
1442 Clouds 21 1008 73 10000 3.1 60 23:19 15.06.2020
1443 Clouds 21 1009 78 10000 3.6 340 22:42 15.06.2020
1444 Clouds 21 1009 78 10000 4.6 320 22:22 15.06.2020
1445 Clouds 21 1009 78 10000 4.6 320 21:58 15.06.2020
1446 Clouds 22 1008 73 10000 2.6 30 21:38 15.06.2020
1447 Clouds 22 1008 73 10000 4.1 20 21:20 15.06.2020
1448 Clouds 22 1008 73 10000 4.1 20 20:58 15.06.2020
1449 Clouds 22 1008 73 10000 4.1 20 20:38 15.06.2020
1450 Clouds 22 1008 73 10000 4.1 20 20:19 15.06.2020
1451 Rain 23 1008 73 10000 3.1 40 19:57 15.06.2020
1452 Rain 23 1008 73 10000 3.1 40 19:39 15.06.2020
1453 Clouds 23 1007 69 10000 4.1 20 19:21 15.06.2020
1454 Clouds 23 1007 69 10000 4.1 20 18:56 15.06.2020
1455 Clouds 24 1007 65 10000 3.6 30 18:38 15.06.2020
1456 Clouds 25 1007 61 10000 4.6 20 18:19 15.06.2020
1457 Clouds 25 1007 61 10000 4.6 20 17:56 15.06.2020
1458 Clouds 25 1007 61 10000 1 310 17:37 15.06.2020
1459 Clouds 26 1007 61 10000 1 310 17:18 15.06.2020
1460 Clouds 26 1008 61 10000 2.1 190 16:41 15.06.2020
1461 Clouds 27 1008 61 10000 3.6 30 16:19 15.06.2020
1462 Clouds 27 1008 61 10000 3.6 30 15:56 15.06.2020
1463 Clouds 26 1008 54 10000 2.1 270 15:38 15.06.2020
1464 Clouds 26 1008 54 10000 2.1 230 15:19 15.06.2020
1465 Clouds 26 1008 57 10000 3.1 220 14:42 15.06.2020
1466 Clouds 25 1008 57 10000 4.6 220 14:21 15.06.2020
1467 Clouds 25 1008 57 10000 4.6 220 13:59 15.06.2020
1468 Clouds 25 1008 57 10000 3.6 230 13:41 15.06.2020
1469 Clouds 25 1008 57 10000 3.6 230 13:22 15.06.2020
1470 Clouds 25 1009 69 10000 4.1 220 12:58 15.06.2020
1471 Clouds 25 1009 73 10000 4.6 210 12:39 15.06.2020
1472 Rain 25 1009 73 10000 5.1 210 12:21 15.06.2020
1473 Clouds 25 1009 78 10000 4.1 210 11:44 15.06.2020
1474 Clouds 25 1009 78 10000 4.1 210 11:25 15.06.2020
1475 Clouds 25 1009 73 10000 3.6 220 10:56 15.06.2020
1476 Rain 25 1009 73 10000 4.1 220 10:36 15.06.2020
1477 Rain 24 1008 73 10000 4.1 230 10:18 15.06.2020
1478 Rain 23 1008 73 10000 3.1 240 09:41 15.06.2020
1479 Clouds 23 1008 78 10000 4.1 230 09:21 15.06.2020
1480 Clouds 22 1008 78 10000 3.6 240 08:42 15.06.2020
1481 Clouds 22 1008 78 10000 3.6 240 08:23 15.06.2020
1482 Clouds 22 1008 88 10000 3.6 250 07:48 15.06.2020
1483 Clouds 22 1008 88 10000 3.6 250 07:29 15.06.2020
1484 Clouds 21 1007 88 10000 2.6 240 06:50 15.06.2020
1485 Clouds 21 1007 88 10000 2.6 240 06:26 15.06.2020
1486 Clouds 20 1007 88 10000 2.1 160 05:47 15.06.2020
1487 Clouds 20 1007 88 10000 2.1 160 05:27 15.06.2020
1488 Clouds 20 1007 88 10000 2.1 160 04:21 15.06.2020
1489 Rain 20 1007 94 10000 2.6 130 03:47 15.06.2020
1490 Rain 20 1007 94 10000 2.6 130 02:55 15.06.2020
1491 Rain 20 1007 94 10000 2.1 120 01:58 15.06.2020
1492 Rain 20 1006 94 10000 2.1 70 01:37 15.06.2020
1493 Rain 20 1006 94 8000 2.6 70 01:18 15.06.2020
1494 Rain 20 1007 94 6000 2.6 40 00:39 15.06.2020
1495 Rain 21 1007 78 10000 3.1 20 00:20 15.06.2020
1496 Rain 21 1007 78 10000 3.6 350 23:47 14.06.2020
1497 Rain 21 1007 78 10000 3.6 350 23:26 14.06.2020
1498 Clouds 22 1007 78 10000 1.5 20 22:58 14.06.2020
1499 Clouds 22 1007 73 10000 1 0 22:39 14.06.2020
1500 Clouds 23 1007 73 10000 1 0 22:20 14.06.2020
1501 Clouds 22 1007 78 10000 2.6 110 21:58 14.06.2020
1502 Clouds 22 1007 78 10000 2.6 110 21:40 14.06.2020
1503 Clouds 22 1007 78 10000 2.6 110 21:19 14.06.2020
1504 Clouds 22 1007 83 10000 3.1 110 20:59 14.06.2020
1505 Clouds 22 1006 78 10000 2.6 100 20:39 14.06.2020
1506 Clouds 22 1006 78 10000 2.6 100 20:20 14.06.2020
1507 Clouds 22 1006 83 10000 2.1 100 19:59 14.06.2020
1508 Clouds 23 1006 69 10000 2.1 110 19:38 14.06.2020
1509 Clouds 23 1006 73 10000 2.1 140 19:19 14.06.2020
1510 Clouds 23 1006 73 10000 2.1 140 18:57 14.06.2020
1511 Clouds 24 1006 73 10000 2.1 180 18:39 14.06.2020
1512 Clouds 24 1006 69 10000 2.1 190 18:20 14.06.2020
1513 Clouds 24 1006 69 10000 2.1 190 17:58 14.06.2020
1514 Clouds 25 1006 61 10000 2.6 190 17:39 14.06.2020
1515 Clouds 25 1006 61 10000 2.6 190 17:20 14.06.2020
1516 Clouds 25 1007 64 10000 2.6 200 16:41 14.06.2020
1517 Clouds 25 1007 64 10000 2.6 200 16:22 14.06.2020
1518 Clouds 24 1007 69 10000 3.1 230 16:00 14.06.2020
1519 Clouds 24 1007 73 10000 2.6 200 15:41 14.06.2020
1520 Clouds 24 1007 73 10000 2.6 200 15:19 14.06.2020
1521 Clouds 24 1007 73 10000 3.1 220 14:59 14.06.2020
1522 Clouds 24 1007 73 10000 3.1 210 14:40 14.06.2020
1523 Clouds 24 1008 83 10000 3.6 200 14:21 14.06.2020
1524 Clouds 23 1008 83 10000 3.6 200 13:56 14.06.2020
1525 Clouds 22 1008 88 10000 2.6 200 13:38 14.06.2020
1526 Clouds 22 1008 88 10000 2.6 200 13:19 14.06.2020
1527 Rain 22 1008 88 10000 3.6 220 12:55 14.06.2020
1528 Clouds 21 1008 83 10000 3.1 240 12:37 14.06.2020
1529 Clouds 21 1008 83 10000 3.1 240 12:18 14.06.2020
1530 Clouds 21 1008 88 10000 5.1 250 11:56 14.06.2020
1531 Clouds 21 1008 88 10000 4.6 230 11:37 14.06.2020
1532 Clouds 21 1007 88 10000 4.1 220 11:18 14.06.2020
1533 Clouds 21 1007 83 10000 4.1 220 10:41 14.06.2020
1534 Clouds 21 1007 83 10000 4.1 220 10:19 14.06.2020
1535 Clouds 21 1007 94 10000 2.1 240 09:45 14.06.2020
1536 Clouds 21 1007 94 10000 2.1 240 09:25 14.06.2020
1537 Rain 21 1007 88 10000 2.6 250 08:54 14.06.2020
1538 Rain 21 1007 83 10000 2.6 260 08:36 14.06.2020
1539 Rain 21 1007 83 10000 2.6 260 08:18 14.06.2020
1540 Clouds 21 1006 83 10000 2.6 250 07:44 14.06.2020
1541 Clouds 21 1006 88 10000 3.1 240 07:26 14.06.2020
1542 Clouds 20 1006 82 10000 3.1 260 06:26 14.06.2020
1543 Clouds 20 1006 88 10000 3.1 260 05:40 14.06.2020
1544 Rain 20 1006 88 10000 4.1 250 04:53 14.06.2020
1545 Rain 20 1005 88 10000 3.1 250 04:28 14.06.2020
1546 Rain 21 1005 77 10000 4.6 250 02:56 14.06.2020
1547 Rain 21 1006 73 10000 2.6 260 02:27 14.06.2020
1548 Rain 21 1005 73 10000 3.6 280 01:36 14.06.2020
1549 Rain 21 1005 83 10000 3.1 250 00:55 14.06.2020
1550 Rain 21 1005 83 10000 3.1 250 00:36 14.06.2020
1551 Rain 21 1005 83 10000 3.1 250 00:18 14.06.2020
1552 Rain 21 1005 77 10000 3.6 240 23:41 13.06.2020
1553 Clear 21 1006 78 10000 2.6 210 23:23 13.06.2020
1554 Clear 21 1006 78 10000 2.6 210 22:56 13.06.2020
1555 Clouds 21 1006 78 10000 2.1 230 22:36 13.06.2020
1556 Clouds 21 1006 78 10000 1.5 230 22:18 13.06.2020
1557 Clouds 21 1006 78 10000 1.5 200 21:43 13.06.2020
1558 Clouds 21 1006 78 10000 1.5 200 21:24 13.06.2020
1559 Clouds 21 1006 77 10000 1.5 180 20:59 13.06.2020
1560 Clear 22 1005 78 10000 1.5 200 20:41 13.06.2020
1561 Rain 22 1005 73 10000 2.6 230 20:19 13.06.2020
1562 Rain 22 1005 73 10000 2.6 220 19:42 13.06.2020
1563 Clouds 22 1005 73 10000 2.6 220 19:20 13.06.2020
1564 Clouds 23 1006 64 10000 2.6 220 18:59 13.06.2020
1565 Clouds 24 1006 64 10000 3.6 220 18:40 13.06.2020
1566 Clouds 24 1006 60 10000 3.1 230 18:20 13.06.2020
1567 Clouds 24 1006 60 10000 3.1 230 17:58 13.06.2020
1568 Clouds 25 1006 64 10000 3.6 210 17:40 13.06.2020
1569 Clouds 25 1006 57 10000 4.1 210 17:22 13.06.2020
1570 Clouds 24 1006 57 10000 4.1 210 16:55 13.06.2020
1571 Clouds 25 1006 60 10000 3.6 230 16:37 13.06.2020
1572 Clouds 24 1006 60 10000 4.1 250 16:18 13.06.2020
1573 Thunderstorm 25 1006 64 10000 3.6 230 15:44 13.06.2020
1574 Thunderstorm 25 1006 64 10000 3.6 230 15:26 13.06.2020
1575 Clouds 25 1007 69 10000 4.1 220 14:55 13.06.2020
1576 Clouds 25 1007 64 10000 4.6 210 14:36 13.06.2020
1577 Clouds 25 1007 60 10000 4.6 220 14:18 13.06.2020
1578 Clouds 24 1007 64 10000 4.6 210 13:41 13.06.2020
1579 Clouds 23 1007 64 10000 4.6 230 13:23 13.06.2020
1580 Clouds 23 1007 64 10000 4.6 240 12:44 13.06.2020
1581 Clouds 23 1007 64 10000 4.6 240 12:26 13.06.2020
1582 Clouds 23 1007 64 10000 5.1 230 11:59 13.06.2020
1583 Clouds 23 1007 64 10000 5.1 230 11:39 13.06.2020
1584 Clouds 23 1008 73 10000 4.6 230 11:19 13.06.2020
1585 Clouds 22 1007 73 10000 4.6 250 10:57 13.06.2020
1586 Clouds 22 1007 73 10000 4.6 250 10:38 13.06.2020
1587 Clouds 22 1007 73 10000 3.6 250 10:19 13.06.2020
1588 Clouds 22 1007 73 10000 3.6 240 09:44 13.06.2020
1589 Clouds 22 1007 73 10000 3.6 240 09:25 13.06.2020
1590 Clouds 22 1007 73 10000 3.6 240 08:50 13.06.2020
1591 Clouds 21 1007 73 10000 4.1 240 08:32 13.06.2020
1592 Clouds 21 1007 68 10000 3.1 220 07:55 13.06.2020
1593 Clouds 21 1007 68 10000 2.1 240 07:30 13.06.2020
1594 Clouds 21 1007 68 10000 0.5 0 06:56 13.06.2020
1595 Clouds 21 1007 68 10000 0.5 0 06:36 13.06.2020
1596 Clouds 19 1007 82 10000 0.5 310 05:53 13.06.2020
1597 Clouds 19 1007 77 10000 1 280 05:25 13.06.2020
1598 Clouds 20 1007 82 10000 2.1 260 03:55 13.06.2020
1599 Rain 20 1007 77 10000 3.6 250 02:55 13.06.2020
1600 Rain 20 1007 77 10000 3.6 250 02:35 13.06.2020
1601 Rain 20 1007 73 10000 4.1 210 01:47 13.06.2020
1602 Clouds 20 1007 73 10000 4.1 210 01:21 13.06.2020
1603 Clouds 20 1007 73 10000 4.6 200 00:44 13.06.2020
1604 Clouds 20 1007 73 10000 4.6 200 00:26 13.06.2020
1605 Clouds 21 1007 73 10000 3.6 210 23:42 12.06.2020
1606 Clear 21 1007 73 10000 3.6 210 23:19 12.06.2020
1607 Clear 21 1007 73 10000 3.1 200 22:59 12.06.2020
1608 Clear 21 1007 77 10000 2.6 210 22:40 12.06.2020
1609 Clear 21 1007 73 10000 3.6 230 22:19 12.06.2020
1610 Clear 21 1007 73 10000 3.6 230 22:19 12.06.2020
1611 Clouds 21 1007 68 10000 3.6 220 21:49 12.06.2020
1612 Clouds 21 1007 68 10000 3.6 220 21:26 12.06.2020
1613 Clouds 21 1007 64 10000 3.6 230 20:58 12.06.2020
1614 Clouds 21 1007 64 10000 3.6 230 20:58 12.06.2020
1615 Clouds 22 1007 64 10000 4.1 230 20:40 12.06.2020
1616 Clouds 22 1007 64 10000 4.1 230 20:22 12.06.2020
1617 Clouds 22 1007 60 10000 4.1 210 19:56 12.06.2020
1618 Clouds 22 1007 60 10000 5.1 190 19:38 12.06.2020
1619 Clear 22 1007 64 10000 6.2 190 19:18 12.06.2020
1620 Clear 23 1007 64 10000 6.2 190 18:39 12.06.2020
1621 Clear 23 1007 60 10000 5.1 200 18:19 12.06.2020
1622 Clear 23 1007 60 10000 5.1 200 17:54 12.06.2020
1623 Clouds 23 1007 64 10000 4.1 200 17:36 12.06.2020
1624 Clouds 24 1007 69 10000 3.6 220 17:18 12.06.2020
1625 Clouds 25 1007 60 10000 4.6 250 16:40 12.06.2020
1626 Clouds 25 1007 60 10000 4.1 240 16:19 12.06.2020
1627 Clouds 26 1007 60 10000 4.6 240 15:47 12.06.2020
1628 Clouds 26 1007 60 10000 4.6 240 15:25 12.06.2020
1629 Clouds 26 1007 61 10000 3.6 230 14:56 12.06.2020
1630 Clouds 26 1007 57 10000 3.1 230 14:38 12.06.2020
1631 Clouds 25 1007 57 10000 3.1 230 14:19 12.06.2020
1632 Clouds 26 1007 57 10000 3.1 240 13:41 12.06.2020
1633 Clouds 25 1007 60 10000 3.6 220 13:21 12.06.2020
1634 Clouds 25 1007 64 10000 4.1 230 12:41 12.06.2020
1635 Clouds 25 1007 64 10000 4.1 230 12:20 12.06.2020
1636 Clouds 25 1007 60 10000 3.6 230 11:58 12.06.2020
1637 Clouds 25 1008 69 10000 3.6 200 11:38 12.06.2020
1638 Clouds 25 1008 69 10000 3.6 200 11:19 12.06.2020
1639 Clouds 24 1008 69 10000 3.6 230 10:45 12.06.2020
1640 Clouds 24 1008 69 10000 3.6 230 10:24 12.06.2020
1641 Clouds 24 1008 73 10000 3.6 230 09:46 12.06.2020
1642 Clouds 23 1007 78 10000 4.1 250 09:21 12.06.2020
1643 Clouds 22 1007 78 10000 3.6 240 08:45 12.06.2020
1644 Clouds 22 1007 78 10000 3.6 240 08:25 12.06.2020
1645 Clouds 22 1007 83 10000 3.1 240 07:44 12.06.2020
1646 Clouds 22 1007 83 10000 3.1 240 07:44 12.06.2020
1647 Clouds 22 1007 83 10000 3.1 240 07:26 12.06.2020
1648 Clouds 21 1007 83 10000 2.6 250 06:55 12.06.2020
1649 Clouds 21 1007 83 9000 3.6 270 06:30 12.06.2020
1650 Clouds 20 1007 88 10000 3.6 260 05:55 12.06.2020
1651 Clouds 21 1007 77 10000 4.1 240 05:31 12.06.2020
1652 Clouds 21 1007 77 10000 4.6 230 04:59 12.06.2020
1653 Clouds 21 1007 83 10000 3.6 240 03:24 12.06.2020
1654 Clouds 21 1007 83 10000 3.6 220 01:55 12.06.2020
1655 Rain 21 1007 83 10000 3.1 240 01:27 12.06.2020
1656 Rain 22 1007 83 10000 4.1 220 00:47 12.06.2020
1657 Rain 22 1007 83 10000 4.1 220 00:26 12.06.2020
1658 Rain 22 1007 83 10000 2.6 240 23:59 11.06.2020
1659 Rain 22 1007 83 10000 2.1 240 23:41 11.06.2020
1660 Clouds 22 1007 83 10000 2.1 240 23:21 11.06.2020
1661 Clouds 22 1007 83 10000 3.1 240 22:59 11.06.2020
1662 Clouds 22 1007 83 10000 3.1 220 22:39 11.06.2020
1663 Clouds 22 1007 83 10000 3.1 210 22:20 11.06.2020
1664 Clouds 22 1007 83 10000 3.1 210 21:56 11.06.2020
1665 Clouds 22 1007 83 10000 3.1 210 21:38 11.06.2020
1666 Clouds 22 1006 83 10000 3.6 210 21:20 11.06.2020
1667 Rain 22 1006 83 10000 3.1 200 20:45 11.06.2020
1668 Rain 23 1006 73 10000 3.6 220 20:21 11.06.2020
1669 Rain 23 1006 73 10000 3.6 220 19:55 11.06.2020
1670 Clouds 23 1006 78 10000 3.1 230 19:36 11.06.2020
1671 Clouds 23 1006 78 10000 3.1 230 19:18 11.06.2020
1672 Clouds 24 1006 73 10000 4.1 230 18:41 11.06.2020
1673 Clouds 24 1006 73 10000 4.1 230 18:22 11.06.2020
1674 Clouds 24 1006 69 10000 4.1 230 17:57 11.06.2020
1675 Clouds 24 1006 69 10000 4.1 230 17:38 11.06.2020
1676 Clouds 25 1006 73 10000 3.6 230 17:19 11.06.2020
1677 Clouds 27 1006 57 10000 5.1 220 16:56 11.06.2020
1678 Clouds 27 1006 50 10000 4.1 240 16:38 11.06.2020
1679 Clouds 27 1006 50 10000 4.1 240 16:19 11.06.2020
1680 Clouds 28 1006 47 10000 4.6 240 15:42 11.06.2020
1681 Clouds 27 1006 57 10000 3.6 230 15:24 11.06.2020
1682 Clouds 28 1006 50 10000 3.6 240 14:56 11.06.2020
1683 Clouds 28 1006 50 10000 3.6 240 14:56 11.06.2020
1684 Clouds 28 1006 50 10000 3.6 240 14:38 11.06.2020
1685 Clear 27 1006 54 10000 3.1 240 14:20 11.06.2020
1686 Clear 27 1007 61 10000 3.6 230 13:55 11.06.2020
1687 Clear 27 1007 65 10000 3.6 230 13:37 11.06.2020
1688 Clear 27 1007 65 10000 3.6 230 13:18 11.06.2020
1689 Clear 26 1007 61 10000 4.1 230 12:54 11.06.2020
1690 Clear 26 1008 78 10000 4.1 220 12:36 11.06.2020
1691 Clear 26 1008 73 10000 4.1 220 12:18 11.06.2020
1692 Clear 25 1008 73 10000 4.1 220 11:41 11.06.2020
1693 Clear 25 1008 78 10000 4.1 200 11:23 11.06.2020
1694 Clear 25 1008 78 10000 4.1 210 10:59 11.06.2020
1695 Clear 25 1008 78 10000 4.1 210 10:41 11.06.2020
1696 Clear 24 1008 78 10000 4.1 210 10:18 11.06.2020
1697 Clear 24 1008 83 10000 2.6 240 09:44 11.06.2020
1698 Clear 24 1008 83 10000 2.6 240 09:26 11.06.2020
1699 Clear 23 1008 78 10000 3.1 220 08:54 11.06.2020
1700 Clouds 23 1008 78 10000 2.1 260 08:36 11.06.2020
1701 Clouds 23 1008 78 10000 2.1 260 08:18 11.06.2020
1702 Clouds 22 1008 77 10000 2.1 260 07:41 11.06.2020
1703 Clouds 22 1008 73 10000 2.6 240 07:22 11.06.2020
1704 Clouds 21 1008 83 10000 1.5 230 06:31 11.06.2020
1705 Clouds 21 1008 83 10000 1.5 230 06:31 11.06.2020
1706 Clouds 20 1007 88 10000 1 0 05:54 11.06.2020
1707 Clouds 19 1007 88 10000 1.5 280 03:59 11.06.2020
1708 Clouds 19 1008 82 10000 2.1 330 03:25 11.06.2020
1709 Clouds 19 1008 82 10000 3.1 330 02:45 11.06.2020
1710 Clouds 19 1008 82 10000 2.6 340 01:56 11.06.2020
1711 Clouds 20 1008 77 10000 3.1 10 01:34 11.06.2020
1712 Clouds 20 1008 83 10000 3.6 350 00:52 11.06.2020
1713 Clouds 20 1009 77 10000 3.1 30 00:32 11.06.2020
1714 Clouds 20 1009 78 10000 4.1 40 23:56 10.06.2020
1715 Clouds 21 1009 68 10000 3.6 20 23:37 10.06.2020
1716 Clouds 21 1009 68 10000 3.6 20 23:18 10.06.2020
1717 Clouds 21 1008 68 10000 4.6 350 22:40 10.06.2020
1718 Clouds 21 1007 64 10000 5.7 320 22:22 10.06.2020
1719 Clouds 21 1008 56 10000 6.2 340 21:58 10.06.2020
1720 Clouds 21 1008 56 10000 6.2 340 21:40 10.06.2020
1721 Clouds 21 1008 60 10000 5.1 340 21:19 10.06.2020
1722 Clouds 22 1008 53 10000 4.6 10 20:58 10.06.2020
1723 Clouds 22 1008 53 10000 4.1 10 20:40 10.06.2020
1724 Clouds 22 1008 53 10000 4.1 10 20:21 10.06.2020
1725 Clouds 23 1008 47 10000 5.1 10 19:58 10.06.2020
1726 Clouds 23 1007 50 10000 5.1 20 19:37 10.06.2020
1727 Clouds 24 1007 41 10000 6.2 10 19:18 10.06.2020
1728 Clouds 25 1007 39 10000 6.7 20 18:42 10.06.2020
1729 Clouds 25 1007 39 10000 6.7 20 18:20 10.06.2020
1730 Clouds 26 1007 39 10000 6.2 40 17:59 10.06.2020
1731 Clouds 26 1007 39 10000 6.2 40 17:41 10.06.2020
1732 Rain 27 1008 36 10000 6.2 60 17:20 10.06.2020
1733 Rain 27 1007 37 10000 6.7 50 16:58 10.06.2020
1734 Clear 27 1008 37 10000 6.2 40 16:40 10.06.2020
1735 Clear 27 1008 37 10000 6.2 40 16:20 10.06.2020
1736 Clear 28 1008 34 10000 7.2 30 15:56 10.06.2020
1737 Clear 28 1008 34 10000 7.2 30 15:37 10.06.2020
1738 Clear 28 1008 32 10000 6.2 40 15:18 10.06.2020
1739 Clear 28 1008 32 10000 6.2 10 14:40 10.06.2020
1740 Clear 28 1008 32 10000 5.7 50 14:21 10.06.2020
1741 Clear 28 1008 30 10000 5.7 30 13:56 10.06.2020
1742 Clear 29 1009 28 10000 5.7 40 13:38 10.06.2020
1743 Clear 29 1009 39 10000 5.1 10 13:19 10.06.2020
1744 Clear 27 1009 61 10000 2.6 0 12:40 10.06.2020
1745 Clear 27 1009 61 10000 2.6 0 12:18 10.06.2020
1746 Clear 28 1009 61 10000 3.6 0 11:44 10.06.2020
1747 Clear 28 1009 39 10000 3.1 70 11:20 10.06.2020
1748 Clear 28 1009 42 10000 3.6 60 10:58 10.06.2020
1749 Clear 28 1009 42 10000 3.6 40 10:40 10.06.2020
1750 Clear 28 1009 42 10000 3.6 40 10:40 10.06.2020
1751 Clear 27 1009 42 10000 3.6 50 10:21 10.06.2020
1752 Clear 26 1009 44 10000 4.1 40 09:44 10.06.2020
1753 Clear 26 1009 44 10000 4.1 40 09:25 10.06.2020
1754 Clear 25 1009 44 10000 3.1 40 08:59 10.06.2020
1755 Clear 25 1009 47 10000 5.1 20 08:41 10.06.2020
1756 Clouds 25 1009 47 10000 5.1 20 08:22 10.06.2020
1757 Clouds 24 1009 44 10000 4.1 30 07:42 10.06.2020
1758 Clouds 23 1009 44 10000 4.1 30 07:23 10.06.2020
1759 Clouds 23 1008 46 10000 2.6 360 06:52 10.06.2020
1760 Rain 22 1008 49 10000 4.1 340 06:33 10.06.2020
1761 Rain 20 1008 52 10000 4.1 330 05:59 10.06.2020
1762 Rain 20 1008 52 10000 4.6 350 05:30 10.06.2020
1763 Rain 20 1008 52 10000 3.1 340 04:48 10.06.2020
1764 Rain 20 1007 52 10000 2.6 350 04:28 10.06.2020
1765 Clouds 22 1008 44 10000 4.1 40 02:24 10.06.2020
1766 Clouds 22 1008 47 10000 4.1 40 01:40 10.06.2020
1767 Rain 22 1008 50 10000 3.6 40 00:42 10.06.2020
1768 Rain 22 1009 50 10000 1.5 20 00:23 10.06.2020
1769 Rain 22 1009 50 10000 1.5 50 23:59 09.06.2020
1770 Rain 22 1009 50 10000 1.5 50 23:41 09.06.2020
1771 Rain 23 1009 47 10000 4.1 40 23:23 09.06.2020
1772 Rain 23 1009 47 10000 3.6 30 22:57 09.06.2020
1773 Rain 23 1009 47 10000 3.6 30 22:38 09.06.2020
1774 Rain 24 1009 44 10000 3.1 90 22:20 09.06.2020
1775 Clouds 23 1009 41 10000 3.6 80 21:57 09.06.2020
1776 Clouds 24 1009 41 10000 4.1 60 21:39 09.06.2020
1777 Clouds 24 1009 41 10000 4.1 60 21:20 09.06.2020
1778 Clouds 24 1009 44 10000 4.1 50 20:57 09.06.2020
1779 Clouds 24 1009 44 10000 4.1 50 20:38 09.06.2020
1780 Clouds 25 1009 36 10000 5.7 60 20:20 09.06.2020
1781 Clouds 25 1009 36 10000 5.7 60 20:20 09.06.2020
1782 Clouds 25 1008 39 10000 5.1 40 19:57 09.06.2020
1783 Clouds 25 1008 39 10000 5.1 40 19:39 09.06.2020
1784 Clouds 26 1009 42 10000 4.6 20 19:39 09.06.2020
1785 Clouds 26 1009 42 10000 4.6 20 19:20 09.06.2020
1786 Clouds 26 1009 32 10000 5.7 20 18:56 09.06.2020
1787 Clouds 27 1009 42 10000 2.1 0 18:38 09.06.2020
1788 Clouds 27 1009 42 10000 2.1 0 18:18 09.06.2020
1789 Clouds 28 1009 42 10000 2.6 0 17:55 09.06.2020
1790 Clouds 29 1009 42 10000 2.1 140 17:36 09.06.2020
1791 Clouds 29 1009 42 10000 2.1 140 17:18 09.06.2020
1792 Clouds 29 1009 42 10000 1.5 210 16:42 09.06.2020
1793 Clouds 29 1009 39 10000 2.6 230 16:22 09.06.2020
1794 Clouds 29 1009 45 10000 3.6 230 15:55 09.06.2020
1795 Clouds 29 1009 45 10000 3.6 230 15:37 09.06.2020
1796 Clouds 29 1009 45 10000 3.6 230 15:37 09.06.2020
1797 Clouds 29 1009 47 10000 3.6 240 15:18 09.06.2020
1798 Clouds 30 1009 51 10000 3.6 240 14:41 09.06.2020
1799 Clear 29 1010 45 10000 2.6 240 14:21 09.06.2020
1800 Clouds 30 1010 54 10000 3.1 240 13:58 09.06.2020
1801 Clouds 30 1010 54 10000 3.1 240 13:58 09.06.2020
1802 Clouds 28 1010 54 10000 4.1 240 13:39 09.06.2020
1803 Clouds 28 1010 54 10000 4.1 240 13:20 09.06.2020
1804 Clear 29 1010 50 10000 3.1 220 12:43 09.06.2020
1805 Clear 29 1010 50 10000 3.1 220 12:21 09.06.2020
1806 Clear 28 1010 57 10000 2.6 220 11:59 09.06.2020
1807 Clear 27 1010 57 10000 2.6 210 11:41 09.06.2020
1808 Clear 27 1010 57 10000 2.6 210 11:20 09.06.2020
1809 Clear 27 1010 61 10000 2.6 190 10:58 09.06.2020
1810 Clear 27 1010 61 10000 2.6 190 10:40 09.06.2020
1811 Clear 27 1010 57 10000 2.1 210 10:21 09.06.2020
1812 Clear 27 1010 54 10000 2.1 170 09:44 09.06.2020
1813 Clear 26 1010 61 10000 2.1 100 09:24 09.06.2020
1814 Clear 25 1010 64 10000 1.5 200 08:56 09.06.2020
1815 Clear 25 1010 64 10000 1.5 200 08:38 09.06.2020
1816 Clouds 25 1010 64 10000 3.1 250 08:19 09.06.2020
1817 Clouds 24 1010 73 10000 1 0 07:38 09.06.2020
1818 Clouds 23 1010 73 10000 1 0 07:19 09.06.2020
1819 Clouds 22 1010 68 10000 1.5 110 06:53 09.06.2020
1820 Clouds 21 1009 73 10000 1.5 80 06:33 09.06.2020
1821 Clouds 19 1009 72 10000 1 0 05:34 09.06.2020
1822 Clouds 19 1009 77 10000 0.5 0 03:19 09.06.2020
1823 Clouds 20 1009 72 10000 1.29 237 01:42 09.06.2020
1824 Clouds 20 1009 72 10000 1.6 227 01:19 09.06.2020
1825 Clouds 20 1009 72 10000 0.5 290 00:50 09.06.2020
1826 Clouds 20 1010 72 10000 0.5 0 00:21 09.06.2020
1827 Clouds 20 1009 72 10000 0.5 0 23:58 08.06.2020
1828 Clouds 20 1009 72 10000 0.5 0 23:38 08.06.2020
1829 Clouds 21 1009 72 10000 1 0 23:19 08.06.2020
1830 Clouds 21 1009 73 10000 1 250 22:42 08.06.2020
1831 Clouds 21 1010 73 10000 0.5 260 22:23 08.06.2020
1832 Clouds 21 1009 73 10000 1 0 21:58 08.06.2020
1833 Clouds 21 1009 73 10000 1 0 21:58 08.06.2020
1834 Clouds 22 1009 64 10000 1.5 140 21:40 08.06.2020
1835 Clouds 22 1009 64 10000 1.5 140 21:22 08.06.2020
1836 Clouds 22 1009 68 10000 1 0 20:57 08.06.2020
1837 Clouds 22 1009 68 10000 1.5 250 20:39 08.06.2020
1838 Clouds 22 1009 68 10000 1.5 250 20:39 08.06.2020
1839 Clouds 23 1009 68 10000 1.5 250 20:20 08.06.2020
1840 Clouds 23 1009 68 10000 1.5 200 19:55 08.06.2020
1841 Clouds 23 1009 68 10000 1 160 19:37 08.06.2020
1842 Clouds 24 1009 68 10000 1 160 19:19 08.06.2020
1843 Clouds 26 1009 64 10000 2.6 170 18:41 08.06.2020
1844 Clouds 26 1009 64 10000 2.6 170 18:18 08.06.2020
1845 Clouds 26 1009 60 10000 2.1 190 17:56 08.06.2020
1846 Clear 26 1009 64 10000 2.6 190 17:38 08.06.2020
1847 Clear 26 1009 64 10000 2.6 190 17:19 08.06.2020
1848 Clear 27 1009 64 10000 3.6 180 16:45 08.06.2020
1849 Clear 26 1009 69 10000 3.6 180 16:25 08.06.2020
1850 Clear 26 1009 69 10000 3.1 170 15:58 08.06.2020
1851 Clear 27 1009 69 10000 3.1 170 15:40 08.06.2020
1852 Clear 26 1010 73 10000 3.1 190 15:20 08.06.2020
1853 Clear 26 1010 73 10000 3.1 190 15:20 08.06.2020
1854 Clear 26 1010 73 10000 3.6 180 14:42 08.06.2020
1855 Clouds 26 1010 73 10000 3.6 180 14:23 08.06.2020
1856 Clouds 26 1010 64 10000 3.6 190 13:57 08.06.2020
1857 Clouds 26 1010 60 10000 3.6 220 13:38 08.06.2020
1858 Clear 25 1010 57 10000 3.6 210 13:19 08.06.2020
1859 Clear 25 1010 60 10000 4.1 230 12:40 08.06.2020
1860 Clear 25 1010 60 10000 4.1 230 12:19 08.06.2020
1861 Clear 25 1010 64 10000 4.1 240 11:54 08.06.2020
1862 Clear 25 1010 64 10000 4.6 240 11:36 08.06.2020
1863 Clear 25 1010 64 10000 4.6 240 11:18 08.06.2020
1864 Clear 24 1010 64 10000 4.6 240 10:55 08.06.2020
1865 Clear 23 1010 68 10000 5.1 250 10:37 08.06.2020
1866 Clear 23 1010 68 10000 5.1 250 10:18 08.06.2020
1867 Clear 23 1010 78 10000 4.1 240 09:43 08.06.2020
1868 Clear 23 1010 78 10000 4.1 240 09:23 08.06.2020
1869 Clear 22 1010 78 10000 4.1 230 08:49 08.06.2020
1870 Clear 22 1010 73 10000 3.6 230 08:23 08.06.2020
1871 Clear 22 1009 83 10000 3.1 230 07:48 08.06.2020
1872 Clear 21 1009 83 10000 3.1 240 07:28 08.06.2020
1873 Clear 21 1009 77 10000 2.1 240 06:58 08.06.2020
1874 Clear 21 1009 82 10000 4.1 250 06:36 08.06.2020
1875 Clear 19 1009 82 10000 2.6 240 05:54 08.06.2020
1876 Clear 18 1008 93 10000 1 0 04:36 08.06.2020
1877 Clear 18 1009 88 10000 1 0 02:56 08.06.2020
1878 Clear 18 1009 88 10000 1 160 02:25 08.06.2020
1879 Clear 19 1009 82 10000 1.81 226 01:40 08.06.2020
1880 Clear 20 1009 82 10000 2.1 240 00:41 08.06.2020
1881 Clear 20 1009 82 10000 2.1 240 00:19 08.06.2020
1882 Clear 21 1009 68 10000 2.1 180 23:38 07.06.2020
1883 Clear 21 1009 68 10000 2.1 180 23:18 07.06.2020
1884 Clear 21 1010 68 10000 1 190 22:55 07.06.2020
1885 Clear 21 1010 68 10000 1.5 190 22:36 07.06.2020
1886 Clear 21 1010 68 10000 1.5 190 22:18 07.06.2020
1887 Clear 21 1010 68 10000 2.1 240 21:57 07.06.2020
1888 Clear 21 1010 68 10000 2.1 240 21:36 07.06.2020
1889 Clear 21 1010 68 10000 2.1 240 21:36 07.06.2020
1890 Clear 21 1010 68 10000 2.1 240 21:36 07.06.2020
1891 Clear 22 1009 64 10000 2.1 240 21:18 07.06.2020
1892 Clear 22 1009 68 10000 2.1 240 20:39 07.06.2020
1893 Clear 23 1009 68 10000 2.6 240 20:20 07.06.2020
1894 Clear 23 1009 73 10000 2.6 250 19:56 07.06.2020
1895 Clear 24 1008 73 10000 3.6 220 19:38 07.06.2020
1896 Clear 24 1008 73 10000 3.6 220 19:19 07.06.2020
1897 Clear 25 1008 64 10000 3.1 210 18:56 07.06.2020
1898 Clear 26 1008 41 10000 3.1 230 18:37 07.06.2020
1899 Clear 26 1008 41 10000 3.1 230 18:19 07.06.2020
1900 Clear 27 1008 39 10000 3.1 240 17:55 07.06.2020
1901 Clear 27 1008 39 10000 3.1 240 17:37 07.06.2020
1902 Clear 27 1008 39 10000 3.1 240 17:19 07.06.2020
1903 Clear 27 1008 41 10000 3.6 250 16:42 07.06.2020
1904 Clear 27 1008 41 10000 3.6 250 16:21 07.06.2020
1905 Clear 28 1008 41 10000 4.1 240 15:40 07.06.2020
1906 Clear 28 1008 41 10000 4.1 240 15:21 07.06.2020
1907 Clear 28 1008 41 10000 4.1 240 14:40 07.06.2020
1908 Clear 28 1008 41 10000 4.1 240 14:40 07.06.2020
1909 Clear 28 1008 39 10000 4.6 240 14:22 07.06.2020
1910 Clear 27 1008 44 10000 4.6 240 13:48 07.06.2020
1911 Clear 27 1009 44 10000 5.7 250 13:21 07.06.2020
1912 Clear 26 1009 47 10000 5.1 250 12:57 07.06.2020
1913 Clear 26 1009 56 10000 5.1 240 12:39 07.06.2020
1914 Clear 25 1009 64 10000 4.6 240 12:19 07.06.2020
1915 Clear 25 1009 64 10000 4.6 240 11:55 07.06.2020
1916 Clear 25 1009 69 10000 4.6 240 11:36 07.06.2020
1917 Clear 25 1009 69 10000 4.6 240 11:18 07.06.2020
1918 Clear 24 1009 68 10000 5.1 230 10:44 07.06.2020
1919 Clear 23 1009 73 10000 4.6 230 10:20 07.06.2020
1920 Clear 24 1009 64 10000 4.1 220 09:58 07.06.2020
1921 Clear 23 1009 64 10000 4.1 220 09:39 07.06.2020
1922 Clear 23 1009 68 10000 4.1 230 09:20 07.06.2020
1923 Clear 23 1009 68 10000 4.1 230 09:20 07.06.2020
1924 Clear 22 1009 68 10000 3.1 220 08:57 07.06.2020
1925 Clear 22 1009 68 10000 3.1 220 08:39 07.06.2020
1926 Clear 22 1009 77 10000 3.6 230 08:20 07.06.2020
1927 Clear 21 1008 82 10000 2.1 230 07:33 07.06.2020
1928 Clear 21 1008 82 10000 3.1 280 06:53 07.06.2020
1929 Clear 19 1008 88 10000 2.1 300 05:52 07.06.2020
1930 Clear 18 1008 88 10000 3.1 190 04:21 07.06.2020
1931 Clear 18 1008 88 10000 3.1 340 03:33 07.06.2020
1932 Clouds 18 1008 82 10000 1.5 260 02:18 07.06.2020
1933 Clouds 19 1007 77 10000 4.6 330 01:25 07.06.2020
1934 Clouds 19 1007 73 10000 4.1 320 00:48 07.06.2020
1935 Clouds 20 1007 68 10000 4.1 330 00:20 07.06.2020
1936 Clouds 21 1007 68 10000 3.6 340 23:59 06.06.2020
1937 Clouds 21 1007 68 10000 3.6 340 23:38 06.06.2020
1938 Clouds 21 1008 64 10000 2.6 330 23:19 06.06.2020
1939 Clouds 21 1008 60 10000 4.1 340 22:56 06.06.2020
1940 Clouds 21 1008 60 10000 4.1 340 22:38 06.06.2020
1941 Clear 22 1008 60 10000 4.6 350 22:19 06.06.2020
1942 Clear 23 1008 57 10000 4.1 350 21:47 06.06.2020
1943 Clear 23 1008 57 10000 4.6 350 21:23 06.06.2020
1944 Clear 24 1008 47 10000 3.6 360 20:58 06.06.2020
1945 Clear 24 1008 47 10000 3.6 360 20:40 06.06.2020
1946 Clouds 25 1008 44 10000 3.6 20 20:19 06.06.2020
1947 Clouds 26 1008 45 10000 3.1 20 19:57 06.06.2020
1948 Clouds 27 1008 42 10000 3.6 20 19:38 06.06.2020
1949 Clouds 27 1008 42 10000 3.6 20 19:20 06.06.2020
1950 Clouds 27 1008 42 10000 4.1 360 18:54 06.06.2020
1951 Clouds 27 1008 44 10000 3.6 270 18:36 06.06.2020
1952 Clear 28 1008 44 10000 3.6 270 18:18 06.06.2020
1953 Clear 28 1008 42 10000 3.6 260 17:41 06.06.2020
1954 Clouds 29 1008 44 10000 2.1 240 17:19 06.06.2020
1955 Clouds 30 1009 39 10000 2.1 210 16:55 06.06.2020
1956 Clouds 30 1009 39 10000 2.1 210 16:55 06.06.2020
1957 Clouds 30 1009 39 10000 2.1 210 16:36 06.06.2020
1958 Clouds 32 1009 31 10000 2.1 200 16:18 06.06.2020
1959 Clouds 31 1010 37 10000 3.1 170 15:42 06.06.2020
1960 Clouds 31 1010 37 10000 3.1 170 15:20 06.06.2020
1961 Clouds 31 1010 37 10000 3.1 170 15:20 06.06.2020
1962 Clouds 31 1010 35 10000 2.1 200 14:56 06.06.2020
1963 Clouds 31 1010 35 10000 2.1 200 14:56 06.06.2020
1964 Clouds 31 1010 35 10000 2.1 200 14:37 06.06.2020
1965 Clouds 31 1010 35 10000 2.6 180 14:19 06.06.2020
1966 Clouds 31 1011 35 10000 2.1 150 13:45 06.06.2020
1967 Clouds 30 1011 44 10000 2.1 170 13:19 06.06.2020
1968 Clouds 30 1011 44 10000 2.1 170 12:55 06.06.2020
1969 Clouds 30 1011 47 10000 3.1 180 12:37 06.06.2020
1970 Clouds 30 1011 47 10000 3.1 180 12:18 06.06.2020
1971 Clouds 29 1011 53 10000 3.1 190 11:40 06.06.2020
1972 Clouds 29 1011 39 10000 3.6 150 11:20 06.06.2020
1973 Clouds 29 1011 39 10000 3.1 120 10:59 06.06.2020
1974 Clouds 29 1011 39 10000 3.1 120 10:40 06.06.2020
1975 Clear 29 1012 42 10000 2.6 110 10:22 06.06.2020
1976 Clear 27 1012 47 10000 2.1 100 09:59 06.06.2020
1977 Clear 27 1012 47 10000 2.1 100 09:41 06.06.2020
1978 Clear 26 1012 47 10000 2.6 80 09:22 06.06.2020
1979 Clouds 24 1012 56 10000 3.6 100 08:45 06.06.2020
1980 Clouds 24 1012 56 10000 4.1 90 08:24 06.06.2020
1981 Clouds 23 1012 68 10000 3.1 90 07:55 06.06.2020
1982 Clouds 23 1012 68 10000 3.1 100 07:36 06.06.2020
1983 Clouds 22 1012 77 10000 2.1 60 07:18 06.06.2020
1984 Clouds 20 1012 82 10000 2.6 90 06:42 06.06.2020
1985 Clouds 19 1012 82 10000 2.6 90 06:23 06.06.2020
1986 Clouds 17 1012 77 10000 2.6 70 05:32 06.06.2020
1987 Clouds 18 1013 77 10000 1 0 04:47 06.06.2020
1988 Clouds 18 1013 72 10000 1.5 90 03:28 06.06.2020
1989 Clouds 20 1013 64 10000 2.1 80 01:58 06.06.2020
1990 Clouds 21 1013 64 10000 2.1 80 01:21 06.06.2020
1991 Clouds 20 1013 64 10000 1.5 160 00:47 06.06.2020
1992 Clouds 20 1013 68 10000 1.5 160 00:28 06.06.2020
1993 Clouds 21 1013 64 10000 2.6 100 23:59 05.06.2020
1994 Clouds 21 1013 64 10000 2.6 100 23:39 05.06.2020
1995 Clouds 21 1013 64 10000 2.6 90 23:19 05.06.2020
1996 Clouds 22 1013 56 10000 1.5 100 22:56 05.06.2020
1997 Clouds 23 1013 53 10000 1.5 100 22:37 05.06.2020
1998 Clouds 23 1013 53 10000 1.5 100 22:19 05.06.2020
1999 Clouds 22 1013 46 10000 1.5 0 21:42 05.06.2020
2000 Clear 23 1013 46 10000 1 0 21:22 05.06.2020
2001 Clear 25 1012 41 10000 2.1 120 20:58 05.06.2020
2002 Clear 23 1012 41 10000 1.5 110 20:39 05.06.2020
2003 Clouds 24 1012 41 10000 1.5 110 20:21 05.06.2020
2004 Clouds 25 1012 41 10000 3.1 100 19:42 05.06.2020
2005 Clouds 25 1012 41 10000 3.1 100 19:23 05.06.2020
2006 Clouds 26 1012 41 10000 3.1 100 18:57 05.06.2020
2007 Clouds 28 1012 41 10000 4.1 100 18:38 05.06.2020
2008 Clouds 28 1012 41 10000 4.1 100 18:19 05.06.2020
2009 Clouds 28 1012 44 10000 3.1 110 17:57 05.06.2020
2010 Clouds 28 1012 44 10000 3.1 110 17:39 05.06.2020
2011 Clouds 28 1012 41 10000 2.6 130 17:19 05.06.2020
2012 Clouds 28 1013 39 10000 1.5 0 16:39 05.06.2020
2013 Clouds 28 1013 42 10000 2.1 0 16:20 05.06.2020
2014 Clouds 27 1012 44 10000 4.1 220 15:55 05.06.2020
2015 Clouds 27 1012 44 10000 4.1 220 15:55 05.06.2020
2016 Clouds 27 1013 41 10000 3.1 250 15:36 05.06.2020
2017 Clouds 28 1013 41 10000 3.1 250 15:18 05.06.2020
2018 Clouds 28 1013 39 10000 3.6 230 14:41 05.06.2020
2019 Clouds 27 1014 47 10000 4.1 200 14:22 05.06.2020
2020 Clouds 27 1014 41 10000 3.6 200 13:59 05.06.2020
2021 Clouds 27 1014 44 10000 3.6 200 13:40 05.06.2020
2022 Clouds 27 1014 44 10000 3.6 200 13:22 05.06.2020
2023 Clouds 26 1014 47 10000 4.1 210 12:42 05.06.2020
2024 Clouds 26 1015 47 10000 3.6 210 12:20 05.06.2020
2025 Clouds 25 1015 44 10000 4.1 190 11:56 05.06.2020
2026 Clouds 25 1015 53 10000 4.1 190 11:38 05.06.2020
2027 Clouds 25 1015 53 10000 4.1 190 11:19 05.06.2020
2028 Clouds 24 1015 60 10000 5.1 190 10:42 05.06.2020
2029 Clouds 24 1015 60 10000 5.1 190 10:22 05.06.2020
2030 Clouds 24 1015 60 10000 5.1 190 10:22 05.06.2020
2031 Clouds 24 1015 53 10000 5.1 190 09:59 05.06.2020
2032 Clouds 23 1015 64 10000 4.1 190 09:40 05.06.2020
2033 Clouds 23 1015 64 10000 4.1 190 09:21 05.06.2020
2034 Clouds 22 1015 64 10000 4.1 200 08:59 05.06.2020
2035 Clouds 22 1015 68 10000 4.1 200 08:40 05.06.2020
2036 Clear 22 1015 68 10000 4.1 200 08:19 05.06.2020
2037 Clear 22 1015 68 10000 4.1 200 07:53 05.06.2020
2038 Clear 21 1014 72 10000 3.6 190 07:34 05.06.2020
2039 Clear 21 1014 72 10000 2.1 210 06:50 05.06.2020
2040 Clear 17 1014 82 10000 3.1 210 05:23 05.06.2020
2041 Clear 17 1014 82 10000 1 0 04:31 05.06.2020
2042 Clear 17 1014 82 10000 1.5 140 03:49 05.06.2020
2043 Clear 17 1014 88 10000 1 130 02:37 05.06.2020
2044 Clear 18 1014 82 10000 0.5 0 02:18 05.06.2020
2045 Clear 18 1014 82 10000 1 180 01:34 05.06.2020
2046 Clear 17 1014 82 10000 2.1 190 00:55 05.06.2020
2047 Clear 17 1014 82 10000 1.5 170 00:36 05.06.2020
2048 Clear 17 1014 82 10000 2.6 170 00:18 05.06.2020
2049 Clear 17 1014 77 10000 3.1 170 23:42 04.06.2020
2050 Clear 17 1014 77 10000 3.1 170 23:24 04.06.2020
2051 Clear 19 1014 72 10000 4.1 160 22:42 04.06.2020
2052 Clear 19 1014 68 10000 2.6 140 22:22 04.06.2020
2053 Clear 19 1014 68 10000 2.1 160 21:58 04.06.2020
2054 Clear 19 1014 68 10000 2.1 160 21:39 04.06.2020
2055 Clear 19 1014 68 10000 2.6 170 21:20 04.06.2020
2056 Clear 20 1013 77 10000 2.6 150 20:57 04.06.2020
2057 Clear 20 1013 77 10000 2.6 150 20:39 04.06.2020
2058 Clear 20 1013 72 10000 1.5 170 20:20 04.06.2020
2059 Clear 22 1013 68 10000 1.5 190 19:55 04.06.2020
2060 Clear 22 1013 68 10000 1.5 190 19:37 04.06.2020
2061 Clear 22 1013 68 10000 1.5 190 19:19 04.06.2020
2062 Clear 24 1013 46 10000 2.6 220 18:39 04.06.2020
2063 Clear 25 1013 46 10000 2.6 220 18:21 04.06.2020
2064 Clear 25 1012 38 10000 2.6 210 17:59 04.06.2020
2065 Clear 25 1012 38 10000 2.6 210 17:41 04.06.2020
2066 Clear 25 1012 38 10000 2.6 190 17:20 04.06.2020
2067 Clear 25 1013 47 10000 3.1 170 16:41 04.06.2020
2068 Clear 25 1013 47 10000 3.1 170 16:20 04.06.2020
2069 Clear 24 1013 49 10000 3.6 180 15:47 04.06.2020
2070 Clear 24 1013 46 10000 3.1 190 15:27 04.06.2020
2071 Clear 24 1013 46 10000 3.6 200 14:58 04.06.2020
2072 Clear 24 1013 46 10000 3.6 190 14:38 04.06.2020
2073 Clear 23 1013 46 10000 3.6 190 14:19 04.06.2020
2074 Clear 23 1013 49 10000 4.1 210 13:43 04.06.2020
2075 Clear 23 1013 56 10000 3.6 210 13:21 04.06.2020
2076 Clear 22 1013 56 10000 4.1 220 12:59 04.06.2020
2077 Clear 22 1013 68 10000 4.1 220 12:41 04.06.2020
2078 Clear 22 1013 68 10000 4.1 220 12:23 04.06.2020
2079 Clouds 21 1013 72 10000 5.1 210 11:58 04.06.2020
2080 Clouds 21 1013 72 10000 5.1 210 11:38 04.06.2020
2081 Clouds 21 1013 68 10000 5.1 210 11:20 04.06.2020
2082 Clouds 21 1013 68 10000 4.1 210 10:56 04.06.2020
2083 Clouds 20 1013 68 10000 4.1 210 10:37 04.06.2020
2084 Clouds 21 1012 72 10000 3.6 210 10:18 04.06.2020
2085 Clouds 19 1012 77 10000 4.1 210 09:42 04.06.2020
2086 Clouds 19 1012 72 10000 4.1 210 09:23 04.06.2020
2087 Clear 19 1012 72 10000 3.6 200 08:44 04.06.2020
2088 Clear 19 1012 72 10000 3.6 200 08:26 04.06.2020
2089 Clear 18 1011 77 10000 4.1 200 07:47 04.06.2020
2090 Clear 18 1011 77 10000 4.1 210 07:27 04.06.2020
2091 Clear 16 1011 77 10000 3.6 210 06:44 04.06.2020
2092 Clear 16 1011 77 10000 3.6 210 06:25 04.06.2020
2093 Clouds 14 1011 82 10000 3.1 210 05:35 04.06.2020
2094 Clear 14 1010 87 10000 3.1 210 04:33 04.06.2020
2095 Clear 14 1010 87 10000 3.1 180 03:24 04.06.2020
2096 Clear 14 1010 82 10000 1 180 01:56 04.06.2020
2097 Clear 14 1010 87 10000 1.81 158 01:19 04.06.2020
2098 Clear 14 1010 82 10000 1.81 158 00:48 04.06.2020
2099 Clear 15 1011 82 10000 1.45 161 23:44 03.06.2020
2100 Clear 15 1011 82 10000 1.15 181 23:21 03.06.2020
2101 Clear 15 1011 82 10000 1.5 310 22:59 03.06.2020
2102 Clear 15 1011 82 10000 1.5 310 22:39 03.06.2020
2103 Clear 15 1011 77 10000 0.5 0 22:19 03.06.2020
2104 Clear 15 1011 77 10000 0.5 0 22:19 03.06.2020
2105 Clear 16 1011 77 10000 1 0 21:57 03.06.2020
2106 Clear 16 1011 77 10000 1 0 21:39 03.06.2020
2107 Clear 16 1010 77 10000 1 110 21:20 03.06.2020
2108 Clear 16 1010 77 10000 1 0 20:55 03.06.2020
2109 Clouds 16 1010 77 10000 1 0 20:37 03.06.2020
2110 Clouds 16 1010 77 10000 1 0 20:19 03.06.2020
2111 Clouds 17 1010 72 10000 1 0 19:55 03.06.2020
2112 Clouds 17 1010 67 10000 2.6 170 19:36 03.06.2020
2113 Clouds 17 1010 67 10000 2.6 170 19:18 03.06.2020
2114 Clouds 18 1010 72 10000 2.6 160 18:41 03.06.2020
2115 Clouds 19 1010 68 10000 2.6 170 18:22 03.06.2020
2116 Clouds 19 1010 63 10000 3.1 170 17:57 03.06.2020
2117 Clouds 19 1010 63 10000 3.6 150 17:37 03.06.2020
2118 Clouds 19 1010 63 10000 3.6 150 17:18 03.06.2020
2119 Clouds 20 1010 59 10000 3.6 130 16:42 03.06.2020
2120 Clouds 19 1010 63 10000 3.1 150 16:21 03.06.2020
2121 Clouds 19 1010 68 10000 3.1 150 15:58 03.06.2020
2122 Clouds 19 1010 68 10000 3.1 150 15:40 03.06.2020
2123 Clouds 18 1010 67 10000 3.1 160 15:20 03.06.2020
2124 Clouds 18 1010 67 10000 2.6 150 14:46 03.06.2020
2125 Clouds 18 1010 67 10000 2.1 170 14:24 03.06.2020
2126 Clouds 18 1010 72 10000 2.1 180 13:56 03.06.2020
2127 Clouds 18 1010 72 10000 2.1 180 13:38 03.06.2020
2128 Clouds 17 1010 67 10000 2.1 160 13:18 03.06.2020
2129 Clouds 18 1010 72 10000 4.1 170 12:42 03.06.2020
2130 Clouds 18 1010 72 10000 4.1 170 12:21 03.06.2020
2131 Clouds 18 1010 68 10000 3.1 150 11:45 03.06.2020
2132 Clouds 18 1010 72 10000 3.6 160 11:26 03.06.2020
2133 Clouds 18 1010 72 10000 2.6 170 10:55 03.06.2020
2134 Clouds 17 1010 72 10000 2.6 170 10:37 03.06.2020
2135 Clouds 17 1010 68 10000 2.6 130 10:19 03.06.2020
2136 Clouds 16 1010 77 10000 3.6 150 09:41 03.06.2020
2137 Clouds 17 1010 63 10000 1 0 09:19 03.06.2020
2138 Clouds 17 1010 63 10000 2.6 20 08:47 03.06.2020
2139 Clouds 17 1010 63 10000 3.6 360 08:22 03.06.2020
2140 Clouds 16 1009 63 10000 2.1 340 07:58 03.06.2020
2141 Clouds 16 1009 72 10000 1.5 310 07:37 03.06.2020
2142 Clouds 15 1009 72 10000 1.5 330 07:18 03.06.2020
2143 Clouds 15 1009 72 10000 1.5 330 06:45 03.06.2020
2144 Clouds 15 1009 67 10000 1.5 280 06:22 03.06.2020
2145 Clouds 14 1009 72 10000 2.6 330 05:45 03.06.2020
2146 Rain 14 1008 77 10000 1.5 320 04:30 03.06.2020
2147 Rain 14 1008 77 10000 2.1 310 03:42 03.06.2020
2148 Clouds 15 1008 72 10000 3.28 229 02:42 03.06.2020
2149 Clouds 15 1008 72 10000 1 320 01:46 03.06.2020
2150 Clouds 15 1009 82 10000 2.6 350 00:39 03.06.2020
2151 Clouds 15 1009 82 10000 2.6 350 00:21 03.06.2020
2152 Clouds 15 1009 72 10000 2.1 70 23:46 02.06.2020
2153 Clouds 15 1009 72 10000 2.1 70 23:27 02.06.2020
2154 Clouds 15 1009 77 10000 2.6 70 22:55 02.06.2020
2155 Clouds 15 1009 77 10000 2.6 70 22:36 02.06.2020
2156 Clouds 15 1009 72 10000 1.5 40 22:18 02.06.2020
2157 Clouds 16 1009 77 10000 2.6 340 21:54 02.06.2020
2158 Clouds 16 1009 77 10000 2.6 340 21:36 02.06.2020
2159 Clouds 16 1009 77 10000 2.6 340 21:18 02.06.2020
2160 Clouds 16 1008 77 10000 3.1 320 20:42 02.06.2020
2161 Clouds 16 1008 72 10000 3.1 340 20:23 02.06.2020
2162 Clouds 16 1008 72 10000 3.1 340 20:23 02.06.2020
2163 Clouds 16 1008 68 10000 3.6 340 19:58 02.06.2020
2164 Clouds 17 1008 59 10000 3.6 340 19:39 02.06.2020
2165 Clouds 17 1008 59 10000 3.6 340 19:21 02.06.2020
2166 Clouds 17 1008 68 10000 3.6 320 18:55 02.06.2020
2167 Clouds 18 1008 59 10000 2.6 330 18:37 02.06.2020
2168 Clouds 18 1008 59 10000 2.6 330 18:18 02.06.2020
2169 Clouds 19 1008 59 10000 2.6 340 17:42 02.06.2020
2170 Clouds 18 1008 59 10000 4.6 350 17:23 02.06.2020
2171 Clouds 20 1008 56 10000 4.6 340 16:57 02.06.2020
2172 Clouds 20 1008 56 10000 4.6 340 16:38 02.06.2020
2173 Clouds 19 1008 56 10000 4.1 10 16:20 02.06.2020
2174 Clouds 19 1008 60 10000 5.1 360 15:46 02.06.2020
2175 Clouds 19 1008 49 10000 3.1 230 15:24 02.06.2020
2176 Clouds 19 1008 59 10000 3.1 190 14:56 02.06.2020
2177 Clouds 20 1008 56 10000 4.1 190 14:37 02.06.2020
2178 Clouds 21 1008 56 10000 4.1 190 14:19 02.06.2020
2179 Clouds 20 1008 56 10000 4.1 180 13:39 02.06.2020
2180 Clouds 20 1008 56 10000 4.1 180 13:19 02.06.2020
2181 Clouds 19 1008 59 10000 4.1 170 12:58 02.06.2020
2182 Clouds 19 1008 59 10000 4.1 170 12:40 02.06.2020
2183 Clouds 18 1009 63 10000 3.6 180 12:21 02.06.2020
2184 Clouds 19 1009 63 10000 3.6 180 11:56 02.06.2020
2185 Clouds 19 1009 63 10000 3.6 180 11:38 02.06.2020
2186 Clouds 19 1009 63 10000 3.6 180 11:38 02.06.2020
2187 Rain 18 1009 72 10000 3.6 180 11:20 02.06.2020
2188 Rain 18 1009 72 10000 3.6 180 11:20 02.06.2020
2189 Rain 19 1009 72 10000 3.6 170 10:47 02.06.2020
2190 Clouds 19 1009 68 10000 4.1 170 10:28 02.06.2020
2191 Clouds 18 1009 68 10000 4.1 150 09:56 02.06.2020
2192 Clouds 18 1009 68 10000 4.1 150 09:56 02.06.2020
2193 Clouds 18 1009 68 10000 4.1 150 09:37 02.06.2020
2194 Clouds 18 1009 55 10000 3.1 140 09:19 02.06.2020
2195 Clear 17 1009 59 10000 3.1 170 08:47 02.06.2020
2196 Clouds 18 1009 55 10000 1 0 08:20 02.06.2020
2197 Clouds 16 1009 63 10000 1.5 260 07:52 02.06.2020
2198 Clouds 16 1009 55 10000 1.5 330 07:25 02.06.2020
2199 Clouds 15 1009 63 10000 1.5 340 06:45 02.06.2020
2200 Clouds 14 1008 67 10000 2.6 310 05:58 02.06.2020
2201 Clouds 14 1008 72 10000 1.5 290 05:19 02.06.2020
2202 Clouds 14 1009 77 10000 3.1 320 03:25 02.06.2020
2203 Clouds 14 1009 72 10000 2.1 320 02:26 02.06.2020
2204 Clouds 15 1009 72 10000 2.6 290 01:22 02.06.2020
2205 Clouds 15 1010 72 10000 1 0 00:25 02.06.2020
2206 Clouds 15 1010 67 10000 0.5 0 23:56 01.06.2020
2207 Clouds 15 1010 67 10000 0.5 0 23:37 01.06.2020
2208 Clouds 15 1010 63 10000 2.6 50 23:18 01.06.2020
2209 Clouds 15 1010 63 10000 2.6 60 22:41 01.06.2020
2210 Clouds 15 1010 59 10000 3.1 30 22:21 01.06.2020
2211 Clouds 15 1011 59 10000 3.1 20 21:58 01.06.2020
2212 Clouds 15 1011 59 10000 3.1 20 21:40 01.06.2020
2213 Clouds 15 1011 55 10000 3.6 20 21:19 01.06.2020
2214 Clouds 15 1011 51 10000 4.1 40 20:56 01.06.2020
2215 Clouds 15 1011 55 10000 4.1 10 20:38 01.06.2020
2216 Clouds 15 1011 55 10000 4.1 10 20:19 01.06.2020
2217 Clouds 16 1011 55 10000 4.1 10 19:43 01.06.2020
2218 Clouds 17 1010 77 10000 1.5 0 19:21 01.06.2020
2219 Clouds 17 1010 77 10000 1.5 0 18:59 01.06.2020
2220 Clouds 18 1010 77 10000 1.5 150 18:39 01.06.2020
2221 Clouds 18 1010 77 10000 1.5 150 18:20 01.06.2020
2222 Clouds 18 1010 72 10000 3.1 140 17:58 01.06.2020
2223 Clouds 18 1010 72 10000 3.1 140 17:40 01.06.2020
2224 Clouds 17 1010 82 10000 3.1 180 17:19 01.06.2020
2225 Clouds 18 1011 72 10000 4.1 160 16:42 01.06.2020
2226 Clouds 19 1010 59 10000 4.1 130 16:22 01.06.2020
2227 Clouds 19 1010 64 10000 2.1 100 15:57 01.06.2020
2228 Clouds 19 1010 64 10000 2.1 100 15:39 01.06.2020
2229 Clouds 19 1011 64 10000 1.5 0 15:20 01.06.2020
2230 Clouds 19 1011 68 10000 3.6 20 14:57 01.06.2020
2231 Clouds 18 1011 72 10000 4.1 60 14:39 01.06.2020
2232 Clouds 18 1011 72 10000 4.1 60 14:21 01.06.2020
2233 Clouds 17 1011 77 10000 5.1 40 13:44 01.06.2020
2234 Clouds 16 1011 77 10000 5.1 40 13:22 01.06.2020
2235 Rain 16 1012 82 10000 4.1 10 12:59 01.06.2020
2236 Rain 16 1012 87 10000 3.1 360 12:40 01.06.2020
2237 Rain 16 1012 82 10000 4.1 340 12:22 01.06.2020
2238 Rain 16 1012 82 10000 4.1 340 11:59 01.06.2020
2239 Rain 16 1012 82 10000 5.1 320 11:38 01.06.2020
2240 Rain 16 1012 82 10000 5.1 320 11:19 01.06.2020
2241 Thunderstorm 17 1012 87 8000 3.6 160 10:56 01.06.2020
2242 Rain 18 1012 87 8000 3.6 160 10:37 01.06.2020
2243 Rain 18 1012 77 8000 3.6 180 10:18 01.06.2020
2244 Clouds 18 1011 77 10000 1.5 130 09:46 01.06.2020
2245 Clouds 19 1011 77 10000 1.5 290 09:26 01.06.2020
2246 Clouds 19 1011 77 10000 1.5 290 08:57 01.06.2020
2247 Thunderstorm 18 1011 72 10000 1 0 08:37 01.06.2020
2248 Rain 18 1012 72 10000 1 0 08:18 01.06.2020
2249 Rain 18 1012 72 10000 1 0 07:41 01.06.2020
2250 Rain 18 1012 72 10000 1 0 07:22 01.06.2020
2251 Clouds 17 1011 82 10000 1 130 06:49 01.06.2020
2252 Clouds 16 1011 77 10000 2.1 110 05:57 01.06.2020
2253 Clouds 16 1011 72 10000 3.1 100 05:18 01.06.2020
2254 Thunderstorm 17 1011 77 10000 3.1 190 03:57 01.06.2020
2255 Clouds 17 1012 77 10000 2.1 230 03:39 01.06.2020
2256 Clouds 17 1012 77 10000 3.1 180 02:56 01.06.2020
2257 Clouds 17 1012 72 10000 1.5 240 01:40 01.06.2020
2258 Clouds 17 1012 72 10000 1.5 230 01:18 01.06.2020
2259 Clouds 17 1012 68 10000 1 190 00:46 01.06.2020
2260 Clouds 17 1012 68 10000 1 190 00:22 01.06.2020
2261 Clouds 17 1012 68 10000 1 270 23:59 31.05.2020
2262 Clouds 17 1012 68 10000 1 300 23:41 31.05.2020
2263 Clouds 17 1012 68 10000 1 300 23:22 31.05.2020
2264 -273 0 0 0 0 0 22:58 31.05.2020
2265 Clouds 18 1013 63 10000 3.6 10 22:40 31.05.2020
2266 Clouds 18 1013 63 10000 3.6 10 22:22 31.05.2020
2267 Clouds 18 1013 63 10000 4.1 350 21:57 31.05.2020
2268 Clouds 18 1013 55 10000 3.1 320 21:38 31.05.2020
2269 Clouds 18 1013 55 10000 3.1 320 21:20 31.05.2020
2270 Clouds 19 1012 55 10000 1.5 300 20:44 31.05.2020
2271 Clouds 19 1012 55 10000 1.5 300 20:25 31.05.2020
2272 Rain 20 1012 59 10000 2.1 140 19:56 31.05.2020
2273 Rain 20 1012 56 10000 2.6 150 19:37 31.05.2020
2274 Clouds 21 1012 56 10000 2.6 150 19:19 31.05.2020
2275 Clouds 22 1012 46 10000 3.6 140 18:44 31.05.2020
2276 Clouds 22 1012 46 10000 3.6 140 18:25 31.05.2020
2277 Clouds 23 1012 53 10000 2.6 160 17:58 31.05.2020
2278 Clouds 23 1012 49 10000 2.6 190 17:39 31.05.2020
2279 Clouds 23 1012 49 10000 2.6 190 17:20 31.05.2020
2280 Clouds 24 1012 38 10000 3.6 240 16:41 31.05.2020
2281 Clouds 24 1012 38 10000 3.6 240 16:21 31.05.2020
2282 Clouds 24 1012 38 10000 3.1 250 15:42 31.05.2020
2283 Clouds 23 1012 38 10000 3.1 250 15:23 31.05.2020
2284 Clouds 23 1013 38 10000 3.1 250 14:59 31.05.2020
2285 Clouds 23 1013 46 10000 3.6 260 14:40 31.05.2020
2286 Clear 23 1013 46 10000 3.6 260 14:19 31.05.2020
2287 Clear 22 1013 52 10000 3.1 220 13:55 31.05.2020
2288 Clear 22 1014 56 10000 3.1 230 13:37 31.05.2020
2289 Clear 22 1014 52 10000 3.6 210 13:18 31.05.2020
2290 Clear 23 1014 56 10000 3.6 210 12:42 31.05.2020
2291 Clear 23 1014 56 10000 3.6 210 12:23 31.05.2020
2292 Clear 23 1014 56 10000 3.6 210 12:23 31.05.2020
2293 Clear 21 1015 60 10000 3.6 220 11:55 31.05.2020
2294 Clear 21 1015 68 10000 3.6 220 11:36 31.05.2020
2295 Clear 21 1015 68 10000 3.6 220 11:18 31.05.2020
2296 Clear 20 1015 72 10000 3.6 210 10:43 31.05.2020
2297 Clear 21 1015 72 10000 3.6 210 10:25 31.05.2020
2298 Clear 21 1015 72 10000 3.6 210 10:25 31.05.2020
2299 Clear 21 1015 68 10000 3.6 210 09:58 31.05.2020
2300 Clear 20 1015 68 10000 4.1 210 09:40 31.05.2020
2301 Clear 20 1015 68 10000 4.1 210 09:20 31.05.2020
2302 Clear 19 1015 72 10000 3.6 210 08:42 31.05.2020
2303 Clouds 19 1015 72 10000 3.6 210 08:24 31.05.2020
2304 Clouds 18 1015 77 10000 3.1 210 07:49 31.05.2020
2305 Clouds 18 1015 77 10000 2.6 200 07:22 31.05.2020
2306 Clouds 18 1015 77 10000 2.1 170 06:57 31.05.2020
2307 Clouds 17 1015 77 10000 0.5 0 06:35 31.05.2020
2308 Clouds 15 1015 82 10000 1 0 05:49 31.05.2020
2309 Clouds 15 1015 87 10000 1.93 198 05:31 31.05.2020
2310 Clouds 16 1015 82 10000 1.5 110 04:18 31.05.2020
2311 Clouds 15 1015 82 10000 1 0 03:29 31.05.2020
2312 Clouds 15 1015 77 10000 2.1 130 02:46 31.05.2020
2313 Clouds 16 1016 87 10000 2.53 208 01:46 31.05.2020
2314 Clouds 16 1016 82 10000 0.5 0 00:40 31.05.2020
2315 Clouds 16 1016 82 10000 0.5 0 00:20 31.05.2020
2316 Clouds 16 1016 77 10000 2.1 160 23:42 30.05.2020
2317 Clouds 16 1016 77 10000 2.1 160 23:42 30.05.2020
2318 Clouds 16 1016 77 10000 2.1 160 23:23 30.05.2020
2319 Clouds 16 1016 77 10000 2.6 160 22:54 30.05.2020
2320 Clouds 17 1016 77 10000 2.6 160 22:36 30.05.2020
2321 Clouds 17 1016 77 10000 2.6 160 22:18 30.05.2020
2322 Clouds 17 1016 82 10000 3.1 160 21:42 30.05.2020
2323 Clouds 17 1016 82 10000 3.1 160 21:22 30.05.2020
2324 Clouds 17 1015 88 10000 2.6 160 20:57 30.05.2020
2325 Clouds 18 1015 77 10000 2.6 170 20:39 30.05.2020
2326 Clear 18 1015 77 10000 2.6 170 20:21 30.05.2020
2327 Clear 19 1015 63 10000 2.1 190 19:55 30.05.2020
2328 Clear 19 1015 59 10000 2.1 250 19:37 30.05.2020
2329 Clear 19 1015 59 10000 2.1 250 19:18 30.05.2020
2330 Clear 21 1015 60 10000 2.6 230 18:42 30.05.2020
2331 Clear 21 1015 52 10000 2.6 220 18:18 30.05.2020
2332 Clear 22 1015 49 10000 2.6 220 17:41 30.05.2020
2333 Clear 22 1015 49 10000 2.6 220 17:23 30.05.2020
2334 Clear 22 1015 52 10000 2.6 200 16:57 30.05.2020
2335 Clear 22 1015 52 10000 2.6 220 16:37 30.05.2020
2336 Clear 22 1015 46 10000 3.1 230 16:18 30.05.2020
2337 Clear 21 1015 60 10000 3.1 220 15:42 30.05.2020
2338 Clear 21 1015 60 10000 3.1 220 15:42 30.05.2020
2339 Clear 21 1015 60 10000 3.1 220 15:23 30.05.2020
2340 Clear 21 1016 56 10000 3.6 230 14:43 30.05.2020
2341 Clear 21 1016 56 10000 3.6 230 14:24 30.05.2020
2342 Clear 21 1016 60 10000 4.1 230 13:43 30.05.2020
2343 Clear 21 1016 60 10000 4.1 230 13:23 30.05.2020
2344 Clear 20 1016 72 10000 4.6 230 12:42 30.05.2020
2345 Clear 19 1016 72 10000 4.6 230 12:20 30.05.2020
2346 Clouds 20 1016 72 10000 3.6 230 11:57 30.05.2020
2347 Clouds 20 1016 72 10000 4.1 200 11:39 30.05.2020
2348 Clouds 19 1016 72 10000 4.1 200 11:21 30.05.2020
2349 Clouds 18 1016 72 10000 5.1 200 10:41 30.05.2020
2350 Clouds 18 1016 72 10000 5.1 220 10:21 30.05.2020
2351 Clouds 18 1016 72 10000 5.1 220 09:50 30.05.2020
2352 Clouds 18 1016 72 10000 5.1 220 09:31 30.05.2020
2353 Clouds 17 1016 72 10000 4.6 200 08:51 30.05.2020
2354 Clouds 17 1016 77 10000 4.6 210 08:33 30.05.2020
2355 Clouds 17 1016 82 10000 4.1 210 07:49 30.05.2020
2356 Clouds 16 1016 82 10000 3.1 220 07:25 30.05.2020
2357 Clouds 16 1016 82 10000 3.1 220 06:52 30.05.2020
2358 Clouds 15 1015 82 10000 3.6 220 06:24 30.05.2020
2359 Clouds 15 1015 77 10000 3.6 220 05:49 30.05.2020
2360 Rain 14 1015 87 10000 3.1 200 03:57 30.05.2020
2361 Rain 15 1015 77 10000 3.6 230 02:31 30.05.2020
2362 Clouds 15 1015 82 10000 3.6 230 01:50 30.05.2020
2363 Clouds 15 1015 82 10000 3.6 210 00:40 30.05.2020
2364 Clouds 15 1015 82 10000 3.6 210 00:21 30.05.2020
2365 Clouds 15 1016 82 10000 3.6 210 23:58 29.05.2020
2366 Clouds 15 1016 77 10000 3.1 210 23:38 29.05.2020
2367 Clouds 15 1016 77 10000 3.1 210 23:19 29.05.2020
2368 Clouds 16 1015 77 10000 4.6 230 22:41 29.05.2020
2369 Clouds 15 1015 77 10000 4.6 230 22:21 29.05.2020
2370 Clouds 16 1015 82 10000 2.6 250 21:59 29.05.2020
2371 Clouds 16 1015 82 10000 2.6 250 21:58 29.05.2020
2372 Clouds 16 1015 82 10000 4.1 230 21:38 29.05.2020
2373 Clouds 16 1015 82 10000 4.1 230 21:20 29.05.2020
2374 Clouds 16 1015 67 10000 2.6 230 20:45 29.05.2020
2375 Clouds 16 1015 67 10000 2.6 230 20:21 29.05.2020
2376 Clouds 16 1015 72 10000 2.6 230 19:59 29.05.2020
2377 Clouds 17 1015 72 10000 3.1 250 19:40 29.05.2020
2378 Clouds 17 1015 68 10000 3.6 250 19:22 29.05.2020
2379 Clouds 18 1015 68 10000 3.1 240 18:47 29.05.2020
2380 Clouds 18 1015 68 10000 3.1 240 18:20 29.05.2020
2381 Clouds 18 1015 68 10000 3.6 250 17:56 29.05.2020
2382 Clouds 19 1015 72 10000 4.1 220 17:38 29.05.2020
2383 Clouds 19 1015 72 10000 4.1 220 17:19 29.05.2020
2384 Clouds 19 1015 68 10000 4.1 230 16:43 29.05.2020
2385 Clouds 20 1015 68 10000 4.1 230 16:25 29.05.2020
2386 Clouds 20 1015 59 10000 4.1 230 15:56 29.05.2020
2387 Clouds 20 1015 63 10000 3.6 240 15:38 29.05.2020
2388 Clouds 19 1015 63 10000 3.6 240 15:19 29.05.2020
2389 Clouds 19 1015 68 10000 4.1 250 14:49 29.05.2020
2390 Clouds 19 1015 72 10000 3.6 210 14:23 29.05.2020
2391 Clouds 19 1015 72 10000 3.6 210 13:57 29.05.2020
2392 Clouds 19 1016 68 10000 3.6 220 13:38 29.05.2020
2393 Clouds 18 1016 72 10000 3.6 220 13:18 29.05.2020
2394 Clouds 18 1016 72 10000 4.6 210 12:42 29.05.2020
2395 Clouds 18 1016 72 10000 4.6 210 12:23 29.05.2020
2396 Clouds 17 1016 72 10000 4.1 210 11:45 29.05.2020
2397 Clouds 17 1016 72 10000 4.1 210 11:27 29.05.2020
2398 Clouds 17 1016 72 10000 3.1 220 10:57 29.05.2020
2399 Clouds 17 1016 77 10000 3.1 220 10:37 29.05.2020
2400 Clouds 16 1016 77 10000 3.1 220 10:18 29.05.2020
2401 Clouds 16 1016 77 10000 3.6 220 09:43 29.05.2020
2402 Clouds 16 1016 77 10000 3.6 220 09:20 29.05.2020
2403 Clear 15 1015 87 10000 3.6 240 08:49 29.05.2020
2404 Clouds 16 1015 82 10000 3.1 240 08:26 29.05.2020
2405 Clouds 16 1015 77 10000 3.6 240 07:59 29.05.2020
2406 Clouds 16 1015 77 10000 3.6 240 07:59 29.05.2020
2407 Clouds 15 1015 87 10000 3.1 240 07:39 29.05.2020
2408 Clouds 15 1015 87 10000 3.1 240 07:21 29.05.2020
2409 Clouds 14 1015 87 10000 1 0 06:47 29.05.2020
2410 Clouds 13 1015 87 10000 1 0 06:27 29.05.2020
2411 Clouds 12 1015 93 10000 0.57 267 05:46 29.05.2020
2412 Clouds 11 1015 93 10000 0.5 0 02:39 29.05.2020
2413 Clouds 12 1015 93 10000 1 0 01:30 29.05.2020
2414 Clouds 12 1015 93 10000 0.46 9 00:59 29.05.2020
2415 Clouds 12 1015 87 10000 0.46 9 00:40 29.05.2020
2416 Clouds 13 1015 87 10000 0.68 22 00:18 29.05.2020
2417 Clouds 13 1015 82 10000 1.5 310 23:39 28.05.2020
2418 Clouds 13 1015 82 10000 1.5 310 23:19 28.05.2020
2419 Clouds 13 1015 87 10000 3.1 330 22:44 28.05.2020
2420 Clouds 13 1015 87 10000 3.1 330 22:26 28.05.2020
2421 Clouds 13 1015 82 10000 2.6 320 21:57 28.05.2020
2422 Clouds 13 1015 82 10000 1 290 21:39 28.05.2020
2423 Clouds 14 1015 82 10000 1 290 21:20 28.05.2020
2424 Clouds 14 1015 82 10000 2.1 260 20:57 28.05.2020
2425 Clouds 15 1015 77 10000 1.5 280 20:38 28.05.2020
2426 Clouds 15 1015 77 10000 2.1 250 20:18 28.05.2020
2427 Clouds 15 1015 77 10000 2.1 250 19:55 28.05.2020
2428 Clouds 16 1015 72 10000 2.1 250 19:37 28.05.2020
2429 Clouds 17 1015 72 10000 2.1 250 19:18 28.05.2020
2430 Clouds 17 1015 67 10000 3.1 240 18:42 28.05.2020
2431 Rain 17 1015 67 10000 3.1 240 18:22 28.05.2020
2432 Clouds 17 1015 82 10000 2.6 240 17:43 28.05.2020
2433 Clouds 17 1015 82 10000 2.6 240 17:23 28.05.2020
2434 Clouds 16 1016 82 10000 4.1 240 16:58 28.05.2020
2435 Thunderstorm 16 1016 72 10000 4.1 240 16:39 28.05.2020
2436 Thunderstorm 16 1016 72 10000 4.1 240 16:20 28.05.2020
2437 Clouds 16 1016 67 10000 3.6 240 15:45 28.05.2020
2438 Clouds 16 1016 67 10000 3.6 240 15:24 28.05.2020
2439 Clouds 16 1016 72 10000 3.6 230 14:57 28.05.2020
2440 Clouds 16 1016 72 10000 4.1 210 14:38 28.05.2020
2441 Clouds 16 1016 72 10000 4.1 210 14:20 28.05.2020
2442 Clouds 17 1016 72 10000 4.1 200 13:43 28.05.2020
2443 Clouds 17 1016 72 10000 4.1 200 13:24 28.05.2020
2444 Clouds 17 1017 72 10000 4.1 230 12:42 28.05.2020
2445 Clouds 17 1017 72 10000 4.1 230 12:19 28.05.2020
2446 Clouds 16 1017 77 10000 3.6 210 11:44 28.05.2020
2447 Clouds 16 1017 77 10000 3.6 210 11:26 28.05.2020
2448 Clouds 16 1017 77 10000 3.6 210 11:26 28.05.2020
2449 Clouds 16 1017 77 10000 4.1 210 10:58 28.05.2020
2450 Clouds 15 1017 77 10000 4.1 220 10:39 28.05.2020
2451 Clouds 16 1017 77 10000 3.6 230 10:21 28.05.2020
2452 Clouds 15 1017 82 10000 3.1 210 09:39 28.05.2020
2453 Clouds 15 1017 82 10000 3.1 210 09:21 28.05.2020
2454 Clouds 15 1017 77 10000 2.6 210 08:51 28.05.2020
2455 Clouds 14 1017 77 10000 2.1 220 08:31 28.05.2020
2456 Clouds 14 1017 77 10000 1 0 07:54 28.05.2020
2457 Clouds 13 1017 82 10000 0.5 330 07:36 28.05.2020
2458 Clouds 13 1017 87 10000 1 0 07:18 28.05.2020
2459 Clouds 12 1017 87 10000 1 0 06:39 28.05.2020
2460 Clouds 12 1017 87 10000 1 0 06:20 28.05.2020
2461 Rain 12 1017 93 8000 2.6 30 05:36 28.05.2020
2462 Rain 12 1016 87 10000 1 0 04:33 28.05.2020
2463 Rain 12 1017 82 10000 1 0 03:48 28.05.2020
2464 Clouds 13 1017 76 10000 1.5 300 02:47 28.05.2020
2465 Clouds 13 1017 76 10000 2.6 290 01:54 28.05.2020
2466 Clouds 12 1017 82 10000 1.5 300 00:56 28.05.2020
2467 Rain 13 1017 82 10000 1 0 00:38 28.05.2020
2468 Clouds 13 1017 76 10000 2.1 30 00:18 28.05.2020
2469 Clouds 13 1017 76 10000 2.1 40 23:40 27.05.2020
2470 Clouds 13 1017 72 10000 3.1 50 23:21 27.05.2020
2471 Clouds 13 1017 72 10000 3.1 50 23:21 27.05.2020
2472 Clouds 13 1017 72 10000 3.1 50 22:59 27.05.2020
2473 Clouds 13 1017 76 10000 4.1 30 22:40 27.05.2020
2474 Clouds 13 1017 72 10000 4.6 10 22:22 27.05.2020
2475 Clouds 14 1017 72 10000 4.1 40 21:43 27.05.2020
2476 Clouds 14 1017 72 10000 4.1 40 21:24 27.05.2020
2477 Clouds 14 1017 77 10000 4.1 20 20:59 27.05.2020
2478 Clouds 13 1017 82 10000 6.2 10 20:41 27.05.2020
2479 Clouds 13 1017 82 10000 6.2 10 20:22 27.05.2020
2480 Clouds 13 1017 82 10000 6.2 10 20:22 27.05.2020
2481 Clouds 14 1017 72 10000 6.2 20 19:59 27.05.2020
2482 Clouds 14 1017 72 10000 6.2 20 19:59 27.05.2020
2483 Clouds 14 1017 77 10000 4.1 20 19:40 27.05.2020
2484 Clouds 14 1017 77 10000 4.1 20 19:19 27.05.2020
2485 Clouds 14 1017 77 10000 5.1 360 18:41 27.05.2020
2486 Clouds 14 1017 77 10000 5.1 360 18:20 27.05.2020
2487 Rain 14 1017 82 10000 4.1 40 17:56 27.05.2020
2488 Clouds 14 1017 77 10000 5.1 10 17:37 27.05.2020
2489 Clouds 14 1017 72 10000 5.1 30 17:19 27.05.2020
2490 Clouds 14 1017 72 10000 5.1 30 16:55 27.05.2020
2491 Rain 14 1016 77 7000 7.2 20 16:36 27.05.2020
2492 Rain 13 1016 82 7000 7.2 20 16:18 27.05.2020
2493 Rain 14 1017 82 7000 4.1 30 15:40 27.05.2020
2494 Rain 14 1017 82 7000 4.1 30 15:21 27.05.2020
2495 Rain 14 1017 77 8000 6.2 20 14:45 27.05.2020
2496 Rain 14 1017 77 8000 6.2 20 14:22 27.05.2020
2497 Rain 14 1016 77 8000 7.2 50 13:55 27.05.2020
2498 Rain 14 1016 67 8000 8.2 40 13:37 27.05.2020
2499 Rain 14 1016 67 8000 8.2 40 13:37 27.05.2020
2500 Rain 14 1016 67 8000 8.2 40 13:37 27.05.2020
2501 Rain 14 1016 67 8000 8.2 40 13:19 27.05.2020
2502 Clouds 15 1016 67 10000 7.7 40 12:40 27.05.2020
2503 Clouds 15 1016 67 10000 7.7 40 12:40 27.05.2020
2504 Clouds 15 1016 67 10000 7.7 40 12:22 27.05.2020
2505 Clouds 16 1016 82 10000 8.7 20 11:41 27.05.2020
2506 Clouds 16 1016 82 10000 8.7 20 11:22 27.05.2020
2507 Rain 15 1016 82 7000 8.2 20 10:59 27.05.2020
2508 Rain 15 1017 77 8000 6.2 30 10:40 27.05.2020
2509 Rain 15 1017 72 8000 7.2 50 10:22 27.05.2020
2510 Rain 15 1017 72 8000 7.2 50 09:55 27.05.2020
2511 Clouds 15 1017 67 10000 7.2 60 09:37 27.05.2020
2512 Clouds 15 1017 67 10000 7.7 40 09:18 27.05.2020
2513 Clouds 15 1017 67 10000 7.7 50 08:40 27.05.2020
2514 Clouds 15 1017 72 10000 7.7 40 08:22 27.05.2020
2515 Clouds 15 1017 72 10000 7.7 40 07:51 27.05.2020
2516 Clouds 15 1017 72 10000 7.2 50 07:33 27.05.2020
2517 Clouds 14 1017 77 10000 6.2 50 06:55 27.05.2020
2518 Clouds 14 1017 77 10000 6.2 50 06:24 27.05.2020
2519 Clouds 14 1017 77 10000 6.2 40 05:50 27.05.2020
2520 Clouds 13 1017 77 10000 5.1 40 05:23 27.05.2020
2521 Clouds 13 1017 82 10000 4.1 40 02:46 27.05.2020
2522 Clouds 13 1017 82 10000 4.1 50 02:24 27.05.2020
2523 Clouds 13 1018 82 10000 5.1 30 01:31 27.05.2020
2524 Clouds 13 1018 82 10000 5.1 30 01:31 27.05.2020
2525 Clouds 13 1018 82 10000 5.1 30 00:47 27.05.2020
2526 Clouds 14 1018 77 10000 6.2 60 00:21 27.05.2020
2527 Clouds 14 1018 72 10000 5.1 40 23:58 26.05.2020
2528 Clouds 14 1018 72 10000 5.7 50 23:39 26.05.2020
2529 Clouds 14 1018 72 10000 5.7 50 23:20 26.05.2020
2530 Clouds 14 1018 72 10000 4.1 50 22:42 26.05.2020
2531 Clouds 14 1018 72 10000 4.1 50 22:23 26.05.2020
2532 Clouds 14 1018 72 10000 4.6 40 21:59 26.05.2020
2533 Clouds 14 1018 72 10000 4.6 50 21:40 26.05.2020
2534 Clouds 14 1018 72 10000 4.6 50 21:22 26.05.2020
2535 Clouds 14 1018 67 10000 6.2 40 20:58 26.05.2020
2536 Clouds 14 1018 67 10000 5.7 40 20:39 26.05.2020
2537 Clear 14 1018 67 10000 5.7 40 20:20 26.05.2020
2538 Clear 16 1018 59 10000 5.7 30 19:41 26.05.2020
2539 Clear 16 1018 59 10000 5.7 30 19:21 26.05.2020
2540 Clear 16 1018 55 10000 6.2 30 18:58 26.05.2020
2541 Clear 17 1018 55 10000 7.2 30 18:39 26.05.2020
2542 Clear 17 1018 55 10000 7.2 30 18:20 26.05.2020
2543 Clear 19 1018 52 10000 6.2 30 17:42 26.05.2020
2544 Clear 19 1018 52 10000 6.2 30 17:23 26.05.2020
2545 Clear 20 1018 45 10000 5.1 40 16:49 26.05.2020
2546 Clear 20 1018 45 10000 6.2 50 16:23 26.05.2020
2547 Clear 20 1018 46 10000 7.2 60 15:59 26.05.2020
2548 Clouds 20 1018 42 10000 5.7 50 15:40 26.05.2020
2549 Clouds 20 1018 46 10000 4.6 40 15:19 26.05.2020
2550 Clouds 20 1018 46 10000 4.6 40 15:19 26.05.2020
2551 Clouds 21 1018 46 10000 4.6 40 14:55 26.05.2020
2552 Clouds 21 1018 56 10000 4.1 100 14:36 26.05.2020
2553 Clouds 20 1019 59 10000 4.6 110 14:18 26.05.2020
2554 Clouds 19 1019 63 10000 4.1 130 13:40 26.05.2020
2555 Clouds 19 1019 63 10000 4.1 130 13:22 26.05.2020
2556 Clouds 19 1019 49 10000 4.1 60 12:44 26.05.2020
2557 Clouds 19 1019 49 10000 4.1 60 12:23 26.05.2020
2558 Clouds 19 1019 49 10000 4.6 50 11:59 26.05.2020
2559 Clouds 19 1019 55 10000 4.1 50 11:40 26.05.2020
2560 Clouds 19 1019 55 10000 4.1 50 11:19 26.05.2020
2561 Clouds 19 1019 55 10000 4.1 70 11:19 26.05.2020
2562 Clouds 18 1019 55 10000 4.1 70 10:47 26.05.2020
2563 Clouds 18 1019 63 10000 4.6 70 10:19 26.05.2020
2564 Clouds 18 1020 63 10000 4.6 70 09:55 26.05.2020
2565 Clouds 16 1020 67 10000 4.6 70 09:37 26.05.2020
2566 Clouds 16 1020 67 10000 4.6 70 09:18 26.05.2020
2567 Clouds 15 1020 72 10000 4.1 50 08:39 26.05.2020
2568 Clouds 15 1020 72 10000 4.1 50 08:21 26.05.2020
2569 Clouds 14 1019 77 10000 4.1 30 07:42 26.05.2020
2570 Clouds 14 1019 82 10000 3.6 20 07:22 26.05.2020
2571 Clouds 13 1019 82 10000 3.6 20 06:52 26.05.2020
2572 Clouds 13 1019 82 10000 3.1 40 06:23 26.05.2020
2573 Clouds 12 1020 82 10000 2.6 30 05:41 26.05.2020
2574 Clouds 12 1019 87 10000 4.1 350 05:18 26.05.2020
2575 Clouds 11 1019 87 10000 5.7 350 04:47 26.05.2020
2576 Clouds 11 1019 87 10000 5.7 350 04:28 26.05.2020
2577 Clouds 11 1019 93 10000 4.6 350 03:34 26.05.2020
2578 Clouds 11 1019 87 10000 3.1 350 02:34 26.05.2020
2579 Clouds 12 1020 82 10000 2.1 20 01:42 26.05.2020
2580 Clear 12 1020 82 10000 2.1 40 00:39 26.05.2020
2581 Clear 12 1020 82 10000 2.1 40 00:20 26.05.2020
2582 Clear 12 1020 82 10000 2.6 50 23:58 25.05.2020
2583 Clear 12 1020 82 10000 2.6 50 23:38 25.05.2020
2584 Clear 12 1020 82 10000 2.6 40 23:19 25.05.2020
2585 Clear 13 1020 82 10000 2.6 40 22:56 25.05.2020
2586 Clear 13 1020 77 10000 3.1 20 22:37 25.05.2020
2587 Clear 13 1020 72 10000 3.1 20 22:19 25.05.2020
2588 Clear 13 1020 72 10000 3.1 20 21:58 25.05.2020
2589 Clear 13 1020 67 10000 3.1 40 21:38 25.05.2020
2590 Clouds 14 1020 59 10000 4.1 20 21:18 25.05.2020
2591 Clouds 14 1020 59 10000 4.1 20 20:58 25.05.2020
2592 Clouds 14 1020 55 10000 4.1 20 20:40 25.05.2020
2593 Clouds 14 1020 55 10000 4.1 20 20:20 25.05.2020
2594 Clouds 15 1020 48 10000 4.6 30 19:42 25.05.2020
2595 Clouds 15 1020 48 10000 4.6 30 19:20 25.05.2020
2596 Clouds 17 1020 45 10000 5.7 30 18:58 25.05.2020
2597 Clouds 17 1020 48 10000 5.7 60 18:40 25.05.2020
2598 Clouds 17 1020 48 10000 5.7 60 18:21 25.05.2020
2599 Clouds 18 1020 52 10000 4.1 20 17:44 25.05.2020
2600 Clouds 18 1020 52 10000 5.1 10 17:26 25.05.2020
2601 Clouds 18 1020 52 10000 5.1 10 16:59 25.05.2020
2602 Clouds 18 1021 59 10000 5.1 20 16:40 25.05.2020
2603 Clouds 18 1021 59 10000 5.1 20 16:22 25.05.2020
2604 Clouds 18 1021 63 10000 4.1 20 15:55 25.05.2020
2605 Clouds 17 1021 63 10000 5.1 10 15:36 25.05.2020
2606 Clouds 17 1021 68 10000 5.1 350 15:18 25.05.2020
2607 Clouds 16 1021 72 10000 6.2 350 14:42 25.05.2020
2608 Clouds 16 1021 72 10000 6.2 350 14:23 25.05.2020
2609 Clouds 17 1021 68 10000 5.1 350 13:56 25.05.2020
2610 Clouds 17 1021 68 10000 5.7 360 13:37 25.05.2020
2611 Clouds 17 1021 68 10000 5.7 360 13:37 25.05.2020
2612 Clouds 17 1021 68 10000 5.7 360 13:37 25.05.2020
2613 Clouds 17 1021 68 10000 5.7 340 13:19 25.05.2020
2614 Clouds 17 1021 63 10000 5.1 350 12:40 25.05.2020
2615 Clouds 17 1021 63 10000 5.1 350 12:21 25.05.2020
2616 Clouds 17 1021 63 10000 5.1 350 12:21 25.05.2020
2617 Clouds 16 1021 72 10000 5.1 330 11:57 25.05.2020
2618 Clouds 16 1021 72 10000 6.2 330 11:37 25.05.2020
2619 Clouds 16 1021 72 10000 6.2 330 11:18 25.05.2020
2620 Clouds 16 1021 72 10000 6.2 340 10:41 25.05.2020
2621 Clouds 16 1021 72 10000 6.2 340 10:21 25.05.2020
2622 Clouds 16 1021 72 10000 5.1 350 09:56 25.05.2020
2623 Clouds 16 1021 77 10000 3.6 340 09:38 25.05.2020
2624 Clouds 16 1021 77 10000 3.6 340 09:19 25.05.2020
2625 Clouds 15 1021 77 10000 3.6 340 08:44 25.05.2020
2626 Clouds 15 1021 77 10000 3.6 340 08:24 25.05.2020
2627 Clouds 15 1021 77 10000 3.6 360 07:59 25.05.2020
2628 Clouds 15 1021 72 10000 4.1 360 07:39 25.05.2020
2629 Clouds 15 1021 72 10000 4.1 360 07:20 25.05.2020
2630 Clouds 14 1021 82 10000 2.6 310 06:45 25.05.2020
2631 Clouds 14 1021 82 10000 2.6 310 06:27 25.05.2020
2632 Rain 14 1020 77 10000 1.5 0 03:40 25.05.2020
2633 Rain 14 1020 77 10000 1.5 0 03:22 25.05.2020
2634 Clouds 13 1021 77 10000 1.5 260 02:44 25.05.2020
2635 Clouds 13 1021 72 10000 1 0 01:42 25.05.2020
2636 Clouds 13 1021 67 10000 3.1 100 00:58 25.05.2020
2637 Clouds 13 1021 67 10000 3.1 100 00:32 25.05.2020
2638 Clouds 14 1021 59 10000 3.1 100 23:59 24.05.2020
2639 Clouds 14 1021 45 10000 1.5 80 23:39 24.05.2020
2640 Clear 14 1021 45 10000 1.5 80 23:21 24.05.2020
2641 Clear 14 1021 62 10000 1 0 22:58 24.05.2020
2642 Clear 14 1021 54 10000 1 90 22:39 24.05.2020
2643 Clear 14 1021 54 10000 1 0 22:18 24.05.2020
2644 Clear 14 1021 54 10000 1 0 21:55 24.05.2020
2645 Clear 14 1021 51 10000 1.5 120 21:37 24.05.2020
2646 Clear 14 1021 51 10000 1.5 120 21:18 24.05.2020
2647 Clear 15 1021 51 10000 1 0 20:43 24.05.2020
2648 Clear 15 1021 51 10000 1 0 20:21 24.05.2020
2649 Clear 16 1021 48 10000 0.5 0 19:57 24.05.2020
2650 Clear 16 1021 48 10000 1 0 19:38 24.05.2020
2651 Clear 17 1021 45 10000 1 0 19:19 24.05.2020
2652 Clear 19 1021 48 10000 2.1 190 18:43 24.05.2020
2653 Clear 19 1021 48 10000 2.1 190 18:23 24.05.2020
2654 Clear 19 1021 42 10000 2.6 190 17:59 24.05.2020
2655 Clear 19 1022 42 10000 3.1 230 17:40 24.05.2020
2656 Clear 20 1022 42 10000 3.1 230 17:21 24.05.2020
2657 Clear 19 1022 42 10000 3.1 230 16:56 24.05.2020
2658 Clear 19 1022 45 10000 3.1 240 16:38 24.05.2020
2659 Clear 19 1022 51 10000 4.1 250 16:19 24.05.2020
2660 Clear 19 1022 51 10000 4.1 250 15:56 24.05.2020
2661 Clear 19 1022 42 10000 3.6 230 15:38 24.05.2020
2662 Clear 19 1023 42 10000 3.6 230 15:18 24.05.2020
2663 Clear 19 1023 42 10000 3.1 230 14:44 24.05.2020
2664 Clear 19 1023 42 10000 3.1 230 14:24 24.05.2020
2665 Clear 18 1023 48 10000 3.1 220 13:57 24.05.2020
2666 Clear 19 1023 42 10000 3.1 200 13:39 24.05.2020
2667 Clear 18 1023 42 10000 3.1 200 13:21 24.05.2020
2668 Clear 18 1024 39 10000 3.1 200 12:58 24.05.2020
2669 Clear 18 1024 42 10000 2.6 220 12:40 24.05.2020
2670 Clear 17 1025 51 10000 2.6 200 12:22 24.05.2020
2671 Clear 17 1025 51 10000 2.6 200 11:56 24.05.2020
2672 Clear 18 1025 63 10000 3.1 180 11:38 24.05.2020
2673 Clear 18 1025 63 10000 3.1 180 11:20 24.05.2020
2674 Clouds 17 1025 67 10000 2.1 180 10:55 24.05.2020
2675 Clear 17 1025 77 10000 2.6 160 10:37 24.05.2020
2676 Clear 17 1025 77 10000 2.6 160 10:18 24.05.2020
2677 Clouds 15 1025 77 10000 2.6 150 09:41 24.05.2020
2678 Clouds 15 1025 76 10000 3.1 130 09:18 24.05.2020
2679 Clouds 14 1025 76 10000 3.1 130 08:56 24.05.2020
2680 Clouds 13 1025 71 10000 2.6 130 08:37 24.05.2020
2681 Clear 13 1025 71 10000 1.5 0 08:19 24.05.2020
2682 Clear 13 1025 71 10000 0.5 0 07:42 24.05.2020
2683 Clear 13 1025 71 10000 0.5 0 07:24 24.05.2020
2684 Clear 10 1025 87 10000 2.1 330 06:48 24.05.2020
2685 Clear 9 1025 87 10000 2.1 330 06:25 24.05.2020
2686 Clear 8 1024 87 10000 1 340 04:52 24.05.2020
2687 Clear 8 1025 87 10000 1.5 290 03:41 24.05.2020
2688 Clear 8 1025 87 10000 1.5 320 02:31 24.05.2020
2689 Clear 9 1025 76 10000 2.1 40 01:46 24.05.2020
2690 Clear 9 1025 76 10000 2.1 60 00:39 24.05.2020
2691 Clear 10 1025 76 10000 2.1 60 00:21 24.05.2020
2692 Clear 10 1025 76 10000 2.1 80 23:43 23.05.2020
2693 Clear 10 1025 76 10000 2.1 80 23:23 23.05.2020
2694 Clear 10 1025 76 10000 2.1 70 22:57 23.05.2020
2695 Clear 10 1025 76 10000 1 0 22:38 23.05.2020
2696 Clear 10 1025 76 10000 1 0 22:20 23.05.2020
2697 Clear 10 1025 76 10000 0.5 0 21:57 23.05.2020
2698 Clear 11 1025 71 10000 2.6 40 21:37 23.05.2020
2699 -273 0 0 0 0 0 21:19 23.05.2020
2700 Clear 11 1025 66 10000 3.1 20 21:19 23.05.2020
2701 Clear 11 1025 66 10000 3.1 20 20:57 23.05.2020
2702 Clear 11 1025 66 10000 3.6 40 20:38 23.05.2020
2703 Clear 12 1024 62 10000 5.1 20 20:18 23.05.2020
2704 Clear 12 1024 58 10000 5.7 30 19:42 23.05.2020
2705 Clear 13 1024 58 10000 5.7 30 19:20 23.05.2020
2706 Clear 13 1024 62 10000 6.2 40 18:58 23.05.2020
2707 Clouds 14 1024 54 10000 7.2 10 18:40 23.05.2020
2708 Clouds 15 1024 54 10000 7.2 10 18:21 23.05.2020
2709 Clouds 15 1024 58 10000 8.7 350 17:55 23.05.2020
2710 Clouds 15 1024 58 10000 8.7 340 17:37 23.05.2020
2711 Clouds 15 1024 58 10000 8.7 340 17:19 23.05.2020
2712 Clouds 15 1023 59 10000 8.2 350 16:56 23.05.2020
2713 Clouds 15 1023 51 10000 7.7 360 16:37 23.05.2020
2714 Clouds 15 1023 51 10000 7.2 10 16:18 23.05.2020
2715 Clouds 15 1023 55 10000 7.7 350 15:42 23.05.2020
2716 Clouds 15 1023 55 10000 7.7 350 15:23 23.05.2020
2717 Clouds 14 1023 67 10000 2.6 170 14:55 23.05.2020
2718 Clouds 14 1023 67 10000 2.6 170 14:37 23.05.2020
2719 Clouds 14 1023 67 10000 2.6 170 14:19 23.05.2020
2720 Clouds 12 1023 87 10000 3.6 240 13:40 23.05.2020
2721 Clouds 12 1023 87 10000 3.6 240 13:19 23.05.2020
2722 Clouds 14 1022 67 10000 4.1 180 12:55 23.05.2020
2723 Clouds 14 1022 62 10000 4.1 180 12:36 23.05.2020
2724 Clouds 14 1023 67 10000 3.6 240 12:18 23.05.2020
2725 Clouds 13 1023 67 10000 3.6 240 11:42 23.05.2020
2726 Clouds 13 1023 67 10000 3.6 240 11:20 23.05.2020
2727 Clouds 12 1023 76 10000 2.1 150 10:56 23.05.2020
2728 Clouds 12 1023 81 10000 1.5 0 10:38 23.05.2020
2729 Clouds 12 1023 81 10000 1.5 0 10:19 23.05.2020
2730 Rain 12 1023 81 7000 1 0 09:55 23.05.2020
2731 Rain 12 1023 81 7000 1 0 09:55 23.05.2020
2732 Rain 12 1023 81 7000 1 0 09:37 23.05.2020
2733 Clouds 14 1022 76 10000 3.1 110 09:18 23.05.2020
2734 Clouds 14 1022 77 10000 2.6 90 08:41 23.05.2020
2735 Clouds 14 1022 77 10000 2.6 90 08:19 23.05.2020
2736 Clouds 13 1021 82 10000 1 0 07:46 23.05.2020
2737 Clouds 13 1021 82 10000 1 0 07:27 23.05.2020
2738 Clouds 12 1021 87 9000 0.5 0 06:44 23.05.2020
2739 Clouds 9 1021 93 10000 0.5 0 05:59 23.05.2020
2740 Clear 9 1021 87 10000 1.01 219 04:27 23.05.2020
2741 Clear 10 1022 81 10000 1 290 03:26 23.05.2020
2742 Clear 9 1022 87 10000 1 320 02:42 23.05.2020
2743 Clear 9 1022 81 10000 0.5 0 01:50 23.05.2020
2744 Clear 10 1022 87 10000 0.37 332 01:19 23.05.2020
2745 Clear 10 1023 87 10000 0.37 332 00:43 23.05.2020
2746 Clear 10 1023 87 10000 0.29 82 00:22 23.05.2020
2747 Clear 11 1023 87 10000 0.5 320 23:47 22.05.2020
2748 Clear 11 1023 81 10000 1.41 112 23:22 22.05.2020
2749 Clear 11 1023 76 10000 1.5 190 22:59 22.05.2020
2750 Clear 12 1023 76 10000 1 190 22:41 22.05.2020
2751 Clear 12 1023 76 10000 1.5 170 22:21 22.05.2020
2752 Clear 12 1023 76 10000 1.5 170 21:55 22.05.2020
2753 Clear 12 1023 76 10000 1.5 170 21:55 22.05.2020
2754 Clear 12 1022 71 10000 1.5 100 21:36 22.05.2020
2755 Clear 12 1022 71 10000 1.5 100 21:18 22.05.2020
2756 Clear 12 1022 76 10000 1 170 20:42 22.05.2020
2757 Clear 13 1022 76 10000 1 170 20:20 22.05.2020
2758 Clear 14 1021 67 10000 2.6 130 19:45 22.05.2020
2759 Clear 14 1021 67 10000 2.6 120 19:26 22.05.2020
2760 Clear 15 1021 67 10000 2.6 120 18:58 22.05.2020
2761 Clear 15 1021 67 10000 2.1 130 18:39 22.05.2020
2762 Clouds 16 1021 62 10000 2.6 140 18:19 22.05.2020
2763 Clouds 17 1021 67 10000 3.1 150 17:41 22.05.2020
2764 Clouds 17 1021 67 10000 3.1 150 17:20 22.05.2020
2765 Clouds 17 1021 63 10000 2.1 0 16:58 22.05.2020
2766 Clouds 16 1021 71 10000 3.6 200 16:39 22.05.2020
2767 Rain 16 1021 67 10000 2.1 120 16:20 22.05.2020
2768 Rain 16 1021 67 10000 2.1 120 15:56 22.05.2020
2769 Clouds 16 1021 67 10000 4.1 160 15:38 22.05.2020
2770 Clouds 16 1020 67 10000 4.1 140 15:18 22.05.2020
2771 Clouds 14 1020 67 10000 4.6 140 14:40 22.05.2020
2772 Clouds 14 1020 67 10000 4.6 140 14:21 22.05.2020
2773 Clouds 15 1020 67 10000 4.1 130 13:44 22.05.2020
2774 Clouds 15 1020 67 10000 4.1 130 13:19 22.05.2020
2775 Clouds 14 1019 67 10000 4.6 90 12:43 22.05.2020
2776 Clouds 14 1019 67 10000 5.1 80 12:25 22.05.2020
2777 Clouds 13 1019 67 10000 5.1 80 11:55 22.05.2020
2778 Clouds 12 1019 71 10000 5.7 50 11:36 22.05.2020
2779 Clouds 12 1019 71 10000 5.7 50 11:18 22.05.2020
2780 Rain 11 1018 81 10000 4.6 30 10:40 22.05.2020
2781 Rain 11 1018 81 10000 4.6 30 10:22 22.05.2020
2782 Rain 11 1017 81 10000 7.2 50 09:57 22.05.2020
2783 Rain 11 1017 81 10000 7.2 30 09:38 22.05.2020
2784 Rain 11 1017 81 10000 7.2 30 09:18 22.05.2020
2785 Rain 11 1016 87 10000 7.7 10 08:43 22.05.2020
2786 Rain 11 1016 87 10000 7.7 10 08:20 22.05.2020
2787 Rain 11 1016 87 10000 9.3 10 07:52 22.05.2020
2788 Rain 11 1015 87 10000 8.7 10 07:24 22.05.2020
2789 Rain 11 1015 87 10000 8.7 10 06:54 22.05.2020
2790 Rain 11 1014 87 10000 9.3 10 06:32 22.05.2020
2791 Rain 11 1013 87 10000 11.8 360 05:38 22.05.2020
2792 Rain 12 1013 76 10000 10.8 360 04:50 22.05.2020
2793 Rain 13 1013 87 6000 9.8 360 04:19 22.05.2020
2794 Rain 13 1013 87 6000 9.3 360 03:41 22.05.2020
2795 Rain 13 1013 82 10000 8.7 360 02:59 22.05.2020
2796 Clouds 14 1012 82 10000 8.7 360 01:49 22.05.2020
2797 Clouds 14 1012 82 10000 8.7 360 01:24 22.05.2020
2798 Clouds 14 1012 82 10000 8.7 10 00:34 22.05.2020
2799 Clouds 14 1012 82 10000 8.2 10 23:59 21.05.2020
2800 Clouds 15 1012 82 10000 8.2 10 23:41 21.05.2020
2801 Clouds 15 1012 82 10000 8.2 10 23:23 21.05.2020
2802 Clouds 15 1012 82 10000 8.2 10 22:57 21.05.2020
2803 Clouds 15 1012 82 10000 7.2 20 22:37 21.05.2020
2804 Clouds 15 1012 82 10000 8.7 20 22:19 21.05.2020
2805 Clouds 15 1012 82 10000 8.7 20 21:48 21.05.2020
2806 Clouds 15 1011 87 10000 8.7 10 21:27 21.05.2020
2807 Clouds 15 1011 87 10000 8.7 360 20:58 21.05.2020
2808 Clouds 15 1011 87 10000 7.7 360 20:40 21.05.2020
2809 Clouds 15 1011 87 10000 7.7 360 20:21 21.05.2020
2810 Clouds 15 1011 87 10000 7.7 360 20:21 21.05.2020
2811 Clouds 15 1011 87 10000 6.7 10 19:40 21.05.2020
2812 Clouds 15 1011 87 10000 6.7 10 19:20 21.05.2020
2813 Clouds 15 1010 87 10000 7.2 10 18:58 21.05.2020
2814 Clouds 16 1010 87 10000 7.7 10 18:37 21.05.2020
2815 Clouds 16 1009 82 10000 7.7 10 18:18 21.05.2020
2816 Clouds 16 1009 82 10000 7.7 10 17:54 21.05.2020
2817 Clouds 16 1009 82 10000 8.7 360 17:36 21.05.2020
2818 Clouds 16 1009 82 10000 8.7 360 17:18 21.05.2020
2819 Clouds 17 1009 77 10000 9.3 10 16:40 21.05.2020
2820 Clouds 17 1009 77 10000 9.3 10 16:21 21.05.2020
2821 Clouds 17 1008 77 10000 9.3 10 15:41 21.05.2020
2822 Clouds 17 1008 77 10000 9.3 10 15:22 21.05.2020
2823 Clouds 18 1008 77 10000 8.7 360 14:41 21.05.2020
2824 Clouds 18 1008 77 10000 9.3 360 14:23 21.05.2020
2825 Clouds 18 1008 77 10000 9.3 360 13:58 21.05.2020
2826 Clouds 18 1008 77 10000 9.8 350 13:38 21.05.2020
2827 Clouds 19 1008 77 10000 9.3 340 13:18 21.05.2020
2828 Clouds 19 1008 68 10000 8.2 350 12:40 21.05.2020
2829 Clouds 19 1008 68 10000 8.2 350 12:20 21.05.2020
2830 Clouds 19 1007 72 10000 7.7 360 11:57 21.05.2020
2831 Clouds 19 1007 68 10000 8.2 360 11:39 21.05.2020
2832 Clouds 19 1007 68 10000 8.2 360 11:20 21.05.2020
2833 Clouds 19 1007 77 10000 7.7 360 10:43 21.05.2020
2834 Clouds 19 1007 77 10000 7.7 360 10:23 21.05.2020
2835 Clouds 19 1007 77 10000 7.2 360 09:59 21.05.2020
2836 Clouds 19 1007 72 10000 8.7 360 09:40 21.05.2020
2837 Clouds 18 1007 77 10000 8.2 10 09:22 21.05.2020
2838 Clouds 18 1007 77 10000 8.2 10 08:50 21.05.2020
2839 Clouds 18 1006 77 10000 9.3 360 08:31 21.05.2020
2840 Clouds 17 1006 82 10000 9.8 360 07:59 21.05.2020
2841 Clouds 18 1006 77 10000 10.3 350 07:37 21.05.2020
2842 Clouds 18 1006 82 10000 9.8 350 07:18 21.05.2020
2843 Clouds 18 1006 82 10000 9.8 350 06:30 21.05.2020
2844 Clouds 18 1005 82 10000 8.7 360 05:50 21.05.2020
2845 Clouds 19 1005 88 10000 8.7 330 03:47 21.05.2020
2846 Clouds 19 1005 88 10000 8.7 330 03:20 21.05.2020
2847 Clear 20 1003 77 10000 3.6 350 02:31 21.05.2020
2848 Clouds 20 1004 72 10000 3.6 300 01:50 21.05.2020
2849 Clear 20 1004 68 10000 3.1 340 01:24 21.05.2020
2850 Clear 20 1004 68 10000 3.1 340 00:54 21.05.2020
2851 Clear 21 1004 68 10000 3.1 340 00:26 21.05.2020
2852 Clear 20 1005 68 10000 4.6 340 23:58 20.05.2020
2853 Clear 20 1006 68 10000 3.1 360 23:38 20.05.2020
2854 Clear 21 1006 64 10000 4.1 350 23:18 20.05.2020
2855 Clear 21 1006 60 10000 1.5 20 22:42 20.05.2020
2856 Clear 21 1006 60 10000 1.5 20 22:42 20.05.2020
2857 Clear 21 1006 60 10000 1.5 20 22:24 20.05.2020
2858 Clear 20 1007 73 10000 2.1 50 21:56 20.05.2020
2859 Clear 20 1007 73 10000 2.1 50 21:56 20.05.2020
2860 Clouds 21 1007 53 10000 3.6 10 21:37 20.05.2020
2861 Clouds 22 1007 53 10000 3.1 40 21:19 20.05.2020
2862 Clouds 22 1007 53 10000 3.6 50 20:41 20.05.2020
2863 Clouds 21 1007 53 10000 3.6 50 20:23 20.05.2020
2864 Clouds 21 1008 53 10000 3.6 40 20:23 20.05.2020
2865 Clouds 22 1008 53 10000 4.1 30 19:42 20.05.2020
2866 Clouds 22 1008 53 10000 4.1 30 19:24 20.05.2020
2867 Clouds 23 1008 57 10000 4.1 10 18:58 20.05.2020
2868 Clouds 23 1008 60 10000 4.6 10 18:39 20.05.2020
2869 Clouds 24 1008 69 10000 2.1 190 18:20 20.05.2020
2870 Clouds 25 1008 69 10000 2.1 230 17:40 20.05.2020
2871 Clouds 25 1008 69 10000 2.6 220 17:21 20.05.2020
2872 Clouds 26 1008 69 10000 2.6 220 16:55 20.05.2020
2873 Clouds 27 1008 60 10000 4.1 240 16:36 20.05.2020
2874 Clouds 27 1007 60 10000 3.6 220 16:18 20.05.2020
2875 Clouds 29 1008 61 10000 4.1 220 15:42 20.05.2020
2876 Clouds 29 1008 61 10000 4.1 220 15:23 20.05.2020
2877 Clouds 29 1008 57 10000 4.1 230 14:43 20.05.2020
2878 Clouds 29 1008 57 10000 4.1 230 14:21 20.05.2020
2879 Clouds 29 1008 57 10000 2.6 230 13:43 20.05.2020
2880 Clouds 29 1008 57 10000 2.6 230 13:21 20.05.2020
2881 Clouds 29 1008 54 10000 2.1 210 12:59 20.05.2020
2882 Clouds 28 1009 57 10000 2.6 180 12:39 20.05.2020
2883 Clouds 28 1009 57 10000 2.6 180 12:20 20.05.2020
2884 Clouds 27 1009 69 10000 2.6 190 11:37 20.05.2020
2885 Clouds 27 1010 64 10000 2.6 190 11:18 20.05.2020
2886 Clouds 26 1009 64 10000 2.6 150 10:44 20.05.2020
2887 Clouds 26 1009 64 10000 2.6 150 10:21 20.05.2020
2888 Clouds 24 1010 64 10000 2.1 180 09:46 20.05.2020
2889 Clouds 24 1010 64 10000 2.1 180 09:23 20.05.2020
2890 Clouds 23 1010 64 10000 1.5 30 08:59 20.05.2020
2891 Clouds 21 1011 68 10000 2.6 350 08:41 20.05.2020
2892 Clouds 20 1010 72 10000 2.6 360 08:19 20.05.2020
2893 Clouds 19 1011 77 10000 3.1 360 07:49 20.05.2020
2894 Clouds 19 1011 77 10000 3.1 360 07:22 20.05.2020
2895 Clouds 17 1011 82 10000 5.1 340 06:46 20.05.2020
2896 Clouds 15 1011 87 10000 5.7 350 05:39 20.05.2020
2897 Clouds 16 1011 82 10000 5.7 350 04:37 20.05.2020
2898 Clouds 16 1012 82 10000 5.7 350 03:54 20.05.2020
2899 Clouds 16 1012 82 10000 4.6 340 02:34 20.05.2020
2900 Clouds 17 1013 77 10000 4.1 340 01:32 20.05.2020
2901 Clouds 18 1013 72 10000 4.1 340 00:46 20.05.2020
2902 Clouds 18 1013 68 10000 4.1 10 00:24 20.05.2020
2903 Clouds 18 1014 72 10000 5.7 340 23:45 19.05.2020
2904 Clouds 19 1014 68 10000 6.2 350 23:21 19.05.2020
2905 Clouds 19 1014 68 10000 6.2 350 22:56 19.05.2020
2906 Clouds 19 1014 68 10000 6.2 350 22:38 19.05.2020
2907 Clouds 19 1014 68 10000 6.2 350 22:20 19.05.2020
2908 Clouds 19 1014 68 10000 6.2 350 22:20 19.05.2020
2909 Clouds 20 1014 64 10000 6.2 340 21:58 19.05.2020
2910 Clouds 20 1014 64 10000 4.6 350 21:38 19.05.2020
2911 Clouds 21 1014 64 10000 4.6 350 21:20 19.05.2020
2912 Clouds 22 1014 56 10000 5.7 350 20:58 19.05.2020
2913 Clouds 22 1014 56 10000 5.7 350 20:58 19.05.2020
2914 Clouds 22 1014 49 10000 4.6 10 20:40 19.05.2020
2915 Clouds 22 1014 49 10000 4.6 10 20:21 19.05.2020
2916 Clouds 23 1014 47 10000 4.6 10 19:55 19.05.2020
2917 Clouds 23 1014 47 10000 4.6 30 19:37 19.05.2020
2918 Clouds 23 1014 47 10000 4.6 30 19:37 19.05.2020
2919 Clouds 23 1014 47 10000 4.6 30 19:19 19.05.2020
2920 Clouds 25 1015 44 10000 5.1 20 18:42 19.05.2020
2921 Clouds 26 1015 39 10000 4.6 30 18:20 19.05.2020
2922 Clouds 26 1016 41 10000 6.2 30 17:44 19.05.2020
2923 Clouds 26 1016 41 10000 6.2 30 17:22 19.05.2020
2924 Clouds 26 1016 41 10000 6.7 40 16:59 19.05.2020
2925 Clouds 26 1016 41 10000 6.2 40 16:39 19.05.2020
2926 Clouds 26 1017 41 10000 6.2 50 16:21 19.05.2020
2927 Clouds 27 1017 37 10000 5.7 40 15:48 19.05.2020
2928 Clouds 27 1017 37 10000 5.7 40 15:23 19.05.2020
2929 Clouds 27 1017 42 10000 7.2 30 14:59 19.05.2020
2930 Clouds 28 1017 39 10000 7.7 30 14:41 19.05.2020
2931 Clouds 28 1018 37 10000 7.2 30 14:21 19.05.2020
2932 Clouds 28 1018 37 10000 7.2 30 13:58 19.05.2020
2933 Clouds 29 1018 37 10000 6.7 40 13:40 19.05.2020
2934 Clouds 29 1018 37 10000 6.2 30 13:21 19.05.2020
2935 Clouds 29 1018 37 10000 6.2 30 12:58 19.05.2020
2936 Clouds 28 1018 39 10000 5.1 30 12:39 19.05.2020
2937 Clouds 28 1018 39 10000 5.1 30 12:21 19.05.2020
2938 Clouds 28 1018 37 10000 5.1 50 11:55 19.05.2020
2939 Clouds 27 1019 39 10000 4.6 70 11:37 19.05.2020
2940 Clouds 27 1019 41 10000 5.7 60 11:19 19.05.2020
2941 Clouds 26 1019 41 10000 5.7 60 10:45 19.05.2020
2942 Clouds 25 1019 41 10000 5.7 50 10:27 19.05.2020
2943 Clouds 24 1019 44 10000 6.2 40 09:56 19.05.2020
2944 Clouds 24 1019 44 10000 6.2 50 09:38 19.05.2020
2945 Clear 24 1019 44 10000 6.2 50 09:20 19.05.2020
2946 Clear 21 1020 46 10000 5.1 40 08:42 19.05.2020
2947 Clouds 21 1020 46 10000 5.1 40 08:23 19.05.2020
2948 Clouds 20 1020 60 10000 4.6 20 07:43 19.05.2020
2949 Clouds 20 1020 60 10000 4.6 20 07:25 19.05.2020
2950 Clouds 18 1020 72 10000 4.1 20 06:45 19.05.2020
2951 Clouds 18 1020 72 10000 4.1 20 06:24 19.05.2020
2952 Clouds 17 1019 72 10000 4.1 60 05:40 19.05.2020
2953 Clouds 16 1020 77 10000 4.1 30 04:55 19.05.2020
2954 Clouds 16 1020 77 10000 4.1 30 04:55 19.05.2020
2955 Clouds 17 1020 72 10000 7.2 10 03:45 19.05.2020
2956 Clouds 18 1020 68 10000 4.6 20 01:23 19.05.2020
2957 Clouds 17 1020 72 10000 4.6 10 00:43 19.05.2020
2958 Clouds 18 1020 72 10000 4.6 10 00:21 19.05.2020
2959 Clouds 17 1020 72 10000 3.6 30 23:40 18.05.2020
2960 Clouds 17 1021 77 10000 5.1 20 23:21 18.05.2020
2961 Clouds 17 1021 77 10000 5.1 20 23:00 18.05.2020
2962 Clouds 17 1021 77 10000 5.1 20 22:40 18.05.2020
2963 Clouds 17 1021 77 10000 5.1 20 22:21 18.05.2020
2964 Clouds 17 1021 77 10000 5.1 20 22:21 18.05.2020
2965 Clouds 18 1021 72 10000 6.2 20 21:43 18.05.2020
2966 Clouds 18 1021 72 10000 6.2 20 21:22 18.05.2020
2967 Clouds 18 1021 72 10000 4.6 30 20:59 18.05.2020
2968 Clouds 19 1021 72 10000 6.2 20 20:41 18.05.2020
2969 Clouds 19 1020 64 10000 6.2 30 20:21 18.05.2020
2970 Clouds 19 1020 64 10000 6.2 30 19:57 18.05.2020
2971 Clouds 20 1020 60 10000 5.7 40 19:39 18.05.2020
2972 Clouds 21 1020 56 10000 6.7 40 19:19 18.05.2020
2973 Clouds 21 1020 53 10000 6.2 30 18:45 18.05.2020
2974 Clouds 22 1020 53 10000 6.2 30 18:24 18.05.2020
2975 Clouds 23 1020 50 10000 6.2 40 17:41 18.05.2020
2976 Clouds 23 1020 50 10000 6.2 40 17:18 18.05.2020
2977 Clouds 24 1020 53 10000 6.2 50 16:59 18.05.2020
2978 Clouds 23 1021 56 10000 6.2 40 16:40 18.05.2020
2979 Clouds 23 1021 56 10000 6.7 40 16:20 18.05.2020
2980 Clouds 23 1021 56 10000 6.7 40 15:57 18.05.2020
2981 Clouds 23 1021 56 10000 8.2 40 15:38 18.05.2020
2982 Clouds 23 1021 56 10000 8.2 40 15:20 18.05.2020
2983 Clouds 24 1021 56 10000 9.3 30 14:47 18.05.2020
2984 Clouds 24 1021 57 10000 9.3 20 14:25 18.05.2020
2985 Clouds 25 1021 53 10000 8.2 30 13:59 18.05.2020
2986 Clouds 25 1021 53 10000 9.8 20 13:39 18.05.2020
2987 Clouds 25 1021 53 10000 9.8 20 13:20 18.05.2020
2988 Clouds 26 1021 53 10000 8.7 30 12:58 18.05.2020
2989 Clouds 26 1021 54 10000 7.7 50 12:39 18.05.2020
2990 Clouds 25 1021 57 10000 6.7 30 12:19 18.05.2020
2991 Clouds 26 1021 57 10000 7.2 30 11:47 18.05.2020
2992 Clouds 25 1021 57 10000 7.2 30 11:27 18.05.2020
2993 Clouds 25 1021 57 10000 6.2 40 10:59 18.05.2020
2994 Clouds 25 1021 57 10000 7.7 30 10:40 18.05.2020
2995 Clouds 24 1020 60 10000 7.2 20 10:22 18.05.2020
2996 Clouds 23 1020 69 10000 7.7 20 09:44 18.05.2020
2997 Clouds 23 1020 69 10000 7.7 20 09:25 18.05.2020
2998 Clouds 23 1020 60 10000 8.2 20 08:46 18.05.2020
2999 Clouds 23 1020 64 10000 7.7 20 08:27 18.05.2020
3000 Clouds 23 1020 57 10000 7.2 20 07:58 18.05.2020
3001 Clouds 22 1020 64 10000 6.2 30 07:38 18.05.2020
3002 Clouds 22 1020 64 10000 3.1 30 07:18 18.05.2020
3003 Clouds 21 1020 64 10000 2.1 20 06:43 18.05.2020
3004 Clouds 17 1019 82 10000 4.1 350 05:49 18.05.2020
3005 Clouds 17 1019 82 10000 4.1 350 05:25 18.05.2020
3006 Clouds 17 1019 82 10000 2.6 350 03:34 18.05.2020
3007 Clouds 18 1019 72 10000 2.6 10 02:30 18.05.2020
3008 Clouds 18 1019 77 10000 2.1 60 01:22 18.05.2020
3009 Clouds 18 1019 82 10000 3.1 340 00:25 18.05.2020
3010 Clouds 18 1019 77 10000 4.6 350 23:57 17.05.2020
3011 Clouds 18 1019 77 10000 4.1 340 23:39 17.05.2020
3012 Clouds 18 1019 77 10000 4.1 340 23:20 17.05.2020
3013 Clouds 19 1018 77 10000 4.1 350 22:56 17.05.2020
3014 Clouds 19 1018 77 10000 4.1 350 22:37 17.05.2020
3015 Clouds 19 1018 77 10000 4.1 350 22:19 17.05.2020
3016 Clouds 21 1018 73 10000 5.1 350 21:55 17.05.2020
3017 Clouds 21 1018 78 10000 5.7 350 21:37 17.05.2020
3018 Clouds 20 1018 78 10000 5.7 350 21:18 17.05.2020
3019 Clouds 23 1016 73 10000 2.83 10 20:42 17.05.2020
3020 Clouds 23 1016 73 10000 1.99 0 20:21 17.05.2020
3021 Clouds 23 1016 73 10000 1.5 110 19:57 17.05.2020
3022 Clouds 24 1016 65 10000 2.1 120 19:39 17.05.2020
3023 Clouds 25 1016 65 10000 2.1 120 19:20 17.05.2020
3024 Clouds 26 1016 57 10000 2.1 270 18:43 17.05.2020
3025 Clouds 27 1016 57 10000 2.1 270 18:24 17.05.2020
3026 Clouds 27 1016 58 10000 2.1 250 17:59 17.05.2020
3027 Clouds 28 1016 58 10000 2.1 280 17:39 17.05.2020
3028 Clouds 28 1016 58 10000 2.1 280 17:21 17.05.2020
3029 Clouds 29 1017 54 10000 1 0 16:40 17.05.2020
3030 Clouds 29 1017 54 10000 2.1 160 16:21 17.05.2020
3031 Clouds 29 1017 54 10000 2.1 160 15:59 17.05.2020
3032 Clouds 29 1017 54 10000 2.1 160 15:59 17.05.2020
3033 Clouds 30 1017 54 10000 3.1 100 15:39 17.05.2020
3034 Clouds 30 1017 54 10000 3.1 100 15:20 17.05.2020
3035 Clouds 31 1018 45 10000 2.1 0 14:43 17.05.2020
3036 Clouds 31 1018 45 10000 2.1 0 14:25 17.05.2020
3037 Clouds 29 1018 61 10000 4.6 270 13:59 17.05.2020
3038 Clouds 28 1018 60 10000 3.6 230 13:40 17.05.2020
3039 Clouds 28 1018 60 10000 3.6 230 13:19 17.05.2020
3040 Clouds 16 1021 82 10000 2.6 330 04:51 17.05.2020
3041 Clouds 17 1021 72 10000 4.1 360 03:18 17.05.2020
3042 Clouds 17 1021 72 10000 3.6 360 02:20 17.05.2020
3043 Clouds 17 1021 72 10000 3.1 10 01:47 17.05.2020
3044 Clouds 18 1022 72 10000 2.1 10 00:41 17.05.2020
3045 Clouds 18 1022 72 10000 2.1 10 00:21 17.05.2020
3046 Clouds 19 1021 64 10000 2.6 40 23:40 16.05.2020
3047 Clouds 20 1021 64 10000 2.6 40 23:21 16.05.2020
3048 Clouds 20 1021 60 10000 4.1 20 22:58 16.05.2020
3049 Clouds 20 1021 60 10000 4.6 20 22:40 16.05.2020
3050 Clouds 20 1021 60 10000 4.6 20 22:20 16.05.2020
3051 Clouds 20 1021 60 10000 3.1 50 21:54 16.05.2020
3052 Clouds 21 1021 56 10000 3.6 30 21:36 16.05.2020
3053 Clouds 21 1021 56 10000 3.6 30 21:18 16.05.2020
3054 Clouds 21 1020 50 10000 4.1 10 20:42 16.05.2020
3055 Clouds 22 1020 50 10000 4.1 10 20:22 16.05.2020
3056 Clouds 22 1020 50 10000 4.6 10 19:59 16.05.2020
3057 Clouds 23 1020 47 10000 5.1 20 19:40 16.05.2020
3058 Clouds 23 1020 47 10000 5.1 20 19:22 16.05.2020
3059 Clouds 23 1020 47 10000 5.1 20 19:22 16.05.2020
3060 Clouds 24 1020 47 10000 5.7 10 18:44 16.05.2020
3061 Clouds 24 1020 47 10000 5.7 10 18:25 16.05.2020
3062 Clouds 26 1020 47 10000 6.2 10 17:58 16.05.2020
3063 Clouds 26 1020 47 10000 5.7 10 17:40 16.05.2020
3064 Clouds 27 1020 47 10000 5.7 10 17:20 16.05.2020
3065 Clouds 26 1020 42 10000 7.2 30 16:42 16.05.2020
3066 Clouds 27 1020 42 10000 7.2 30 16:23 16.05.2020
3067 Clouds 27 1020 42 10000 7.2 30 16:23 16.05.2020
3068 Clouds 28 1020 42 10000 7.2 30 15:58 16.05.2020
3069 Clouds 28 1020 37 10000 7.2 10 15:40 16.05.2020
3070 Clouds 28 1020 37 10000 7.2 10 15:20 16.05.2020
3071 Clouds 28 1020 37 10000 6.7 30 14:55 16.05.2020
3072 Clouds 28 1020 37 10000 6.7 30 14:37 16.05.2020
3073 Clouds 29 1020 37 10000 6.7 30 14:19 16.05.2020
3074 Clouds 28 1020 42 10000 6.2 30 13:42 16.05.2020
3075 Clouds 28 1020 45 10000 7.2 50 13:23 16.05.2020
3076 Clouds 28 1020 45 10000 7.2 50 12:56 16.05.2020
3077 Clouds 28 1019 45 10000 7.2 30 12:38 16.05.2020
3078 Clouds 28 1019 45 10000 7.2 30 12:18 16.05.2020
3079 Clouds 28 1019 48 10000 7.2 20 11:41 16.05.2020
3080 Clouds 28 1019 48 10000 7.2 20 11:41 16.05.2020
3081 Clouds 28 1019 48 10000 7.2 20 11:22 16.05.2020
3082 Clouds 28 1019 42 10000 6.7 30 10:57 16.05.2020
3083 Clouds 28 1019 45 10000 5.1 10 10:38 16.05.2020
3084 Clouds 28 1019 45 10000 5.1 10 10:19 16.05.2020
3085 Clouds 26 1018 47 10000 6.2 30 09:46 16.05.2020
3086 Clouds 26 1018 47 10000 6.2 30 09:27 16.05.2020
3087 Clouds 26 1017 57 10000 3.1 350 08:46 16.05.2020
3088 Clouds 26 1017 57 10000 3.1 350 08:24 16.05.2020
3089 Clouds 26 1017 60 10000 1 0 07:58 16.05.2020
3090 Clouds 24 1016 68 10000 1 0 07:40 16.05.2020
3091 Clouds 24 1016 68 10000 1 0 07:21 16.05.2020
3092 Clouds 21 1015 82 10000 1 0 06:46 16.05.2020
3093 Clouds 21 1015 82 10000 1 0 06:19 16.05.2020
3094 Clouds 21 1014 82 10000 2.1 190 05:41 16.05.2020
3095 Clouds 21 1013 72 10000 2.1 200 04:53 16.05.2020
3096 Clouds 21 1013 82 10000 1.5 190 03:26 16.05.2020
3097 Clouds 21 1013 82 10000 3.1 260 02:39 16.05.2020
3098 Clouds 22 1013 77 10000 3.6 240 02:18 16.05.2020
3099 Clouds 22 1013 77 10000 3.1 240 01:39 16.05.2020
3100 Clouds 22 1013 73 10000 4.1 240 00:57 16.05.2020
3101 Clouds 22 1013 73 10000 4.1 240 00:57 16.05.2020
3102 Clouds 23 1013 68 10000 2.6 230 00:38 16.05.2020
3103 Clouds 23 1013 68 10000 2.6 230 00:19 16.05.2020
3104 Clouds 23 1013 68 10000 2.1 160 23:39 15.05.2020
3105 Clouds 23 1013 68 10000 2.1 160 23:19 15.05.2020
3106 Clouds 23 1013 68 10000 1 0 22:41 15.05.2020
3107 Clouds 23 1013 68 10000 1 0 22:20 15.05.2020
3108 Clouds 23 1013 68 10000 2.1 200 21:57 15.05.2020
3109 Clouds 23 1013 68 10000 1 0 21:38 15.05.2020
3110 Clouds 24 1013 68 10000 1 0 21:20 15.05.2020
3111 Clouds 23 1013 68 10000 1 0 20:54 15.05.2020
3112 Clouds 23 1013 68 10000 0.5 0 20:36 15.05.2020
3113 Clouds 24 1013 68 10000 1.5 160 20:18 15.05.2020
3114 Clouds 24 1013 68 10000 2.1 180 19:42 15.05.2020
3115 Clouds 25 1013 64 10000 2.1 200 19:23 15.05.2020
3116 Clouds 26 1013 64 10000 2.1 200 18:48 15.05.2020
3117 Clouds 27 1013 64 10000 2.1 160 18:28 15.05.2020
3118 Clouds 28 1013 61 10000 2.1 180 17:59 15.05.2020
3119 Clouds 29 1013 47 10000 3.1 250 17:37 15.05.2020
3120 Clouds 29 1013 53 10000 2.6 240 17:19 15.05.2020
3121 Clouds 28 1013 53 10000 2.6 240 16:56 15.05.2020
3122 Clouds 30 1013 47 10000 2.6 240 16:37 15.05.2020
3123 Clouds 30 1014 47 10000 3.6 230 16:18 15.05.2020
3124 Clouds 30 1014 51 10000 3.1 240 15:41 15.05.2020
3125 Clouds 30 1014 44 10000 3.6 240 15:20 15.05.2020
3126 Clouds 30 1014 44 10000 3.6 240 14:57 15.05.2020
3127 Clouds 30 1014 47 10000 4.1 250 14:38 15.05.2020
3128 Clouds 30 1014 47 10000 4.1 250 14:20 15.05.2020
3129 Clouds 29 1015 57 10000 3.6 240 13:42 15.05.2020
3130 Clouds 29 1015 54 10000 3.6 230 13:22 15.05.2020
3131 Clouds 29 1015 54 10000 3.6 230 12:56 15.05.2020
3132 Clouds 28 1015 50 10000 5.1 250 12:36 15.05.2020
3133 Clouds 28 1015 53 10000 4.1 240 12:18 15.05.2020
3134 Clouds 28 1015 53 10000 4.1 240 11:56 15.05.2020
3135 Clouds 27 1015 60 10000 5.1 260 11:37 15.05.2020
3136 Clouds 27 1015 60 10000 5.1 250 11:18 15.05.2020
3137 Clouds 26 1015 60 10000 5.1 250 10:54 15.05.2020
3138 Clouds 26 1015 53 10000 5.1 240 10:36 15.05.2020
3139 Clouds 26 1015 60 10000 4.1 240 10:18 15.05.2020
3140 Clear 24 1015 68 10000 4.1 240 09:39 15.05.2020
3141 Clear 24 1015 68 10000 4.1 240 09:19 15.05.2020
3142 Clear 24 1015 68 10000 4.1 240 08:58 15.05.2020
3143 Clear 23 1015 73 10000 4.1 250 08:37 15.05.2020
3144 Clouds 22 1015 77 10000 2.6 200 08:18 15.05.2020
3145 Clouds 22 1015 77 10000 2.1 210 07:44 15.05.2020
3146 Clouds 22 1015 77 10000 2.1 210 07:24 15.05.2020
3147 Clouds 21 1015 82 10000 2.1 170 06:52 15.05.2020
3148 Clouds 19 1015 72 10000 2.6 220 05:49 15.05.2020
3149 Clouds 19 1014 77 10000 1 0 04:28 15.05.2020
3150 Clouds 19 1014 77 10000 1 0 04:28 15.05.2020
3151 Clouds 19 1015 82 10000 0.5 0 03:47 15.05.2020
3152 Clouds 19 1015 77 10000 1 140 02:30 15.05.2020
3153 Clouds 19 1016 77 10000 1.28 186 01:24 15.05.2020
3154 Clouds 19 1016 82 10000 1 0 00:50 15.05.2020
3155 Clouds 20 1016 77 10000 0.5 150 00:30 15.05.2020
3156 Clouds 20 1016 77 10000 1 0 23:45 14.05.2020
3157 Clouds 20 1016 77 10000 1 0 23:25 14.05.2020
3158 Clouds 20 1016 77 10000 1.5 340 23:00 14.05.2020
3159 Clouds 21 1016 68 10000 1 0 22:40 14.05.2020
3160 Clouds 20 1016 68 10000 1 0 22:19 14.05.2020
3161 Clouds 19 1016 72 10000 1 0 21:58 14.05.2020
3162 Clouds 20 1016 72 10000 1.17 184 21:39 14.05.2020
3163 Clouds 20 1016 72 10000 1.19 182 21:19 14.05.2020
3164 Clouds 20 1016 72 10000 0.5 120 20:55 14.05.2020
3165 Clouds 20 1015 72 10000 1 0 20:37 14.05.2020
3166 Clouds 20 1015 72 10000 1 0 20:18 14.05.2020
3167 Clouds 21 1015 77 10000 1.5 120 19:41 14.05.2020
3168 Clouds 21 1015 77 10000 1.5 120 19:21 14.05.2020
3169 Clouds 21 1015 77 10000 1.5 100 18:59 14.05.2020
3170 Clouds 22 1015 77 10000 1.5 0 18:38 14.05.2020
3171 Clouds 22 1015 77 10000 1.5 0 18:20 14.05.2020
3172 Clouds 22 1015 82 10000 2.6 110 17:59 14.05.2020
3173 Clouds 22 1016 77 10000 1.5 160 17:38 14.05.2020
3174 Clouds 22 1016 77 10000 1.5 160 17:19 14.05.2020
3175 Clouds 22 1016 77 10000 1.5 160 16:59 14.05.2020
3176 Clouds 22 1016 77 10000 2.6 160 16:39 14.05.2020
3177 Clear 23 1016 77 10000 2.6 160 16:20 14.05.2020
3178 Clear 22 1016 77 10000 2.6 170 15:56 14.05.2020
3179 Clear 22 1017 82 10000 2.6 170 15:38 14.05.2020
3180 Clouds 22 1017 82 10000 3.1 170 15:19 14.05.2020
3181 Clear 22 1017 82 10000 2.6 170 15:19 14.05.2020
3182 Clouds 22 1017 82 10000 3.1 170 14:55 14.05.2020
3183 Clear 22 1018 82 10000 3.1 200 14:37 14.05.2020
3184 Clear 21 1018 82 10000 3.6 210 14:19 14.05.2020
3185 Clouds 21 1018 82 10000 3.6 200 13:44 14.05.2020
3186 Clear 21 1018 82 10000 4.1 0 13:20 14.05.2020
3187 Clear 21 1018 82 10000 4.1 0 12:59 14.05.2020
3188 Clear 21 1018 82 10000 3.6 210 12:40 14.05.2020
3189 Clouds 21 1018 82 10000 3.1 200 12:21 14.05.2020
3190 Clouds 20 1018 82 10000 3.1 200 11:59 14.05.2020
3191 Clouds 20 1019 88 10000 3.6 260 11:40 14.05.2020
3192 Clouds 20 1019 88 10000 3.6 260 11:22 14.05.2020
3193 Clouds 19 1018 87 8000 3.6 240 10:58 14.05.2020
3194 Clouds 19 1019 87 6000 3.1 230 10:39 14.05.2020
3195 Clouds 19 1019 87 6000 3.1 230 10:21 14.05.2020
3196 Mist 18 1018 93 4500 2.6 200 09:42 14.05.2020
3197 Mist 17 1018 93 4500 2.6 200 09:23 14.05.2020
3198 Mist 17 1018 93 4000 2.1 160 08:43 14.05.2020
3199 Mist 16 1018 93 4000 2.1 160 08:21 14.05.2020
3200 Mist 15 1018 87 4000 2.1 140 07:47 14.05.2020
3201 Mist 15 1018 87 4000 2.1 140 07:26 14.05.2020
3202 Mist 14 1018 93 3500 1 0 06:56 14.05.2020
3203 Mist 14 1018 93 4000 1.5 130 06:34 14.05.2020
3204 Mist 14 1018 93 4000 2.1 100 05:59 14.05.2020
3205 Clouds 13 1018 93 6000 2.1 120 05:37 14.05.2020
3206 Clouds 13 1019 93 10000 1.5 330 04:42 14.05.2020
3207 Clouds 13 1019 93 10000 2.1 10 03:32 14.05.2020
3208 Clouds 13 1019 87 10000 4.1 350 02:43 14.05.2020
3209 Clouds 13 1019 93 10000 3.1 330 02:19 14.05.2020
3210 Clouds 14 1019 87 10000 2.1 20 01:44 14.05.2020
3211 Clouds 14 1020 87 10000 3.6 10 00:51 14.05.2020
3212 Clouds 14 1020 87 10000 3.6 20 00:26 14.05.2020
3213 Clear 14 1020 82 10000 5.1 20 23:45 13.05.2020
3214 Clear 14 1020 82 10000 5.1 10 23:22 13.05.2020
3215 Clear 14 1020 82 10000 5.1 10 22:58 13.05.2020
3216 Clear 14 1020 82 10000 5.1 10 22:39 13.05.2020
3217 Clear 14 1020 82 10000 5.1 10 22:21 13.05.2020
3218 Clear 14 1020 82 10000 5.1 20 21:57 13.05.2020
3219 Clear 14 1020 82 10000 5.7 20 21:38 13.05.2020
3220 Clear 14 1020 82 10000 5.7 20 21:38 13.05.2020
3221 Clear 14 1020 82 10000 5.7 20 21:19 13.05.2020
3222 Clear 15 1020 82 10000 6.2 20 20:41 13.05.2020
3223 Clouds 15 1020 82 10000 6.2 20 20:23 13.05.2020
3224 Clouds 15 1019 77 10000 6.2 30 19:56 13.05.2020
3225 Clouds 15 1019 77 10000 6.2 30 19:38 13.05.2020
3226 Clouds 16 1020 72 10000 6.2 40 19:19 13.05.2020
3227 Clouds 16 1020 72 10000 6.7 20 18:42 13.05.2020
3228 Clouds 17 1020 72 10000 6.7 20 18:21 13.05.2020
3229 Clouds 18 1020 68 10000 6.7 40 17:39 13.05.2020
3230 Clouds 18 1020 68 10000 6.7 40 17:20 13.05.2020
3231 Clouds 18 1020 68 10000 6.7 30 16:58 13.05.2020
3232 Clouds 18 1020 72 10000 8.2 10 16:39 13.05.2020
3233 Clouds 18 1020 72 10000 8.2 10 16:19 13.05.2020
3234 Clouds 18 1020 68 10000 7.7 10 16:19 13.05.2020
3235 Clouds 18 1020 68 10000 8.2 20 15:43 13.05.2020
3236 Clouds 18 1020 68 10000 8.2 20 15:20 13.05.2020
3237 Clouds 18 1020 68 10000 7.7 30 14:59 13.05.2020
3238 Clouds 18 1021 68 10000 6.7 50 14:41 13.05.2020
3239 Clouds 18 1021 63 10000 6.2 40 14:22 13.05.2020
3240 Clouds 18 1021 63 10000 6.2 40 13:58 13.05.2020
3241 Clouds 18 1021 63 10000 6.2 40 13:39 13.05.2020
3242 Clouds 18 1021 63 10000 6.2 40 13:20 13.05.2020
3243 Clouds 18 1021 72 10000 8.2 20 12:56 13.05.2020
3244 Clouds 18 1021 63 10000 7.7 20 12:37 13.05.2020
3245 Clouds 19 1021 68 10000 7.7 10 12:18 13.05.2020
3246 Clouds 19 1021 68 10000 7.7 10 11:54 13.05.2020
3247 Clouds 19 1021 63 10000 7.2 40 11:36 13.05.2020
3248 Clouds 18 1021 68 10000 7.7 10 11:18 13.05.2020
3249 Clouds 19 1021 68 10000 7.7 10 10:55 13.05.2020
3250 Clouds 19 1020 68 10000 7.7 10 10:37 13.05.2020
3251 Clouds 19 1020 63 10000 6.7 30 10:18 13.05.2020
3252 Clouds 18 1020 72 10000 7.7 360 09:41 13.05.2020
3253 Clouds 18 1020 72 10000 7.7 360 09:22 13.05.2020
3254 Clouds 17 1019 72 10000 9.3 20 08:43 13.05.2020
3255 Clouds 17 1019 77 10000 9.3 20 08:22 13.05.2020
3256 Clouds 17 1019 77 10000 9.3 20 07:59 13.05.2020
3257 Clouds 17 1019 77 10000 8.7 20 07:39 13.05.2020
3258 Clouds 17 1019 77 10000 8.7 20 07:21 13.05.2020
3259 Clouds 17 1018 77 10000 7.2 10 06:43 13.05.2020
3260 Clouds 17 1017 72 10000 5.1 10 05:54 13.05.2020
3261 Clouds 17 1017 77 10000 4.6 350 04:48 13.05.2020
3262 Clouds 18 1015 60 10000 1.5 300 02:59 13.05.2020
3263 Clouds 18 1015 68 10000 1.5 310 02:27 13.05.2020
3264 Clear 18 1014 63 10000 0.5 0 01:28 13.05.2020
3265 Clear 20 1014 52 10000 1.5 250 00:45 13.05.2020
3266 Clear 19 1014 52 10000 1.5 250 00:20 13.05.2020
3267 Clear 20 1013 52 10000 2.6 270 23:40 12.05.2020
3268 Clear 20 1013 52 10000 2.6 270 23:21 12.05.2020
3269 Clear 20 1012 46 10000 4.1 280 22:57 12.05.2020
3270 Clear 20 1012 52 10000 4.1 290 22:39 12.05.2020
3271 Clear 20 1012 52 10000 4.1 290 22:20 12.05.2020
3272 Clear 21 1012 49 10000 2.6 250 21:55 12.05.2020
3273 Clear 21 1012 56 10000 2.6 260 21:37 12.05.2020
3274 Clear 21 1012 56 10000 2.6 260 21:18 12.05.2020
3275 Clear 21 1011 60 10000 2.6 270 20:56 12.05.2020
3276 Clear 22 1011 60 10000 4.1 250 20:38 12.05.2020
3277 Clear 23 1010 49 10000 4.6 260 20:19 12.05.2020
3278 Clear 23 1010 49 10000 4.6 260 19:56 12.05.2020
3279 Clear 24 1010 44 10000 4.6 250 19:37 12.05.2020
3280 Clear 25 1009 44 10000 3.6 260 19:18 12.05.2020
3281 Clear 26 1009 44 10000 2.6 250 18:42 12.05.2020
3282 Clear 27 1009 44 10000 2.6 250 18:23 12.05.2020
3283 Clear 27 1009 44 10000 4.1 250 17:57 12.05.2020
3284 Clear 28 1009 36 10000 4.6 240 17:38 12.05.2020
3285 Clear 28 1009 36 10000 4.6 240 17:20 12.05.2020
3286 Clear 29 1009 30 10000 4.6 260 16:42 12.05.2020
3287 Clear 29 1009 30 10000 4.6 260 16:22 12.05.2020
3288 Clear 30 1009 30 10000 4.6 250 15:55 12.05.2020
3289 Clear 29 1009 30 10000 4.1 260 15:36 12.05.2020
3290 Clear 29 1009 30 10000 4.1 260 15:36 12.05.2020
3291 Clear 29 1009 34 10000 3.1 260 15:18 12.05.2020
3292 Clear 28 1009 34 10000 4.6 250 14:55 12.05.2020
3293 Clear 28 1009 34 10000 4.6 250 14:36 12.05.2020
3294 Clouds 28 1009 34 10000 4.6 250 14:18 12.05.2020
3295 Clouds 28 1009 34 10000 4.6 250 13:55 12.05.2020
3296 Clouds 28 1009 38 10000 3.6 240 13:36 12.05.2020
3297 Clouds 28 1010 41 10000 5.1 250 13:18 12.05.2020
3298 Clouds 28 1010 41 10000 4.1 250 12:55 12.05.2020
3299 Clouds 28 1010 41 10000 4.1 250 12:37 12.05.2020
3300 Clouds 28 1010 41 10000 4.1 250 12:37 12.05.2020
3301 Clouds 27 1010 49 10000 4.1 260 12:18 12.05.2020
3302 Clouds 26 1010 49 10000 4.1 260 11:56 12.05.2020
3303 Clouds 27 1009 46 10000 4.1 250 11:37 12.05.2020
3304 Clouds 26 1009 46 10000 5.1 240 11:19 12.05.2020
3305 Clouds 26 1009 46 10000 5.1 240 10:55 12.05.2020
3306 Clouds 24 1009 56 10000 5.1 240 10:36 12.05.2020
3307 Clouds 24 1009 56 10000 5.1 240 10:18 12.05.2020
3308 Clouds 24 1009 52 10000 4.6 250 09:55 12.05.2020
3309 Clear 23 1009 63 10000 4.1 270 09:37 12.05.2020
3310 Clear 23 1009 63 10000 4.1 270 09:18 12.05.2020
3311 Clear 23 1009 60 10000 4.1 260 08:39 12.05.2020
3312 Clouds 23 1009 60 10000 4.1 260 08:20 12.05.2020
3313 Clouds 22 1009 56 10000 3.6 230 07:44 12.05.2020
3314 Clouds 22 1009 56 10000 3.6 230 07:26 12.05.2020
3315 Clouds 21 1009 52 10000 2.6 230 06:55 12.05.2020
3316 Clouds 21 1009 49 10000 3.1 220 06:36 12.05.2020
3317 Clouds 19 1009 52 10000 3.1 230 06:18 12.05.2020
3318 Clouds 18 1009 55 10000 3.6 240 05:44 12.05.2020
3319 Clouds 19 1011 77 10000 1 0 03:49 12.05.2020
3320 Clouds 19 1011 63 10000 2.6 230 02:58 12.05.2020
3321 Clouds 19 1011 68 10000 2.6 250 02:26 12.05.2020
3322 Clouds 19 1011 63 10000 2.1 220 01:33 12.05.2020
3323 Clouds 19 1012 68 10000 2.1 220 00:40 12.05.2020
3324 Clouds 19 1012 68 10000 0.5 0 00:18 12.05.2020
3325 Clouds 18 1012 68 10000 0.5 0 23:54 11.05.2020
3326 Clouds 20 1012 63 10000 1.5 240 23:36 11.05.2020
3327 Clouds 20 1012 63 10000 1.5 240 23:18 11.05.2020
3328 Clouds 20 1013 46 10000 1.5 210 22:42 11.05.2020
3329 Clear 20 1013 46 10000 1.5 210 22:24 11.05.2020
3330 Clear 20 1013 52 10000 1 0 21:59 11.05.2020
3331 Clouds 21 1013 46 10000 1 0 21:40 11.05.2020
3332 Clear 21 1013 46 10000 1 0 21:20 11.05.2020
3333 Clear 22 1012 43 10000 1.5 230 20:59 11.05.2020
3334 Clear 21 1012 52 10000 2.6 250 20:40 11.05.2020
3335 Clear 21 1012 52 10000 2.6 250 20:21 11.05.2020
3336 Clear 23 1012 43 10000 1.5 190 19:58 11.05.2020
3337 Clear 23 1012 40 10000 1.5 170 19:40 11.05.2020
3338 Clear 24 1012 40 10000 1.5 170 19:21 11.05.2020
3339 Clear 25 1012 43 10000 2.6 130 18:56 11.05.2020
3340 Clear 26 1012 44 10000 2.6 150 18:37 11.05.2020
3341 Clear 26 1012 44 10000 2.6 150 18:18 11.05.2020
3342 Clear 27 1012 44 10000 2.1 150 17:55 11.05.2020
3343 Clear 27 1012 34 10000 2.1 190 17:36 11.05.2020
3344 Clear 28 1012 34 10000 2.1 190 17:18 11.05.2020
3345 Clear 28 1013 34 10000 3.6 250 16:42 11.05.2020
3346 Clear 27 1013 34 10000 3.6 250 16:22 11.05.2020
3347 Clear 27 1013 34 10000 3.6 250 16:22 11.05.2020
3348 Clear 28 1013 32 10000 2.6 210 15:58 11.05.2020
3349 Clear 28 1013 34 10000 2.1 180 15:39 11.05.2020
3350 Clear 27 1014 36 10000 2.1 200 15:19 11.05.2020
3351 Clear 27 1014 36 10000 2.1 200 14:55 11.05.2020
3352 Clear 27 1014 38 10000 2.6 190 14:37 11.05.2020
3353 Clouds 27 1014 41 10000 3.1 210 14:19 11.05.2020
3354 Clouds 26 1015 44 10000 3.1 210 13:42 11.05.2020
3355 Clouds 26 1015 44 10000 3.1 210 13:22 11.05.2020
3356 Clouds 26 1015 49 10000 2.1 200 12:58 11.05.2020
3357 Clouds 25 1015 53 10000 2.6 230 12:40 11.05.2020
3358 Clouds 25 1015 53 10000 2.6 230 12:22 11.05.2020
3359 Clouds 24 1016 52 10000 2.6 250 11:57 11.05.2020
3360 Clouds 24 1016 52 10000 2.6 250 11:57 11.05.2020
3361 Clouds 24 1016 49 10000 2.6 230 11:38 11.05.2020
3362 Clouds 24 1016 52 10000 2.6 190 11:20 11.05.2020
3363 Clouds 23 1016 52 10000 2.6 190 10:56 11.05.2020
3364 Clouds 23 1016 56 10000 2.1 190 10:38 11.05.2020
3365 Clouds 22 1016 59 10000 2.6 190 10:19 11.05.2020
3366 Clouds 22 1016 59 10000 2.6 190 09:56 11.05.2020
3367 Clouds 22 1016 68 10000 2.6 230 09:37 11.05.2020
3368 Clouds 23 1016 52 10000 2.1 180 09:18 11.05.2020
3369 Clouds 21 1016 52 10000 1.5 120 08:40 11.05.2020
3370 Clouds 21 1016 52 10000 1.5 120 08:22 11.05.2020
3371 Clouds 20 1015 59 10000 2.1 110 07:56 11.05.2020
3372 Clouds 19 1015 67 10000 2.1 100 07:38 11.05.2020
3373 Clouds 19 1015 67 10000 2.1 100 07:19 11.05.2020
3374 Clouds 16 1015 72 10000 1 120 06:33 11.05.2020
3375 Clouds 14 1015 72 10000 1.5 100 05:49 11.05.2020
3376 Clouds 16 1015 67 10000 1.5 80 05:20 11.05.2020
3377 Clouds 14 1015 63 10000 2.1 110 03:51 11.05.2020
3378 Clouds 15 1015 51 10000 1 0 02:36 11.05.2020
3379 Clouds 15 1016 48 10000 0.5 150 01:55 11.05.2020
3380 Clouds 15 1016 59 10000 1.5 150 00:55 11.05.2020
3381 Clouds 15 1016 59 10000 1.5 150 00:28 11.05.2020
3382 Clouds 16 1016 48 10000 0.5 0 23:59 10.05.2020
3383 Clouds 16 1016 51 10000 2.13 129 23:39 10.05.2020
3384 Clouds 17 1016 51 10000 2.07 136 23:19 10.05.2020
3385 Clouds 16 1016 55 10000 0.5 0 22:42 10.05.2020
3386 Clouds 16 1016 55 10000 0.5 0 22:24 10.05.2020
3387 Clouds 17 1016 67 10000 1 0 21:55 10.05.2020
3388 Clouds 17 1016 67 10000 1 0 21:37 10.05.2020
3389 Clouds 17 1016 67 10000 1 0 21:18 10.05.2020
3390 Clouds 18 1015 39 10000 0.5 0 20:41 10.05.2020
3391 Clear 18 1015 39 10000 0.5 0 20:23 10.05.2020
3392 Clear 19 1015 42 10000 1 260 19:56 10.05.2020
3393 Clear 20 1016 35 10000 1.5 260 19:38 10.05.2020
3394 Clear 21 1016 35 10000 1.5 260 19:20 10.05.2020
3395 Clear 22 1015 28 10000 1 230 18:54 10.05.2020
3396 Clear 23 1015 30 10000 1.5 230 18:36 10.05.2020
3397 Clear 23 1015 30 10000 1.5 230 18:18 10.05.2020
3398 Clear 23 1015 30 10000 2.1 250 17:56 10.05.2020
3399 Clear 24 1016 27 10000 2.1 240 17:36 10.05.2020
3400 Clear 24 1016 29 10000 2.1 220 17:18 10.05.2020
3401 Clear 24 1016 28 10000 2.1 200 16:43 10.05.2020
3402 Clear 25 1016 30 10000 2.6 230 16:20 10.05.2020
3403 Clear 24 1016 30 10000 2.6 230 15:58 10.05.2020
3404 Clear 24 1016 26 10000 2.6 220 15:38 10.05.2020
3405 Clear 24 1016 26 10000 2.6 220 15:20 10.05.2020
3406 Clear 24 1017 30 10000 3.1 240 14:55 10.05.2020
3407 Clear 24 1017 40 10000 3.1 240 14:37 10.05.2020
3408 Clear 23 1017 40 10000 3.1 240 14:18 10.05.2020
3409 Clear 23 1017 40 10000 3.1 240 13:55 10.05.2020
3410 Clear 23 1017 42 10000 3.1 250 13:36 10.05.2020
3411 Clear 23 1017 42 10000 3.1 250 13:18 10.05.2020
3412 Clear 22 1017 55 10000 2.6 230 12:41 10.05.2020
3413 Clear 22 1017 55 10000 2.6 230 12:21 10.05.2020
3414 Clear 21 1017 59 10000 2.6 220 11:58 10.05.2020
3415 Clear 21 1017 59 10000 2.6 210 11:40 10.05.2020
3416 Clear 20 1017 59 10000 2.6 210 11:20 10.05.2020
3417 Clear 20 1018 63 10000 3.1 190 10:48 10.05.2020
3418 Clear 20 1018 59 10000 2.6 180 10:29 10.05.2020
3419 Clear 19 1017 63 10000 2.6 140 09:59 10.05.2020
3420 Clear 19 1017 67 10000 2.6 100 09:41 10.05.2020
3421 Clear 18 1017 67 10000 2.6 100 09:22 10.05.2020
3422 Clear 17 1017 63 10000 2.6 100 08:53 10.05.2020
3423 Clear 17 1017 63 10000 3.1 100 08:24 10.05.2020
3424 Clear 16 1017 62 10000 2.6 100 07:57 10.05.2020
3425 Clear 15 1017 62 10000 2.1 120 07:38 10.05.2020
3426 Clear 15 1017 62 10000 2.1 120 07:19 10.05.2020
3427 Clear 13 1017 76 10000 1.5 120 06:50 10.05.2020
3428 Clear 12 1016 67 10000 1.5 100 06:22 10.05.2020
3429 Clear 11 1016 62 10000 1.74 164 05:44 10.05.2020
3430 Clear 10 1016 66 10000 1.5 330 04:41 10.05.2020
3431 Clear 11 1016 66 10000 1.5 330 04:22 10.05.2020
3432 Clear 11 1016 66 10000 2.1 260 03:43 10.05.2020
3433 Clear 11 1016 54 10000 1 0 02:55 10.05.2020
3434 Clouds 12 1016 41 10000 1.5 70 02:24 10.05.2020
3435 Clouds 13 1016 58 10000 1 0 01:44 10.05.2020
3436 Clouds 13 1016 58 10000 1 0 01:25 10.05.2020
3437 Clouds 13 1016 58 10000 1.5 120 00:59 10.05.2020
3438 Clouds 13 1016 58 10000 1.5 0 00:39 10.05.2020
3439 Clouds 13 1016 58 10000 1.5 0 00:19 10.05.2020
3440 Clouds 14 1016 51 10000 2.6 120 23:39 09.05.2020
3441 Clouds 14 1016 51 10000 2.6 120 23:21 09.05.2020
3442 Clouds 14 1016 51 10000 2.1 120 22:55 09.05.2020
3443 Clouds 14 1016 51 10000 2.1 110 22:37 09.05.2020
3444 Clouds 14 1016 51 10000 2.1 110 22:19 09.05.2020
3445 Clouds 14 1016 48 10000 1.5 0 21:55 09.05.2020
3446 Clear 15 1016 36 10000 2.6 80 21:37 09.05.2020
3447 Clear 15 1016 34 10000 2.6 70 21:18 09.05.2020
3448 Clear 15 1016 34 10000 2.6 70 20:54 09.05.2020
3449 Clear 16 1016 32 10000 3.1 60 20:36 09.05.2020
3450 Clear 16 1016 39 10000 2.1 100 20:18 09.05.2020
3451 Clear 17 1016 42 10000 1.5 190 19:39 09.05.2020
3452 Clear 17 1016 42 10000 1.5 190 19:20 09.05.2020
3453 Clear 18 1016 34 10000 1.5 250 18:55 09.05.2020
3454 Clear 19 1016 39 10000 1.5 200 18:37 09.05.2020
3455 Clear 19 1016 39 10000 1.5 200 18:37 09.05.2020
3456 Clear 20 1016 37 10000 3.1 230 18:18 09.05.2020
3457 Clear 21 1016 34 10000 3.6 240 17:41 09.05.2020
3458 Clear 21 1016 34 10000 3.6 240 17:22 09.05.2020
3459 Clear 21 1017 37 10000 3.6 240 16:41 09.05.2020
3460 Clear 21 1017 37 10000 3.6 240 16:20 09.05.2020
3461 Clear 21 1017 32 10000 4.6 240 15:46 09.05.2020
3462 Clear 21 1017 32 10000 4.6 250 15:28 09.05.2020
3463 Clear 21 1017 40 10000 3.1 240 14:59 09.05.2020
3464 Clear 21 1018 34 10000 3.1 230 14:41 09.05.2020
3465 Clear 20 1018 34 10000 3.1 230 14:20 09.05.2020
3466 Clear 20 1018 42 10000 3.6 250 13:58 09.05.2020
3467 Clear 19 1018 39 10000 2.6 220 13:40 09.05.2020
3468 Clear 20 1018 39 10000 2.6 220 13:20 09.05.2020
3469 Clear 20 1019 39 10000 2.6 200 12:43 09.05.2020
3470 Clear 20 1019 39 10000 2.6 200 12:22 09.05.2020
3471 Clear 19 1019 34 10000 3.6 180 11:58 09.05.2020
3472 Clear 19 1019 34 10000 3.6 180 11:58 09.05.2020
3473 Clear 19 1019 36 10000 3.1 170 11:40 09.05.2020
3474 Clear 19 1019 36 10000 3.1 170 11:18 09.05.2020
3475 Clear 18 1020 41 10000 3.1 150 10:47 09.05.2020
3476 Clear 18 1020 41 10000 3.1 150 10:25 09.05.2020
3477 Clear 18 1020 51 10000 2.1 140 09:58 09.05.2020
3478 Clear 17 1020 51 10000 2.1 110 09:38 09.05.2020
3479 Clear 17 1020 51 10000 2.1 110 09:19 09.05.2020
3480 Clear 16 1020 55 10000 1.5 0 08:51 09.05.2020
3481 Clear 15 1020 51 10000 2.1 110 08:32 09.05.2020
3482 Clear 14 1020 51 10000 2.1 110 07:50 09.05.2020
3483 Clear 14 1020 54 10000 1.5 90 07:32 09.05.2020
3484 Clear 11 1020 81 10000 2.1 330 06:54 09.05.2020
3485 Clear 10 1020 81 10000 2.1 330 06:25 09.05.2020
3486 Clear 8 1020 81 10000 2.6 350 05:46 09.05.2020
3487 Clear 8 1020 76 10000 2.1 350 03:59 09.05.2020
3488 Clear 10 1020 66 10000 2.1 50 03:38 09.05.2020
3489 Clear 10 1020 71 10000 0.5 0 02:42 09.05.2020
3490 Clear 10 1020 66 10000 0.5 0 01:54 09.05.2020
3491 Clear 11 1020 66 10000 2.6 50 01:24 09.05.2020
3492 Clear 11 1020 66 10000 2.6 50 00:54 09.05.2020
3493 Clear 11 1021 66 10000 2.6 50 00:36 09.05.2020
3494 Clear 11 1021 62 10000 2.1 70 23:54 08.05.2020
3495 Clear 11 1021 62 10000 2.6 60 23:36 08.05.2020
3496 Clear 11 1021 62 10000 3.1 40 23:18 08.05.2020
3497 Clear 12 1021 58 10000 2.6 70 22:42 08.05.2020
3498 Clear 12 1021 58 10000 2.6 70 22:20 08.05.2020
3499 Clear 12 1021 54 10000 3.1 60 21:59 08.05.2020
3500 Clear 12 1020 54 10000 4.1 70 21:41 08.05.2020
3501 Clear 12 1020 54 10000 4.1 70 21:19 08.05.2020
3502 Clear 13 1020 58 10000 3.1 50 20:58 08.05.2020
3503 Clear 13 1020 54 10000 4.1 50 20:40 08.05.2020
3504 Clear 13 1020 54 10000 4.1 50 20:21 08.05.2020
3505 Clear 14 1020 44 10000 5.1 40 19:45 08.05.2020
3506 Clear 14 1020 44 10000 5.1 40 19:24 08.05.2020
3507 Clear 15 1019 44 10000 5.1 20 18:57 08.05.2020
3508 Clear 16 1019 48 10000 5.7 20 18:39 08.05.2020
3509 Clear 16 1019 48 10000 5.7 20 18:21 08.05.2020
3510 Clear 17 1019 51 10000 6.2 10 17:42 08.05.2020
3511 Clear 17 1019 51 10000 6.2 10 17:19 08.05.2020
3512 Clouds 16 1019 48 10000 7.2 10 16:46 08.05.2020
3513 Clouds 16 1019 48 10000 7.2 10 16:27 08.05.2020
3514 Clouds 17 1019 45 10000 6.2 10 15:58 08.05.2020
3515 Clouds 17 1019 48 10000 5.7 360 15:40 08.05.2020
3516 Clouds 18 1019 55 10000 5.7 340 15:18 08.05.2020
3517 Clouds 18 1019 55 10000 5.7 340 14:54 08.05.2020
3518 Clouds 18 1019 55 10000 5.7 340 14:54 08.05.2020
3519 Clouds 18 1019 55 10000 5.7 340 14:36 08.05.2020
3520 Clouds 18 1019 59 10000 2.1 0 14:18 08.05.2020
3521 Clouds 18 1019 59 10000 1.5 0 13:40 08.05.2020
3522 Clouds 18 1019 63 10000 2.1 190 13:20 08.05.2020
3523 Clouds 18 1019 63 10000 2.1 190 12:54 08.05.2020
3524 Clouds 17 1019 67 10000 3.6 240 12:36 08.05.2020
3525 Clouds 17 1019 67 10000 3.6 240 12:36 08.05.2020
3526 Clouds 17 1019 67 10000 3.6 240 12:18 08.05.2020
3527 Rain 17 1019 63 10000 2.1 0 11:43 08.05.2020
3528 Rain 17 1019 72 10000 3.1 220 11:22 08.05.2020
3529 Rain 17 1019 72 10000 3.1 220 10:58 08.05.2020
3530 Rain 17 1019 63 10000 2.6 200 10:40 08.05.2020
3531 Rain 17 1019 67 10000 2.6 180 10:19 08.05.2020
3532 Rain 16 1018 72 10000 2.1 150 09:42 08.05.2020
3533 Clouds 16 1018 72 10000 2.1 150 09:20 08.05.2020
3534 Clouds 16 1018 72 10000 2.6 140 08:58 08.05.2020
3535 Clouds 15 1018 72 10000 2.1 120 08:40 08.05.2020
3536 Clouds 15 1018 72 10000 2.1 120 08:20 08.05.2020
3537 Clear 14 1018 76 10000 2.1 100 07:40 08.05.2020
3538 Clear 14 1018 76 10000 2.1 100 07:20 08.05.2020
3539 Clear 13 1018 82 10000 1.5 90 06:49 08.05.2020
3540 Clear 10 1017 87 10000 1.09 140 06:20 08.05.2020
3541 Clear 10 1017 81 10000 1.5 70 05:35 08.05.2020
3542 Clear 9 1017 87 10000 0.5 0 03:55 08.05.2020
3543 Clear 10 1017 81 10000 1.5 310 02:31 08.05.2020
3544 Clear 10 1017 81 10000 1.5 150 01:41 08.05.2020
3545 Clear 10 1017 81 10000 1.5 150 01:21 08.05.2020
3546 Clear 10 1017 81 10000 0.67 177 00:48 08.05.2020
3547 Clear 11 1017 76 10000 1 0 00:27 08.05.2020
3548 Clear 11 1017 76 10000 1 0 23:57 07.05.2020
3549 Clear 11 1017 81 10000 0.5 150 23:39 07.05.2020
3550 Clear 11 1017 81 10000 0.5 150 23:39 07.05.2020
3551 Clear 11 1017 81 10000 1 150 23:20 07.05.2020
3552 Clear 11 1017 71 10000 1 160 22:42 07.05.2020
3553 Clear 12 1017 71 10000 1 160 22:21 07.05.2020
3554 Clear 12 1017 58 10000 1.16 211 21:58 07.05.2020
3555 Clear 13 1016 54 10000 1.16 211 21:39 07.05.2020
3556 Clear 13 1016 54 10000 1.19 217 21:20 07.05.2020
3557 Clear 12 1016 62 10000 1.19 217 20:59 07.05.2020
3558 Clear 13 1016 62 10000 0.5 0 20:41 07.05.2020
3559 Clouds 13 1016 62 10000 0.5 0 20:20 07.05.2020
3560 Clouds 13 1016 66 10000 0.5 0 19:50 07.05.2020
3561 Clouds 14 1015 58 10000 1 0 19:24 07.05.2020
3562 Clouds 14 1015 58 10000 2.1 220 18:59 07.05.2020
3563 Clouds 15 1015 62 10000 2.6 200 18:39 07.05.2020
3564 Clear 16 1015 58 10000 2.6 200 18:20 07.05.2020
3565 Clear 16 1015 58 10000 2.6 200 17:42 07.05.2020
3566 Clear 16 1015 58 10000 2.6 200 17:21 07.05.2020
3567 Clear 16 1015 62 10000 3.1 220 16:43 07.05.2020
3568 Clouds 16 1015 62 10000 3.6 220 16:20 07.05.2020
3569 Clouds 16 1015 62 10000 3.6 220 15:58 07.05.2020
3570 Clouds 16 1015 62 10000 3.6 220 15:58 07.05.2020
3571 Clouds 16 1015 67 10000 4.1 220 15:39 07.05.2020
3572 Clouds 16 1015 67 10000 4.1 220 15:19 07.05.2020
3573 Clouds 15 1015 62 10000 4.1 220 14:59 07.05.2020
3574 Clouds 15 1015 67 10000 4.1 230 14:41 07.05.2020
3575 Clouds 16 1015 58 10000 4.6 220 14:19 07.05.2020
3576 Clouds 15 1015 67 10000 4.1 230 13:42 07.05.2020
3577 Clouds 15 1015 67 10000 4.1 230 13:24 07.05.2020
3578 Clouds 14 1015 67 10000 4.6 230 12:44 07.05.2020
3579 Clouds 14 1015 67 10000 4.1 220 12:20 07.05.2020
3580 Clouds 14 1015 67 10000 4.1 220 11:57 07.05.2020
3581 Clouds 14 1014 71 10000 4.6 240 11:38 07.05.2020
3582 Clouds 14 1014 66 10000 4.6 240 11:20 07.05.2020
3583 Clouds 13 1014 71 10000 4.1 230 10:41 07.05.2020
3584 Clouds 13 1014 71 10000 4.1 230 10:21 07.05.2020
3585 Clouds 12 1014 71 10000 3.6 250 09:41 07.05.2020
3586 Clouds 11 1014 81 10000 3.1 270 09:20 07.05.2020
3587 Clouds 11 1014 81 10000 3.1 270 08:56 07.05.2020
3588 Clouds 11 1014 76 10000 2.1 240 08:38 07.05.2020
3589 Clouds 11 1014 76 10000 2.1 240 08:19 07.05.2020
3590 Rain 10 1014 87 10000 2.1 210 07:44 07.05.2020
3591 Rain 10 1014 87 10000 2.1 210 07:25 07.05.2020
3592 Rain 10 1014 87 10000 2.1 250 06:48 07.05.2020
3593 Rain 10 1014 87 10000 2.1 250 06:23 07.05.2020
3594 Rain 10 1013 87 10000 1.5 310 05:29 07.05.2020
3595 Rain 10 1014 87 10000 4.1 340 03:55 07.05.2020
3596 Rain 10 1014 87 10000 5.1 330 03:24 07.05.2020
3597 Rain 10 1014 93 10000 4.1 330 02:42 07.05.2020
3598 Rain 10 1014 93 10000 3.6 350 01:42 07.05.2020
3599 Rain 10 1014 93 10000 3.6 350 01:23 07.05.2020
3600 Rain 11 1014 87 10000 5.1 330 00:45 07.05.2020
3601 Rain 11 1014 87 10000 5.1 330 00:26 07.05.2020
3602 Rain 11 1013 87 10000 7.7 360 23:46 06.05.2020
3603 Rain 11 1013 87 10000 7.7 360 23:25 06.05.2020
3604 Rain 11 1013 87 10000 7.7 360 23:25 06.05.2020
3605 Rain 11 1013 81 10000 8.7 360 22:57 06.05.2020
3606 Rain 11 1013 81 10000 10.3 360 22:39 06.05.2020
3607 Rain 12 1013 87 8000 9.8 360 22:19 06.05.2020
3608 Rain 12 1013 87 8000 9.8 360 21:56 06.05.2020
3609 Rain 13 1013 87 10000 8.7 340 21:38 06.05.2020
3610 Rain 13 1013 87 10000 8.7 340 21:38 06.05.2020
3611 Rain 13 1013 87 10000 8.7 340 21:38 06.05.2020
3612 Rain 13 1012 87 10000 8.7 360 21:19 06.05.2020
3613 Rain 15 1011 67 10000 7.7 360 20:42 06.05.2020
3614 Clouds 16 1010 63 10000 7.7 20 20:24 06.05.2020
3615 Clouds 16 1010 63 10000 7.7 20 19:58 06.05.2020
3616 Clouds 16 1010 63 10000 7.2 10 19:39 06.05.2020
3617 Clouds 17 1009 59 10000 7.2 360 19:20 06.05.2020
3618 Clouds 17 1009 59 10000 7.2 360 18:59 06.05.2020
3619 Clouds 18 1009 52 10000 7.7 10 18:39 06.05.2020
3620 Rain 18 1009 52 10000 7.7 10 18:21 06.05.2020
3621 Rain 20 1009 56 10000 6.2 10 17:58 06.05.2020
3622 Rain 21 1009 52 10000 5.1 360 17:39 06.05.2020
3623 Clouds 21 1009 46 10000 2.1 240 17:21 06.05.2020
3624 Clouds 21 1009 46 10000 2.1 240 16:58 06.05.2020
3625 Clouds 22 1009 49 10000 3.1 240 16:40 06.05.2020
3626 Clouds 22 1009 49 10000 3.1 240 16:21 06.05.2020
3627 Clouds 22 1009 52 10000 3.1 270 15:58 06.05.2020
3628 Clouds 21 1010 56 10000 2.1 250 15:40 06.05.2020
3629 Clouds 21 1010 56 10000 2.1 250 15:20 06.05.2020
3630 Clouds 21 1010 64 10000 4.1 240 14:45 06.05.2020
3631 Clear 20 1010 63 10000 3.6 240 14:20 06.05.2020
3632 Clear 20 1010 63 10000 3.6 240 13:59 06.05.2020
3633 Clear 20 1010 68 10000 3.6 240 13:41 06.05.2020
3634 Clear 20 1010 72 10000 3.1 230 13:22 06.05.2020
3635 Clear 20 1010 72 10000 3.1 230 12:54 06.05.2020
3636 Clear 20 1010 72 10000 3.6 220 12:36 06.05.2020
3637 Clear 19 1011 72 10000 4.6 200 12:18 06.05.2020
3638 Clear 20 1011 72 10000 5.1 190 11:40 06.05.2020
3639 Clear 19 1011 72 10000 5.1 190 11:21 06.05.2020
3640 Clear 18 1011 77 10000 5.1 190 10:57 06.05.2020
3641 Clear 18 1011 77 10000 3.6 200 10:37 06.05.2020
3642 Clear 18 1011 72 10000 4.1 200 10:19 06.05.2020
3643 Clear 17 1011 77 10000 4.1 200 09:43 06.05.2020
3644 Clear 17 1011 82 10000 4.1 210 09:22 06.05.2020
3645 Clear 17 1011 82 10000 4.1 210 08:49 06.05.2020
3646 Clear 17 1011 77 10000 4.1 210 08:23 06.05.2020
3647 Clear 16 1011 77 10000 3.6 180 07:59 06.05.2020
3648 Clear 15 1012 82 10000 1 0 07:39 06.05.2020
3649 Clear 16 1012 82 10000 1 0 07:20 06.05.2020
3650 Clear 15 1011 82 10000 2.1 180 06:51 06.05.2020
3651 Mist 13 1012 87 5000 1.5 210 06:22 06.05.2020
3652 Mist 11 1012 93 5000 1.5 180 05:54 06.05.2020
3653 Mist 11 1012 93 4000 1 0 05:36 06.05.2020
3654 Mist 11 1012 100 4000 2.41 198 04:31 06.05.2020
3655 Mist 12 1013 93 4000 1.5 130 03:38 06.05.2020
3656 Mist 12 1013 93 5000 0.5 0 03:19 06.05.2020
3657 Mist 12 1013 93 5000 1 0 02:29 06.05.2020
3658 Mist 12 1013 93 4000 1.5 100 01:54 06.05.2020
3659 Mist 12 1013 93 4000 1.5 100 01:30 06.05.2020
3660 Clouds 12 1013 93 6000 1.5 90 00:53 06.05.2020
3661 Clouds 12 1014 100 6000 1.5 110 00:23 06.05.2020
3662 Clouds 13 1014 93 10000 1.5 110 23:55 05.05.2020
3663 Clouds 13 1014 93 10000 1.5 110 23:37 05.05.2020
3664 Clouds 13 1014 87 10000 2.1 100 23:18 05.05.2020
3665 Clouds 13 1014 87 10000 1 0 22:41 05.05.2020
3666 Clouds 13 1015 87 10000 1.5 90 22:19 05.05.2020
3667 Clouds 13 1015 87 10000 1.5 90 21:56 05.05.2020
3668 Clouds 14 1015 87 10000 1.5 110 21:38 05.05.2020
3669 Clear 14 1014 87 10000 1.5 150 21:19 05.05.2020
3670 Clear 14 1014 87 10000 1.5 150 20:56 05.05.2020
3671 Clear 14 1014 87 10000 1.14 188 20:38 05.05.2020
3672 Clouds 14 1014 87 10000 1.22 192 20:18 05.05.2020
3673 Clouds 14 1014 82 10000 1.5 230 19:42 05.05.2020
3674 Clouds 15 1014 82 10000 1.5 230 19:23 05.05.2020
3675 Clouds 15 1014 82 10000 2.6 240 18:57 05.05.2020
3676 Clouds 15 1014 82 10000 2.6 220 18:39 05.05.2020
3677 Clouds 15 1014 82 10000 2.6 200 18:20 05.05.2020
3678 Clouds 15 1014 82 10000 2.6 200 17:57 05.05.2020
3679 Clouds 16 1015 77 10000 3.1 0 17:39 05.05.2020
3680 Clouds 17 1015 82 10000 3.6 220 17:20 05.05.2020
3681 Clouds 16 1015 82 10000 3.6 220 16:54 05.05.2020
3682 Clouds 17 1015 77 10000 3.1 230 16:36 05.05.2020
3683 Clouds 17 1015 77 10000 3.1 230 16:18 05.05.2020
3684 Clouds 17 1015 77 10000 3.1 200 15:39 05.05.2020
3685 Clouds 16 1015 82 10000 3.6 210 15:21 05.05.2020
3686 Clouds 16 1015 82 10000 3.6 210 14:55 05.05.2020
3687 Clouds 17 1015 72 10000 4.1 190 14:37 05.05.2020
3688 Clouds 17 1015 67 10000 2.6 310 14:19 05.05.2020
3689 Clouds 16 1015 67 10000 2.6 310 13:57 05.05.2020
3690 Clouds 16 1015 67 10000 3.6 270 13:38 05.05.2020
3691 Clouds 15 1015 77 10000 3.6 340 13:19 05.05.2020
3692 Clouds 15 1015 77 10000 3.6 340 13:19 05.05.2020
3693 Clouds 15 1015 77 10000 3.6 340 12:56 05.05.2020
3694 Clouds 15 1016 77 10000 4.1 330 12:37 05.05.2020
3695 Clouds 15 1016 77 10000 4.1 330 12:19 05.05.2020
3696 Clouds 14 1015 77 10000 5.1 330 11:41 05.05.2020
3697 Clouds 14 1015 77 10000 5.1 330 11:20 05.05.2020
3698 Clouds 14 1015 77 10000 5.1 340 10:56 05.05.2020
3699 Clouds 14 1015 82 10000 4.6 360 10:38 05.05.2020
3700 Clouds 14 1015 82 10000 4.6 340 10:19 05.05.2020
3701 Clouds 14 1015 82 10000 4.6 340 09:55 05.05.2020
3702 Clouds 14 1014 82 10000 5.1 340 09:36 05.05.2020
3703 Clouds 14 1014 82 10000 4.6 340 09:18 05.05.2020
3704 Clouds 14 1014 87 10000 4.1 330 08:40 05.05.2020
3705 Clouds 14 1014 87 10000 3.1 310 08:18 05.05.2020
3706 Clouds 14 1014 87 10000 3.6 320 07:44 05.05.2020
3707 Clouds 14 1014 87 10000 3.6 320 07:23 05.05.2020
3708 Clouds 13 1014 93 10000 4.1 330 06:58 05.05.2020
3709 Rain 13 1013 93 10000 3.1 300 06:40 05.05.2020
3710 Rain 13 1013 93 4000 3.6 330 06:19 05.05.2020
3711 Rain 13 1013 93 4000 3.6 330 05:28 05.05.2020
3712 Clouds 13 1012 93 10000 1.5 270 02:46 05.05.2020
3713 Clouds 13 1012 93 10000 2.1 270 01:19 05.05.2020
3714 Rain 13 1012 93 10000 1.5 270 00:47 05.05.2020
3715 Clouds 13 1012 93 10000 1.5 280 23:56 04.05.2020
3716 Clouds 13 1012 93 10000 2.1 280 23:38 04.05.2020
3717 Clouds 13 1012 93 10000 1.5 290 23:19 04.05.2020
3718 Clouds 13 1012 93 10000 1.5 290 22:55 04.05.2020
3719 Rain 13 1012 93 10000 1.5 290 22:36 04.05.2020
3720 Rain 13 1012 93 10000 2.1 290 22:18 04.05.2020
3721 Rain 13 1012 93 10000 2.6 310 21:46 04.05.2020
3722 Rain 13 1012 93 10000 2.6 310 21:46 04.05.2020
3723 Rain 13 1012 93 10000 2.6 310 21:46 04.05.2020
3724 Rain 13 1012 93 10000 2.6 310 21:46 04.05.2020
3725 Rain 13 1012 93 10000 2.6 310 21:22 04.05.2020
3726 Rain 13 1012 93 10000 2.6 310 21:22 04.05.2020
3727 Rain 13 1012 93 10000 2.6 310 21:22 04.05.2020
3728 Rain 13 1011 93 10000 4.1 330 20:43 04.05.2020
3729 Clouds 13 1011 93 10000 2.6 320 20:21 04.05.2020
3730 Rain 13 1011 93 10000 4.1 330 20:21 04.05.2020
3731 Clouds 13 1011 93 10000 2.6 320 19:58 04.05.2020
3732 Clouds 13 1011 87 10000 3.1 310 19:40 04.05.2020
3733 Clouds 13 1011 87 10000 3.1 310 19:40 04.05.2020
3734 Clouds 13 1011 87 10000 3.1 310 19:40 04.05.2020
3735 Clouds 13 1010 93 10000 1.5 250 19:19 04.05.2020
3736 Rain 13 1010 93 10000 2.1 240 18:39 04.05.2020
3737 Rain 13 1010 93 10000 2.1 240 18:21 04.05.2020
3738 Rain 13 1010 93 10000 2.1 300 17:58 04.05.2020
3739 Rain 13 1010 93 10000 3.1 320 17:40 04.05.2020
3740 Rain 13 1010 93 10000 3.1 320 17:21 04.05.2020
3741 Rain 13 1010 93 10000 3.1 320 17:21 04.05.2020
3742 Rain 13 1010 93 8000 2.6 260 16:59 04.05.2020
3743 Rain 13 1010 93 6000 3.6 240 16:40 04.05.2020
3744 Rain 13 1009 93 6000 3.6 240 16:19 04.05.2020
3745 Rain 13 1009 93 6000 3.1 250 15:42 04.05.2020
3746 Rain 13 1009 93 6000 3.1 250 15:22 04.05.2020
3747 Rain 13 1009 93 10000 2.6 250 14:54 04.05.2020
3748 Rain 13 1009 93 10000 2.6 250 14:54 04.05.2020
3749 Rain 13 1009 93 10000 2.6 250 14:54 04.05.2020
3750 Rain 13 1009 93 10000 2.6 230 14:54 04.05.2020
3751 Rain 13 1009 93 10000 2.6 250 14:54 04.05.2020
3752 Rain 13 1009 93 10000 2.6 230 14:27 04.05.2020
3753 Clouds 13 1009 93 10000 3.1 260 13:31 04.05.2020
3754 Clouds 13 1009 93 10000 3.1 260 13:31 04.05.2020
3755 Clouds 13 1009 93 10000 3.1 260 13:31 04.05.2020
3756 Clouds 13 1009 93 10000 3.1 260 13:31 04.05.2020
3757 Clouds 13 1009 93 10000 3.1 260 13:31 04.05.2020
3758 Clouds 13 1009 82 10000 2.6 270 12:44 04.05.2020
3759 Clouds 13 1009 82 10000 2.6 270 12:44 04.05.2020
3760 Clouds 13 1009 82 10000 2.6 270 12:44 04.05.2020
3761 Clouds 13 1009 82 10000 2.6 270 12:44 04.05.2020
3762 Clouds 13 1009 82 10000 2.6 270 12:44 04.05.2020
3763 Clouds 13 1009 93 10000 4.1 260 11:28 04.05.2020
3764 Clouds 13 1009 93 10000 4.1 260 11:28 04.05.2020
3765 Clouds 13 1009 93 10000 4.1 260 11:28 04.05.2020
3766 Clouds 13 1009 93 10000 4.1 260 11:28 04.05.2020
3767 Rain 13 1008 87 10000 4.6 280 09:31 04.05.2020
3768 Rain 13 1006 87 10000 7.2 340 07:54 04.05.2020
3769 Rain 13 1006 87 10000 7.2 340 07:35 04.05.2020
3770 Rain 13 1005 87 10000 7.2 350 06:20 04.05.2020
3771 Rain 13 1005 93 10000 7.7 350 04:53 04.05.2020
3772 Rain 14 1005 93 10000 4.1 10 02:57 04.05.2020
3773 Rain 14 1005 87 10000 3.1 30 02:19 04.05.2020
3774 Rain 14 1006 87 10000 2.1 20 00:29 04.05.2020
3775 Rain 14 1006 87 10000 2.1 20 00:29 04.05.2020
3776 Rain 14 1006 87 10000 2.1 20 00:29 04.05.2020
3777 Rain 15 1006 87 10000 2.1 20 00:27 04.05.2020
3778 Rain 15 1006 87 10000 2.1 20 00:26 04.05.2020
3779 Clouds 14 1006 93 10000 3.1 360 23:45 03.05.2020
3780 Clouds 14 1006 93 10000 3.1 360 23:24 03.05.2020
3781 Rain 14 1006 93 10000 3.6 350 22:44 03.05.2020
3782 Rain 14 1006 93 10000 3.6 350 22:25 03.05.2020
3783 Rain 15 1006 87 10000 1.5 310 21:57 03.05.2020
3784 Rain 14 1006 93 10000 2.1 270 21:39 03.05.2020
3785 Rain 14 1006 93 8000 1.5 280 21:20 03.05.2020
3786 Rain 15 1006 87 8000 2.6 210 20:43 03.05.2020
3787 Rain 15 1006 87 8000 2.6 210 20:43 03.05.2020
3788 Rain 15 1005 87 10000 2.6 250 20:21 03.05.2020
3789 Rain 15 1005 87 10000 2.6 250 19:50 03.05.2020
3790 Rain 15 1005 87 10000 2.6 250 19:50 03.05.2020
3791 Rain 16 1005 87 10000 2.6 230 19:31 03.05.2020
3792 Rain 16 1004 82 10000 2.1 210 18:58 03.05.2020
3793 Rain 16 1004 82 10000 2.1 210 18:58 03.05.2020
3794 Rain 16 1004 82 10000 2.1 210 18:58 03.05.2020
3795 Rain 16 1004 82 10000 2.1 210 18:38 03.05.2020
3796 Rain 16 1004 82 10000 2.1 210 18:38 03.05.2020
3797 Rain 16 1004 82 10000 2.1 210 18:38 03.05.2020
3798 Rain 16 1004 82 10000 2.1 210 18:38 03.05.2020
3799 Rain 16 1004 82 10000 2.1 210 18:38 03.05.2020
3800 Rain 16 1004 82 10000 2.1 210 18:19 03.05.2020
3801 Clouds 17 1004 77 10000 2.1 210 17:41 03.05.2020
3802 Clouds 18 1004 68 10000 2.6 220 17:21 03.05.2020
3803 Clouds 19 1004 68 10000 2.1 220 16:46 03.05.2020
3804 Clouds 19 1004 68 10000 2.1 220 16:21 03.05.2020
3805 Clouds 18 1004 72 10000 2.1 250 15:59 03.05.2020
3806 Clouds 19 1004 68 10000 2.1 240 15:40 03.05.2020
3807 Clouds 19 1004 68 10000 2.6 250 15:21 03.05.2020
3808 Clouds 19 1004 68 10000 2.6 250 14:59 03.05.2020
3809 Clouds 18 1005 72 10000 3.1 250 14:40 03.05.2020
3810 Clouds 18 1005 72 10000 3.1 250 14:40 03.05.2020
3811 Clouds 18 1005 77 10000 2.1 250 14:21 03.05.2020
3812 Clouds 17 1004 77 10000 1 0 13:55 03.05.2020
3813 Clouds 17 1004 77 10000 1 0 13:28 03.05.2020
3814 Clouds 17 1004 77 10000 1 0 13:28 03.05.2020
3815 Clouds 17 1004 77 10000 1 0 13:27 03.05.2020
3816 Clouds 17 1004 77 10000 1 0 13:27 03.05.2020
3817 Clouds 17 1004 77 10000 1 0 13:26 03.05.2020
3818 Rain 16 1005 93 10000 4.1 180 12:45 03.05.2020
3819 Rain 17 1005 93 10000 4.1 180 12:19 03.05.2020
3820 Clouds 18 1005 82 10000 3.6 160 11:56 03.05.2020
3821 Rain 18 1005 82 10000 4.1 140 11:37 03.05.2020
3822 Rain 17 1005 82 10000 4.1 140 11:19 03.05.2020
3823 Rain 17 1005 82 10000 4.1 140 11:19 03.05.2020
3824 Clouds 18 1005 72 10000 2.1 100 10:47 03.05.2020
3825 Clouds 18 1005 72 10000 2.1 100 10:47 03.05.2020
3826 Clouds 18 1005 72 10000 2.1 100 10:47 03.05.2020
3827 Clouds 18 1005 72 10000 2.1 100 10:47 03.05.2020
3828 Clouds 17 1004 72 10000 2.6 80 09:58 03.05.2020
3829 Rain 17 1004 72 10000 2.6 100 09:38 03.05.2020
3830 Clouds 17 1004 77 10000 3.1 90 08:56 03.05.2020
3831 Clouds 17 1004 77 10000 3.6 110 08:27 03.05.2020
3832 Clouds 16 1004 82 10000 3.1 80 07:40 03.05.2020
3833 Clouds 15 1003 82 10000 2.1 90 06:29 03.05.2020
3834 Clouds 15 1003 82 10000 2.1 90 06:29 03.05.2020
3835 Clouds 15 1003 82 10000 2.1 90 06:29 03.05.2020
3836 Clouds 15 1003 82 10000 2.1 90 06:29 03.05.2020
3837 Clouds 15 1003 82 10000 2.1 90 06:29 03.05.2020
3838 Clouds 14 1003 82 10000 2.1 90 05:49 03.05.2020
3839 Clouds 14 1003 82 10000 2.1 90 05:49 03.05.2020
3840 Clouds 14 1003 82 10000 3.1 100 05:28 03.05.2020
3841 Clouds 14 1003 82 10000 3.1 100 05:28 03.05.2020
3842 Clouds 14 1003 82 10000 3.1 100 05:28 03.05.2020
3843 Clouds 14 1003 82 10000 3.1 100 05:28 03.05.2020
3844 Clouds 14 1004 93 10000 2.6 120 04:27 03.05.2020
3845 Clouds 14 1004 87 10000 2.1 100 03:25 03.05.2020
3846 Clouds 14 1004 87 10000 2.1 100 03:25 03.05.2020
3847 Clouds 15 1005 87 10000 3.1 120 02:25 03.05.2020
3848 Rain 15 1006 93 10000 4.6 100 01:46 03.05.2020
3849 Rain 15 1006 93 10000 4.6 100 01:27 03.05.2020
3850 Rain 15 1006 87 10000 4.1 100 00:56 03.05.2020
3851 Rain 15 1007 82 10000 3.6 150 00:37 03.05.2020
3852 Rain 15 1006 77 10000 1.5 130 00:19 03.05.2020
3853 Thunderstorm 16 1006 77 10000 2.1 270 23:43 02.05.2020
3854 Thunderstorm 17 1006 77 10000 2.1 270 23:25 02.05.2020
3855 Thunderstorm 18 1006 72 10000 5.7 300 22:43 02.05.2020
3856 Thunderstorm 17 1006 72 10000 5.7 300 22:24 02.05.2020
3857 Thunderstorm 17 1006 72 10000 5.7 300 22:24 02.05.2020
3858 Thunderstorm 18 1005 55 10000 1 0 21:56 02.05.2020
3859 Clouds 19 1005 55 10000 0.5 0 21:38 02.05.2020
3860 Clouds 19 1005 55 10000 0.5 0 21:19 02.05.2020
3861 Clouds 19 1006 55 10000 1 310 20:57 02.05.2020
3862 Clouds 19 1005 55 10000 0.5 0 20:37 02.05.2020
3863 Clouds 19 1005 52 10000 1 0 20:19 02.05.2020
3864 Clouds 19 1005 52 10000 1 0 19:57 02.05.2020
3865 Clouds 19 1005 52 10000 1 0 19:57 02.05.2020
3866 Clouds 20 1005 49 10000 1 0 19:38 02.05.2020
3867 Clouds 20 1005 52 10000 1.5 140 19:19 02.05.2020
3868 Clouds 21 1005 56 10000 2.1 120 18:41 02.05.2020
3869 Clouds 21 1005 56 10000 2.1 120 18:23 02.05.2020
3870 Clouds 21 1005 64 10000 1.5 150 17:58 02.05.2020
3871 Clouds 22 1006 68 10000 2.1 160 17:39 02.05.2020
3872 Clouds 22 1006 68 10000 2.1 160 17:20 02.05.2020
3873 Clouds 22 1006 56 10000 2.6 170 16:58 02.05.2020
3874 Clouds 23 1006 49 10000 3.1 180 16:39 02.05.2020
3875 Clouds 23 1006 49 10000 3.1 180 16:21 02.05.2020
3876 Clouds 24 1006 46 10000 3.1 200 15:43 02.05.2020
3877 Clouds 24 1006 46 10000 3.1 200 15:20 02.05.2020
3878 Clouds 23 1007 49 10000 2.6 210 14:57 02.05.2020
3879 Clouds 23 1007 49 10000 2.6 250 14:39 02.05.2020
3880 Clouds 23 1007 49 10000 2.6 250 14:20 02.05.2020
3881 Clouds 23 1007 49 10000 2.6 250 14:20 02.05.2020
3882 Clouds 23 1007 52 10000 3.1 240 13:40 02.05.2020
3883 Clouds 23 1008 52 10000 3.1 240 13:22 02.05.2020
3884 Clouds 22 1008 60 10000 2.6 230 12:44 02.05.2020
3885 Clouds 22 1008 60 10000 2.6 230 12:25 02.05.2020
3886 Clouds 21 1009 68 10000 3.1 210 11:59 02.05.2020
3887 Clouds 21 1009 68 10000 3.1 210 11:41 02.05.2020
3888 Clouds 21 1009 68 10000 3.1 210 11:22 02.05.2020
3889 Clouds 21 1009 68 10000 3.1 210 11:22 02.05.2020
3890 Clouds 21 1009 64 10000 3.1 220 10:58 02.05.2020
3891 Clouds 20 1009 72 10000 2.6 240 10:38 02.05.2020
3892 Clouds 20 1009 72 10000 2.6 240 10:20 02.05.2020
3893 Clouds 19 1009 72 10000 3.1 230 09:56 02.05.2020
3894 Clouds 19 1009 82 10000 2.6 200 09:37 02.05.2020
3895 Clouds 19 1009 82 10000 2.6 200 09:19 02.05.2020
3896 Clouds 18 1009 82 10000 3.1 240 08:46 02.05.2020
3897 Clouds 18 1009 82 10000 3.1 240 08:26 02.05.2020
3898 Clouds 17 1009 77 10000 2.1 230 07:47 02.05.2020
3899 Clouds 17 1009 77 10000 2.1 230 07:28 02.05.2020
3900 Clouds 17 1009 82 10000 2.1 250 06:51 02.05.2020
3901 Clouds 14 1008 87 10000 2.6 180 05:29 02.05.2020
3902 Clouds 14 1008 93 10000 0.5 0 04:48 02.05.2020
3903 Clouds 14 1008 93 10000 0.5 0 04:24 02.05.2020
3904 Clouds 15 1009 82 10000 1 0 02:44 02.05.2020
3905 Clouds 15 1009 82 10000 1 0 02:23 02.05.2020
3906 Clouds 15 1009 82 10000 1.5 180 01:48 02.05.2020
3907 Clouds 16 1009 77 10000 1 0 00:46 02.05.2020
3908 Rain 16 1009 77 10000 1 0 00:28 02.05.2020
3909 Rain 16 1009 77 10000 1.5 110 23:58 01.05.2020
3910 Rain 16 1009 82 10000 1.5 170 23:39 01.05.2020
3911 Clouds 16 1009 82 10000 1.5 170 23:19 01.05.2020
3912 Clouds 16 1009 82 10000 0.5 0 22:54 01.05.2020
3913 Clouds 16 1009 82 10000 0.5 0 22:36 01.05.2020
3914 Clouds 16 1009 82 10000 1 160 22:18 01.05.2020
3915 Clouds 16 1009 82 10000 1 160 21:54 01.05.2020
3916 Clouds 17 1009 82 10000 1.5 110 21:36 01.05.2020
3917 Clouds 18 1009 82 10000 1.5 110 21:18 01.05.2020
3918 Clouds 18 1009 82 10000 1.5 110 20:54 01.05.2020
3919 Clouds 18 1009 77 10000 1.5 110 20:36 01.05.2020
3920 Clouds 18 1009 77 10000 1.5 150 20:18 01.05.2020
3921 Clouds 19 1009 77 10000 1.5 170 19:41 01.05.2020
3922 Clouds 19 1009 77 10000 1.5 170 19:22 01.05.2020
3923 Clouds 20 1009 68 10000 2.1 180 18:57 01.05.2020
3924 Clouds 21 1008 68 10000 2.1 170 18:38 01.05.2020
3925 Clear 22 1009 60 10000 2.6 210 18:19 01.05.2020
3926 Clear 22 1009 60 10000 2.6 210 18:19 01.05.2020
3927 Clear 22 1009 60 10000 2.6 210 17:54 01.05.2020
3928 Clear 22 1008 64 10000 2.6 210 17:36 01.05.2020
3929 Clear 22 1008 64 10000 2.6 210 17:18 01.05.2020
3930 Clouds 22 1009 64 10000 3.6 210 16:40 01.05.2020
3931 Clouds 23 1009 60 10000 3.1 220 16:21 01.05.2020
3932 Clouds 23 1009 60 10000 3.1 220 15:58 01.05.2020
3933 Clouds 22 1010 60 10000 3.1 240 15:40 01.05.2020
3934 Clouds 22 1010 60 10000 3.1 240 15:20 01.05.2020
3935 Clouds 20 1010 72 10000 4.1 230 14:44 01.05.2020
3936 Clouds 20 1010 72 10000 4.6 230 14:25 01.05.2020
3937 Clouds 20 1010 72 10000 4.6 230 13:57 01.05.2020
3938 Clouds 20 1011 72 10000 4.6 230 13:39 01.05.2020
3939 Clouds 20 1011 72 10000 4.6 230 13:21 01.05.2020
3940 Clouds 20 1011 72 10000 4.1 230 12:56 01.05.2020
3941 Clouds 20 1011 72 10000 4.1 230 12:37 01.05.2020
3942 Clouds 19 1011 77 10000 4.1 230 12:19 01.05.2020
3943 Clouds 19 1012 77 10000 4.1 230 11:43 01.05.2020
3944 Clouds 19 1012 77 10000 4.1 230 11:25 01.05.2020
3945 Clear 18 1012 82 10000 3.6 220 10:58 01.05.2020
3946 Clear 18 1012 77 10000 3.6 220 10:39 01.05.2020
3947 Clouds 18 1012 77 10000 3.6 220 10:20 01.05.2020
3948 Clouds 17 1011 82 10000 4.1 230 09:44 01.05.2020
3949 Clouds 17 1011 82 10000 4.1 230 09:44 01.05.2020
3950 Rain 17 1012 77 10000 3.1 230 09:20 01.05.2020
3951 Rain 17 1012 77 10000 3.1 230 08:58 01.05.2020
3952 Rain 17 1011 82 10000 3.6 210 08:40 01.05.2020
3953 Rain 16 1011 87 10000 3.1 210 08:21 01.05.2020
3954 Rain 16 1011 87 10000 3.1 210 07:44 01.05.2020
3955 Rain 16 1011 87 10000 3.1 210 07:22 01.05.2020
3956 Rain 15 1011 93 10000 2.1 210 06:50 01.05.2020
3957 Clouds 15 1010 82 10000 2.6 210 05:36 01.05.2020
3958 Clouds 15 1010 77 10000 2.1 200 04:47 01.05.2020
3959 Clouds 15 1010 87 10000 2.6 240 03:24 01.05.2020
3960 Clouds 15 1010 87 10000 2.6 230 02:45 01.05.2020
3961 Clouds 15 1010 82 10000 2.6 230 02:19 01.05.2020
3962 Clouds 15 1010 82 10000 3.1 250 01:28 01.05.2020
3963 Clouds 15 1010 77 10000 2.1 240 00:59 01.05.2020
3964 Clouds 15 1010 82 10000 1.5 240 00:37 01.05.2020
3965 Clouds 15 1010 82 10000 1.5 240 00:37 01.05.2020
3966 Clouds 15 1010 87 10000 2.1 230 00:18 01.05.2020
3967 Clouds 15 1010 87 10000 2.1 230 23:54 30.04.2020
3968 Clouds 15 1010 77 10000 2.6 230 23:36 30.04.2020
3969 Clouds 16 1010 77 10000 2.6 230 23:18 30.04.2020
3970 Clouds 16 1010 77 10000 2.1 240 22:41 30.04.2020
3971 Clouds 16 1010 77 10000 3.1 220 22:20 30.04.2020
3972 Clouds 16 1010 77 10000 3.1 220 21:55 30.04.2020
3973 Clouds 16 1010 77 10000 2.1 210 21:37 30.04.2020
3974 Clouds 17 1009 82 10000 3.1 200 21:19 30.04.2020
3975 Clouds 17 1009 82 10000 3.1 200 20:43 30.04.2020
3976 Clouds 17 1009 77 10000 3.6 190 20:19 30.04.2020
3977 Clouds 17 1009 77 10000 3.6 190 19:58 30.04.2020
3978 Clouds 18 1008 68 10000 3.1 250 19:40 30.04.2020
3979 Clouds 18 1008 68 10000 3.1 250 19:22 30.04.2020
3980 Clouds 19 1008 59 10000 3.1 250 18:56 30.04.2020
3981 Clouds 19 1008 59 10000 3.1 250 18:37 30.04.2020
3982 Clouds 19 1008 59 10000 3.1 250 18:18 30.04.2020
3983 Clouds 19 1008 68 10000 4.6 250 17:42 30.04.2020
3984 Clear 20 1008 68 10000 4.6 250 17:22 30.04.2020
3985 -273 0 0 0 0 0 16:59 30.04.2020
3986 Clear 21 1007 46 10000 3.6 250 16:59 30.04.2020
3987 Clear 22 1007 56 10000 3.1 250 16:41 30.04.2020
3988 Clear 21 1008 55 10000 4.1 240 16:20 30.04.2020
3989 Clear 21 1008 55 10000 4.1 240 15:58 30.04.2020
3990 Clear 22 1008 46 10000 3.6 240 15:40 30.04.2020
3991 Clear 22 1008 46 10000 3.6 240 15:21 30.04.2020
3992 Clear 23 1008 49 10000 3.1 220 14:41 30.04.2020
3993 Clouds 23 1008 49 10000 3.1 220 14:20 30.04.2020
3994 Clouds 23 1008 49 10000 3.1 220 14:20 30.04.2020
3995 Clouds 22 1008 60 10000 3.6 210 13:58 30.04.2020
3996 Clouds 22 1008 56 10000 3.1 220 13:39 30.04.2020
3997 Clouds 22 1008 56 10000 3.1 220 13:39 30.04.2020
3998 Clouds 22 1008 56 10000 3.1 220 13:39 30.04.2020
3999 Clouds 22 1008 56 10000 3.1 220 13:21 30.04.2020
4000 Clouds 22 1009 55 10000 4.1 240 12:55 30.04.2020
4001 Clouds 21 1009 56 10000 3.6 240 12:37 30.04.2020
4002 Clouds 21 1009 55 10000 4.1 250 12:18 30.04.2020
4003 Clouds 21 1009 59 10000 4.1 250 11:38 30.04.2020
4004 Clouds 20 1009 59 10000 4.1 250 11:18 30.04.2020
4005 Clouds 20 1009 63 10000 3.6 220 10:56 30.04.2020
4006 Clouds 19 1009 63 10000 3.1 230 10:38 30.04.2020
4007 Clouds 20 1009 63 10000 2.6 220 10:18 30.04.2020
4008 Clouds 19 1009 63 10000 3.1 200 09:44 30.04.2020
4009 Clouds 19 1009 63 10000 3.1 200 09:23 30.04.2020
4010 Clouds 19 1009 59 10000 2.6 220 08:58 30.04.2020
4011 Clouds 18 1009 67 10000 2.6 230 08:39 30.04.2020
4012 Clouds 17 1009 67 10000 2.6 210 08:20 30.04.2020
4013 Clouds 17 1009 67 10000 1.5 250 07:43 30.04.2020
4014 Clouds 17 1009 67 10000 1.5 250 07:24 30.04.2020
4015 Clouds 16 1009 82 10000 1 140 06:48 30.04.2020
4016 Clouds 14 1009 77 10000 2.1 250 05:49 30.04.2020
4017 Clouds 14 1009 82 10000 2.1 250 05:28 30.04.2020
4018 Clouds 14 1008 82 10000 2.1 230 04:32 30.04.2020
4019 Clouds 14 1009 82 10000 1.5 210 03:52 30.04.2020
4020 Clouds 15 1009 72 10000 1 0 02:29 30.04.2020
4021 Clouds 15 1009 67 10000 2.1 150 01:58 30.04.2020
4022 Clouds 16 1009 63 10000 1.5 140 01:35 30.04.2020
4023 Clouds 16 1010 55 10000 1.5 130 00:42 30.04.2020
4024 Clouds 17 1010 55 10000 1.5 130 00:18 30.04.2020
4025 Clouds 18 1010 48 10000 1.5 100 23:56 29.04.2020
4026 Clouds 18 1010 45 10000 2.1 100 23:36 29.04.2020
4027 Clouds 18 1010 52 10000 2.1 80 23:18 29.04.2020
4028 Clouds 18 1010 52 10000 2.1 80 23:18 29.04.2020
4029 Clouds 18 1010 52 10000 1.5 90 22:40 29.04.2020
4030 Clouds 18 1010 52 10000 1.5 90 22:21 29.04.2020
4031 Clouds 18 1010 52 10000 2.6 100 21:56 29.04.2020
4032 Clouds 19 1010 55 10000 1.5 140 21:36 29.04.2020
4033 Clouds 19 1010 55 10000 2.1 100 21:18 29.04.2020
4034 Clouds 19 1010 59 10000 2.6 100 20:40 29.04.2020
4035 Clouds 19 1010 59 10000 1.5 120 20:20 29.04.2020
4036 Clouds 19 1010 59 10000 1.5 120 19:58 29.04.2020
4037 Clouds 19 1010 63 10000 3.1 150 19:40 29.04.2020
4038 Clouds 19 1010 63 10000 3.1 150 19:40 29.04.2020
4039 Clouds 20 1010 63 10000 3.1 150 19:19 29.04.2020
4040 Rain 21 1010 49 10000 1 0 18:43 29.04.2020
4041 Rain 21 1010 49 10000 1 0 18:24 29.04.2020
4042 Clouds 21 1010 45 10000 3.6 250 17:57 29.04.2020
4043 Clouds 22 1011 40 10000 4.1 250 17:39 29.04.2020
4044 Clouds 22 1011 40 10000 4.1 250 17:20 29.04.2020
4045 Clouds 22 1011 37 10000 2.6 240 16:38 29.04.2020
4046 Clouds 22 1011 37 10000 2.6 240 16:38 29.04.2020
4047 Clouds 23 1011 35 10000 4.1 230 16:19 29.04.2020
4048 Clouds 23 1011 35 10000 4.1 230 15:57 29.04.2020
4049 Clouds 23 1011 37 10000 4.6 220 15:39 29.04.2020
4050 Clouds 23 1011 37 10000 4.6 220 15:20 29.04.2020
4051 Clouds 23 1011 37 10000 4.6 220 15:20 29.04.2020
4052 Clouds 23 1011 37 10000 4.1 200 14:56 29.04.2020
4053 Clouds 23 1012 37 10000 4.1 200 14:38 29.04.2020
4054 Clouds 23 1012 35 10000 4.1 210 14:18 29.04.2020
4055 Clouds 23 1012 40 10000 4.1 210 13:42 29.04.2020
4056 Clouds 23 1012 40 10000 4.1 210 13:20 29.04.2020
4057 Clouds 23 1012 37 10000 3.1 190 12:57 29.04.2020
4058 Clouds 23 1013 37 10000 2.6 210 12:39 29.04.2020
4059 Clouds 22 1013 37 10000 2.6 210 12:18 29.04.2020
4060 Clouds 22 1013 37 10000 2.6 210 12:18 29.04.2020
4061 Clouds 21 1013 42 10000 2.6 190 11:40 29.04.2020
4062 Clouds 21 1013 42 10000 2.6 190 11:21 29.04.2020
4063 Clouds 21 1013 40 10000 2.1 160 10:57 29.04.2020
4064 Clouds 21 1013 42 10000 2.1 150 10:37 29.04.2020
4065 Clouds 20 1013 45 10000 3.1 140 10:19 29.04.2020
4066 Clouds 19 1013 45 10000 2.1 120 09:42 29.04.2020
4067 Clouds 17 1013 55 10000 1.5 140 09:23 29.04.2020
4068 Clouds 18 1013 55 10000 1.5 140 08:56 29.04.2020
4069 Clouds 17 1013 51 10000 2.1 150 08:37 29.04.2020
4070 Clouds 17 1013 51 10000 2.1 150 08:19 29.04.2020
4071 Clouds 15 1013 58 10000 1.5 150 07:41 29.04.2020
4072 Clear 15 1013 58 10000 1.5 150 07:23 29.04.2020
4073 Clear 14 1013 62 10000 1 0 06:50 29.04.2020
4074 Clear 13 1013 62 10000 1 0 06:30 29.04.2020
4075 Clouds 13 1013 62 10000 1.5 130 05:21 29.04.2020
4076 Clouds 12 1013 62 10000 1.5 130 05:21 29.04.2020
4077 Clouds 13 1013 62 10000 1.5 130 05:21 29.04.2020
4078 Clouds 12 1013 58 10000 2.1 210 04:38 29.04.2020
4079 Clear 12 1013 58 10000 2.1 210 04:18 29.04.2020
4080 Clear 12 1013 58 10000 1 0 02:39 29.04.2020
4081 Clear 13 1014 47 10000 1.5 80 01:44 29.04.2020
4082 Clear 13 1014 47 10000 1.5 80 01:21 29.04.2020
4083 Clear 12 1014 62 10000 1 0 00:40 29.04.2020
4084 Clear 13 1014 62 10000 1 0 00:19 29.04.2020
4085 Clear 14 1014 58 10000 1.5 90 23:48 28.04.2020
4086 Clear 13 1014 50 10000 1 0 23:23 28.04.2020
4087 Clear 15 1014 36 10000 2.6 100 22:55 28.04.2020
4088 Clear 15 1014 33 10000 2.6 80 22:37 28.04.2020
4089 Clear 15 1014 33 10000 2.6 80 22:18 28.04.2020
4090 Clear 15 1014 29 10000 2.6 50 21:54 28.04.2020
4091 Clear 15 1014 29 10000 2.6 50 21:54 28.04.2020
4092 Clear 15 1014 29 10000 2.6 60 21:36 28.04.2020
4093 Clear 15 1014 29 10000 2.6 60 21:18 28.04.2020
4094 Clear 15 1014 27 10000 3.1 60 20:41 28.04.2020
4095 Clear 16 1014 27 10000 3.1 60 20:21 28.04.2020
4096 Clear 16 1014 25 10000 3.6 70 19:59 28.04.2020
4097 Clear 17 1014 28 10000 4.6 70 19:41 28.04.2020
4098 Clear 17 1014 28 10000 4.6 70 19:22 28.04.2020
4099 Clear 17 1014 28 10000 4.6 70 19:22 28.04.2020
4100 Clear 17 1014 28 10000 4.1 50 18:58 28.04.2020
4101 Clear 18 1014 26 10000 4.1 50 18:38 28.04.2020
4102 Clear 18 1014 26 10000 4.1 50 18:19 28.04.2020
4103 Clear 20 1014 28 10000 4.1 50 17:39 28.04.2020
4104 Clear 20 1014 28 10000 4.1 50 17:20 28.04.2020
4105 Clear 20 1014 28 10000 4.1 50 17:20 28.04.2020
4106 Clear 20 1014 28 10000 3.6 50 16:59 28.04.2020
4107 Clear 20 1014 28 10000 3.6 50 16:59 28.04.2020
4108 Clear 20 1014 33 10000 2.6 140 16:41 28.04.2020
4109 Clear 20 1014 33 10000 2.6 140 16:22 28.04.2020
4110 Clear 20 1014 33 10000 3.1 120 15:57 28.04.2020
4111 Clear 20 1014 25 10000 3.1 160 15:39 28.04.2020
4112 Clear 21 1014 25 10000 3.1 160 15:21 28.04.2020
4113 Clear 19 1014 30 10000 3.1 160 14:57 28.04.2020
4114 Clear 21 1015 26 10000 3.6 170 14:39 28.04.2020
4115 Clear 20 1015 28 10000 3.6 150 14:19 28.04.2020
4116 Clear 21 1015 28 10000 3.6 150 13:57 28.04.2020
4117 Clear 20 1015 30 10000 4.1 160 13:37 28.04.2020
4118 Clear 21 1015 32 10000 4.1 150 13:19 28.04.2020
4119 Clear 21 1015 32 10000 3.6 150 12:44 28.04.2020
4120 Clear 20 1015 32 10000 3.6 150 12:24 28.04.2020
4121 Clear 20 1016 28 10000 3.6 110 11:44 28.04.2020
4122 Clear 20 1016 28 10000 3.6 110 11:24 28.04.2020
4123 -273 0 0 0 0 0 10:59 28.04.2020
4124 Clear 19 1016 34 10000 3.6 100 10:39 28.04.2020
4125 Clear 18 1016 42 10000 2.1 100 10:19 28.04.2020
4126 Clear 18 1016 42 10000 2.1 100 09:55 28.04.2020
4127 Clear 17 1016 39 10000 2.1 120 09:37 28.04.2020
4128 Clear 15 1016 48 10000 1.5 100 09:19 28.04.2020
4129 Clear 16 1016 48 10000 1.5 100 08:45 28.04.2020
4130 Clear 16 1016 48 10000 1.5 100 08:26 28.04.2020
4131 Clear 15 1016 47 10000 2.1 60 07:44 28.04.2020
4132 Clear 14 1016 47 10000 2.1 60 07:19 28.04.2020
4133 Clear 13 1016 50 10000 3.1 50 06:44 28.04.2020
4134 Clear 11 1016 54 10000 3.6 40 05:57 28.04.2020
4135 Clear 11 1015 54 10000 3.6 60 05:38 28.04.2020
4136 Clear 11 1015 58 10000 4.6 40 04:39 28.04.2020
4137 Clear 12 1015 62 10000 3.1 30 02:59 28.04.2020
4138 Clear 12 1015 66 10000 3.6 10 02:27 28.04.2020
4139 Clear 12 1015 66 10000 3.1 10 01:23 28.04.2020
4140 Clear 12 1015 66 10000 4.1 10 00:51 28.04.2020
4141 Clear 12 1015 66 10000 4.6 10 00:20 28.04.2020
4142 Clear 12 1015 62 10000 2.6 360 23:43 27.04.2020
4143 Clear 13 1015 58 10000 3.1 40 23:22 27.04.2020
4144 Clear 13 1015 58 10000 3.1 40 22:55 27.04.2020
4145 Clear 13 1015 58 10000 3.1 40 22:55 27.04.2020
4146 Clear 13 1015 62 10000 3.1 30 22:37 27.04.2020
4147 Clear 13 1015 62 10000 3.1 30 22:18 27.04.2020
4148 Clear 13 1015 62 10000 3.1 30 21:55 27.04.2020
4149 Clear 13 1015 58 10000 3.6 20 21:37 27.04.2020
4150 Clear 13 1015 58 10000 3.6 20 21:18 27.04.2020
4151 Clear 13 1014 58 10000 4.6 30 20:42 27.04.2020
4152 Clouds 13 1014 58 10000 4.6 30 20:21 27.04.2020
4153 Clouds 14 1014 55 10000 5.1 20 19:57 27.04.2020
4154 Clouds 14 1013 51 10000 5.1 360 19:38 27.04.2020
4155 Clouds 15 1013 45 10000 4.1 20 19:19 27.04.2020
4156 Clouds 16 1013 45 10000 4.1 20 18:56 27.04.2020
4157 Clouds 16 1013 42 10000 4.6 20 18:37 27.04.2020
4158 Clouds 17 1013 45 10000 5.7 350 18:18 27.04.2020
4159 Clouds 18 1013 40 10000 5.1 360 17:43 27.04.2020
4160 Clouds 19 1013 40 10000 5.1 360 17:21 27.04.2020
4161 Clouds 19 1013 40 10000 4.6 10 16:56 27.04.2020
4162 Clouds 19 1013 40 10000 5.1 20 16:38 27.04.2020
4163 Clouds 19 1013 42 10000 5.7 10 16:20 27.04.2020
4164 Clouds 19 1013 42 10000 5.7 10 15:56 27.04.2020
4165 Clouds 19 1013 42 10000 5.7 20 15:37 27.04.2020
4166 Clouds 19 1013 40 10000 5.1 360 15:18 27.04.2020
4167 Clouds 19 1013 43 10000 5.7 350 14:41 27.04.2020
4168 Clouds 19 1013 43 10000 5.7 350 14:20 27.04.2020
4169 Clouds 19 1013 37 10000 4.6 20 13:58 27.04.2020
4170 Clouds 19 1013 52 10000 2.1 0 13:39 27.04.2020
4171 Clouds 18 1013 52 10000 2.1 0 13:19 27.04.2020
4172 Clouds 18 1013 67 10000 2.6 200 12:43 27.04.2020
4173 Clouds 18 1013 67 10000 2.6 200 12:23 27.04.2020
4174 Clouds 17 1013 63 10000 2.6 190 11:59 27.04.2020
4175 Clouds 18 1013 63 10000 3.6 180 11:40 27.04.2020
4176 Clouds 18 1013 63 10000 2.6 170 11:19 27.04.2020
4177 Clouds 18 1013 63 10000 3.1 120 10:54 27.04.2020
4178 Clouds 17 1013 63 10000 3.1 120 10:36 27.04.2020
4179 Clouds 17 1013 59 10000 3.1 130 10:18 27.04.2020
4180 Clouds 17 1013 51 10000 2.6 300 09:42 27.04.2020
4181 Clouds 16 1013 55 10000 2.1 360 09:18 27.04.2020
4182 Clouds 15 1013 55 10000 2.1 360 08:53 27.04.2020
4183 Clouds 14 1013 62 10000 2.1 340 08:33 27.04.2020
4184 Clouds 14 1012 67 10000 1 0 07:55 27.04.2020
4185 Clouds 13 1012 67 10000 0.5 0 07:36 27.04.2020
4186 Clouds 12 1012 81 10000 1 0 07:18 27.04.2020
4187 Clouds 11 1012 81 10000 1 0 06:39 27.04.2020
4188 Clouds 10 1011 81 10000 2.1 350 06:19 27.04.2020
4189 Clouds 10 1011 81 10000 2.1 350 05:48 27.04.2020
4190 Clouds 10 1011 81 10000 0.5 0 04:40 27.04.2020
4191 Clouds 11 1011 71 10000 1.5 60 03:48 27.04.2020
4192 Clouds 10 1011 76 10000 3.6 10 02:40 27.04.2020
4193 Clouds 12 1011 81 10000 3.6 10 01:22 27.04.2020
4194 Clouds 11 1011 71 10000 3.1 30 00:45 27.04.2020
4195 Clouds 11 1011 71 10000 4.1 10 00:19 27.04.2020
4196 Clouds 11 1011 71 10000 4.1 10 23:55 26.04.2020
4197 Clouds 11 1011 76 10000 5.1 350 23:37 26.04.2020
4198 Clouds 11 1011 76 10000 5.1 350 23:18 26.04.2020
4199 Clouds 12 1011 71 10000 7.2 360 22:55 26.04.2020
4200 Clouds 12 1011 71 10000 8.2 350 22:55 26.04.2020
4201 Clouds 12 1011 71 10000 7.2 360 22:37 26.04.2020
4202 Clouds 13 1011 62 10000 6.7 330 22:18 26.04.2020
4203 Clouds 13 1011 62 10000 6.7 330 21:55 26.04.2020
4204 Clear 13 1010 58 10000 3.1 310 21:37 26.04.2020
4205 Clouds 14 1010 48 10000 2.1 30 21:18 26.04.2020
4206 Clouds 15 1009 48 10000 3.1 40 20:39 26.04.2020
4207 Clouds 15 1009 45 10000 3.6 40 20:20 26.04.2020
4208 Clouds 16 1009 45 10000 3.6 40 19:58 26.04.2020
4209 Clouds 16 1009 45 10000 4.1 50 19:38 26.04.2020
4210 Clouds 16 1009 45 10000 4.1 50 19:19 26.04.2020
4211 Clouds 17 1008 40 10000 4.1 40 18:44 26.04.2020
4212 Clouds 18 1008 45 10000 3.6 100 18:25 26.04.2020
4213 Clouds 18 1008 40 10000 4.1 40 18:25 26.04.2020
4214 Clouds 18 1008 45 10000 3.6 100 17:56 26.04.2020
4215 Clouds 18 1008 35 10000 2.6 110 17:38 26.04.2020
4216 Clouds 19 1008 35 10000 2.6 110 17:18 26.04.2020
4217 Clouds 19 1009 45 10000 2.1 190 16:40 26.04.2020
4218 Clouds 18 1009 45 10000 2.6 240 16:22 26.04.2020
4219 Clouds 19 1009 45 10000 2.6 240 15:59 26.04.2020
4220 Clouds 19 1009 45 10000 3.1 220 15:40 26.04.2020
4221 Clouds 19 1009 45 10000 3.1 220 15:21 26.04.2020
4222 Clouds 19 1009 42 10000 3.1 220 14:56 26.04.2020
4223 Clouds 19 1009 39 10000 2.6 220 14:38 26.04.2020
4224 Clouds 19 1009 45 10000 4.1 240 14:18 26.04.2020
4225 Clouds 19 1009 48 10000 3.1 220 13:43 26.04.2020
4226 Clouds 19 1009 48 10000 3.1 220 13:24 26.04.2020
4227 Clouds 18 1009 45 10000 3.6 240 12:58 26.04.2020
4228 Clouds 18 1009 51 10000 3.1 220 12:40 26.04.2020
4229 Clouds 18 1009 51 10000 3.1 220 12:21 26.04.2020
4230 Clouds 19 1010 52 10000 2.1 210 11:58 26.04.2020
4231 Clouds 18 1010 55 10000 3.6 190 11:40 26.04.2020
4232 Clouds 18 1010 55 10000 3.6 190 11:21 26.04.2020
4233 Clouds 17 1010 55 10000 3.1 260 10:55 26.04.2020
4234 Clouds 17 1010 58 10000 4.1 240 10:37 26.04.2020
4235 Clouds 16 1009 58 10000 4.1 230 10:18 26.04.2020
4236 Clouds 16 1009 58 10000 4.6 240 09:39 26.04.2020
4237 Clear 16 1009 58 10000 4.6 240 09:21 26.04.2020
4238 Clear 15 1008 58 10000 3.6 210 08:46 26.04.2020
4239 Clear 15 1008 58 10000 3.6 210 08:23 26.04.2020
4240 Clear 15 1008 58 10000 3.6 210 07:59 26.04.2020
4241 Clear 13 1008 66 10000 3.1 210 07:40 26.04.2020
4242 Clear 13 1008 66 10000 3.1 210 07:20 26.04.2020
4243 Clear 12 1008 71 10000 3.1 210 06:40 26.04.2020
4244 Clear 10 1008 71 10000 3.1 210 05:55 26.04.2020
4245 Clear 10 1008 71 10000 3.1 230 05:37 26.04.2020
4246 Clear 10 1008 76 10000 3.1 240 04:56 26.04.2020
4247 Clear 9 1008 76 10000 2.1 240 04:22 26.04.2020
4248 Clear 10 1007 81 10000 2.47 197 02:47 26.04.2020
4249 Clear 10 1007 81 10000 2.76 201 02:28 26.04.2020
4250 Clear 9 1008 81 10000 1 140 01:46 26.04.2020
4251 Clear 9 1008 81 10000 1 140 01:25 26.04.2020
4252 Clear 10 1008 81 10000 1.5 110 00:39 26.04.2020
4253 Clear 10 1008 81 10000 1.5 110 00:19 26.04.2020
4254 Clear 10 1008 76 10000 0.5 0 23:38 25.04.2020
4255 Clear 10 1008 76 10000 0.5 0 23:20 25.04.2020
4256 Clear 9 1008 71 10000 1.5 0 22:57 25.04.2020
4257 Clear 10 1008 76 10000 1 180 22:39 25.04.2020
4258 Clear 11 1008 76 10000 1.5 200 22:19 25.04.2020
4259 Clear 10 1008 81 10000 2.1 180 21:40 25.04.2020
4260 Clear 10 1008 81 10000 2.1 180 21:20 25.04.2020
4261 Clear 10 1008 76 10000 1 0 20:58 25.04.2020
4262 Clear 10 1007 71 10000 1 0 20:40 25.04.2020
4263 Clear 11 1007 71 10000 1 0 20:21 25.04.2020
4264 Clear 11 1007 71 10000 1.5 180 19:42 25.04.2020
4265 Clear 12 1007 71 10000 1.5 180 19:23 25.04.2020
4266 Clear 13 1007 62 10000 2.1 210 18:59 25.04.2020
4267 Clear 14 1007 58 10000 2.1 230 18:39 25.04.2020
4268 Clear 14 1007 58 10000 2.1 230 18:21 25.04.2020
4269 Clear 15 1008 54 10000 2.1 200 17:58 25.04.2020
4270 Clear 15 1008 54 10000 2.1 200 17:58 25.04.2020
4271 Clear 16 1008 54 10000 3.1 220 17:38 25.04.2020
4272 Clear 16 1008 58 10000 3.1 240 17:19 25.04.2020
4273 Clear 16 1008 58 10000 3.1 240 16:55 25.04.2020
4274 Clear 16 1008 62 10000 3.1 240 16:37 25.04.2020
4275 Clear 16 1009 62 10000 3.6 240 16:18 25.04.2020
4276 Clear 15 1009 58 10000 3.1 220 15:41 25.04.2020
4277 Clear 15 1009 58 10000 3.1 220 15:41 25.04.2020
4278 Clear 15 1009 58 10000 3.1 220 15:20 25.04.2020
4279 Clear 15 1009 62 10000 4.1 230 14:58 25.04.2020
4280 Clear 15 1010 66 10000 4.1 230 14:39 25.04.2020
4281 Clear 15 1010 62 10000 3.6 230 14:20 25.04.2020
4282 Clear 15 1010 66 10000 4.1 220 13:43 25.04.2020
4283 Clear 15 1010 66 10000 4.1 220 13:22 25.04.2020
4284 Clear 15 1010 66 10000 4.1 220 12:58 25.04.2020
4285 Clear 14 1011 66 10000 3.1 220 12:40 25.04.2020
4286 Clear 14 1011 66 10000 3.1 190 12:21 25.04.2020
4287 Clear 13 1011 66 10000 3.1 190 11:58 25.04.2020
4288 Clear 13 1011 66 10000 3.1 190 11:39 25.04.2020
4289 Clear 13 1011 66 10000 3.1 190 11:21 25.04.2020
4290 Clear 12 1011 66 10000 3.1 170 10:44 25.04.2020
4291 Clear 11 1011 71 10000 3.1 170 10:24 25.04.2020
4292 Clear 10 1011 71 10000 3.1 170 09:50 25.04.2020
4293 Clear 10 1011 71 10000 2.6 160 09:30 25.04.2020
4294 Clear 10 1011 66 10000 2.1 150 08:59 25.04.2020
4295 Clear 10 1011 66 10000 1 0 08:40 25.04.2020
4296 Clear 9 1011 66 10000 1 0 08:21 25.04.2020
4297 Clouds 9 1011 66 10000 1 0 07:58 25.04.2020
4298 Clouds 8 1011 70 10000 2.1 0 07:40 25.04.2020
4299 Clear 7 1011 75 10000 2.6 10 06:55 25.04.2020
4300 Clouds 6 1011 87 10000 2.1 360 06:36 25.04.2020
4301 Clouds 4 1010 86 10000 3.1 350 05:42 25.04.2020
4302 Clouds 4 1010 86 10000 3.1 350 05:21 25.04.2020
4303 Clear 6 1010 75 10000 2.6 30 02:59 25.04.2020
4304 Clear 6 1010 75 10000 3.1 20 02:25 25.04.2020
4305 Clear 7 1011 75 10000 3.1 20 01:54 25.04.2020
4306 Clear 6 1011 75 10000 3.1 20 01:35 25.04.2020
4307 Clear 7 1011 70 10000 3.6 30 00:58 25.04.2020
4308 Clear 7 1011 70 10000 3.6 30 00:34 25.04.2020
4309 Clear 8 1012 70 10000 3.6 40 23:55 24.04.2020
4310 Clear 8 1012 70 10000 4.1 40 23:37 24.04.2020
4311 Clear 8 1012 70 10000 4.1 40 23:19 24.04.2020
4312 Clear 8 1012 70 10000 5.1 40 22:40 24.04.2020
4313 Clear 9 1012 66 10000 5.1 50 22:20 24.04.2020
4314 Clear 9 1012 66 10000 5.1 50 21:57 24.04.2020
4315 Clear 9 1012 66 10000 5.1 50 21:38 24.04.2020
4316 Clear 9 1012 66 10000 5.1 50 21:20 24.04.2020
4317 Clear 9 1012 66 10000 5.7 40 20:56 24.04.2020
4318 Clear 9 1012 66 10000 5.7 40 20:38 24.04.2020
4319 Clear 9 1012 66 10000 6.2 30 20:18 24.04.2020
4320 Clear 10 1011 62 10000 7.2 40 19:43 24.04.2020
4321 Clear 10 1011 62 10000 7.2 40 19:24 24.04.2020
4322 Clear 11 1012 54 10000 7.2 50 18:46 24.04.2020
4323 Clear 11 1012 54 10000 7.2 50 18:28 24.04.2020
4324 Clear 12 1012 50 10000 7.2 30 17:59 24.04.2020
4325 Clear 13 1012 50 10000 7.2 20 17:39 24.04.2020
4326 Clear 13 1012 50 10000 7.2 20 17:20 24.04.2020
4327 Clear 13 1011 47 10000 8.2 20 16:58 24.04.2020
4328 Clear 13 1012 47 10000 7.7 30 16:40 24.04.2020
4329 Clear 14 1012 47 10000 7.7 30 16:21 24.04.2020
4330 Clear 14 1012 47 10000 9.3 20 15:42 24.04.2020
4331 Clear 14 1013 44 10000 8.7 10 15:22 24.04.2020
4332 Clear 14 1013 44 10000 8.7 10 14:59 24.04.2020
4333 Clear 14 1013 44 10000 9.3 10 14:39 24.04.2020
4334 Clear 14 1013 51 10000 8.2 10 14:20 24.04.2020
4335 Clear 14 1013 47 10000 8.2 10 13:42 24.04.2020
4336 Clear 14 1013 47 10000 8.2 10 13:22 24.04.2020
4337 Clear 14 1013 47 10000 7.7 10 12:59 24.04.2020
4338 Clear 14 1014 51 10000 8.2 20 12:41 24.04.2020
4339 Clear 14 1014 51 10000 7.7 10 12:20 24.04.2020
4340 Clear 14 1014 51 10000 7.7 10 11:56 24.04.2020
4341 Clear 14 1014 51 10000 7.2 20 11:37 24.04.2020
4342 Clear 13 1014 54 10000 7.2 30 11:18 24.04.2020
4343 Clear 13 1014 54 10000 7.2 30 11:18 24.04.2020
4344 Clear 13 1014 54 10000 7.7 30 10:38 24.04.2020
4345 Clear 13 1014 62 10000 7.2 40 10:20 24.04.2020
4346 Clear 12 1014 62 10000 7.2 40 09:58 24.04.2020
4347 Clear 12 1015 62 10000 7.2 30 09:39 24.04.2020
4348 Clouds 12 1015 62 10000 7.2 30 09:20 24.04.2020
4349 Clouds 11 1015 66 10000 6.7 50 08:43 24.04.2020
4350 Clouds 11 1015 66 10000 6.7 50 08:24 24.04.2020
4351 Clouds 10 1015 71 10000 6.2 40 07:59 24.04.2020
4352 Clouds 10 1015 71 10000 5.1 40 07:41 24.04.2020
4353 Clouds 9 1015 71 10000 5.1 40 07:23 24.04.2020
4354 Clouds 9 1015 71 10000 4.1 50 06:48 24.04.2020
4355 Clouds 9 1015 76 10000 4.6 50 06:30 24.04.2020
4356 Clouds 9 1015 76 10000 5.1 40 05:40 24.04.2020
4357 Clouds 9 1016 76 10000 5.1 40 03:41 24.04.2020
4358 Clouds 9 1016 76 10000 5.1 40 02:55 24.04.2020
4359 Clouds 9 1016 76 10000 4.6 50 02:37 24.04.2020
4360 Clouds 8 1016 76 10000 6.2 40 01:47 24.04.2020
4361 Clouds 9 1017 76 10000 6.2 40 00:56 24.04.2020
4362 Clear 9 1017 70 10000 7.2 40 00:20 24.04.2020
4363 Clear 9 1017 70 10000 6.7 40 23:48 23.04.2020
4364 Clear 9 1017 70 10000 6.2 40 23:28 23.04.2020
4365 Clear 9 1017 66 10000 7.2 40 22:59 23.04.2020
4366 Clear 9 1018 66 10000 6.2 40 22:41 23.04.2020
4367 Clear 9 1018 66 10000 6.2 40 22:41 23.04.2020
4368 Clear 9 1018 66 10000 5.7 50 22:21 23.04.2020
4369 Clear 9 1018 66 10000 5.7 50 21:58 23.04.2020
4370 Clouds 9 1019 66 10000 5.1 50 21:40 23.04.2020
4371 Clear 9 1019 66 10000 5.1 50 21:21 23.04.2020
4372 Clear 9 1019 66 10000 6.2 40 20:59 23.04.2020
4373 Clear 9 1018 66 10000 7.2 40 20:41 23.04.2020
4374 Clear 9 1018 66 10000 7.2 40 20:21 23.04.2020
4375 Clear 9 1018 61 10000 6.2 40 19:56 23.04.2020
4376 Clear 9 1018 66 10000 7.2 40 19:38 23.04.2020
4377 Clear 9 1018 66 10000 7.2 40 19:20 23.04.2020
4378 Clear 10 1017 57 10000 8.2 30 18:55 23.04.2020
4379 Clear 10 1017 57 10000 8.7 30 18:36 23.04.2020
4380 Clear 11 1017 57 10000 8.7 30 18:18 23.04.2020
4381 Clear 12 1018 54 10000 8.2 40 17:40 23.04.2020
4382 Clear 12 1018 50 10000 8.7 30 17:22 23.04.2020
4383 Clear 12 1018 50 10000 8.7 30 16:57 23.04.2020
4384 Clear 13 1018 47 10000 7.7 30 16:38 23.04.2020
4385 Clear 12 1019 43 10000 9.3 20 16:19 23.04.2020
4386 Clear 13 1019 47 10000 7.7 30 15:42 23.04.2020
4387 Clear 13 1019 47 10000 7.7 30 15:23 23.04.2020
4388 Clouds 13 1019 47 10000 8.2 20 14:57 23.04.2020
4389 Clouds 13 1019 47 10000 8.2 40 14:38 23.04.2020
4390 Clouds 13 1019 47 10000 7.7 30 14:19 23.04.2020
4391 Clouds 13 1019 47 10000 7.7 30 13:55 23.04.2020
4392 Clouds 13 1019 47 10000 7.7 30 13:36 23.04.2020
4393 Clouds 12 1019 47 10000 7.7 30 13:18 23.04.2020
4394 Clouds 12 1020 50 10000 8.2 30 12:42 23.04.2020
4395 Clear 13 1020 41 10000 7.2 50 12:24 23.04.2020
4396 Clear 13 1020 41 10000 7.2 50 11:56 23.04.2020
4397 Clouds 13 1020 46 10000 7.7 40 11:38 23.04.2020
4398 Clouds 13 1020 43 10000 7.7 40 11:18 23.04.2020
4399 Clouds 12 1020 46 10000 7.7 50 10:41 23.04.2020
4400 Clouds 12 1020 46 10000 7.7 50 10:21 23.04.2020
4401 Clouds 11 1020 46 10000 7.2 50 09:41 23.04.2020
4402 Clouds 11 1020 54 10000 7.2 50 09:20 23.04.2020
4403 Clouds 10 1020 57 10000 6.7 60 08:57 23.04.2020
4404 Clouds 10 1020 57 10000 6.7 60 08:39 23.04.2020
4405 Clouds 10 1020 61 10000 5.1 40 08:21 23.04.2020
4406 Clear 10 1020 61 10000 4.1 40 07:42 23.04.2020
4407 Clear 9 1020 61 10000 4.1 40 07:23 23.04.2020
4408 Clear 9 1020 70 10000 3.1 30 06:47 23.04.2020
4409 Clear 8 1020 70 10000 3.1 30 06:22 23.04.2020
4410 Clear 8 1019 75 10000 3.6 40 05:23 23.04.2020
4411 Clear 8 1019 75 10000 3.6 40 04:51 23.04.2020
4412 Clear 8 1020 70 10000 4.6 40 02:24 23.04.2020
4413 Clear 8 1020 70 10000 4.1 50 01:46 23.04.2020
4414 Clear 8 1020 70 10000 4.1 50 01:24 23.04.2020
4415 Clear 8 1020 70 10000 4.6 40 00:45 23.04.2020
4416 Clear 8 1020 70 10000 4.6 40 00:45 23.04.2020
4417 Clear 8 1020 70 10000 5.1 40 00:18 23.04.2020
4418 Clouds 9 1020 70 10000 5.1 50 23:47 22.04.2020
4419 Clouds 9 1020 76 10000 4.6 50 23:23 22.04.2020
4420 Clouds 9 1020 76 10000 4.6 50 22:55 22.04.2020
4421 Clouds 9 1020 71 10000 5.1 50 22:36 22.04.2020
4422 Clouds 9 1020 71 10000 5.7 50 22:18 22.04.2020
4423 Clouds 9 1020 71 10000 5.7 50 21:55 22.04.2020
4424 Clouds 9 1020 71 10000 5.7 50 21:55 22.04.2020
4425 Clouds 9 1021 71 10000 6.2 50 21:36 22.04.2020
4426 Clouds 9 1020 66 10000 7.7 50 21:18 22.04.2020
4427 Clouds 9 1020 61 10000 6.7 40 20:43 22.04.2020
4428 Clouds 10 1020 62 10000 6.7 50 20:19 22.04.2020
4429 Clouds 10 1020 62 10000 6.7 50 19:57 22.04.2020
4430 Clouds 10 1020 66 10000 6.2 30 19:38 22.04.2020
4431 Clouds 10 1019 66 10000 7.2 30 19:18 22.04.2020
4432 Clouds 10 1019 66 10000 7.2 30 19:18 22.04.2020
4433 Clouds 10 1019 66 10000 7.2 30 18:58 22.04.2020
4434 Clouds 10 1019 66 10000 8.2 20 18:40 22.04.2020
4435 Clouds 10 1019 66 10000 8.2 20 18:40 22.04.2020
4436 Clouds 11 1019 66 10000 8.2 20 18:22 22.04.2020
4437 Clouds 11 1019 54 10000 8.7 20 17:45 22.04.2020
4438 Clouds 11 1019 54 10000 8.7 20 17:45 22.04.2020
4439 Clouds 11 1019 54 10000 8.7 20 17:26 22.04.2020
4440 Clouds 11 1019 54 10000 8.7 30 16:58 22.04.2020
4441 Clouds 11 1019 54 10000 9.3 40 16:40 22.04.2020
4442 Clouds 12 1019 54 10000 9.3 40 16:22 22.04.2020
4443 Clouds 12 1019 58 10000 8.2 30 15:42 22.04.2020
4444 Clouds 12 1019 58 10000 8.2 30 15:42 22.04.2020
4445 Clouds 12 1019 58 10000 8.7 20 15:23 22.04.2020
4446 Clouds 12 1019 58 10000 8.7 20 14:58 22.04.2020
4447 Clouds 12 1020 58 10000 8.2 20 14:38 22.04.2020
4448 Clouds 12 1020 58 10000 8.2 30 14:20 22.04.2020
4449 Clouds 12 1020 58 10000 8.2 30 13:55 22.04.2020
4450 Clouds 12 1020 50 10000 9.3 20 13:37 22.04.2020
4451 Clouds 12 1019 50 10000 8.2 30 13:19 22.04.2020
4452 Clouds 12 1019 50 10000 8.2 20 12:40 22.04.2020
4453 Clouds 13 1019 50 10000 8.2 20 12:22 22.04.2020
4454 Clouds 12 1019 54 10000 8.7 50 11:41 22.04.2020
4455 Clouds 11 1019 37 10000 9.8 50 11:22 22.04.2020
4456 Clouds 12 1019 37 10000 9.8 50 10:59 22.04.2020
4457 Clouds 12 1020 54 10000 8.2 40 10:40 22.04.2020
4458 Clouds 12 1020 54 10000 8.2 40 10:40 22.04.2020
4459 Clouds 11 1019 50 10000 8.7 30 10:20 22.04.2020
4460 Clouds 11 1019 57 10000 8.2 50 09:40 22.04.2020
4461 Clouds 11 1019 57 10000 8.2 50 09:21 22.04.2020
4462 Clouds 11 1019 50 10000 8.2 30 08:58 22.04.2020
4463 Clouds 11 1018 62 10000 8.2 30 08:40 22.04.2020
4464 Clouds 10 1018 62 10000 7.2 40 08:22 22.04.2020
4465 Clouds 10 1018 62 10000 7.2 40 07:53 22.04.2020
4466 Clouds 10 1018 66 10000 6.7 40 07:28 22.04.2020
4467 Clouds 9 1018 66 10000 6.2 30 06:53 22.04.2020
4468 Clouds 9 1018 66 10000 6.2 30 06:53 22.04.2020
4469 Clouds 9 1018 71 10000 6.2 30 06:21 22.04.2020
4470 Clouds 9 1018 66 10000 6.7 30 05:37 22.04.2020
4471 Clouds 9 1018 53 10000 5.1 20 04:20 22.04.2020
4472 Clouds 9 1018 53 10000 5.1 20 04:20 22.04.2020
4473 Clouds 9 1018 57 10000 5.7 50 02:50 22.04.2020
4474 Clouds 9 1018 66 10000 5.1 50 01:52 22.04.2020
4475 Clouds 9 1018 61 10000 5.7 50 01:25 22.04.2020
4476 Clouds 9 1018 61 10000 5.7 50 00:54 22.04.2020
4477 Clouds 9 1019 57 10000 6.2 50 00:36 22.04.2020
4478 Clouds 9 1019 57 10000 6.2 50 00:18 22.04.2020
4479 Clouds 9 1019 57 10000 7.2 50 23:41 21.04.2020
4480 Clouds 9 1019 57 10000 7.2 50 23:19 21.04.2020
4481 Clouds 9 1019 57 10000 7.2 50 23:19 21.04.2020
4482 Clouds 9 1019 57 10000 5.7 50 22:40 21.04.2020
4483 Clouds 9 1019 57 10000 6.7 40 22:22 21.04.2020
4484 Clouds 9 1019 57 10000 6.7 40 21:59 21.04.2020
4485 Clouds 9 1019 61 10000 6.7 50 21:41 21.04.2020
4486 Clouds 9 1019 61 10000 6.7 50 21:22 21.04.2020
4487 Clouds 9 1019 61 10000 7.7 50 20:55 21.04.2020
4488 Rain 8 1019 70 10000 7.2 40 20:37 21.04.2020
4489 Rain 9 1019 70 10000 7.2 40 20:19 21.04.2020
4490 Rain 9 1019 71 10000 8.2 40 19:40 21.04.2020
4491 Rain 9 1019 71 10000 8.2 40 19:40 21.04.2020
4492 Rain 9 1019 71 10000 8.2 40 19:19 21.04.2020
4493 Rain 9 1019 76 10000 4.6 70 18:57 21.04.2020
4494 Rain 9 1018 66 10000 6.7 60 18:38 21.04.2020
4495 Rain 9 1018 66 10000 6.7 60 18:19 21.04.2020
4496 Clouds 10 1018 62 10000 6.7 40 17:41 21.04.2020
4497 Clouds 10 1018 62 10000 6.7 40 17:22 21.04.2020
4498 Clouds 10 1017 66 10000 7.2 30 16:59 21.04.2020
4499 Clouds 10 1016 62 10000 8.2 50 16:39 21.04.2020
4500 Clouds 10 1016 62 10000 8.2 50 16:39 21.04.2020
4501 Clouds 10 1016 62 10000 8.2 50 16:19 21.04.2020
4502 Clouds 10 1017 62 10000 6.7 60 15:57 21.04.2020
4503 Clouds 10 1018 66 10000 6.2 50 15:38 21.04.2020
4504 Rain 10 1018 66 10000 5.7 50 15:20 21.04.2020
4505 Rain 10 1018 66 10000 5.7 50 14:54 21.04.2020
4506 Rain 10 1018 71 10000 5.7 40 14:36 21.04.2020
4507 Rain 10 1018 66 10000 6.7 50 14:18 21.04.2020
4508 Rain 11 1018 58 10000 7.2 40 13:40 21.04.2020
4509 Rain 11 1018 58 10000 7.2 40 13:40 21.04.2020
4510 Clouds 11 1018 54 10000 6.7 40 13:22 21.04.2020
4511 Clouds 11 1018 54 10000 6.7 40 12:54 21.04.2020
4512 Clouds 11 1019 50 10000 8.2 30 12:36 21.04.2020
4513 Clouds 11 1019 54 10000 8.2 30 12:18 21.04.2020
4514 Clouds 11 1019 54 10000 8.2 30 12:18 21.04.2020
4515 Clouds 11 1019 54 10000 8.2 30 12:18 21.04.2020
4516 Clouds 11 1019 54 10000 8.2 30 11:54 21.04.2020
4517 Clouds 11 1019 62 10000 6.7 40 11:36 21.04.2020
4518 Clouds 11 1019 66 10000 6.2 30 11:18 21.04.2020
4519 Clouds 11 1019 66 10000 6.2 30 11:18 21.04.2020
4520 Clouds 11 1019 66 10000 6.2 30 10:54 21.04.2020
4521 Clouds 10 1019 66 10000 6.2 30 10:36 21.04.2020
4522 Clouds 10 1019 71 10000 6.2 30 10:18 21.04.2020
4523 Clouds 10 1018 66 10000 5.7 40 09:37 21.04.2020
4524 Clouds 10 1018 71 10000 4.6 40 09:18 21.04.2020
4525 Clouds 10 1018 71 10000 6.2 40 08:47 21.04.2020
4526 Clouds 10 1018 71 10000 6.2 40 08:27 21.04.2020
4527 Clouds 10 1018 71 10000 6.2 40 08:27 21.04.2020
4528 Clouds 10 1018 71 10000 6.2 40 07:56 21.04.2020
4529 Clouds 10 1018 71 10000 6.2 40 07:37 21.04.2020
4530 Clouds 10 1018 76 10000 6.2 40 07:19 21.04.2020
4531 Clouds 10 1018 76 10000 5.7 40 06:43 21.04.2020
4532 Clouds 10 1018 76 10000 4.6 40 06:18 21.04.2020
4533 Clouds 10 1018 76 10000 6.2 40 05:44 21.04.2020
4534 Clouds 10 1018 76 10000 4.6 50 03:48 21.04.2020
4535 Clouds 10 1018 76 10000 4.6 50 03:48 21.04.2020
4536 Clouds 10 1018 76 10000 5.1 50 02:59 21.04.2020
4537 Clouds 10 1019 76 10000 5.1 50 01:37 21.04.2020
4538 Clouds 10 1019 71 10000 5.1 60 00:51 21.04.2020
4539 Clouds 10 1019 71 10000 5.1 60 00:25 21.04.2020
4540 Clouds 10 1019 71 10000 5.7 60 23:44 20.04.2020
4541 Clouds 10 1019 71 10000 7.2 40 23:23 20.04.2020
4542 Clouds 10 1019 71 10000 7.2 40 22:57 20.04.2020
4543 Clouds 10 1019 71 10000 5.7 50 22:37 20.04.2020
4544 Clouds 10 1019 71 10000 5.7 50 22:19 20.04.2020
4545 Clouds 10 1019 71 10000 6.7 40 21:55 20.04.2020
4546 Clouds 10 1019 76 10000 6.2 40 21:37 20.04.2020
4547 Clouds 10 1019 71 10000 6.2 30 21:18 20.04.2020
4548 Clouds 10 1019 71 10000 6.2 30 20:55 20.04.2020
4549 Clouds 10 1018 71 10000 5.7 30 20:37 20.04.2020
4550 Clouds 10 1018 71 10000 6.7 30 20:18 20.04.2020
4551 Clouds 11 1018 62 10000 6.7 30 19:41 20.04.2020
4552 Clouds 11 1018 62 10000 6.7 30 19:23 20.04.2020
4553 Clouds 11 1017 66 10000 7.2 40 18:59 20.04.2020
4554 Clouds 11 1017 62 10000 8.2 40 18:41 20.04.2020
4555 Clouds 12 1017 66 10000 8.2 20 18:21 20.04.2020
4556 Clouds 12 1017 66 10000 8.2 20 17:55 20.04.2020
4557 Clouds 12 1017 71 10000 8.7 30 17:37 20.04.2020
4558 Clouds 12 1017 71 10000 8.7 30 17:19 20.04.2020
4559 Clouds 12 1017 76 10000 9.8 30 16:43 20.04.2020
4560 Clouds 12 1017 76 10000 9.8 30 16:21 20.04.2020
4561 Clouds 12 1017 76 10000 9.3 20 15:57 20.04.2020
4562 Clouds 12 1017 82 10000 9.3 10 15:39 20.04.2020
4563 Clouds 12 1017 76 10000 9.3 20 15:21 20.04.2020
4564 Clouds 12 1017 76 10000 9.3 20 14:54 20.04.2020
4565 Clouds 12 1017 71 10000 8.2 20 14:36 20.04.2020
4566 Clouds 12 1017 71 10000 8.2 20 14:18 20.04.2020
4567 Clouds 12 1016 76 10000 8.7 10 13:40 20.04.2020
4568 Clouds 12 1016 76 10000 8.7 10 13:40 20.04.2020
4569 Clouds 12 1016 76 10000 9.8 360 13:22 20.04.2020
4570 Clouds 12 1016 76 10000 9.3 10 12:44 20.04.2020
4571 Clouds 12 1016 76 10000 9.3 10 12:25 20.04.2020
4572 Clouds 13 1016 76 10000 9.3 10 11:59 20.04.2020
4573 Clouds 13 1016 76 10000 9.3 10 11:59 20.04.2020
4574 Clouds 13 1015 77 10000 10.3 360 11:39 20.04.2020
4575 Clouds 14 1015 77 10000 10.8 350 11:20 20.04.2020
4576 Clouds 13 1015 77 10000 10.8 350 10:56 20.04.2020
4577 Clouds 13 1014 76 10000 10.8 360 10:38 20.04.2020
4578 Clouds 13 1014 76 10000 10.8 360 10:19 20.04.2020
4579 Clouds 13 1013 76 10000 9.8 350 09:44 20.04.2020
4580 Clouds 13 1013 76 10000 9.8 350 09:26 20.04.2020
4581 Clouds 13 1013 76 10000 9.3 340 08:59 20.04.2020
4582 Clouds 13 1013 82 10000 9.8 330 08:41 20.04.2020
4583 Clouds 13 1013 82 10000 9.8 330 08:19 20.04.2020
4584 Clouds 14 1012 82 10000 8.2 320 07:52 20.04.2020
4585 Clouds 15 1012 59 10000 4.1 320 07:29 20.04.2020
4586 Clouds 14 1012 76 10000 3.1 330 06:55 20.04.2020
4587 Clouds 14 1011 82 10000 2.6 310 06:35 20.04.2020
4588 Clouds 15 1010 67 10000 2.6 240 05:33 20.04.2020
4589 Clouds 14 1010 82 10000 1.5 190 03:45 20.04.2020
4590 Clear 14 1010 82 10000 1 190 02:44 20.04.2020
4591 Clear 14 1011 76 10000 0.5 0 01:32 20.04.2020
4592 Clear 14 1011 76 10000 1 0 00:59 20.04.2020
4593 Clear 15 1011 72 10000 1 0 00:34 20.04.2020
4594 Clear 15 1011 76 10000 1 0 23:56 19.04.2020
4595 Clear 15 1011 72 10000 2.42 222 23:37 19.04.2020
4596 Clear 15 1011 72 10000 2.42 222 23:19 19.04.2020
4597 Clear 16 1012 77 10000 1 130 22:40 19.04.2020
4598 Clear 16 1012 77 10000 1 130 22:21 19.04.2020
4599 Clear 16 1012 67 10000 1 0 21:57 19.04.2020
4600 Clouds 17 1012 72 10000 1 0 21:38 19.04.2020
4601 Clouds 18 1012 72 10000 1 0 21:20 19.04.2020
4602 Clouds 18 1012 67 10000 1 0 20:41 19.04.2020
4603 Clouds 17 1012 67 10000 1 0 20:21 19.04.2020
4604 -273 0 0 0 0 0 19:59 19.04.2020
4605 Clouds 18 1012 67 10000 1.5 170 19:41 19.04.2020
4606 Clouds 19 1012 67 10000 1.5 170 19:22 19.04.2020
4607 Clouds 20 1012 48 10000 2.1 180 18:58 19.04.2020
4608 Clouds 20 1012 48 10000 2.1 180 18:58 19.04.2020
4609 Clouds 21 1012 48 10000 1.5 170 18:39 19.04.2020
4610 Clouds 22 1012 48 10000 1.5 170 18:20 19.04.2020
4611 Clouds 22 1012 55 10000 1.5 190 17:57 19.04.2020
4612 Clouds 22 1012 52 10000 2.6 190 17:38 19.04.2020
4613 Clouds 23 1012 45 10000 2.6 190 17:20 19.04.2020
4614 Clouds 23 1012 45 10000 2.6 190 16:57 19.04.2020
4615 Clouds 23 1013 49 10000 2.1 190 16:38 19.04.2020
4616 Clouds 24 1013 37 10000 2.1 210 16:19 19.04.2020
4617 Clouds 23 1013 40 10000 2.6 240 15:43 19.04.2020
4618 Clouds 23 1013 40 10000 2.6 240 15:22 19.04.2020
4619 Clouds 23 1014 46 10000 2.6 220 14:55 19.04.2020
4620 Clouds 24 1014 40 10000 3.1 210 14:37 19.04.2020
4621 Clouds 23 1014 45 10000 3.1 240 14:18 19.04.2020
4622 Clouds 23 1015 45 10000 3.1 240 13:39 19.04.2020
4623 Clouds 22 1015 45 10000 3.1 240 13:20 19.04.2020
4624 Clouds 21 1015 48 10000 2.6 230 12:50 19.04.2020
4625 Clouds 21 1015 48 10000 2.6 230 12:25 19.04.2020
4626 Clouds 21 1015 45 10000 3.1 230 11:59 19.04.2020
4627 Clouds 21 1015 48 10000 3.1 240 11:37 19.04.2020
4628 Clouds 21 1015 48 10000 3.1 240 11:19 19.04.2020
4629 Clouds 20 1016 48 10000 2.6 210 10:55 19.04.2020
4630 Clouds 20 1016 55 10000 2.1 190 10:37 19.04.2020
4631 Clouds 20 1016 55 10000 2.1 190 10:18 19.04.2020
4632 Clouds 18 1015 63 10000 2.6 200 09:45 19.04.2020
4633 Clear 18 1015 63 10000 2.6 200 09:26 19.04.2020
4634 Clear 16 1016 67 10000 2.1 190 08:41 19.04.2020
4635 Clear 16 1016 67 10000 2.1 190 08:22 19.04.2020
4636 Clear 16 1016 72 10000 1.5 150 07:59 19.04.2020
4637 Clear 15 1016 76 10000 2.1 130 07:41 19.04.2020
4638 Clear 14 1016 76 10000 2.1 130 07:21 19.04.2020
4639 Clear 11 1016 81 10000 1.1 200 06:28 19.04.2020
4640 Clear 11 1015 76 10000 1.11 190 05:55 19.04.2020
4641 Clear 12 1015 71 10000 0.5 0 04:43 19.04.2020
4642 Clear 12 1015 66 10000 0.74 193 02:59 19.04.2020
4643 Clear 13 1015 66 10000 0.5 0 02:21 19.04.2020
4644 Clear 14 1015 58 10000 1.5 250 01:38 19.04.2020
4645 Clear 13 1015 71 10000 1 350 00:48 19.04.2020
4646 Clear 13 1015 76 10000 1 330 00:25 19.04.2020
4647 Clear 13 1015 76 10000 1 330 23:48 18.04.2020
4648 Clear 13 1015 67 10000 2.1 280 23:22 18.04.2020
4649 Clear 13 1015 67 10000 1 0 22:59 18.04.2020
4650 Clear 14 1015 62 10000 1 0 22:40 18.04.2020
4651 Clear 14 1015 62 10000 1 0 22:21 18.04.2020
4652 Clear 14 1016 62 10000 1 0 21:56 18.04.2020
4653 Clear 14 1015 67 10000 1.02 148 21:37 18.04.2020
4654 Clouds 15 1015 67 10000 1.06 146 21:19 18.04.2020
4655 Clouds 15 1015 62 10000 1.5 80 20:42 18.04.2020
4656 Clouds 15 1015 62 10000 1.5 80 20:22 18.04.2020
4657 Clouds 16 1015 72 10000 2.1 110 19:56 18.04.2020
4658 Clouds 16 1015 72 10000 2.1 110 19:56 18.04.2020
4659 Clouds 16 1015 72 10000 2.1 130 19:37 18.04.2020
4660 Clouds 17 1015 72 10000 2.1 130 19:19 18.04.2020
4661 Clouds 19 1015 63 10000 2.1 170 18:37 18.04.2020
4662 Clouds 20 1015 63 10000 2.1 170 18:19 18.04.2020
4663 Clouds 20 1015 63 10000 2.1 170 18:19 18.04.2020
4664 Clouds 20 1015 55 10000 3.1 200 17:43 18.04.2020
4665 Clouds 21 1015 55 10000 3.1 200 17:21 18.04.2020
4666 Clouds 22 1015 45 10000 2.6 200 16:58 18.04.2020
4667 Clouds 22 1015 45 10000 3.1 240 16:38 18.04.2020
4668 Clouds 21 1015 52 10000 3.1 220 16:20 18.04.2020
4669 Clouds 21 1015 52 10000 3.1 200 15:40 18.04.2020
4670 Clear 20 1015 52 10000 3.1 200 15:22 18.04.2020
4671 Clear 21 1015 48 10000 3.6 240 14:47 18.04.2020
4672 Clear 21 1015 48 10000 3.6 240 14:47 18.04.2020
4673 Clear 20 1015 48 10000 3.6 240 14:29 18.04.2020
4674 Clear 21 1015 55 10000 3.6 250 13:59 18.04.2020
4675 Clear 20 1016 55 10000 3.1 240 13:41 18.04.2020
4676 Clear 20 1016 63 10000 3.6 230 13:20 18.04.2020
4677 Clear 19 1016 67 10000 3.1 230 12:42 18.04.2020
4678 Clear 19 1016 67 10000 3.1 230 12:24 18.04.2020
4679 Clear 18 1016 67 10000 4.1 240 11:56 18.04.2020
4680 Clear 18 1017 67 10000 3.6 230 11:37 18.04.2020
4681 Clear 18 1017 67 10000 3.6 230 11:19 18.04.2020
4682 Clear 17 1017 72 10000 3.6 220 10:41 18.04.2020
4683 Clear 16 1017 72 10000 3.6 220 10:19 18.04.2020
4684 Clear 16 1016 72 10000 3.1 220 09:58 18.04.2020
4685 Clear 16 1016 76 10000 3.1 230 09:38 18.04.2020
4686 Clear 15 1016 76 10000 3.1 230 09:20 18.04.2020
4687 Clear 15 1016 76 10000 2.6 220 08:42 18.04.2020
4688 Clear 14 1016 76 10000 2.6 220 08:21 18.04.2020
4689 Clear 12 1016 93 10000 2.1 200 07:41 18.04.2020
4690 Clear 12 1015 93 10000 1.5 190 07:20 18.04.2020
4691 Clear 12 1015 87 10000 1 0 06:38 18.04.2020
4692 Clear 10 1015 93 10000 1 0 05:48 18.04.2020
4693 Clear 9 1015 93 10000 0.5 0 04:54 18.04.2020
4694 Clear 9 1015 93 10000 2.65 224 04:29 18.04.2020
4695 Clouds 9 1015 93 10000 0.5 0 02:58 18.04.2020
4696 Clouds 10 1015 87 10000 1.5 190 02:40 18.04.2020
4697 Clouds 9 1015 87 10000 1.5 190 02:19 18.04.2020
4698 Clouds 10 1015 81 10000 1 140 01:36 18.04.2020
4699 Clouds 11 1015 87 10000 1 130 00:51 18.04.2020
4700 Clouds 11 1015 76 10000 1.73 221 00:24 18.04.2020
4701 Clouds 10 1015 81 10000 1 150 23:57 17.04.2020
4702 Clouds 10 1015 76 10000 0.5 150 23:38 17.04.2020
4703 Clouds 11 1015 71 10000 1 150 23:19 17.04.2020
4704 Clouds 11 1015 71 10000 1 150 22:56 17.04.2020
4705 Clouds 11 1015 62 10000 0.5 170 22:38 17.04.2020
4706 Clouds 11 1015 62 10000 0.5 170 22:19 17.04.2020
4707 Clouds 12 1015 58 10000 1 0 21:44 17.04.2020
4708 Clouds 12 1015 66 10000 1 0 21:22 17.04.2020
4709 Clouds 12 1015 66 10000 1 0 20:59 17.04.2020
4710 Clouds 12 1014 66 10000 2.6 260 20:38 17.04.2020
4711 Clouds 12 1014 76 10000 2.1 260 20:19 17.04.2020
4712 Clouds 13 1014 76 10000 2.1 260 19:59 17.04.2020
4713 Clouds 13 1014 66 10000 1.5 250 19:41 17.04.2020
4714 Clouds 14 1014 66 10000 1 0 19:22 17.04.2020
4715 Clouds 15 1014 71 10000 2.6 200 18:44 17.04.2020
4716 Clouds 15 1014 71 10000 2.6 200 18:24 17.04.2020
4717 Clouds 15 1014 71 10000 2.6 200 18:24 17.04.2020
4718 Clouds 16 1014 62 10000 2.6 190 17:56 17.04.2020
4719 Clouds 16 1014 66 10000 3.1 180 17:37 17.04.2020
4720 Clouds 17 1014 62 10000 3.1 190 17:18 17.04.2020
4721 Clouds 18 1014 58 10000 3.1 190 16:43 17.04.2020
4722 Clouds 18 1014 58 10000 3.1 190 16:23 17.04.2020
4723 Clouds 19 1015 41 10000 3.6 220 15:44 17.04.2020
4724 Clouds 19 1015 41 10000 3.6 220 15:24 17.04.2020
4725 Clouds 18 1015 38 10000 3.1 220 14:57 17.04.2020
4726 Clouds 18 1015 44 10000 3.1 230 14:39 17.04.2020
4727 Clouds 18 1015 44 10000 3.1 230 14:20 17.04.2020
4728 Clouds 18 1016 38 10000 3.6 230 13:55 17.04.2020
4729 Clouds 16 1016 38 10000 3.6 230 13:36 17.04.2020
4730 Clouds 16 1017 54 10000 3.1 230 13:18 17.04.2020
4731 Clouds 16 1017 58 10000 3.1 240 12:43 17.04.2020
4732 Clear 15 1017 62 10000 3.1 220 12:22 17.04.2020
4733 Clear 15 1017 71 10000 3.6 190 11:41 17.04.2020
4734 Clear 15 1018 62 10000 2.6 230 11:19 17.04.2020
4735 Clear 15 1018 71 10000 3.1 200 10:56 17.04.2020
4736 Clear 14 1018 71 10000 3.1 200 10:37 17.04.2020
4737 Clear 14 1018 71 10000 4.1 180 10:18 17.04.2020
4738 Clear 13 1018 71 10000 4.1 190 09:40 17.04.2020
4739 Clear 12 1018 71 10000 3.6 190 09:20 17.04.2020
4740 Clear 12 1018 71 10000 3.6 190 08:56 17.04.2020
4741 Clear 12 1018 71 10000 3.6 190 08:38 17.04.2020
4742 Clear 11 1018 76 10000 2.6 210 08:19 17.04.2020
4743 Clear 10 1018 76 10000 2.6 240 07:43 17.04.2020
4744 Clear 10 1018 81 10000 2.1 260 07:21 17.04.2020
4745 Clear 7 1018 81 10000 2.6 330 06:45 17.04.2020
4746 Clear 6 1018 81 10000 2.1 340 06:22 17.04.2020
4747 Clear 5 1019 80 10000 0.5 0 04:46 17.04.2020
4748 Clear 6 1019 75 10000 1.46 131 03:19 17.04.2020
4749 Clear 6 1019 70 10000 0.5 0 01:58 17.04.2020
4750 Clear 6 1020 50 10000 1.46 124 01:27 17.04.2020
4751 Clear 7 1020 50 10000 1.46 124 00:45 17.04.2020
4752 Clear 8 1020 49 10000 2.08 91 00:18 17.04.2020
4753 Clear 7 1020 45 10000 2.08 91 23:40 16.04.2020
4754 Clear 7 1021 49 10000 1 330 23:22 16.04.2020
4755 Clear 8 1021 42 10000 0.5 0 22:56 16.04.2020
4756 Clear 8 1021 42 10000 0.5 0 22:37 16.04.2020
4757 Clear 9 1021 37 10000 2.1 60 22:37 16.04.2020
4758 Clear 9 1021 37 10000 2.1 60 22:19 16.04.2020
4759 Clear 9 1021 37 10000 1.5 80 21:41 16.04.2020
4760 Clear 9 1021 34 10000 3.1 50 21:20 16.04.2020
4761 Clear 10 1021 34 10000 3.6 60 20:58 16.04.2020
4762 Clear 10 1021 37 10000 4.1 40 20:39 16.04.2020
4763 Clear 10 1021 37 10000 4.1 40 20:19 16.04.2020
4764 Clear 11 1021 34 10000 3.1 50 19:54 16.04.2020
4765 Clear 11 1021 32 10000 3.6 40 19:36 16.04.2020
4766 Clear 11 1021 32 10000 3.6 40 19:18 16.04.2020
4767 Clear 11 1021 32 10000 4.1 30 18:41 16.04.2020
4768 Clear 13 1021 33 10000 4.1 40 18:21 16.04.2020
4769 Clear 13 1022 30 10000 3.6 40 17:56 16.04.2020
4770 Clear 13 1022 30 10000 3.6 40 17:38 16.04.2020
4771 Clear 13 1022 30 10000 3.6 40 17:18 16.04.2020
4772 Clear 13 1022 33 10000 4.1 20 16:42 16.04.2020
4773 Clear 13 1022 28 10000 5.1 30 16:23 16.04.2020
4774 Clear 13 1022 33 10000 5.1 20 15:45 16.04.2020
4775 Clear 14 1023 28 10000 5.1 40 15:20 16.04.2020
4776 Clear 13 1023 28 10000 5.7 40 14:58 16.04.2020
4777 Clear 13 1023 28 10000 5.7 40 14:40 16.04.2020
4778 Clear 13 1023 33 10000 4.6 30 14:21 16.04.2020
4779 Clear 14 1024 28 10000 5.7 20 13:57 16.04.2020
4780 Clear 14 1024 28 10000 5.7 20 13:38 16.04.2020
4781 Clear 13 1024 30 10000 5.7 60 13:19 16.04.2020
4782 Clear 13 1024 30 10000 6.2 40 12:57 16.04.2020
4783 Clear 13 1024 30 10000 6.2 50 12:38 16.04.2020
4784 Clear 13 1024 30 10000 6.2 50 12:19 16.04.2020
4785 Clear 12 1025 33 10000 6.7 40 11:56 16.04.2020
4786 Clear 12 1025 33 10000 6.7 40 11:37 16.04.2020
4787 Clear 12 1025 32 10000 6.2 50 11:18 16.04.2020
4788 Clear 12 1025 30 10000 6.7 50 10:40 16.04.2020
4789 Clear 11 1025 32 10000 7.2 50 10:19 16.04.2020
4790 Clear 11 1025 37 10000 6.2 40 09:59 16.04.2020
4791 Clear 11 1025 40 10000 6.2 40 09:38 16.04.2020
4792 Clouds 10 1025 40 10000 6.2 40 09:20 16.04.2020
4793 Clouds 10 1025 50 10000 5.7 30 08:45 16.04.2020
4794 Clouds 10 1025 57 10000 5.7 20 08:25 16.04.2020
4795 Clouds 9 1024 70 10000 4.6 10 07:46 16.04.2020
4796 Clouds 8 1024 70 10000 4.6 10 07:28 16.04.2020
4797 Clouds 8 1024 70 10000 4.6 360 06:58 16.04.2020
4798 Clouds 8 1024 75 10000 4.6 10 06:39 16.04.2020
4799 Clouds 8 1024 75 10000 4.6 10 06:21 16.04.2020
4800 Clouds 7 1023 75 10000 3.6 10 04:48 16.04.2020
4801 Clouds 8 1023 70 10000 4.6 20 03:25 16.04.2020
4802 Clouds 8 1023 70 10000 4.1 20 02:57 16.04.2020
4803 Clouds 8 1022 70 10000 4.1 30 02:33 16.04.2020
4804 Clouds 8 1022 70 10000 4.1 20 01:22 16.04.2020
4805 Clouds 8 1022 70 10000 4.6 40 00:39 16.04.2020
4806 Clouds 8 1022 75 10000 4.1 50 00:18 16.04.2020
4807 Clouds 8 1022 70 10000 6.2 40 23:43 15.04.2020
4808 Clouds 8 1021 70 10000 5.1 50 23:24 15.04.2020
4809 Clouds 8 1021 75 10000 6.2 50 22:58 15.04.2020
4810 Clouds 8 1021 75 10000 6.2 50 22:37 15.04.2020
4811 Clouds 8 1021 75 10000 4.6 40 22:19 15.04.2020
4812 Clouds 8 1021 75 10000 6.7 30 21:42 15.04.2020
4813 Clouds 8 1021 75 10000 6.2 30 21:23 15.04.2020
4814 Clouds 8 1020 81 10000 7.7 40 20:59 15.04.2020
4815 Clouds 8 1020 81 10000 7.7 40 20:41 15.04.2020
4816 Clouds 8 1020 87 10000 6.2 40 20:22 15.04.2020
4817 Rain 7 1020 87 10000 6.2 30 19:59 15.04.2020
4818 Rain 8 1020 81 10000 6.2 30 19:39 15.04.2020
4819 Rain 8 1020 81 10000 6.2 30 19:18 15.04.2020
4820 Rain 7 1020 81 10000 7.2 40 18:41 15.04.2020
4821 Rain 7 1020 81 10000 7.2 40 18:22 15.04.2020
4822 Rain 7 1020 81 10000 7.2 40 17:58 15.04.2020
4823 Rain 7 1020 81 10000 7.2 40 17:38 15.04.2020
4824 Rain 7 1019 81 10000 7.7 40 17:20 15.04.2020
4825 Rain 7 1019 87 10000 7.7 50 16:55 15.04.2020
4826 Rain 8 1019 87 6000 6.7 30 16:37 15.04.2020
4827 Rain 7 1019 87 6000 6.7 30 16:18 15.04.2020
4828 Rain 7 1019 87 8000 7.2 20 15:56 15.04.2020
4829 Rain 7 1019 87 8000 7.2 20 15:37 15.04.2020
4830 Rain 7 1019 87 8000 7.2 20 15:37 15.04.2020
4831 Rain 8 1019 87 7000 6.7 30 15:19 15.04.2020
4832 Rain 8 1019 87 7000 6.7 30 15:19 15.04.2020
4833 Rain 8 1019 87 10000 7.7 30 14:55 15.04.2020
4834 Rain 8 1019 87 10000 7.7 30 14:55 15.04.2020
4835 Rain 8 1019 87 10000 7.7 30 14:37 15.04.2020
4836 Rain 8 1019 87 7000 8.7 20 14:18 15.04.2020
4837 Rain 8 1019 87 10000 8.2 30 13:41 15.04.2020
4838 Rain 8 1019 81 10000 8.7 20 13:21 15.04.2020
4839 Rain 9 1019 81 10000 8.7 20 12:59 15.04.2020
4840 Clouds 9 1019 81 10000 9.3 20 12:41 15.04.2020
4841 Clouds 9 1019 81 10000 9.3 20 12:23 15.04.2020
4842 Clouds 9 1019 87 10000 8.2 20 11:58 15.04.2020
4843 Clouds 9 1019 87 10000 8.2 20 11:58 15.04.2020
4844 Clouds 9 1018 81 10000 8.2 20 11:39 15.04.2020
4845 Clouds 8 1018 81 10000 8.2 20 11:20 15.04.2020
4846 Clouds 8 1018 81 10000 9.3 30 10:39 15.04.2020
4847 Clouds 8 1018 81 10000 9.3 30 10:20 15.04.2020
4848 Clouds 9 1017 76 10000 8.7 20 09:57 15.04.2020
4849 Clouds 9 1017 76 10000 8.7 20 09:39 15.04.2020
4850 Clouds 10 1017 76 10000 8.7 20 09:20 15.04.2020
4851 Clouds 10 1017 76 10000 9.3 20 08:55 15.04.2020
4852 Clouds 10 1016 81 10000 10.3 20 08:37 15.04.2020
4853 Clouds 10 1017 76 10000 9.3 20 08:37 15.04.2020
4854 Clouds 10 1016 81 10000 10.3 20 08:18 15.04.2020
4855 Clouds 10 1016 81 10000 9.8 10 07:46 15.04.2020
4856 Clouds 10 1016 81 10000 9.8 10 07:28 15.04.2020
4857 Clouds 10 1016 87 10000 8.2 20 06:32 15.04.2020
4858 Clouds 10 1015 81 10000 5.7 30 05:50 15.04.2020
4859 Clouds 11 1015 81 10000 6.7 360 04:48 15.04.2020
4860 Clouds 11 1015 81 10000 6.7 360 04:23 15.04.2020
4861 Clouds 12 1014 67 10000 3.6 20 03:23 15.04.2020
4862 Clouds 13 1014 58 10000 6.2 340 02:50 15.04.2020
4863 Clouds 14 1014 51 10000 6.7 330 01:53 15.04.2020
4864 Clouds 16 1014 51 10000 5.7 310 01:25 15.04.2020
4865 Clouds 16 1014 48 10000 5.1 280 00:51 15.04.2020
4866 Clouds 17 1013 42 10000 4.1 280 00:29 15.04.2020
4867 Clouds 16 1013 55 10000 5.1 260 23:56 14.04.2020
4868 Clouds 16 1013 55 10000 5.1 260 23:56 14.04.2020
4869 Clouds 17 1013 55 10000 5.1 260 23:38 14.04.2020
4870 Clouds 16 1012 55 10000 2.6 250 23:20 14.04.2020
4871 Clouds 16 1012 55 10000 2.1 240 22:57 14.04.2020
4872 Clouds 16 1012 59 10000 2.6 250 22:39 14.04.2020
4873 Clouds 16 1012 59 10000 2.6 250 22:21 14.04.2020
4874 Clouds 16 1012 59 10000 2.1 240 21:57 14.04.2020
4875 Clouds 17 1012 59 10000 2.1 240 21:39 14.04.2020
4876 Clouds 17 1012 59 10000 2.1 240 21:19 14.04.2020
4877 Clouds 16 1012 67 10000 1.5 130 20:58 14.04.2020
4878 Clouds 17 1011 59 10000 2.6 230 20:39 14.04.2020
4879 Clouds 17 1011 59 10000 2.6 230 20:20 14.04.2020
4880 Clouds 17 1011 59 10000 1.5 0 19:41 14.04.2020
4881 Clouds 18 1011 63 10000 2.1 200 19:23 14.04.2020
4882 Clouds 19 1011 55 10000 2.1 210 18:58 14.04.2020
4883 Clouds 19 1011 55 10000 2.1 210 18:40 14.04.2020
4884 Clouds 20 1011 45 10000 3.6 250 18:21 14.04.2020
4885 Clouds 21 1011 45 10000 3.1 250 17:58 14.04.2020
4886 Clouds 21 1011 45 10000 3.1 250 17:38 14.04.2020
4887 Clouds 21 1011 48 10000 2.6 220 17:20 14.04.2020
4888 Clouds 21 1011 45 10000 2.1 210 16:57 14.04.2020
4889 Clouds 21 1011 45 10000 4.1 250 16:38 14.04.2020
4890 Clouds 21 1011 45 10000 4.1 250 16:19 14.04.2020
4891 Clouds 22 1012 45 10000 3.1 240 15:56 14.04.2020
4892 Clouds 22 1012 45 10000 3.1 240 15:37 14.04.2020
4893 Clouds 21 1012 46 10000 2.1 220 15:18 14.04.2020
4894 Clouds 21 1012 49 10000 2.6 240 14:55 14.04.2020
4895 Clouds 21 1012 49 10000 2.6 240 14:55 14.04.2020
4896 Clouds 22 1013 42 10000 3.6 250 14:37 14.04.2020
4897 Clouds 21 1013 42 10000 3.6 250 14:19 14.04.2020
4898 Clouds 20 1013 40 10000 4.6 250 13:43 14.04.2020
4899 Clouds 20 1013 40 10000 4.1 250 13:24 14.04.2020
4900 Clouds 20 1014 59 10000 4.1 240 12:56 14.04.2020
4901 Clouds 19 1014 55 10000 4.1 230 12:37 14.04.2020
4902 Clouds 19 1014 55 10000 4.1 230 12:18 14.04.2020
4903 Clouds 19 1014 55 10000 4.1 230 11:40 14.04.2020
4904 Clouds 19 1014 55 10000 5.1 220 11:22 14.04.2020
4905 Clouds 19 1014 55 10000 5.7 200 10:47 14.04.2020
4906 Clouds 18 1014 55 10000 6.2 200 10:29 14.04.2020
4907 Clouds 18 1014 55 10000 6.2 190 09:59 14.04.2020
4908 Clouds 17 1015 62 10000 3.1 230 09:41 14.04.2020
4909 Clouds 16 1015 62 10000 3.1 230 09:22 14.04.2020
4910 Clouds 16 1015 58 10000 4.1 210 08:44 14.04.2020
4911 Clouds 14 1014 53 0 4.2 209 08:26 14.04.2020
4912 Clouds 15 1015 71 10000 2.6 220 07:59 14.04.2020
4913 Clouds 15 1015 71 10000 2.6 220 07:59 14.04.2020
4914 Clouds 14 1015 71 10000 2.6 220 07:41 14.04.2020
4915 Clouds 14 1014 53 0 4.2 209 07:22 14.04.2020
4916 Clouds 14 1014 53 0 4.2 209 06:45 14.04.2020
4917 Clouds 11 1015 76 10000 3.1 290 05:40 14.04.2020
4918 Clouds 13 1016 52 0 2.26 218 03:27 14.04.2020
4919 Clouds 11 1015 76 10000 1.5 230 02:33 14.04.2020
4920 Clouds 10 1016 76 10000 1 330 01:27 14.04.2020
4921 Clouds 10 1016 71 10000 1.76 201 00:50 14.04.2020
4922 Clouds 10 1016 71 10000 1 200 00:24 14.04.2020
4923 Clouds 10 1017 76 10000 1 310 23:57 13.04.2020
4924 Clouds 10 1017 76 10000 1 310 23:37 13.04.2020
4925 Clouds 10 1017 76 10000 1 310 23:18 13.04.2020
4926 Clouds 10 1017 76 10000 1.88 194 22:42 13.04.2020
4927 Clouds 11 1017 71 10000 1 0 22:22 13.04.2020
4928 Clouds 11 1017 76 10000 0.5 0 21:58 13.04.2020
4929 Clouds 11 1017 76 10000 0.5 0 21:39 13.04.2020
4930 Clear 11 1017 76 10000 1 110 21:20 13.04.2020
4931 Clear 11 1017 81 10000 1.5 110 20:57 13.04.2020
4932 Clear 11 1017 81 10000 1.5 110 20:38 13.04.2020
4933 Clear 11 1017 81 10000 1.5 110 20:38 13.04.2020
4934 Clear 12 1017 76 10000 2.1 140 20:19 13.04.2020
4935 Clear 12 1017 76 10000 2.1 160 19:57 13.04.2020
4936 Clear 12 1017 76 10000 1.5 180 19:36 13.04.2020
4937 Clear 13 1017 76 10000 1.5 180 19:18 13.04.2020
4938 Clear 13 1017 62 10000 2.1 210 18:54 13.04.2020
4939 Clear 14 1017 54 10000 2.1 210 18:36 13.04.2020
4940 Clear 15 1017 54 10000 2.1 210 18:18 13.04.2020
4941 Clear 15 1018 41 10000 2.6 220 17:55 13.04.2020
4942 Clear 15 1018 38 10000 2.6 220 17:36 13.04.2020
4943 Clear 16 1018 38 10000 2.6 220 17:18 13.04.2020
4944 Clear 16 1018 33 10000 2.6 230 16:55 13.04.2020
4945 Clear 16 1018 33 10000 2.6 230 16:55 13.04.2020
4946 Clear 16 1018 33 10000 2.6 230 16:55 13.04.2020
4947 Clear 15 1018 41 10000 3.1 240 16:36 13.04.2020
4948 Clear 15 1018 41 10000 3.1 240 16:18 13.04.2020
4949 Clear 15 1018 54 10000 3.6 240 15:44 13.04.2020
4950 Clear 15 1019 58 10000 3.6 230 15:26 13.04.2020
4951 Clear 15 1019 62 10000 3.6 230 14:57 13.04.2020
4952 Clear 15 1019 62 10000 3.6 230 14:39 13.04.2020
4953 Clear 14 1020 58 10000 3.1 220 14:20 13.04.2020
4954 Clear 14 1020 58 10000 3.1 220 13:56 13.04.2020
4955 Clear 14 1020 58 10000 3.1 220 13:38 13.04.2020
4956 Clear 14 1020 58 10000 4.1 230 13:19 13.04.2020
4957 Clear 14 1021 58 10000 4.1 230 12:57 13.04.2020
4958 Clear 14 1021 58 10000 4.1 230 12:57 13.04.2020
4959 Clear 14 1021 62 10000 4.1 210 12:39 13.04.2020
4960 Clear 13 1021 62 10000 4.1 210 12:19 13.04.2020
4961 Clear 13 1022 66 10000 3.6 210 11:44 13.04.2020
4962 Clear 13 1022 66 10000 3.6 210 11:19 13.04.2020
4963 Clear 13 1022 54 10000 3.1 130 10:56 13.04.2020
4964 Clear 13 1022 54 10000 3.1 130 10:38 13.04.2020
4965 Clear 12 1022 58 10000 3.1 140 10:20 13.04.2020
4966 Clear 12 1022 66 10000 2.1 110 09:56 13.04.2020
4967 Clear 11 1022 71 10000 2.6 120 09:38 13.04.2020
4968 Clear 11 1022 71 10000 2.6 120 09:19 13.04.2020
4969 Clear 10 1022 71 10000 3.1 70 08:44 13.04.2020
4970 Clear 10 1022 71 10000 3.1 70 08:26 13.04.2020
4971 Clear 8 1022 76 10000 3.1 50 07:43 13.04.2020
4972 Clear 8 1022 76 10000 3.1 50 07:25 13.04.2020
4973 Clear 7 1022 87 10000 2.1 40 06:48 13.04.2020
4974 Clear 6 1022 93 10000 3.1 360 06:29 13.04.2020
4975 Clear 6 1022 93 10000 3.6 350 05:40 13.04.2020
4976 Clear 5 1022 93 10000 4.1 350 05:19 13.04.2020
4977 Clear 6 1022 81 10000 2.1 30 04:31 13.04.2020
4978 Clear 6 1022 87 10000 3.6 20 03:53 13.04.2020
4979 Clear 6 1022 87 10000 3.6 20 03:33 13.04.2020
4980 Clear 7 1022 87 10000 3.6 10 02:39 13.04.2020
4981 Clear 7 1023 87 10000 4.1 360 01:45 13.04.2020
4982 Clear 7 1023 87 10000 5.7 350 01:27 13.04.2020
4983 Clear 7 1023 87 10000 4.1 350 00:44 13.04.2020
4984 Clear 7 1023 81 10000 3.6 350 00:24 13.04.2020
4985 Clear 8 1023 70 10000 3.6 10 23:55 12.04.2020
4986 Clear 8 1023 70 10000 3.1 10 23:36 12.04.2020
4987 Clear 8 1023 70 10000 3.1 10 23:18 12.04.2020
4988 Clear 9 1023 66 10000 3.1 30 22:39 12.04.2020
4989 Clear 9 1023 66 10000 3.6 20 22:19 12.04.2020
4990 Clear 9 1024 66 10000 4.1 20 21:57 12.04.2020
4991 Clear 9 1024 61 10000 4.1 20 21:36 12.04.2020
4992 Clear 9 1024 61 10000 4.1 20 21:18 12.04.2020
4993 Clear 10 1024 61 10000 4.1 40 20:42 12.04.2020
4994 Clear 10 1024 53 10000 4.6 30 20:23 12.04.2020
4995 Clear 10 1023 50 10000 4.6 20 19:57 12.04.2020
4996 Clear 10 1023 40 10000 5.1 50 19:38 12.04.2020
4997 Clear 11 1023 40 10000 5.1 50 19:19 12.04.2020
4998 Clear 11 1023 35 10000 5.7 40 18:41 12.04.2020
4999 Clear 12 1024 30 10000 5.7 40 18:23 12.04.2020
5000 Clear 12 1024 30 10000 5.7 40 17:59 12.04.2020
5001 Clear 13 1024 30 10000 5.7 40 17:41 12.04.2020
5002 Clear 13 1024 28 10000 6.2 30 17:23 12.04.2020
5003 Clear 14 1024 30 10000 7.2 30 16:58 12.04.2020
5004 Clear 14 1024 30 10000 7.2 30 16:39 12.04.2020
5005 Clear 14 1024 28 10000 7.2 30 16:20 12.04.2020
5006 Clear 14 1024 44 10000 7.2 40 15:49 12.04.2020
5007 Clear 14 1024 41 10000 8.2 20 15:30 12.04.2020
5008 Clear 15 1024 41 10000 8.2 30 14:55 12.04.2020
5009 Clear 14 1024 41 10000 8.2 30 14:36 12.04.2020
5010 Clear 15 1025 44 10000 6.2 20 14:18 12.04.2020
5011 Clear 15 1025 38 10000 6.2 30 13:42 12.04.2020
5012 Clear 15 1025 38 10000 6.2 30 13:24 12.04.2020
5013 Clear 15 1025 41 10000 5.7 50 12:55 12.04.2020
5014 Clear 15 1026 44 10000 4.6 40 12:37 12.04.2020
5015 Clear 14 1026 44 10000 4.6 40 12:18 12.04.2020
5016 Clear 14 1026 47 10000 6.2 20 11:55 12.04.2020
5017 Clear 14 1026 47 10000 6.2 20 11:36 12.04.2020
5018 Clear 13 1026 44 10000 6.2 20 11:18 12.04.2020
5019 Clear 13 1026 44 10000 5.1 60 10:54 12.04.2020
5020 Clear 12 1026 44 10000 5.1 60 10:36 12.04.2020
5021 Clear 12 1026 47 10000 6.2 60 10:18 12.04.2020
5022 Clear 12 1026 43 10000 6.2 60 09:40 12.04.2020
5023 Clear 11 1026 46 10000 5.1 60 09:21 12.04.2020
5024 Clear 10 1026 57 10000 5.1 60 08:55 12.04.2020
5025 Clear 10 1026 71 10000 4.6 40 08:37 12.04.2020
5026 Clear 10 1026 71 10000 4.6 40 08:19 12.04.2020
5027 Clear 9 1026 76 10000 6.2 20 07:42 12.04.2020
5028 Clear 9 1026 81 10000 4.6 30 07:18 12.04.2020
5029 Clear 7 1025 93 10000 2.6 360 06:35 12.04.2020
5030 Clear 7 1024 87 10000 3.6 350 05:51 12.04.2020
5031 Clear 8 1024 81 10000 1.5 10 05:29 12.04.2020
5032 Clear 9 1024 71 10000 1.5 30 03:43 12.04.2020
5033 Clouds 9 1024 76 10000 3.1 40 03:22 12.04.2020
5034 Clouds 9 1024 76 10000 2.6 40 02:34 12.04.2020
5035 Clouds 9 1024 76 10000 3.1 20 01:48 12.04.2020
5036 Clouds 10 1024 76 10000 4.1 30 00:58 12.04.2020
5037 Clouds 10 1024 76 10000 5.1 20 00:39 12.04.2020
5038 Clouds 10 1024 76 10000 5.1 20 00:19 12.04.2020
5039 Clouds 10 1023 71 10000 5.1 20 23:46 11.04.2020
5040 Clouds 10 1023 71 10000 4.6 40 23:25 11.04.2020
5041 Clouds 10 1023 71 10000 4.6 40 22:42 11.04.2020
5042 Clouds 11 1022 66 10000 4.1 40 22:23 11.04.2020
5043 Clouds 11 1022 66 10000 4.1 40 22:23 11.04.2020
5044 Clouds 11 1022 66 10000 5.7 50 21:57 11.04.2020
5045 Clouds 11 1022 66 10000 5.1 30 21:38 11.04.2020
5046 Clouds 11 1022 66 10000 5.1 30 21:19 11.04.2020
5047 Clouds 11 1022 66 10000 5.1 40 20:58 11.04.2020
5048 Clouds 11 1022 66 10000 5.1 40 20:40 11.04.2020
5049 Clouds 11 1022 66 10000 6.7 30 20:21 11.04.2020
5050 Clouds 11 1022 66 10000 6.7 30 20:21 11.04.2020
5051 Clouds 11 1022 62 10000 6.2 20 19:58 11.04.2020
5052 Clouds 11 1022 62 10000 6.2 20 19:40 11.04.2020
5053 Clouds 12 1021 62 10000 5.7 20 19:20 11.04.2020
5054 Clouds 12 1021 58 10000 5.1 20 18:58 11.04.2020
5055 Clouds 13 1021 47 10000 6.2 20 18:39 11.04.2020
5056 Clear 13 1021 47 10000 6.2 20 18:21 11.04.2020
5057 Clear 14 1021 41 10000 5.7 10 17:59 11.04.2020
5058 Clear 14 1021 41 10000 5.7 10 17:41 11.04.2020
5059 Clear 14 1021 36 10000 6.7 10 17:22 11.04.2020
5060 Clear 15 1020 33 10000 7.2 360 16:59 11.04.2020
5061 Clear 15 1020 33 10000 7.2 360 16:41 11.04.2020
5062 Clear 15 1020 50 10000 7.2 10 16:20 11.04.2020
5063 Clouds 15 1021 35 10000 6.2 10 15:39 11.04.2020
5064 Clouds 15 1021 35 10000 6.2 10 15:19 11.04.2020
5065 Clouds 15 1021 35 10000 6.2 10 15:19 11.04.2020
5066 Clouds 16 1020 34 10000 6.2 350 14:44 11.04.2020
5067 Clouds 16 1021 37 10000 5.7 360 14:25 11.04.2020
5068 Clouds 16 1021 32 10000 6.2 20 13:59 11.04.2020
5069 Clouds 16 1021 32 10000 6.2 20 13:40 11.04.2020
5070 Clouds 16 1021 34 10000 6.2 360 13:22 11.04.2020
5071 Clouds 16 1021 34 10000 6.2 360 13:22 11.04.2020
5072 Clouds 16 1021 34 10000 4.1 360 12:43 11.04.2020
5073 Clouds 16 1021 34 10000 4.1 360 12:22 11.04.2020
5074 Clouds 16 1021 37 10000 3.1 10 11:58 11.04.2020
5075 Clouds 16 1021 37 10000 3.1 10 11:40 11.04.2020
5076 Clouds 15 1021 39 10000 3.6 20 11:19 11.04.2020
5077 Clouds 15 1021 42 10000 4.1 30 10:55 11.04.2020
5078 Clouds 15 1021 44 10000 1.5 140 10:36 11.04.2020
5079 Clouds 14 1021 44 10000 1.5 140 10:18 11.04.2020
5080 Clouds 13 1021 54 10000 2.6 180 09:41 11.04.2020
5081 Clear 13 1021 58 10000 1.5 130 09:22 11.04.2020
5082 Clear 12 1020 54 10000 3.1 360 08:54 11.04.2020
5083 Clear 12 1020 54 10000 3.1 360 08:36 11.04.2020
5084 Clear 11 1020 58 10000 2.6 340 08:18 11.04.2020
5085 Clear 9 1020 66 10000 2.1 360 07:41 11.04.2020
5086 Clear 9 1020 71 10000 3.6 340 07:23 11.04.2020
5087 Clear 7 1019 75 10000 3.1 340 06:37 11.04.2020
5088 Clear 7 1019 81 10000 2.1 360 05:57 11.04.2020
5089 Clear 8 1018 70 10000 1 330 03:57 11.04.2020
5090 Clear 8 1018 81 10000 1 30 02:52 11.04.2020
5091 Clear 9 1018 76 10000 1.5 70 01:26 11.04.2020
5092 Clear 9 1018 81 10000 1.5 90 00:56 11.04.2020
5093 Clear 9 1018 81 10000 1.5 90 00:38 11.04.2020
5094 Clear 9 1018 87 10000 1.5 60 00:18 11.04.2020
5095 Clear 9 1018 87 10000 2.1 80 23:42 10.04.2020
5096 Clear 9 1017 81 10000 1.5 90 23:19 10.04.2020
5097 Clear 9 1017 62 10000 0.5 0 22:58 10.04.2020
5098 Clear 10 1017 62 10000 0.5 0 22:37 10.04.2020
5099 Clear 10 1017 66 10000 1 0 22:19 10.04.2020
5100 Clear 10 1017 71 10000 1 0 21:42 10.04.2020
5101 Clear 10 1017 62 10000 1 0 21:21 10.04.2020
5102 Clear 11 1016 50 10000 1 290 20:58 10.04.2020
5103 Clear 11 1016 50 10000 1 0 20:40 10.04.2020
5104 Clear 11 1016 50 10000 1 0 20:20 10.04.2020
5105 Clear 12 1016 37 10000 1 290 19:55 10.04.2020
5106 Clear 12 1015 35 10000 3.1 260 19:37 10.04.2020
5107 Clear 13 1015 35 10000 3.1 260 19:19 10.04.2020
5108 Clear 14 1015 33 10000 4.1 260 18:56 10.04.2020
5109 Clear 14 1015 33 10000 4.1 260 18:37 10.04.2020
5110 Clear 15 1015 28 10000 5.1 250 18:19 10.04.2020
5111 Clear 15 1015 26 10000 5.1 250 17:57 10.04.2020
5112 Clear 15 1015 26 10000 5.1 250 17:38 10.04.2020
5113 Clear 16 1015 28 10000 4.6 250 17:19 10.04.2020
5114 Clear 15 1015 22 10000 5.1 240 16:44 10.04.2020
5115 Clear 16 1016 22 10000 4.6 250 16:23 10.04.2020
5116 Clear 16 1016 22 10000 4.6 250 16:23 10.04.2020
5117 Clear 15 1016 19 10000 4.6 240 15:59 10.04.2020
5118 Clear 15 1016 19 10000 4.6 240 15:39 10.04.2020
5119 Clear 16 1016 21 10000 4.1 240 15:21 10.04.2020
5120 Clear 16 1016 28 10000 4.1 240 14:59 10.04.2020
5121 Clear 16 1016 28 10000 4.1 240 14:40 10.04.2020
5122 Clear 15 1016 26 10000 4.6 240 14:22 10.04.2020
5123 Clear 15 1017 43 10000 4.6 240 13:56 10.04.2020
5124 Clear 15 1017 43 10000 4.6 240 13:38 10.04.2020
5125 Clear 15 1017 43 10000 4.6 240 13:19 10.04.2020
5126 Clear 15 1017 54 10000 3.1 210 12:41 10.04.2020
5127 Clear 15 1017 54 10000 3.1 210 12:21 10.04.2020
5128 Clear 15 1017 54 10000 3.1 210 12:21 10.04.2020
5129 Clear 14 1018 50 10000 2.6 210 11:44 10.04.2020
5130 Clear 14 1018 30 10000 2.1 140 11:25 10.04.2020
5131 Clear 13 1018 54 10000 2.1 130 10:59 10.04.2020
5132 Clear 13 1018 54 10000 2.1 130 10:41 10.04.2020
5133 Clear 12 1018 54 10000 1.5 100 10:22 10.04.2020
5134 Clear 11 1018 53 10000 2.6 120 09:44 10.04.2020
5135 Clear 10 1018 61 10000 2.1 100 09:24 10.04.2020
5136 Clear 9 1018 66 10000 2.1 110 08:55 10.04.2020
5137 Clear 8 1018 66 10000 2.1 100 08:37 10.04.2020
5138 Clear 8 1018 66 10000 2.1 100 08:18 10.04.2020
5139 Clear 8 1018 66 10000 2.1 100 08:18 10.04.2020
5140 Clear 6 1018 87 10000 1 0 07:41 10.04.2020
5141 Clear 5 1018 93 10000 0.5 0 07:21 10.04.2020
5142 Clear 4 1018 100 10000 2.1 340 06:43 10.04.2020
5143 Clear 4 1017 93 10000 2.6 340 06:23 10.04.2020
5144 Clear 4 1017 93 10000 2.6 10 05:35 10.04.2020
5145 Clouds 5 1018 87 10000 3.1 30 04:57 10.04.2020
5146 Mist 5 1018 87 4000 2.1 60 03:36 10.04.2020
5147 Mist 4 1017 86 4000 2.1 330 02:59 10.04.2020
5148 Mist 5 1017 86 4000 2.1 330 02:36 10.04.2020
5149 Clear 5 1018 87 7000 2.6 320 01:59 10.04.2020
5150 Clear 6 1018 87 7000 1.5 10 01:29 10.04.2020
5151 Clear 6 1018 75 8000 2.1 40 00:49 10.04.2020
5152 Clear 6 1018 87 10000 0.5 0 00:22 10.04.2020
5153 Clear 7 1018 75 10000 2.1 30 23:44 09.04.2020
5154 Clear 7 1018 75 10000 2.1 50 23:25 09.04.2020
5155 Clear 7 1019 81 10000 2.6 50 22:59 09.04.2020
5156 Clear 7 1019 81 10000 2.6 50 22:40 09.04.2020
5157 Clear 7 1019 81 10000 3.1 40 22:22 09.04.2020
5158 Clear 8 1019 81 10000 4.6 20 21:43 09.04.2020
5159 Clear 8 1019 70 10000 3.6 30 21:25 09.04.2020
5160 Clear 8 1019 70 10000 4.1 20 20:56 09.04.2020
5161 Clear 9 1019 61 10000 4.6 20 20:38 09.04.2020
5162 Clear 9 1019 61 10000 4.6 20 20:19 09.04.2020
5163 Clear 9 1018 57 10000 5.1 10 19:40 09.04.2020
5164 Clear 10 1018 57 10000 5.1 10 19:22 09.04.2020
5165 Clear 10 1018 57 10000 4.6 30 18:43 09.04.2020
5166 Clear 11 1018 50 10000 5.1 50 18:22 09.04.2020
5167 Clear 12 1018 50 10000 5.7 30 17:59 09.04.2020
5168 Clear 12 1018 50 10000 5.7 30 17:59 09.04.2020
5169 Clear 12 1018 47 10000 5.7 40 17:39 09.04.2020
5170 Clear 12 1018 47 10000 5.7 40 17:19 09.04.2020
5171 Clear 12 1018 50 10000 5.1 60 16:41 09.04.2020
5172 Clear 13 1018 50 10000 6.7 10 16:20 09.04.2020
5173 Clear 13 1019 47 10000 7.2 10 15:57 09.04.2020
5174 Clear 13 1019 47 10000 7.7 20 15:38 09.04.2020
5175 Clear 13 1019 47 10000 7.7 20 15:19 09.04.2020
5176 Clear 13 1019 44 10000 6.7 20 14:56 09.04.2020
5177 Clear 13 1019 44 10000 6.7 20 14:56 09.04.2020
5178 Clear 13 1019 44 10000 6.7 20 14:38 09.04.2020
5179 Clear 13 1019 41 10000 6.7 30 14:20 09.04.2020
5180 Clear 13 1019 41 10000 6.7 30 14:20 09.04.2020
5181 Clear 13 1019 41 10000 6.7 30 14:20 09.04.2020
5182 Clear 13 1019 35 10000 6.7 30 13:42 09.04.2020
5183 Clear 14 1020 45 10000 6.2 20 13:24 09.04.2020
5184 Clear 13 1020 35 10000 5.7 30 12:58 09.04.2020
5185 Clear 13 1020 35 10000 5.7 30 12:38 09.04.2020
5186 Clear 13 1020 54 10000 6.7 30 12:20 09.04.2020
5187 Clear 12 1020 54 10000 6.2 40 11:44 09.04.2020
5188 Clear 12 1020 54 10000 5.7 30 11:20 09.04.2020
5189 Clear 11 1021 50 10000 5.7 40 10:59 09.04.2020
5190 Clear 11 1021 50 10000 5.7 40 10:41 09.04.2020
5191 Clouds 11 1021 50 10000 5.7 40 10:21 09.04.2020
5192 Clouds 11 1021 57 10000 5.1 50 09:57 09.04.2020
5193 Clouds 9 1021 61 10000 6.2 20 09:39 09.04.2020
5194 Clouds 9 1021 61 10000 6.2 20 09:20 09.04.2020
5195 Clouds 9 1021 66 10000 6.2 20 08:44 09.04.2020
5196 Clouds 8 1021 66 10000 5.7 10 08:24 09.04.2020
5197 Clouds 9 1021 66 10000 5.7 30 07:59 09.04.2020
5198 Clouds 8 1021 70 10000 6.2 10 07:36 09.04.2020
5199 Clouds 8 1021 70 10000 6.2 10 07:18 09.04.2020
5200 Clouds 7 1020 70 10000 4.6 10 06:26 09.04.2020
5201 Clouds 7 1020 70 10000 4.1 20 05:47 09.04.2020
5202 Clouds 8 1020 75 10000 5.1 20 04:39 09.04.2020
5203 Clouds 8 1021 66 10000 4.6 40 02:35 09.04.2020
5204 Clouds 8 1021 70 10000 4.6 30 01:45 09.04.2020
5205 Clouds 8 1021 70 10000 4.1 40 01:27 09.04.2020
5206 Clouds 8 1022 70 10000 4.6 40 00:44 09.04.2020
5207 Clouds 8 1022 65 10000 6.2 50 00:20 09.04.2020
5208 Clouds 8 1022 66 10000 5.1 50 23:59 08.04.2020
5209 Clouds 8 1022 66 10000 5.1 50 23:41 08.04.2020
5210 Clouds 8 1022 61 10000 6.2 50 23:22 08.04.2020
5211 Clouds 9 1022 61 10000 6.7 40 22:44 08.04.2020
5212 Clouds 9 1022 61 10000 7.2 40 22:24 08.04.2020
5213 Clouds 8 1022 61 10000 7.2 40 21:57 08.04.2020
5214 Clouds 8 1023 61 10000 7.2 50 21:39 08.04.2020
5215 Clouds 9 1023 61 10000 7.2 50 21:21 08.04.2020
5216 Clouds 9 1023 61 10000 7.2 50 20:58 08.04.2020
5217 Clouds 9 1023 61 10000 7.2 50 20:39 08.04.2020
5218 Clouds 9 1023 61 10000 7.2 50 20:20 08.04.2020
5219 Clouds 8 1022 61 10000 7.2 50 19:58 08.04.2020
5220 Clouds 8 1022 61 10000 7.2 40 19:37 08.04.2020
5221 Clouds 8 1022 61 10000 7.2 40 19:19 08.04.2020
5222 Clouds 8 1023 61 10000 9.8 20 18:42 08.04.2020
5223 Clouds 9 1023 57 10000 8.7 30 18:24 08.04.2020
5224 Clouds 9 1023 57 10000 8.7 30 17:56 08.04.2020
5225 Clouds 10 1023 53 10000 9.8 20 17:38 08.04.2020
5226 Clouds 9 1023 57 10000 8.7 30 17:38 08.04.2020
5227 Clouds 10 1023 53 10000 9.8 20 17:18 08.04.2020
5228 Clouds 10 1023 53 10000 9.8 20 16:42 08.04.2020
5229 Clouds 10 1023 53 10000 9.8 20 16:23 08.04.2020
5230 Clouds 11 1023 54 10000 9.3 20 15:56 08.04.2020
5231 Clouds 11 1023 54 10000 9.3 20 15:37 08.04.2020
5232 Clouds 12 1023 50 10000 8.2 30 15:19 08.04.2020
5233 Clouds 12 1023 50 10000 8.2 30 14:45 08.04.2020
5234 Clouds 11 1023 50 10000 9.3 20 14:25 08.04.2020
5235 Clouds 12 1024 50 10000 8.2 40 13:56 08.04.2020
5236 Clouds 12 1024 46 10000 8.7 60 13:37 08.04.2020
5237 Clouds 12 1024 46 10000 8.7 60 13:19 08.04.2020
5238 Clouds 11 1024 57 10000 8.7 30 12:42 08.04.2020
5239 Clouds 11 1024 57 10000 8.7 30 12:18 08.04.2020
5240 Clouds 12 1024 54 10000 8.7 40 11:58 08.04.2020
5241 Clouds 11 1024 54 10000 8.7 40 11:39 08.04.2020
5242 Clouds 11 1024 54 10000 8.2 40 11:21 08.04.2020
5243 Clouds 11 1025 62 10000 8.2 30 10:56 08.04.2020
5244 Clouds 10 1025 66 10000 7.2 40 10:37 08.04.2020
5245 Clouds 10 1025 66 10000 7.2 40 10:18 08.04.2020
5246 Clouds 10 1025 66 10000 7.2 40 10:18 08.04.2020
5247 Clouds 11 1025 62 10000 7.2 40 09:42 08.04.2020
5248 Clouds 10 1025 61 10000 9.3 50 09:21 08.04.2020
5249 Clouds 10 1024 61 10000 9.3 40 08:59 08.04.2020
5250 Clouds 10 1024 61 10000 9.3 40 08:41 08.04.2020
5251 Clouds 9 1024 70 10000 9.3 40 08:22 08.04.2020
5252 Clouds 9 1024 70 10000 8.2 50 07:44 08.04.2020
5253 Clouds 9 1025 70 10000 8.2 40 07:25 08.04.2020
5254 Clouds 9 1024 70 10000 8.2 50 06:55 08.04.2020
5255 Clouds 9 1024 70 10000 7.2 40 05:56 08.04.2020
5256 Clear 9 1024 70 10000 7.7 40 03:34 08.04.2020
5257 Clear 9 1025 70 10000 7.7 30 02:49 08.04.2020
5258 Clear 9 1025 66 10000 8.7 30 02:19 08.04.2020
5259 Clear 9 1025 66 10000 9.3 30 01:30 08.04.2020
5260 Clear 9 1025 66 10000 9.3 30 01:30 08.04.2020
5261 Clear 9 1025 66 10000 8.2 30 00:59 08.04.2020
5262 Clear 9 1025 66 10000 8.2 30 00:59 08.04.2020
5263 Clear 9 1025 66 10000 8.2 30 00:40 08.04.2020
5264 Clear 9 1025 66 10000 8.2 30 00:20 08.04.2020
5265 Clear 9 1026 66 10000 8.2 30 23:39 07.04.2020
5266 Clear 9 1026 66 10000 8.2 30 23:20 07.04.2020
5267 Clear 9 1026 66 10000 8.2 30 22:57 07.04.2020
5268 Clear 9 1026 57 10000 7.7 40 22:38 07.04.2020
5269 Clear 9 1026 57 10000 7.7 40 22:19 07.04.2020
5270 Clear 9 1026 61 10000 8.2 40 21:56 07.04.2020
5271 Clear 9 1026 61 10000 8.7 40 21:37 07.04.2020
5272 Clear 9 1026 61 10000 8.2 40 21:18 07.04.2020
5273 Clear 9 1026 61 10000 8.2 40 21:18 07.04.2020
5274 Clear 9 1026 61 10000 8.2 40 20:55 07.04.2020
5275 Clear 9 1026 61 10000 8.2 30 20:55 07.04.2020
5276 Clear 9 1026 61 10000 8.2 30 20:36 07.04.2020
5277 Clear 9 1026 61 10000 8.2 30 20:18 07.04.2020
5278 Clear 9 1026 61 10000 7.7 40 19:55 07.04.2020
5279 Clear 9 1026 57 10000 8.7 40 19:36 07.04.2020
5280 Clear 9 1026 57 10000 9.3 40 19:18 07.04.2020
5281 Clear 10 1026 57 10000 11.3 30 18:41 07.04.2020
5282 Clear 10 1026 53 10000 10.8 40 18:21 07.04.2020
5283 Clear 10 1026 53 10000 10.8 40 17:56 07.04.2020
5284 Clear 11 1026 50 10000 10.8 40 17:37 07.04.2020
5285 Clear 11 1026 50 10000 13.4 30 17:19 07.04.2020
5286 Clear 11 1026 50 10000 13.4 30 16:44 07.04.2020
5287 Clear 11 1026 46 10000 12.9 30 16:26 07.04.2020
5288 Clear 12 1026 53 10000 13.9 30 15:46 07.04.2020
5289 Clear 12 1026 46 10000 13.9 30 15:26 07.04.2020
5290 Clear 12 1026 46 10000 14.4 30 14:56 07.04.2020
5291 Clear 12 1026 46 10000 14.4 40 14:38 07.04.2020
5292 Clear 12 1026 46 10000 14.4 40 14:19 07.04.2020
5293 Clear 12 1026 46 10000 13.9 30 13:42 07.04.2020
5294 Clear 12 1026 46 10000 13.9 30 13:42 07.04.2020
5295 Clear 12 1026 43 10000 12.3 30 13:19 07.04.2020
5296 Clear 12 1026 46 10000 14.9 20 12:57 07.04.2020
5297 Clear 12 1026 47 10000 12.3 30 12:38 07.04.2020
5298 Clear 12 1026 47 10000 12.3 30 12:20 07.04.2020
5299 Clear 12 1026 43 10000 11.8 30 11:57 07.04.2020
5300 Clear 11 1026 46 10000 12.9 30 11:39 07.04.2020
5301 Clear 11 1026 46 10000 12.9 30 11:19 07.04.2020
5302 Clear 11 1026 50 10000 11.3 40 10:39 07.04.2020
5303 Clear 11 1026 50 10000 11.3 40 10:20 07.04.2020
5304 Clear 11 1026 50 10000 11.3 40 10:20 07.04.2020
5305 Clear 11 1026 50 10000 10.8 40 09:56 07.04.2020
5306 Clear 11 1026 53 10000 11.3 40 09:37 07.04.2020
5307 Clear 10 1026 53 10000 11.3 40 09:18 07.04.2020
5308 Clear 10 1026 50 10000 10.8 50 08:40 07.04.2020
5309 Clear 9 1026 57 10000 10.8 50 08:20 07.04.2020
5310 Clear 9 1025 61 10000 11.8 40 07:46 07.04.2020
5311 Clear 9 1025 61 10000 9.8 40 07:26 07.04.2020
5312 Clear 9 1025 61 10000 9.8 40 06:53 07.04.2020
5313 Clear 8 1025 65 10000 9.8 40 06:26 07.04.2020
5314 Clear 8 1025 61 10000 10.3 40 05:56 07.04.2020
5315 Clear 8 1025 57 10000 9.3 40 05:26 07.04.2020
5316 Clear 8 1025 61 10000 9.8 40 04:18 07.04.2020
5317 Clouds 8 1025 65 10000 9.8 50 03:21 07.04.2020
5318 Clouds 8 1025 65 10000 8.7 50 02:45 07.04.2020
5319 Clear 8 1025 61 10000 8.2 40 01:38 07.04.2020
5320 Clear 8 1025 61 10000 8.2 40 01:20 07.04.2020
5321 Clouds 8 1025 66 10000 9.3 50 00:25 07.04.2020
5322 Clouds 8 1025 66 10000 8.7 50 23:42 06.04.2020
5323 Clouds 8 1025 66 10000 8.7 50 23:21 06.04.2020
5324 Clouds 9 1025 66 10000 9.3 30 22:54 06.04.2020
5325 Clouds 8 1025 66 10000 9.3 30 22:36 06.04.2020
5326 Clouds 8 1025 66 10000 9.3 30 22:18 06.04.2020
5327 Clouds 8 1025 66 10000 8.7 40 21:43 06.04.2020
5328 Clouds 9 1025 66 10000 7.2 30 21:20 06.04.2020
5329 Clouds 9 1025 61 10000 8.2 30 20:58 06.04.2020
5330 Clouds 9 1025 61 10000 8.7 40 20:39 06.04.2020
5331 Clouds 9 1025 61 10000 8.7 40 20:21 06.04.2020
5332 Clouds 9 1025 61 10000 10.3 40 19:58 06.04.2020
5333 Clouds 9 1025 57 10000 9.8 40 19:38 06.04.2020
5334 Clouds 9 1025 57 10000 9.8 40 19:20 06.04.2020
5335 Clouds 9 1025 57 10000 10.3 30 18:43 06.04.2020
5336 Clouds 9 1023 66 10000 11.3 50 18:24 06.04.2020
5337 Clouds 9 1024 53 10000 9.8 40 17:58 06.04.2020
5338 Clouds 9 1024 53 10000 9.8 40 17:39 06.04.2020
5339 Clouds 10 1024 57 10000 9.8 40 17:18 06.04.2020
5340 Clouds 10 1024 57 10000 10.8 40 16:49 06.04.2020
5341 Clouds 10 1024 61 10000 10.8 40 16:30 06.04.2020
5342 Clouds 10 1023 66 10000 10.8 40 14:59 06.04.2020
5343 Clouds 10 1024 61 10000 9.8 40 14:59 06.04.2020
5344 Clouds 10 1023 66 10000 10.8 40 14:59 06.04.2020
5345 Clouds 10 1023 66 10000 10.8 40 14:59 06.04.2020
5346 Clouds 10 1023 66 10000 10.8 40 14:59 06.04.2020
5347 Rain 10 1023 66 10000 10.3 40 13:45 06.04.2020
5348 Clouds 10 1023 66 10000 11.3 40 13:22 06.04.2020
5349 Clouds 10 1022 66 10000 13.4 40 12:46 06.04.2020
5350 Clouds 10 1022 71 10000 10.3 50 12:20 06.04.2020
5351 Clouds 10 1022 71 10000 10.3 50 12:20 06.04.2020
5352 Clouds 10 1022 66 10000 12.3 40 11:42 06.04.2020
5353 Clouds 10 1022 71 10000 10.8 40 11:24 06.04.2020
5354 Clouds 10 1022 71 10000 10.8 40 11:24 06.04.2020
5355 Clouds 10 1022 71 10000 10.8 40 11:24 06.04.2020
5356 Clouds 10 1022 71 10000 10.8 40 11:24 06.04.2020
5357 Clouds 10 1022 71 10000 10.8 40 11:24 06.04.2020
5358 Clouds 10 1022 71 10000 10.3 40 10:42 06.04.2020
5359 Clouds 10 1022 71 10000 10.3 40 10:42 06.04.2020
5360 Clouds 10 1022 71 10000 10.3 40 10:42 06.04.2020
5361 Clouds 10 1022 71 10000 10.3 40 10:42 06.04.2020
5362 Clouds 10 1022 71 10000 10.3 40 10:42 06.04.2020
5363 Clouds 10 1022 71 10000 10.3 30 10:21 06.04.2020
5364 Clouds 10 1022 71 10000 10.3 30 10:21 06.04.2020
5365 Clouds 10 1022 71 10000 10.3 30 10:21 06.04.2020
5366 Clouds 10 1022 71 10000 9.8 30 09:40 06.04.2020
5367 Clouds 10 1022 71 10000 9.8 30 09:40 06.04.2020
5368 Clouds 10 1021 71 10000 10.3 30 09:20 06.04.2020
5369 Clouds 10 1021 71 10000 10.3 30 09:20 06.04.2020
5370 Clouds 9 1021 76 10000 9.3 20 08:47 06.04.2020
5371 Clouds 9 1021 76 10000 9.3 20 08:29 06.04.2020
5372 Clouds 9 1021 76 10000 9.3 20 08:29 06.04.2020
5373 Clouds 9 1021 76 10000 9.3 20 08:29 06.04.2020
5374 Clouds 9 1021 76 10000 9.8 30 08:29 06.04.2020
5375 Clouds 9 1021 76 10000 9.3 20 08:29 06.04.2020
5376 Clouds 9 1021 70 10000 9.3 30 07:23 06.04.2020
5377 Clouds 9 1020 76 10000 9.8 30 06:28 06.04.2020
5378 Rain 9 1019 76 10000 9.3 30 05:54 06.04.2020
5379 Rain 9 1019 76 10000 6.2 30 03:57 06.04.2020
5380 Clouds 9 1019 66 10000 8.2 20 02:54 06.04.2020
5381 Clouds 9 1019 76 10000 10.8 20 01:56 06.04.2020
5382 Clouds 9 1019 76 10000 10.8 20 01:56 06.04.2020
5383 Clouds 9 1019 71 10000 11.3 20 00:58 06.04.2020
5384 Clouds 9 1019 76 10000 10.3 20 00:28 06.04.2020
5385 Clouds 9 1019 76 10000 10.3 20 23:55 05.04.2020
5386 Clouds 9 1019 76 10000 10.3 20 23:37 05.04.2020
5387 Clouds 9 1018 81 10000 9.8 10 23:19 05.04.2020
5388 Clouds 10 1018 76 10000 9.8 10 22:54 05.04.2020
5389 Clouds 9 1018 76 10000 9.8 10 22:36 05.04.2020
5390 Clouds 10 1018 76 10000 9.8 10 22:18 05.04.2020
5391 Clouds 10 1018 76 10000 8.7 20 21:41 05.04.2020
5392 Clouds 10 1017 76 10000 9.8 20 21:23 05.04.2020
5393 Clouds 9 1016 81 10000 9.3 20 20:24 05.04.2020
5394 Clouds 9 1016 81 10000 9.3 20 20:24 05.04.2020
5395 Clouds 9 1016 81 10000 9.3 20 20:24 05.04.2020
5396 Clouds 9 1016 81 10000 10.3 10 19:43 05.04.2020
5397 Clouds 9 1015 81 10000 7.7 20 19:23 05.04.2020
5398 Clouds 10 1015 81 10000 8.2 20 18:48 05.04.2020
5399 Clouds 9 1015 81 10000 8.2 20 18:48 05.04.2020
5400 Clouds 10 1014 81 10000 7.7 30 18:18 05.04.2020
5401 Clouds 10 1013 87 10000 10.3 30 17:46 05.04.2020
5402 Clouds 10 1013 87 10000 10.3 30 17:46 05.04.2020
5403 Clouds 10 1013 87 10000 10.3 30 17:46 05.04.2020
5404 Clouds 10 1013 87 10000 10.3 30 17:46 05.04.2020
5405 Clouds 9 1013 87 10000 10.3 30 17:46 05.04.2020
5406 Clouds 9 1013 87 10000 10.3 30 17:22 05.04.2020
5407 Rain 10 1013 87 8000 9.3 30 16:47 05.04.2020
5408 Rain 10 1012 87 8000 10.8 20 16:19 05.04.2020
5409 Rain 10 1013 87 8000 9.3 20 15:45 05.04.2020
5410 Rain 10 1013 87 10000 9.3 20 15:25 05.04.2020
5411 Rain 10 1013 93 10000 7.7 40 14:48 05.04.2020
5412 Rain 10 1013 93 10000 7.7 40 14:48 05.04.2020
5413 Rain 10 1013 93 10000 7.7 40 14:48 05.04.2020
5414 Rain 10 1013 93 10000 7.7 40 14:48 05.04.2020
5415 Rain 10 1013 93 10000 7.7 40 14:48 05.04.2020
5416 Clouds 10 1013 93 10000 8.7 40 13:59 05.04.2020
5417 Clouds 10 1013 93 10000 8.7 40 13:40 05.04.2020
5418 Clouds 10 1013 93 10000 8.7 40 13:40 05.04.2020
5419 Clouds 10 1013 93 10000 8.7 40 13:40 05.04.2020
5420 Clouds 10 1013 93 10000 8.7 40 13:40 05.04.2020
5421 Clouds 10 1013 93 10000 8.7 40 13:40 05.04.2020
5422 Clouds 10 1013 87 10000 9.3 40 12:20 05.04.2020
5423 Clouds 10 1013 87 10000 9.3 40 12:20 05.04.2020
5424 Clouds 10 1013 87 10000 9.3 40 12:20 05.04.2020
5425 Clouds 10 1013 87 10000 8.2 50 11:39 05.04.2020
5426 Rain 10 1013 87 8000 10.3 30 11:19 05.04.2020
5427 Rain 10 1013 87 8000 9.3 30 10:47 05.04.2020
5428 Rain 10 1014 87 8000 8.2 40 10:22 05.04.2020
5429 Rain 10 1014 87 8000 8.2 40 10:22 05.04.2020
5430 Rain 10 1013 87 10000 9.3 40 09:53 05.04.2020
5431 Rain 10 1013 87 10000 9.3 40 09:26 05.04.2020
5432 Rain 10 1013 87 10000 9.3 40 09:26 05.04.2020
5433 Clouds 10 1014 93 10000 8.7 70 08:31 05.04.2020
5434 Clouds 10 1014 87 10000 8.7 40 08:31 05.04.2020
5435 Clouds 10 1014 93 10000 8.7 70 08:31 05.04.2020
5436 Clouds 10 1014 87 10000 8.7 40 08:31 05.04.2020
5437 Clouds 10 1014 93 10000 8.7 70 08:31 05.04.2020
5438 Rain 9 1014 87 10000 8.2 40 06:17 05.04.2020
5439 Rain 9 1014 87 10000 8.2 40 06:17 05.04.2020
5440 Rain 9 1014 87 10000 8.2 40 06:17 05.04.2020
5441 Rain 9 1014 87 10000 8.2 40 06:11 05.04.2020
5442 Rain 9 1014 87 10000 9.8 30 04:31 05.04.2020
5443 Rain 9 1015 87 10000 7.7 40 03:27 05.04.2020
5444 Rain 9 1016 87 10000 5.1 30 02:19 05.04.2020
5445 Rain 9 1017 87 10000 5.1 40 01:42 05.04.2020
5446 Rain 9 1016 87 10000 7.2 20 01:22 05.04.2020
5447 Rain 9 1016 87 10000 6.7 20 00:37 05.04.2020
5448 Rain 9 1017 87 10000 5.7 30 00:18 05.04.2020
5449 Rain 10 1016 81 10000 7.7 30 23:41 04.04.2020
5450 Rain 10 1015 81 10000 10.3 20 23:22 04.04.2020
5451 Rain 10 1016 81 10000 6.2 30 22:57 04.04.2020
5452 Rain 10 1016 81 10000 6.2 30 22:39 04.04.2020
5453 Rain 10 1016 81 10000 6.2 30 22:20 04.04.2020
5454 Clouds 10 1015 81 10000 9.3 20 21:57 04.04.2020
5455 Clouds 10 1015 81 10000 9.3 20 21:38 04.04.2020
5456 Clouds 10 1015 81 10000 7.2 40 21:19 04.04.2020
5457 Clouds 10 1016 81 10000 6.7 30 20:55 04.04.2020
5458 Clouds 9 1016 81 10000 6.7 30 20:36 04.04.2020
5459 Clouds 9 1015 81 10000 7.2 30 20:18 04.04.2020
5460 Clouds 9 1016 81 10000 7.2 20 19:41 04.04.2020
5461 Clouds 10 1016 81 10000 7.7 20 19:20 04.04.2020
5462 Rain 10 1016 81 10000 7.7 10 18:59 04.04.2020
5463 Rain 9 1016 81 10000 7.7 10 18:39 04.04.2020
5464 Rain 9 1016 81 10000 7.7 30 18:21 04.04.2020
5465 Rain 9 1016 81 10000 8.7 20 17:58 04.04.2020
5466 Rain 10 1016 81 10000 8.7 20 17:39 04.04.2020
5467 Rain 10 1016 81 10000 9.3 20 17:19 04.04.2020
5468 Rain 10 1016 81 10000 7.2 30 16:45 04.04.2020
5469 Rain 10 1016 81 10000 7.2 20 16:27 04.04.2020
5470 Rain 10 1016 81 10000 7.7 20 15:59 04.04.2020
5471 Rain 10 1016 81 10000 7.2 20 15:59 04.04.2020
5472 Rain 10 1016 81 10000 7.7 20 15:39 04.04.2020
5473 Rain 10 1017 87 10000 6.2 20 15:19 04.04.2020
5474 Rain 10 1017 81 10000 6.2 20 14:54 04.04.2020
5475 Rain 10 1017 81 10000 6.2 20 14:36 04.04.2020
5476 Rain 10 1017 81 10000 6.2 10 14:18 04.04.2020
5477 Rain 10 1018 81 10000 3.6 30 13:42 04.04.2020
5478 Rain 10 1017 81 10000 5.1 20 13:21 04.04.2020
5479 Rain 11 1017 81 10000 5.1 20 12:58 04.04.2020
5480 Rain 11 1017 81 10000 4.6 30 12:40 04.04.2020
5481 Rain 10 1017 81 10000 4.1 20 12:20 04.04.2020
5482 Rain 10 1018 87 10000 3.6 350 11:42 04.04.2020
5483 Rain 10 1018 81 10000 3.6 360 11:23 04.04.2020
5484 Rain 10 1018 81 10000 3.6 360 10:59 04.04.2020
5485 Rain 9 1018 81 10000 3.1 340 10:41 04.04.2020
5486 Rain 9 1017 76 10000 2.1 10 10:23 04.04.2020
5487 Rain 10 1017 76 10000 2.1 10 09:57 04.04.2020
5488 Rain 9 1017 81 10000 3.1 30 09:39 04.04.2020
5489 Rain 9 1017 76 10000 2.6 40 09:20 04.04.2020
5490 Rain 8 1017 76 10000 2.1 60 08:44 04.04.2020
5491 Clouds 8 1017 70 10000 3.1 50 08:23 04.04.2020
5492 Clouds 8 1017 70 10000 3.1 50 07:59 04.04.2020
5493 Clouds 6 1017 75 10000 2.6 40 07:39 04.04.2020
5494 Clouds 6 1017 87 10000 1 40 07:21 04.04.2020
5495 Clouds 5 1018 87 10000 0.5 0 06:38 04.04.2020
5496 Clouds 4 1017 93 10000 3.6 350 05:52 04.04.2020
5497 Clouds 4 1017 93 10000 3.6 350 05:52 04.04.2020
5498 Clouds 4 1017 93 10000 3.6 350 05:33 04.04.2020
5499 Clouds 5 1017 93 10000 3.1 350 04:34 04.04.2020
5500 Clouds 5 1017 93 10000 2.6 360 03:57 04.04.2020
5501 Clouds 5 1017 93 10000 2.6 360 03:37 04.04.2020
5502 Clouds 5 1017 93 10000 2.1 350 02:48 04.04.2020
5503 Clouds 5 1017 93 10000 2.1 350 02:29 04.04.2020
5504 Clouds 5 1017 93 10000 2.1 360 01:46 04.04.2020
5505 Clouds 6 1017 87 10000 1.5 30 01:20 04.04.2020
5506 Clouds 6 1017 87 10000 1.5 40 00:43 04.04.2020
5507 Clear 6 1018 87 10000 2.1 40 00:23 04.04.2020
5508 Clear 6 1018 93 10000 2.1 50 23:38 03.04.2020
5509 Clear 6 1018 93 10000 1 360 23:19 03.04.2020
5510 Clear 6 1018 93 10000 1 0 22:41 03.04.2020
5511 Clear 7 1018 81 10000 1.5 50 22:19 03.04.2020
5512 Clear 6 1018 87 10000 1.5 50 21:57 03.04.2020
5513 Clear 6 1018 87 10000 1.5 50 21:38 03.04.2020
5514 Clouds 6 1018 87 10000 1 20 21:20 03.04.2020
5515 Clouds 7 1018 87 10000 1 360 20:55 03.04.2020
5516 Clouds 7 1018 87 10000 1 360 20:36 03.04.2020
5517 Clouds 7 1018 87 10000 2.42 83 20:18 03.04.2020
5518 Clouds 7 1018 87 10000 0.5 200 19:55 03.04.2020
5519 Clouds 8 1018 87 10000 0.5 200 19:36 03.04.2020
5520 Clouds 8 1018 81 10000 1 0 19:18 03.04.2020
5521 Clouds 8 1017 75 10000 1 180 18:57 03.04.2020
5522 Clouds 9 1017 75 10000 1 180 18:39 03.04.2020
5523 Clouds 9 1017 75 10000 1 180 18:39 03.04.2020
5524 Clouds 9 1017 76 10000 1.5 190 18:21 03.04.2020
5525 Clouds 9 1017 76 10000 3.1 190 17:41 03.04.2020
5526 Clouds 10 1017 71 10000 2.6 190 17:20 03.04.2020
5527 Clouds 10 1017 70 10000 3.1 180 16:55 03.04.2020
5528 Clouds 10 1017 70 10000 3.1 180 16:36 03.04.2020
5529 Clouds 10 1017 70 10000 3.1 180 16:36 03.04.2020
5530 Clouds 10 1017 71 10000 2.1 190 16:18 03.04.2020
5531 Clouds 10 1017 66 10000 1.5 190 15:55 03.04.2020
5532 Clouds 9 1017 66 10000 1.5 190 15:36 03.04.2020
5533 Clouds 9 1018 76 10000 2.6 220 15:18 03.04.2020
5534 Clouds 8 1018 81 10000 3.1 210 14:40 03.04.2020
5535 Clouds 9 1018 81 10000 3.1 210 14:22 03.04.2020
5536 Clouds 9 1018 81 10000 3.1 210 13:47 03.04.2020
5537 Clouds 9 1018 75 10000 3.1 210 13:27 03.04.2020
5538 Clouds 9 1018 75 10000 3.1 180 12:58 03.04.2020
5539 Clouds 9 1018 75 10000 3.1 180 12:40 03.04.2020
5540 Clouds 9 1018 75 10000 2.1 170 12:19 03.04.2020
5541 Clouds 8 1018 75 10000 2.6 190 11:56 03.04.2020
5542 Clouds 8 1018 75 10000 2.6 190 11:37 03.04.2020
5543 Clouds 8 1018 70 10000 2.1 350 11:18 03.04.2020
5544 Clouds 8 1018 70 10000 2.1 350 10:57 03.04.2020
5545 Clouds 8 1018 70 10000 2.1 350 10:57 03.04.2020
5546 Clouds 8 1018 81 10000 1.5 330 10:38 03.04.2020
5547 Clouds 8 1018 81 10000 2.1 310 10:20 03.04.2020
5548 Clouds 7 1018 87 10000 1.5 300 09:56 03.04.2020
5549 Clouds 7 1018 87 10000 1.5 300 09:37 03.04.2020
5550 Clouds 7 1018 87 10000 1.5 300 09:37 03.04.2020
5551 Clouds 7 1018 87 10000 2.6 350 09:19 03.04.2020
5552 Clouds 7 1017 87 10000 3.1 330 08:44 03.04.2020
5553 Clouds 7 1017 93 10000 2.6 330 08:25 03.04.2020
5554 Clouds 6 1016 87 10000 2.6 0 07:57 03.04.2020
5555 Clouds 6 1016 87 10000 2.6 0 07:39 03.04.2020
5556 Clouds 6 1016 87 10000 2.6 300 07:20 03.04.2020
5557 Clouds 6 1015 93 10000 3.6 340 06:28 03.04.2020
5558 Clouds 5 1015 86 10000 4.1 350 05:43 03.04.2020
5559 Rain 5 1014 86 10000 6.2 350 04:27 03.04.2020
5560 Rain 5 1014 86 10000 6.7 350 03:33 03.04.2020
5561 Clouds 6 1013 87 10000 6.2 360 02:39 03.04.2020
5562 Rain 6 1013 93 10000 6.2 350 01:25 03.04.2020
5563 Rain 6 1013 87 10000 6.7 350 00:47 03.04.2020
5564 Rain 6 1013 93 10000 6.7 350 00:29 03.04.2020
5565 Clouds 6 1013 87 10000 6.2 350 23:54 02.04.2020
5566 Clouds 6 1013 87 10000 6.2 350 23:36 02.04.2020
5567 Rain 6 1013 93 10000 7.2 350 23:18 02.04.2020
5568 Rain 7 1012 87 10000 6.7 350 22:41 02.04.2020
5569 Rain 7 1012 87 10000 6.2 350 22:22 02.04.2020
5570 Rain 7 1012 87 10000 6.2 350 21:57 02.04.2020
5571 Rain 7 1012 87 10000 6.2 350 21:37 02.04.2020
5572 Rain 7 1012 87 10000 6.2 360 21:18 02.04.2020
5573 Rain 7 1012 87 10000 6.2 360 21:18 02.04.2020
5574 Rain 7 1011 93 10000 6.7 350 20:44 02.04.2020
5575 Rain 7 1011 93 10000 5.7 350 20:24 02.04.2020
5576 Rain 7 1011 93 10000 5.7 350 19:57 02.04.2020
5577 Rain 7 1011 93 10000 6.2 360 19:38 02.04.2020
5578 Rain 7 1010 93 10000 7.2 10 19:19 02.04.2020
5579 Rain 7 1011 93 10000 3.6 360 18:42 02.04.2020
5580 Rain 7 1011 93 10000 4.1 350 18:21 02.04.2020
5581 Rain 7 1010 93 10000 6.2 360 17:59 02.04.2020
5582 Rain 7 1010 93 10000 6.2 360 17:59 02.04.2020
5583 Rain 7 1010 93 10000 6.2 360 17:40 02.04.2020
5584 Rain 7 1010 93 8000 6.2 360 17:22 02.04.2020
5585 Rain 7 1010 93 7000 6.2 20 16:57 02.04.2020
5586 Rain 7 1010 93 7000 6.2 20 16:39 02.04.2020
5587 Rain 7 1009 93 3000 6.7 20 16:21 02.04.2020
5588 Rain 7 1010 93 4000 5.7 40 15:56 02.04.2020
5589 Rain 7 1010 93 4000 5.7 40 15:38 02.04.2020
5590 Rain 8 1010 87 4000 4.1 40 15:18 02.04.2020
5591 Rain 8 1010 87 4000 4.1 40 15:18 02.04.2020
5592 Rain 8 1010 87 4000 6.2 30 14:55 02.04.2020
5593 Rain 8 1010 87 4000 6.2 30 14:37 02.04.2020
5594 Rain 8 1010 87 10000 6.7 40 14:18 02.04.2020
5595 Clouds 8 1010 81 10000 7.7 40 13:40 02.04.2020
5596 Clouds 9 1010 76 10000 6.7 40 13:21 02.04.2020
5597 Clouds 9 1009 76 10000 8.7 40 12:59 02.04.2020
5598 Clouds 9 1009 76 10000 8.7 40 12:41 02.04.2020
5599 Clouds 9 1010 81 10000 7.2 40 12:19 02.04.2020
5600 Clouds 9 1010 81 10000 7.2 40 12:19 02.04.2020
5601 Clouds 9 1010 81 10000 7.2 40 12:19 02.04.2020
5602 Clouds 9 1010 81 10000 7.2 40 12:19 02.04.2020
5603 Clouds 9 1010 81 10000 7.2 40 12:19 02.04.2020
5604 Clouds 9 1010 81 10000 6.7 40 11:57 02.04.2020
5605 Clouds 9 1010 81 10000 6.7 40 11:38 02.04.2020
5606 Clouds 8 1010 81 10000 7.7 40 11:19 02.04.2020
5607 Clouds 8 1010 81 10000 7.7 40 11:19 02.04.2020
5608 Clouds 8 1010 81 10000 7.7 40 11:19 02.04.2020
5609 Clouds 8 1011 81 10000 8.2 50 10:55 02.04.2020
5610 Clouds 8 1011 81 10000 8.2 50 10:37 02.04.2020
5611 Clouds 8 1011 76 10000 8.2 40 10:19 02.04.2020
5612 Clouds 8 1011 76 10000 7.7 40 09:55 02.04.2020
5613 Clouds 8 1011 76 10000 7.7 40 09:37 02.04.2020
5614 Clouds 8 1011 81 10000 7.2 40 09:18 02.04.2020
5615 Clouds 8 1012 81 10000 9.3 40 08:45 02.04.2020
5616 Clouds 8 1011 81 10000 7.7 50 08:26 02.04.2020
5617 Clouds 8 1011 81 10000 8.2 40 07:45 02.04.2020
5618 Clouds 8 1012 81 10000 8.2 50 07:20 02.04.2020
5619 Clouds 8 1012 81 10000 7.7 50 06:58 02.04.2020
5620 Clouds 8 1012 81 10000 6.2 50 06:21 02.04.2020
5621 Clouds 8 1012 81 10000 6.7 60 05:45 02.04.2020
5622 Clouds 8 1012 76 10000 6.2 60 04:35 02.04.2020
5623 Clouds 8 1012 76 10000 6.2 60 04:35 02.04.2020
5624 Clouds 8 1014 81 10000 6.2 50 01:52 02.04.2020
5625 Clouds 8 1014 81 10000 5.1 60 00:50 02.04.2020
5626 Clouds 8 1014 81 10000 5.1 60 00:50 02.04.2020
5627 Clouds 8 1014 81 10000 5.1 60 00:28 02.04.2020
5628 Clouds 8 1014 81 10000 4.1 60 23:57 01.04.2020
5629 Clouds 8 1014 81 10000 4.1 60 23:37 01.04.2020
5630 Clouds 8 1014 81 10000 4.1 60 23:37 01.04.2020
5631 Clouds 8 1014 81 10000 5.7 60 23:18 01.04.2020
5632 Clouds 8 1014 81 10000 5.7 60 23:18 01.04.2020
5633 Clouds 8 1014 87 10000 7.2 40 22:41 01.04.2020
5634 Clouds 8 1014 87 10000 5.7 50 22:22 01.04.2020
5635 Clouds 8 1015 87 10000 5.7 50 21:57 01.04.2020
5636 Clouds 8 1015 87 10000 5.7 50 21:38 01.04.2020
5637 Clouds 8 1015 87 10000 4.6 40 21:18 01.04.2020
5638 Clouds 8 1015 87 10000 5.1 30 20:55 01.04.2020
5639 Clouds 8 1015 87 10000 5.1 30 20:37 01.04.2020
5640 Clouds 7 1015 81 10000 5.7 30 20:18 01.04.2020
5641 Clouds 7 1015 87 10000 5.1 30 19:43 01.04.2020
5642 Clouds 7 1015 87 10000 7.2 30 19:22 01.04.2020
5643 Clouds 7 1015 87 10000 6.7 40 18:56 01.04.2020
5644 Clouds 7 1015 87 10000 6.7 40 18:56 01.04.2020
5645 Clouds 7 1015 87 10000 6.7 40 18:38 01.04.2020
5646 Clouds 7 1015 87 10000 6.7 40 18:38 01.04.2020
5647 Clouds 7 1015 81 10000 8.2 30 18:20 01.04.2020
5648 Clouds 8 1015 81 10000 7.2 30 17:55 01.04.2020
5649 Clouds 7 1015 81 10000 7.2 30 17:36 01.04.2020
5650 Clouds 7 1015 81 10000 7.2 40 17:18 01.04.2020
5651 -273 0 0 0 0 0 16:42 01.04.2020
5652 Clouds 8 1016 81 10000 6.2 40 16:24 01.04.2020
5653 Clouds 8 1016 81 10000 6.2 40 15:58 01.04.2020
5654 Clouds 8 1016 81 10000 7.2 40 15:40 01.04.2020
5655 Clouds 8 1016 76 10000 7.2 40 15:21 01.04.2020
5656 Clouds 8 1016 76 10000 7.2 30 14:57 01.04.2020
5657 Clouds 8 1016 76 10000 7.2 30 14:57 01.04.2020
5658 Clouds 8 1016 76 10000 7.2 30 14:38 01.04.2020
5659 Clouds 8 1016 76 10000 6.2 50 14:19 01.04.2020
5660 Clouds 8 1016 70 10000 7.2 40 13:58 01.04.2020
5661 Clouds 8 1016 70 10000 7.2 40 13:37 01.04.2020
5662 Clouds 8 1017 76 10000 7.2 20 13:19 01.04.2020
5663 Clouds 9 1017 76 10000 8.2 20 12:54 01.04.2020
5664 Clouds 9 1017 76 10000 8.2 20 12:36 01.04.2020
5665 Clouds 9 1017 76 10000 7.7 10 12:18 01.04.2020
5666 Clouds 8 1017 70 10000 8.2 30 11:42 01.04.2020
5667 Clouds 8 1017 75 10000 8.7 20 11:23 01.04.2020
5668 Clouds 8 1017 75 10000 7.7 20 10:58 01.04.2020
5669 Clouds 8 1017 75 10000 7.7 20 10:37 01.04.2020
5670 Clouds 8 1018 75 10000 6.7 20 10:18 01.04.2020
5671 Clouds 8 1018 75 10000 6.7 20 09:57 01.04.2020
5672 Clouds 8 1018 75 10000 6.7 30 09:38 01.04.2020
5673 Clouds 7 1018 75 10000 5.7 30 09:18 01.04.2020
5674 Clouds 7 1017 81 10000 7.2 20 08:40 01.04.2020
5675 Clouds 7 1017 81 10000 6.2 20 08:18 01.04.2020
5676 Clouds 7 1017 81 10000 7.2 20 07:43 01.04.2020
5677 Clouds 7 1017 81 10000 5.7 20 07:21 01.04.2020
5678 Clouds 7 1017 81 10000 5.1 20 06:48 01.04.2020
5679 Clouds 7 1017 81 10000 5.7 20 06:24 01.04.2020
5680 Clouds 7 1017 75 10000 5.1 20 05:56 01.04.2020
5681 Clouds 7 1016 75 10000 6.2 20 04:30 01.04.2020
5682 Clouds 7 1017 75 10000 5.7 20 03:28 01.04.2020
5683 Clouds 6 1017 81 10000 6.7 20 02:49 01.04.2020
5684 Clouds 6 1018 75 10000 6.2 20 01:57 01.04.2020
5685 Clouds 6 1018 75 10000 5.7 30 01:38 01.04.2020
5686 Clouds 6 1018 75 10000 5.7 30 01:18 01.04.2020
5687 Clouds 6 1018 81 10000 7.7 20 00:45 01.04.2020
5688 Clouds 6 1018 75 10000 6.2 40 00:19 01.04.2020
5689 Clouds 6 1018 75 10000 6.7 40 23:42 31.03.2020
5690 Clouds 7 1018 75 10000 6.7 30 23:23 31.03.2020
5691 Clouds 7 1018 75 10000 7.7 30 22:57 31.03.2020
5692 Clouds 7 1018 75 10000 8.2 20 22:36 31.03.2020
5693 Clouds 6 1018 75 10000 8.2 20 22:18 31.03.2020
5694 Clouds 7 1018 81 10000 7.2 30 21:55 31.03.2020
5695 Clouds 7 1018 81 10000 7.2 30 21:55 31.03.2020
5696 Clouds 7 1018 81 10000 7.2 30 21:55 31.03.2020
5697 Clouds 7 1018 81 10000 8.2 20 21:37 31.03.2020
5698 Clouds 7 1018 81 10000 8.2 20 21:19 31.03.2020
5699 Clouds 7 1017 75 10000 7.2 30 20:54 31.03.2020
5700 Clouds 7 1017 75 10000 7.2 30 20:36 31.03.2020
5701 Clouds 7 1017 75 10000 7.2 30 20:36 31.03.2020
5702 Clouds 7 1017 75 10000 7.2 30 20:18 31.03.2020
5703 Clouds 7 1017 75 10000 6.7 40 19:41 31.03.2020
5704 Clouds 7 1017 75 10000 7.2 30 19:22 31.03.2020
5705 Clouds 7 1016 75 10000 7.7 20 18:55 31.03.2020
5706 Clouds 7 1016 75 10000 7.7 20 18:37 31.03.2020
5707 Clouds 7 1016 75 10000 7.7 40 18:18 31.03.2020
5708 Clouds 8 1016 75 10000 8.7 30 17:54 31.03.2020
5709 Clouds 8 1016 75 10000 8.2 20 17:36 31.03.2020
5710 Clouds 8 1016 75 10000 8.2 20 17:18 31.03.2020
5711 Clouds 8 1016 75 10000 8.7 20 16:38 31.03.2020
5712 Clouds 8 1016 75 10000 9.8 20 16:19 31.03.2020
5713 Clouds 8 1015 75 10000 11.3 10 15:57 31.03.2020
5714 Clouds 8 1015 75 10000 11.3 10 15:38 31.03.2020
5715 Clouds 8 1015 75 10000 11.3 10 15:38 31.03.2020
5716 Clouds 8 1015 81 10000 11.3 20 15:38 31.03.2020
5717 Clouds 8 1015 81 10000 11.3 20 15:19 31.03.2020
5718 Clouds 9 1015 76 10000 10.3 10 14:56 31.03.2020
5719 Clouds 9 1015 76 10000 10.3 10 14:38 31.03.2020
5720 Clouds 9 1015 76 10000 9.8 10 14:20 31.03.2020
5721 Clouds 9 1015 76 10000 12.3 360 13:42 31.03.2020
5722 Clouds 9 1015 81 10000 13.4 360 13:19 31.03.2020
5723 Clouds 9 1015 76 10000 12.3 10 12:55 31.03.2020
5724 Clouds 9 1015 76 10000 12.3 10 12:37 31.03.2020
5725 Clouds 10 1015 71 10000 11.8 360 12:18 31.03.2020
5726 Clouds 10 1015 76 10000 12.9 360 11:39 31.03.2020
5727 Clouds 10 1015 81 10000 12.3 360 11:20 31.03.2020
5728 Clouds 10 1014 81 10000 13.4 360 10:58 31.03.2020
5729 Clouds 10 1014 81 10000 13.4 360 10:39 31.03.2020
5730 Clouds 11 1014 81 10000 11.3 350 10:21 31.03.2020
5731 Clouds 10 1014 87 10000 11.3 360 09:56 31.03.2020
5732 Clouds 10 1014 87 10000 11.3 360 09:37 31.03.2020
5733 Clouds 10 1014 87 10000 11.3 360 09:37 31.03.2020
5734 Clouds 10 1014 87 10000 11.3 360 09:37 31.03.2020
5735 Clouds 10 1014 81 10000 10.3 350 09:19 31.03.2020
5736 Clear 10 1014 81 10000 8.7 350 08:56 31.03.2020
5737 Clear 10 1014 81 10000 8.7 350 08:56 31.03.2020
5738 Clear 10 1014 81 10000 8.7 350 08:37 31.03.2020
5739 Clear 10 1013 81 10000 7.7 340 08:18 31.03.2020
5740 Clear 10 1013 81 10000 7.2 340 07:54 31.03.2020
5741 Clear 10 1013 81 10000 7.2 340 07:36 31.03.2020
5742 Clear 10 1013 81 10000 6.2 340 07:18 31.03.2020
5743 Clear 9 1013 76 10000 7.7 330 06:42 31.03.2020
5744 Clear 9 1012 76 10000 5.7 350 05:53 31.03.2020
5745 Clear 9 1012 81 10000 4.6 350 05:26 31.03.2020
5746 Clear 8 1012 87 10000 4.1 350 02:57 31.03.2020
5747 Clear 9 1012 87 10000 3.6 340 01:47 31.03.2020
5748 Clear 9 1012 87 10000 2.1 350 01:27 31.03.2020
5749 Clear 10 1012 81 10000 1.5 360 00:43 31.03.2020
5750 Clear 10 1012 81 10000 1.5 350 00:23 31.03.2020
5751 Clear 10 1013 81 10000 0.5 0 23:41 30.03.2020
5752 Clear 10 1013 81 10000 1.5 360 23:20 30.03.2020
5753 Clear 10 1013 81 10000 1.5 360 23:20 30.03.2020
5754 Clear 11 1013 81 10000 0.5 0 22:58 30.03.2020
5755 Clear 11 1013 81 10000 0.5 0 22:38 30.03.2020
5756 Clear 11 1012 76 10000 1 110 22:19 30.03.2020
5757 Clear 11 1012 81 10000 2.6 330 21:57 30.03.2020
5758 Clear 11 1012 81 10000 2.6 330 21:38 30.03.2020
5759 Clouds 12 1012 71 10000 1.5 60 21:20 30.03.2020
5760 Clear 12 1012 71 10000 1.5 60 21:20 30.03.2020
5761 Clouds 12 1012 71 10000 2.1 100 20:58 30.03.2020
5762 Clouds 12 1012 71 10000 2.1 100 20:39 30.03.2020
5763 Clouds 12 1012 66 10000 1.5 90 20:20 30.03.2020
5764 Clouds 13 1012 71 10000 1.5 90 19:56 30.03.2020
5765 Clouds 13 1012 71 10000 1.5 90 19:37 30.03.2020
5766 Clouds 13 1012 76 10000 1 0 19:19 30.03.2020
5767 Clouds 14 1012 76 10000 2.1 110 18:42 30.03.2020
5768 Clouds 14 1012 76 10000 2.1 110 18:42 30.03.2020
5769 Clouds 15 1012 71 10000 3.1 140 18:24 30.03.2020
5770 Clouds 15 1012 66 10000 2.6 150 17:58 30.03.2020
5771 Clouds 15 1012 66 10000 2.6 150 17:39 30.03.2020
5772 Clouds 15 1012 67 10000 1.5 180 17:19 30.03.2020
5773 Clouds 15 1012 67 10000 1.5 180 16:57 30.03.2020
5774 Clouds 16 1012 67 10000 2.1 200 16:39 30.03.2020
5775 Clouds 16 1012 71 10000 2.6 200 16:20 30.03.2020
5776 Clouds 16 1012 71 10000 2.6 200 16:20 30.03.2020
5777 Clouds 16 1012 62 10000 2.6 210 15:55 30.03.2020
5778 Clouds 16 1012 62 10000 2.6 210 15:37 30.03.2020
5779 Clouds 16 1012 71 10000 3.6 230 15:19 30.03.2020
5780 Clouds 15 1012 71 10000 3.6 230 14:55 30.03.2020
5781 Clouds 15 1012 71 10000 3.6 230 14:37 30.03.2020
5782 Clouds 16 1012 71 10000 3.6 240 14:18 30.03.2020
5783 Clouds 15 1012 71 10000 4.6 230 13:54 30.03.2020
5784 Clouds 15 1012 71 10000 4.6 230 13:36 30.03.2020
5785 Clouds 15 1012 71 10000 4.1 220 13:18 30.03.2020
5786 Clouds 15 1013 71 10000 4.6 220 12:41 30.03.2020
5787 Clouds 15 1013 76 10000 5.1 200 12:20 30.03.2020
5788 Clouds 15 1013 76 10000 4.6 200 11:57 30.03.2020
5789 Clouds 14 1013 76 10000 4.6 200 11:39 30.03.2020
5790 Clouds 14 1013 76 10000 5.1 200 11:21 30.03.2020
5791 Clouds 14 1013 81 10000 4.6 210 10:41 30.03.2020
5792 Clouds 13 1013 76 10000 5.7 210 10:22 30.03.2020
5793 Clouds 13 1013 76 10000 5.7 210 09:58 30.03.2020
5794 Clouds 13 1012 76 10000 5.1 220 09:39 30.03.2020
5795 Clouds 11 1012 81 10000 5.1 210 09:19 30.03.2020
5796 Clouds 12 1012 81 10000 5.1 210 08:42 30.03.2020
5797 Clouds 11 1011 81 10000 4.6 210 08:23 30.03.2020
5798 Clouds 10 1011 87 10000 5.1 210 07:53 30.03.2020
5799 Clouds 10 1011 87 10000 5.1 210 07:34 30.03.2020
5800 Clouds 10 1011 87 10000 4.6 220 06:57 30.03.2020
5801 Clouds 10 1011 87 10000 4.6 220 06:33 30.03.2020
5802 Clouds 10 1011 87 10000 2.6 220 05:55 30.03.2020
5803 Clouds 10 1011 87 10000 6.2 220 05:33 30.03.2020
5804 Clouds 10 1011 87 10000 5.1 230 04:24 30.03.2020
5805 Clouds 10 1011 87 10000 6.2 220 03:44 30.03.2020
5806 Clouds 10 1011 87 10000 6.2 210 02:42 30.03.2020
5807 Clouds 10 1011 87 10000 5.7 210 01:44 30.03.2020
5808 Clouds 10 1011 87 10000 6.2 200 00:50 30.03.2020
5809 Clouds 10 1011 87 10000 6.2 210 00:23 30.03.2020
5810 Clouds 10 1011 87 10000 5.7 210 23:42 29.03.2020
5811 Clouds 9 1011 87 10000 5.1 210 23:24 29.03.2020
5812 Clouds 9 1011 87 10000 5.1 210 22:58 29.03.2020
5813 Clouds 9 1011 93 10000 6.2 200 22:38 29.03.2020
5814 Clouds 10 1011 87 10000 5.1 210 22:19 29.03.2020
5815 Clouds 9 1011 93 10000 4.6 210 21:57 29.03.2020
5816 Clouds 9 1011 93 10000 4.6 210 21:36 29.03.2020
5817 Clouds 9 1011 93 10000 4.6 210 21:36 29.03.2020
5818 Clouds 9 1011 93 10000 5.1 200 21:18 29.03.2020
5819 Clouds 10 1011 87 10000 4.1 210 20:55 29.03.2020
5820 Clouds 10 1011 87 10000 4.1 210 20:36 29.03.2020
5821 Clouds 10 1010 87 10000 4.6 210 20:18 29.03.2020
5822 Clouds 10 1010 87 10000 4.1 190 19:42 29.03.2020
5823 Clouds 10 1010 87 10000 4.1 190 19:42 29.03.2020
5824 Clouds 10 1010 87 10000 5.7 200 19:24 29.03.2020
5825 Clouds 10 1009 87 10000 4.6 220 18:58 29.03.2020
5826 Clouds 10 1009 81 10000 3.1 260 18:40 29.03.2020
5827 Clouds 10 1009 81 10000 3.1 260 18:20 29.03.2020
5828 Clouds 10 1009 81 10000 3.1 260 18:20 29.03.2020
5829 Clouds 10 1009 81 10000 5.1 270 17:58 29.03.2020
5830 Clouds 10 1009 81 10000 5.1 270 17:40 29.03.2020
5831 Clouds 10 1009 87 10000 4.6 250 17:22 29.03.2020
5832 Clouds 11 1009 87 10000 4.6 250 16:58 29.03.2020
5833 Clouds 11 1009 87 10000 6.2 250 16:39 29.03.2020
5834 Clouds 10 1009 87 10000 5.7 240 16:20 29.03.2020
5835 Clouds 10 1009 87 10000 5.7 240 15:56 29.03.2020
5836 Clouds 10 1009 87 10000 5.7 240 15:37 29.03.2020
5837 Rain 10 1009 87 10000 6.2 250 15:19 29.03.2020
5838 Rain 10 1009 87 10000 6.2 240 14:55 29.03.2020
5839 Rain 10 1009 87 10000 6.2 240 14:36 29.03.2020
5840 Rain 10 1009 87 10000 6.2 240 14:18 29.03.2020
5841 Rain 10 1009 87 10000 3.6 230 13:41 29.03.2020
5842 Rain 10 1009 81 10000 4.1 240 13:22 29.03.2020
5843 Rain 10 1009 81 10000 3.6 270 12:58 29.03.2020
5844 Rain 10 1009 81 10000 3.6 270 12:39 29.03.2020
5845 Rain 10 1009 81 10000 5.1 300 12:19 29.03.2020
5846 Rain 10 1009 81 10000 4.1 280 11:58 29.03.2020
5847 Rain 10 1009 81 10000 4.1 280 11:37 29.03.2020
5848 Rain 9 1009 81 10000 4.1 270 11:19 29.03.2020
5849 Rain 9 1009 87 10000 4.1 300 10:39 29.03.2020
5850 Rain 10 1009 87 10000 3.6 270 10:20 29.03.2020
5851 Rain 9 1009 93 10000 3.6 270 09:54 29.03.2020
5852 Rain 10 1009 93 10000 3.6 270 09:36 29.03.2020
5853 Rain 10 1009 87 8000 4.1 270 09:18 29.03.2020
5854 Rain 9 1009 93 8000 3.6 270 08:41 29.03.2020
5855 Rain 9 1008 93 8000 5.1 260 08:22 29.03.2020
5856 Rain 9 1008 93 8000 5.1 260 07:45 29.03.2020
5857 Rain 9 1008 93 10000 6.2 260 07:23 29.03.2020
5858 Rain 9 1009 93 10000 5.1 260 05:59 29.03.2020
5859 Rain 9 1009 93 10000 6.2 260 04:56 29.03.2020
5860 Rain 9 1009 93 10000 7.2 240 03:41 29.03.2020
5861 Rain 9 1009 93 10000 7.2 250 01:57 29.03.2020
5862 Rain 9 1009 93 10000 7.2 250 01:39 29.03.2020
5863 Rain 9 1009 93 10000 6.2 250 01:19 29.03.2020
5864 Rain 9 1010 93 8000 5.7 240 00:40 29.03.2020
5865 Rain 9 1010 93 8000 6.2 250 00:18 29.03.2020
5866 Rain 9 1010 93 10000 6.2 240 23:40 28.03.2020
5867 Rain 9 1010 93 10000 6.7 250 23:22 28.03.2020
5868 Rain 9 1011 93 10000 5.7 230 22:43 28.03.2020
5869 Rain 9 1011 87 10000 5.7 230 22:22 28.03.2020
5870 Rain 8 1011 93 10000 5.7 240 21:57 28.03.2020
5871 Rain 8 1011 93 10000 5.7 240 21:39 28.03.2020
5872 Rain 8 1011 93 10000 5.1 240 21:19 28.03.2020
5873 Rain 9 1011 93 10000 5.7 240 20:56 28.03.2020
5874 Rain 9 1011 93 10000 6.2 240 20:37 28.03.2020
5875 Rain 9 1011 93 10000 6.2 240 20:19 28.03.2020
5876 Rain 9 1011 93 10000 6.2 240 19:55 28.03.2020
5877 Rain 9 1011 87 10000 5.1 240 19:36 28.03.2020
5878 Rain 9 1011 93 10000 5.1 230 19:18 28.03.2020
5879 Rain 9 1011 93 10000 5.7 230 18:39 28.03.2020
5880 Rain 9 1011 93 8000 5.1 230 18:20 28.03.2020
5881 Rain 9 1011 93 8000 4.6 240 17:42 28.03.2020
5882 Rain 9 1011 87 8000 4.6 240 17:22 28.03.2020
5883 Rain 10 1011 93 10000 4.6 240 16:59 28.03.2020
5884 Rain 9 1011 93 10000 4.6 240 16:39 28.03.2020
5885 Rain 10 1011 87 10000 4.6 240 16:18 28.03.2020
5886 Rain 10 1011 87 10000 5.1 240 15:40 28.03.2020
5887 Clouds 10 1011 81 10000 5.1 230 15:21 28.03.2020
5888 Clouds 10 1011 66 10000 3.1 250 14:59 28.03.2020
5889 Clouds 10 1011 66 10000 3.1 250 14:40 28.03.2020
5890 Clouds 11 1011 54 10000 3.6 300 14:21 28.03.2020
5891 Clouds 11 1012 62 10000 3.6 300 13:43 28.03.2020
5892 Clouds 11 1012 62 10000 2.6 330 13:23 28.03.2020
5893 Clouds 10 1012 66 10000 3.1 350 12:41 28.03.2020
5894 Clouds 10 1012 66 10000 2.1 10 12:23 28.03.2020
5895 Clouds 10 1012 71 10000 2.6 350 11:55 28.03.2020
5896 Clouds 10 1012 71 10000 2.6 350 11:37 28.03.2020
5897 Clouds 10 1012 76 10000 3.1 350 11:18 28.03.2020
5898 Clouds 10 1012 76 10000 3.1 350 10:39 28.03.2020
5899 Clouds 9 1012 81 10000 3.6 360 10:20 28.03.2020
5900 Clouds 9 1012 81 10000 4.1 360 09:43 28.03.2020
5901 Clouds 9 1013 87 10000 3.1 360 09:24 28.03.2020
5902 Clouds 9 1013 81 10000 3.6 360 08:58 28.03.2020
5903 Clouds 9 1013 81 10000 3.6 360 08:40 28.03.2020
5904 Clouds 9 1013 81 10000 3.1 360 08:21 28.03.2020
5905 Clouds 8 1012 93 10000 3.6 10 07:44 28.03.2020
5906 Clouds 8 1012 87 10000 3.6 350 07:26 28.03.2020
5907 Clouds 8 1012 87 10000 3.1 340 06:36 28.03.2020
5908 Clouds 8 1012 81 10000 2.6 350 05:54 28.03.2020
5909 Clouds 8 1012 81 10000 2.1 360 05:21 28.03.2020
5910 Clouds 8 1012 81 10000 3.6 340 04:42 28.03.2020
5911 Clouds 8 1012 81 10000 4.1 350 03:54 28.03.2020
5912 Clouds 8 1012 81 10000 3.6 350 02:25 28.03.2020
5913 Clouds 8 1013 81 10000 4.1 350 01:41 28.03.2020
5914 Clouds 8 1013 81 10000 3.6 360 01:18 28.03.2020
5915 Clouds 8 1013 81 8000 4.1 20 00:37 28.03.2020
5916 Clouds 9 1013 76 10000 4.1 20 23:59 27.03.2020
5917 Clouds 9 1013 76 10000 4.1 20 23:41 27.03.2020
5918 Clouds 8 1013 76 10000 4.1 20 23:41 27.03.2020
5919 Clouds 9 1013 76 10000 4.1 30 23:21 27.03.2020
5920 Clouds 8 1013 76 10000 4.6 20 22:56 27.03.2020
5921 Clouds 8 1013 76 10000 4.6 20 22:38 27.03.2020
5922 Clouds 9 1013 76 10000 3.6 40 22:19 27.03.2020
5923 Clouds 9 1014 76 10000 3.6 30 21:45 27.03.2020
5924 Clouds 9 1014 76 10000 4.6 20 21:25 27.03.2020
5925 Clouds 9 1014 76 10000 4.6 20 20:59 27.03.2020
5926 Clouds 9 1014 76 10000 4.1 30 20:41 27.03.2020
5927 Clouds 9 1014 76 10000 5.7 20 20:21 27.03.2020
5928 Clouds 9 1014 76 10000 5.7 20 19:58 27.03.2020
5929 Clouds 9 1014 76 9000 4.6 20 19:40 27.03.2020
5930 Clouds 9 1014 76 8000 4.6 20 19:21 27.03.2020
5931 Clouds 9 1014 76 7000 4.6 30 18:45 27.03.2020
5932 Clouds 10 1014 76 10000 4.1 30 18:25 27.03.2020
5933 Clouds 10 1014 71 10000 6.2 30 17:59 27.03.2020
5934 Clouds 10 1014 71 10000 6.2 30 17:40 27.03.2020
5935 Clouds 10 1014 76 10000 5.7 30 17:20 27.03.2020
5936 Clouds 10 1013 71 10000 6.7 20 16:44 27.03.2020
5937 Clouds 10 1013 71 10000 6.7 30 16:26 27.03.2020
5938 Clouds 10 1013 66 10000 6.2 30 15:57 27.03.2020
5939 Clouds 12 1013 66 10000 6.2 20 15:39 27.03.2020
5940 Clouds 12 1013 66 10000 6.2 20 15:21 27.03.2020
5941 Clouds 12 1013 66 10000 5.7 30 14:45 27.03.2020
5942 Clouds 13 1013 58 10000 6.2 30 14:24 27.03.2020
5943 Clouds 13 1013 62 10000 6.7 10 13:56 27.03.2020
5944 Clouds 13 1013 62 10000 6.7 10 13:37 27.03.2020
5945 Clouds 13 1014 62 10000 5.1 30 13:18 27.03.2020
5946 Clouds 12 1014 62 10000 6.2 20 12:45 27.03.2020
5947 Clouds 12 1014 66 10000 6.2 20 12:20 27.03.2020
5948 Clouds 12 1014 66 10000 5.1 20 11:59 27.03.2020
5949 Clouds 12 1014 66 10000 5.1 20 11:41 27.03.2020
5950 Clouds 12 1014 66 10000 5.1 20 11:41 27.03.2020
5951 Clouds 12 1014 66 10000 5.7 20 11:22 27.03.2020
5952 Clouds 12 1015 62 10000 5.7 20 10:54 27.03.2020
5953 Clouds 12 1015 62 10000 5.7 20 10:54 27.03.2020
5954 Clouds 12 1015 62 10000 5.7 20 10:36 27.03.2020
5955 Clouds 11 1015 71 10000 5.7 20 10:18 27.03.2020
5956 Clouds 11 1015 71 10000 4.1 30 09:55 27.03.2020
5957 Clouds 11 1015 71 10000 4.1 30 09:36 27.03.2020
5958 Clouds 10 1015 76 10000 5.1 40 09:18 27.03.2020
5959 Clouds 9 1015 81 10000 5.7 40 08:54 27.03.2020
5960 Clouds 9 1015 81 10000 5.7 40 08:36 27.03.2020
5961 Clouds 9 1015 76 10000 6.2 50 08:18 27.03.2020
5962 Clouds 9 1015 81 10000 4.1 40 07:43 27.03.2020
5963 Clouds 9 1015 81 10000 4.6 40 07:21 27.03.2020
5964 Clouds 9 1015 81 10000 4.6 40 06:45 27.03.2020
5965 Clouds 9 1015 81 10000 5.1 30 06:26 27.03.2020
5966 Clouds 9 1015 81 10000 4.6 30 03:42 27.03.2020
5967 Clouds 9 1016 81 10000 4.1 30 02:25 27.03.2020
5968 Clouds 9 1016 81 10000 6.2 40 01:21 27.03.2020
5969 Clouds 9 1016 81 10000 4.6 40 00:45 27.03.2020
5970 Clouds 9 1016 81 10000 5.7 40 00:23 27.03.2020
5971 Clouds 9 1016 81 10000 6.2 40 23:42 26.03.2020
5972 Clouds 9 1017 81 10000 5.7 40 23:19 26.03.2020
5973 Clouds 9 1017 87 10000 7.2 40 22:58 26.03.2020
5974 Clouds 9 1017 87 10000 7.2 40 22:58 26.03.2020
5975 Clouds 9 1017 81 10000 7.2 50 22:37 26.03.2020
5976 Clouds 9 1017 81 10000 7.2 50 22:18 26.03.2020
5977 Clouds 9 1017 76 10000 7.7 40 21:40 26.03.2020
5978 Clouds 9 1017 81 10000 7.2 40 21:22 26.03.2020
5979 Clouds 9 1017 76 10000 8.2 50 20:59 26.03.2020
5980 Clouds 9 1017 76 10000 8.2 50 20:40 26.03.2020
5981 Clouds 9 1017 76 10000 7.2 40 20:22 26.03.2020
5982 Clouds 9 1017 76 10000 7.7 30 19:58 26.03.2020
5983 Clouds 9 1017 76 10000 7.7 30 19:40 26.03.2020
5984 Clouds 9 1017 76 10000 9.3 50 19:22 26.03.2020
5985 Clouds 9 1017 76 10000 8.2 40 18:58 26.03.2020
5986 Clouds 9 1017 76 10000 8.2 40 18:40 26.03.2020
5987 Clouds 9 1017 76 10000 8.7 30 18:22 26.03.2020
5988 Clouds 9 1017 76 10000 7.2 40 17:45 26.03.2020
5989 Clouds 9 1017 76 10000 7.2 40 17:20 26.03.2020
5990 Clouds 10 1017 71 10000 8.2 40 16:57 26.03.2020
5991 Clouds 10 1017 71 10000 8.2 40 16:38 26.03.2020
5992 Clouds 10 1017 71 10000 7.7 40 16:20 26.03.2020
5993 Clouds 10 1017 76 10000 8.2 40 15:56 26.03.2020
5994 Clouds 10 1017 76 10000 8.2 40 15:38 26.03.2020
5995 Clouds 10 1017 76 10000 8.7 50 15:19 26.03.2020
5996 Clouds 10 1017 76 10000 9.3 50 14:43 26.03.2020
5997 Clouds 9 1017 81 10000 9.8 40 14:24 26.03.2020
5998 Clouds 9 1017 81 10000 8.2 40 13:56 26.03.2020
5999 Clouds 9 1017 81 10000 8.2 40 13:56 26.03.2020
6000 Clouds 10 1017 76 10000 8.7 40 13:38 26.03.2020
6001 Clouds 10 1017 76 10000 8.7 40 13:19 26.03.2020
6002 Clouds 10 1018 76 10000 7.7 30 12:39 26.03.2020
6003 Clouds 9 1018 81 10000 8.2 40 12:20 26.03.2020
6004 -273 0 0 0 0 0 12:20 26.03.2020
6005 Clouds 10 1019 76 10000 7.7 40 11:46 26.03.2020
6006 Clouds 9 1019 76 10000 9.3 40 11:24 26.03.2020
6007 Clouds 10 1019 76 10000 7.7 40 10:59 26.03.2020
6008 Clouds 10 1019 76 10000 7.7 40 10:41 26.03.2020
6009 Clouds 9 1019 81 10000 9.3 40 10:20 26.03.2020
6010 Clouds 9 1019 81 10000 9.3 40 09:45 26.03.2020
6011 Clouds 9 1019 81 10000 8.2 40 09:21 26.03.2020
6012 Clouds 9 1019 81 10000 8.2 50 08:57 26.03.2020
6013 Clouds 9 1019 81 10000 8.2 50 08:38 26.03.2020
6014 Clouds 9 1019 76 10000 5.7 40 08:19 26.03.2020
6015 Clouds 8 1019 81 10000 7.7 50 07:45 26.03.2020
6016 Clouds 8 1019 81 10000 6.7 50 07:23 26.03.2020
6017 Clouds 8 1019 87 10000 6.2 50 06:57 26.03.2020
6018 Clouds 8 1019 81 10000 8.2 50 06:32 26.03.2020
6019 Clouds 8 1019 81 10000 6.7 50 05:29 26.03.2020
6020 Clouds 8 1020 75 10000 6.2 50 03:45 26.03.2020
6021 Clouds 8 1020 75 10000 6.2 40 02:56 26.03.2020
6022 Clouds 8 1020 75 10000 8.2 40 01:51 26.03.2020
6023 Clouds 8 1021 75 10000 8.7 40 00:56 26.03.2020
6024 Clouds 8 1021 75 10000 7.7 50 00:22 26.03.2020
6025 Clouds 8 1022 75 10000 8.7 50 23:41 25.03.2020
6026 Clouds 8 1022 75 10000 8.7 50 23:22 25.03.2020
6027 Clouds 8 1022 75 10000 7.2 50 22:42 25.03.2020
6028 Clouds 8 1022 75 10000 9.3 40 22:22 25.03.2020
6029 Clouds 8 1023 75 10000 9.3 50 21:57 25.03.2020
6030 Clouds 8 1023 75 10000 9.3 50 21:38 25.03.2020
6031 Clouds 8 1023 75 10000 7.7 60 21:20 25.03.2020
6032 Clouds 8 1023 75 10000 8.7 40 20:56 25.03.2020
6033 Clouds 8 1023 75 10000 8.2 50 20:37 25.03.2020
6034 Clouds 8 1023 75 10000 8.2 50 20:18 25.03.2020
6035 Clouds 8 1023 75 10000 7.7 50 19:43 25.03.2020
6036 Clouds 8 1023 75 10000 8.2 50 19:23 25.03.2020
6037 Clouds 7 1023 87 10000 6.7 40 18:58 25.03.2020
6038 Clouds 7 1023 87 10000 6.7 40 18:40 25.03.2020
6039 Clouds 8 1023 81 10000 7.2 40 18:21 25.03.2020
6040 Clouds 8 1023 81 10000 7.2 50 17:56 25.03.2020
6041 Clouds 8 1023 81 10000 6.7 40 17:37 25.03.2020
6042 Clouds 8 1023 81 10000 6.7 40 17:19 25.03.2020
6043 Clouds 8 1023 81 10000 6.7 50 16:44 25.03.2020
6044 Clouds 8 1022 81 10000 7.7 40 16:24 25.03.2020
6045 Clouds 8 1022 81 10000 7.7 40 15:59 25.03.2020
6046 Clouds 8 1022 81 10000 7.2 40 15:41 25.03.2020
6047 Clouds 8 1021 75 10000 9.3 50 15:20 25.03.2020
6048 Clouds 8 1022 81 10000 7.2 40 14:42 25.03.2020
6049 Clouds 8 1023 75 10000 7.7 40 14:22 25.03.2020
6050 Clouds 9 1023 70 10000 7.7 40 13:59 25.03.2020
6051 Clouds 9 1023 70 10000 7.7 40 13:41 25.03.2020
6052 Clouds 9 1023 70 10000 6.7 40 13:22 25.03.2020
6053 Clouds 9 1023 70 10000 7.2 30 12:38 25.03.2020
6054 Clouds 9 1023 70 10000 7.2 30 12:19 25.03.2020
6055 Clouds 8 1023 75 10000 7.7 30 11:55 25.03.2020
6056 Clouds 8 1023 81 10000 5.7 40 11:36 25.03.2020
6057 Clouds 8 1023 81 10000 5.7 40 11:18 25.03.2020
6058 Clouds 8 1023 75 10000 7.7 40 10:56 25.03.2020
6059 Clouds 8 1023 75 10000 7.7 40 10:37 25.03.2020
6060 Clouds 8 1023 81 10000 6.7 40 10:18 25.03.2020
6061 Clouds 8 1023 81 8000 7.2 30 09:42 25.03.2020
6062 Clouds 8 1023 81 10000 5.7 40 09:23 25.03.2020
6063 Clouds 8 1022 81 8000 7.2 40 08:56 25.03.2020
6064 Clouds 8 1022 81 8000 7.2 40 08:38 25.03.2020
6065 Clouds 8 1022 81 7000 7.2 40 08:19 25.03.2020
6066 Clouds 8 1022 81 7000 6.2 50 07:41 25.03.2020
6067 Clouds 8 1022 75 10000 5.1 50 07:22 25.03.2020
6068 Clouds 7 1021 87 10000 5.7 40 06:48 25.03.2020
6069 Clouds 7 1021 81 10000 6.2 40 06:28 25.03.2020
6070 Rain 7 1021 81 10000 6.7 50 05:56 25.03.2020
6071 Clouds 7 1021 87 10000 6.2 50 05:30 25.03.2020
6072 Clouds 7 1021 87 10000 6.7 40 04:39 25.03.2020
6073 Clouds 7 1020 87 10000 6.7 50 03:36 25.03.2020
6074 Clouds 7 1020 87 10000 6.7 50 02:31 25.03.2020
6075 Clouds 8 1020 75 10000 6.2 40 01:21 25.03.2020
6076 Clouds 7 1020 87 10000 7.2 50 00:48 25.03.2020
6077 Clouds 7 1020 87 10000 6.2 50 00:23 25.03.2020
6078 Clouds 7 1020 87 10000 6.7 40 23:45 24.03.2020
6079 Clouds 7 1020 87 10000 7.2 40 23:26 24.03.2020
6080 Clouds 7 1020 87 10000 7.2 40 22:56 24.03.2020
6081 Clouds 7 1020 87 10000 7.2 40 22:37 24.03.2020
6082 Clouds 7 1020 87 10000 6.7 40 22:19 24.03.2020
6083 Clouds 7 1020 87 10000 6.2 40 21:55 24.03.2020
6084 Clouds 7 1020 87 10000 6.2 40 21:55 24.03.2020
6085 Clouds 7 1020 87 10000 6.2 40 21:37 24.03.2020
6086 Clouds 8 1020 81 10000 6.2 40 21:18 24.03.2020
6087 Clouds 8 1020 81 10000 7.2 40 20:43 24.03.2020
6088 Clouds 8 1020 75 10000 7.7 40 20:24 24.03.2020
6089 Clouds 8 1020 75 10000 7.7 40 19:59 24.03.2020
6090 Clouds 8 1020 75 10000 7.7 40 19:41 24.03.2020
6091 Clouds 8 1020 75 10000 7.2 50 19:19 24.03.2020
6092 Clouds 8 1019 81 10000 8.2 40 18:55 24.03.2020
6093 Rain 8 1019 81 10000 7.7 40 18:36 24.03.2020
6094 Rain 8 1019 81 10000 7.7 40 18:18 24.03.2020
6095 Rain 8 1019 81 10000 7.7 40 17:42 24.03.2020
6096 Clouds 8 1019 81 10000 7.2 30 17:23 24.03.2020
6097 Clouds 8 1019 87 10000 6.7 40 16:58 24.03.2020
6098 Clouds 8 1019 87 10000 6.7 40 16:40 24.03.2020
6099 Clouds 8 1018 87 10000 7.2 40 16:22 24.03.2020
6100 Clouds 8 1018 87 10000 7.2 40 15:58 24.03.2020
6101 Clouds 8 1018 87 10000 7.2 40 15:38 24.03.2020
6102 Clouds 8 1018 87 10000 7.7 40 15:20 24.03.2020
6103 Clouds 8 1018 87 10000 7.7 30 14:43 24.03.2020
6104 Clouds 8 1018 87 10000 7.7 40 14:20 24.03.2020
6105 Clouds 8 1018 87 10000 7.7 40 13:44 24.03.2020
6106 Clouds 8 1018 87 10000 7.2 50 13:24 24.03.2020
6107 Clouds 8 1018 87 10000 7.7 40 12:58 24.03.2020
6108 Clouds 8 1018 87 10000 7.7 40 12:38 24.03.2020
6109 Clouds 8 1017 87 10000 8.2 40 12:38 24.03.2020
6110 Clouds 8 1017 87 10000 8.2 40 12:20 24.03.2020
6111 Clouds 8 1017 87 10000 7.2 40 11:40 24.03.2020
6112 Clouds 8 1017 87 10000 7.2 50 11:20 24.03.2020
6113 Clouds 8 1017 81 10000 6.7 50 10:54 24.03.2020
6114 Clouds 8 1017 81 10000 6.7 50 10:36 24.03.2020
6115 Clouds 8 1017 81 10000 5.7 50 10:18 24.03.2020
6116 Clouds 9 1017 81 10000 6.2 50 09:42 24.03.2020
6117 Clouds 8 1017 81 10000 6.7 50 09:24 24.03.2020
6118 Clouds 8 1017 87 10000 6.7 50 08:40 24.03.2020
6119 Clouds 8 1017 87 10000 6.2 50 08:21 24.03.2020
6120 Clouds 8 1017 87 10000 6.2 50 08:21 24.03.2020
6121 Clouds 8 1017 87 10000 5.7 50 07:51 24.03.2020
6122 Clouds 8 1016 87 10000 6.2 50 07:25 24.03.2020
6123 Clouds 8 1016 87 10000 6.2 50 07:25 24.03.2020
6124 Clouds 8 1016 87 10000 5.7 50 06:59 24.03.2020
6125 Clouds 8 1016 87 10000 6.2 40 06:33 24.03.2020
6126 Rain 8 1017 93 4000 11.3 60 05:29 24.03.2020
6127 Drizzle 8 1016 87 7000 7.2 50 04:41 24.03.2020
6128 Clouds 8 1016 81 7000 7.2 50 03:19 24.03.2020
6129 Clouds 9 1016 87 7000 6.2 50 01:50 24.03.2020
6130 Drizzle 9 1016 87 7000 5.7 50 00:51 24.03.2020
6131 Clouds 9 1016 93 7000 5.1 60 00:26 24.03.2020
6132 Clouds 9 1016 87 7000 5.1 60 23:49 23.03.2020
6133 Rain 9 1016 100 4000 9.3 60 23:27 23.03.2020
6134 Clouds 9 1016 87 8000 4.6 50 22:58 23.03.2020
6135 Clouds 9 1016 87 8000 4.6 50 22:39 23.03.2020
6136 Clouds 9 1016 87 8000 4.6 40 22:21 23.03.2020
6137 Clouds 9 1016 87 8000 5.1 30 21:44 23.03.2020
6138 Clouds 9 1016 87 8000 5.7 40 21:21 23.03.2020
6139 Clouds 9 1016 87 6000 5.7 40 20:58 23.03.2020
6140 Clouds 9 1016 87 6000 5.7 40 20:40 23.03.2020
6141 Clouds 9 1016 87 8000 4.6 40 20:22 23.03.2020
6142 Clouds 9 1016 87 6000 5.7 30 19:54 23.03.2020
6143 Clouds 9 1016 87 6000 5.7 30 19:36 23.03.2020
6144 Clouds 9 1017 87 6000 4.6 30 19:18 23.03.2020
6145 Clouds 9 1016 87 6000 6.2 20 18:42 23.03.2020
6146 Clouds 9 1016 87 6000 6.2 20 18:23 23.03.2020
6147 Clouds 9 1016 93 10000 7.2 20 17:56 23.03.2020
6148 Clouds 9 1016 93 10000 7.2 20 17:56 23.03.2020
6149 Rain 9 1017 100 4000 9.8 30 17:38 23.03.2020
6150 Clouds 9 1016 87 10000 6.2 30 17:18 23.03.2020
6151 Clouds 9 1016 87 10000 6.2 20 16:43 23.03.2020
6152 Clouds 9 1016 87 10000 6.7 30 16:25 23.03.2020
6153 Clouds 9 1016 87 10000 5.7 20 15:43 23.03.2020
6154 Clouds 9 1016 87 8000 6.2 30 15:21 23.03.2020
6155 Clouds 9 1016 87 8000 6.2 30 14:57 23.03.2020
6156 Clouds 9 1016 87 8000 6.2 30 14:37 23.03.2020
6157 Clouds 9 1016 87 10000 6.7 30 14:18 23.03.2020
6158 Clouds 9 1016 81 10000 7.2 30 13:41 23.03.2020
6159 Clouds 9 1016 87 10000 7.2 30 13:22 23.03.2020
6160 Clouds 9 1016 81 10000 6.2 20 12:58 23.03.2020
6161 Clouds 9 1016 81 10000 6.2 20 12:58 23.03.2020
6162 Clouds 9 1016 81 10000 6.2 20 12:40 23.03.2020
6163 Clouds 10 1016 71 10000 4.1 30 12:21 23.03.2020
6164 Clouds 9 1016 76 10000 4.1 30 11:42 23.03.2020
6165 Clouds 10 1017 76 10000 4.1 10 11:21 23.03.2020
6166 Rain 9 1017 100 2400 8.2 60 10:58 23.03.2020
6167 Clouds 10 1017 76 10000 4.1 30 10:40 23.03.2020
6168 Clouds 9 1017 76 10000 4.6 50 10:21 23.03.2020
6169 Clouds 9 1017 76 10000 5.1 70 09:57 23.03.2020
6170 Clouds 10 1017 76 10000 5.1 70 09:39 23.03.2020
6171 Clouds 9 1017 76 10000 4.1 60 09:18 23.03.2020
6172 Clouds 9 1017 81 10000 4.6 30 08:38 23.03.2020
6173 Clouds 9 1017 81 10000 5.1 20 08:19 23.03.2020
6174 Clouds 9 1017 81 10000 4.6 20 07:50 23.03.2020
6175 Clouds 8 1017 81 10000 4.6 20 07:32 23.03.2020
6176 Rain 9 1018 93 3200 6.7 40 06:54 23.03.2020
6177 Clouds 9 1017 81 10000 5.1 20 06:32 23.03.2020
6178 Clouds 8 1017 87 10000 5.1 20 05:42 23.03.2020
6179 Clouds 9 1017 87 10000 5.1 30 03:54 23.03.2020
6180 Clouds 8 1017 93 10000 6.2 20 02:43 23.03.2020
6181 Clouds 8 1018 87 10000 5.1 20 01:39 23.03.2020
6182 Clouds 9 1018 81 10000 5.1 30 00:45 23.03.2020
6183 Clouds 9 1017 81 10000 5.7 30 23:58 22.03.2020
6184 Clouds 9 1017 81 10000 5.7 30 23:40 22.03.2020
6185 Clouds 9 1018 81 10000 4.6 40 23:22 22.03.2020
6186 Clouds 9 1018 81 10000 6.2 60 22:40 22.03.2020
6187 Clouds 9 1018 81 10000 6.2 60 22:20 22.03.2020
6188 Clouds 9 1018 81 10000 7.2 50 21:40 22.03.2020
6189 Clouds 9 1018 81 10000 7.2 50 21:21 22.03.2020
6190 Clouds 9 1018 81 10000 7.2 50 20:58 22.03.2020
6191 Clouds 9 1018 81 10000 7.2 30 20:40 22.03.2020
6192 Clouds 9 1018 76 10000 7.7 30 20:21 22.03.2020
6193 Clouds 9 1018 76 10000 7.7 30 19:56 22.03.2020
6194 Clouds 9 1017 81 10000 8.7 30 19:38 22.03.2020
6195 Clouds 9 1017 81 10000 8.2 30 19:19 22.03.2020
6196 Clouds 10 1017 81 10000 7.7 20 18:57 22.03.2020
6197 Clouds 9 1017 81 10000 7.7 20 18:39 22.03.2020
6198 Clouds 9 1017 81 10000 9.3 20 18:18 22.03.2020
6199 Clouds 10 1017 76 10000 9.3 10 17:56 22.03.2020
6200 Clouds 9 1017 76 10000 9.3 10 17:37 22.03.2020
6201 Clouds 10 1016 76 10000 9.3 20 17:19 22.03.2020
6202 Clouds 10 1016 76 10000 9.3 360 16:55 22.03.2020
6203 Clouds 10 1016 76 10000 9.3 360 16:37 22.03.2020
6204 Clouds 11 1015 71 10000 8.7 360 16:19 22.03.2020
6205 Clouds 12 1015 71 10000 8.2 360 15:39 22.03.2020
6206 Clouds 12 1015 62 10000 8.7 350 15:19 22.03.2020
6207 Clouds 14 1015 51 10000 6.7 360 14:46 22.03.2020
6208 Clouds 15 1015 48 10000 5.1 330 14:18 22.03.2020
6209 Clouds 15 1015 55 10000 3.6 240 13:42 22.03.2020
6210 Clouds 14 1015 48 10000 4.1 240 13:20 22.03.2020
6211 Clouds 15 1015 51 10000 3.6 240 12:47 22.03.2020
6212 Clouds 15 1015 48 10000 3.6 240 12:23 22.03.2020
6213 Clouds 15 1015 48 10000 3.6 240 12:23 22.03.2020
6214 Clouds 14 1015 76 10000 6.2 10 11:59 22.03.2020
6215 Clouds 16 1015 54 10000 2.6 210 11:41 22.03.2020
6216 Clouds 15 1015 58 10000 3.6 240 11:23 22.03.2020
6217 Clouds 15 1015 54 10000 3.6 240 10:57 22.03.2020
6218 Clouds 15 1015 54 10000 3.6 240 10:39 22.03.2020
6219 Clouds 15 1016 66 10000 4.1 250 10:21 22.03.2020
6220 Clouds 15 1015 62 10000 3.6 230 09:43 22.03.2020
6221 Clouds 15 1015 66 10000 3.6 240 09:23 22.03.2020
6222 Clouds 14 1015 71 10000 4.1 230 08:44 22.03.2020
6223 Clouds 13 1015 66 10000 4.6 220 08:25 22.03.2020
6224 Clouds 13 1015 66 10000 5.1 230 07:53 22.03.2020
6225 Clouds 12 1015 66 10000 5.1 230 07:28 22.03.2020
6226 Clouds 10 1015 76 10000 5.7 220 06:40 22.03.2020
6227 Clouds 8 1014 93 10000 0.5 0 05:35 22.03.2020
6228 Clouds 7 1014 93 10000 2.81 218 03:47 22.03.2020
6229 Clear 7 1014 93 10000 2.22 232 01:35 22.03.2020
6230 Clear 7 1014 93 10000 2.1 236 00:48 22.03.2020
6231 Clear 8 1014 93 10000 2.1 236 00:29 22.03.2020
6232 Clear 8 1015 93 10000 1 150 23:44 21.03.2020
6233 Clear 8 1014 93 10000 1.5 160 23:21 21.03.2020
6234 Clear 8 1015 81 10000 1 0 22:58 21.03.2020
6235 Clear 8 1015 81 10000 1 0 22:37 21.03.2020
6236 Clear 8 1015 75 10000 1.44 200 22:18 21.03.2020
6237 Clear 8 1015 81 10000 0.5 230 21:56 21.03.2020
6238 Clear 8 1015 81 10000 0.5 230 21:37 21.03.2020
6239 Clear 9 1015 81 10000 0.5 190 21:18 21.03.2020
6240 Clear 9 1015 81 10000 0.5 0 20:41 21.03.2020
6241 Clear 9 1015 81 10000 0.5 0 20:20 21.03.2020
6242 Clear 10 1015 87 10000 1.5 220 19:44 21.03.2020
6243 Clear 10 1015 70 10000 1 210 19:25 21.03.2020
6244 Clear 10 1015 61 10000 1.5 210 18:59 21.03.2020
6245 Clear 11 1015 61 10000 1.5 210 18:39 21.03.2020
6246 Clear 11 1015 46 10000 1.5 170 18:20 21.03.2020
6247 Clear 11 1015 56 10000 1.5 170 17:57 21.03.2020
6248 Clear 12 1015 50 10000 2.1 120 17:39 21.03.2020
6249 Clear 12 1015 43 10000 1 0 17:20 21.03.2020
6250 Clear 13 1016 43 10000 1.5 240 16:41 21.03.2020
6251 Clear 13 1016 54 10000 2.1 220 16:22 21.03.2020
6252 Clear 13 1016 54 10000 2.1 220 15:57 21.03.2020
6253 Clear 13 1016 54 10000 2.1 220 15:39 21.03.2020
6254 Clear 13 1016 58 10000 2.6 240 15:20 21.03.2020
6255 Clear 13 1017 58 10000 3.1 240 14:55 21.03.2020
6256 Clear 13 1017 58 10000 3.1 240 14:37 21.03.2020
6257 Clouds 14 1017 58 10000 3.1 230 14:18 21.03.2020
6258 Clouds 13 1017 58 10000 3.1 210 13:57 21.03.2020
6259 Clouds 13 1017 58 10000 3.1 210 13:38 21.03.2020
6260 Clouds 13 1018 62 10000 3.1 200 13:19 21.03.2020
6261 Clouds 13 1018 62 10000 3.1 220 12:41 21.03.2020
6262 Clouds 13 1018 58 10000 2.6 200 12:20 21.03.2020
6263 Clouds 12 1018 38 10000 4.6 70 11:59 21.03.2020
6264 Clouds 12 1019 62 10000 2.6 190 11:39 21.03.2020
6265 Clouds 12 1019 66 10000 3.1 200 11:20 21.03.2020
6266 Clouds 12 1020 62 10000 3.1 190 10:58 21.03.2020
6267 Clouds 12 1020 62 10000 3.1 190 10:39 21.03.2020
6268 Clouds 12 1020 62 10000 3.1 190 10:21 21.03.2020
6269 Clouds 12 1020 62 10000 3.1 180 09:59 21.03.2020
6270 Clouds 11 1020 62 10000 3.1 180 09:39 21.03.2020
6271 Clouds 11 1020 66 10000 2.6 160 09:20 21.03.2020
6272 Clouds 11 1020 66 10000 2.6 160 09:20 21.03.2020
6273 Clouds 11 1020 61 10000 2.1 150 08:55 21.03.2020
6274 Clear 10 1020 61 10000 2.1 150 08:37 21.03.2020
6275 Clear 10 1020 66 10000 1.5 140 08:18 21.03.2020
6276 Clear 8 1020 57 10000 1.5 120 07:37 21.03.2020
6277 Clear 7 1020 61 10000 2.1 90 07:18 21.03.2020
6278 Clear 5 1020 81 6000 1 0 06:42 21.03.2020
6279 Clear 4 1020 93 10000 1 360 06:23 21.03.2020
6280 Clear 3 1020 93 8000 2.1 350 05:40 21.03.2020
6281 Clear 4 1020 86 8000 1 360 03:49 21.03.2020
6282 Clear 4 1020 86 8000 2.1 350 02:37 21.03.2020
6283 Clear 4 1020 86 10000 2.1 340 01:44 21.03.2020
6284 Clear 5 1020 86 10000 2.1 340 01:23 21.03.2020
6285 Clear 5 1021 86 10000 1 300 00:39 21.03.2020
6286 Clear 6 1021 87 10000 0.18 52 00:21 21.03.2020
6287 Clear 5 1021 81 10000 0.5 340 23:42 20.03.2020
6288 Clear 6 1021 87 10000 0.5 320 23:22 20.03.2020
6289 Clear 7 1021 75 10000 0.83 134 22:44 20.03.2020
6290 Clear 7 1021 75 10000 1 290 22:25 20.03.2020
6291 Clear 7 1021 70 10000 0.83 134 21:58 20.03.2020
6292 Clear 7 1021 70 10000 0.83 134 21:40 20.03.2020
6293 Clear 7 1021 81 10000 0.83 134 21:20 20.03.2020
6294 Clear 8 1021 75 10000 1 260 20:58 20.03.2020
6295 Clear 8 1021 75 10000 1 260 20:40 20.03.2020
6296 Clouds 8 1021 66 10000 1 0 20:19 20.03.2020
6297 Clouds 9 1021 70 10000 1.5 70 19:47 20.03.2020
6298 Clouds 9 1021 75 10000 1.75 98 19:20 20.03.2020
6299 Clouds 9 1021 75 10000 1 220 18:57 20.03.2020
6300 Clouds 9 1021 75 10000 1 220 18:38 20.03.2020
6301 Clouds 9 1021 75 10000 1 220 18:38 20.03.2020
6302 Clouds 9 1021 75 10000 1 180 18:19 20.03.2020
6303 Clouds 9 1021 70 10000 1.5 190 17:56 20.03.2020
6304 Clouds 10 1021 53 10000 2.1 100 17:37 20.03.2020
6305 Clouds 10 1021 70 10000 2.1 230 17:18 20.03.2020
6306 Clouds 10 1021 70 10000 2.1 220 16:41 20.03.2020
6307 Clouds 10 1021 70 10000 2.1 220 16:41 20.03.2020
6308 Clouds 10 1021 66 10000 2.1 200 16:20 20.03.2020
6309 Clouds 10 1021 66 10000 2.1 190 15:44 20.03.2020
6310 Clouds 10 1021 66 10000 2.6 190 15:23 20.03.2020
6311 Clouds 11 1021 66 10000 3.1 220 14:58 20.03.2020
6312 Clouds 11 1021 66 10000 3.1 220 14:40 20.03.2020
6313 Clear 11 1021 66 10000 3.6 200 14:20 20.03.2020
6314 Clear 11 1021 62 10000 3.6 190 13:48 20.03.2020
6315 Clear 10 1022 71 10000 4.1 190 13:22 20.03.2020
6316 Clouds 10 1022 66 10000 5.1 170 12:58 20.03.2020
6317 Clouds 10 1022 66 10000 5.1 170 12:38 20.03.2020
6318 Clouds 10 1022 66 10000 4.1 200 12:19 20.03.2020
6319 Clouds 10 1022 53 10000 2.6 100 11:39 20.03.2020
6320 Clouds 10 1023 66 10000 4.6 190 11:20 20.03.2020
6321 Clouds 9 1022 61 10000 4.1 130 10:55 20.03.2020
6322 Clouds 9 1022 61 10000 4.1 130 10:37 20.03.2020
6323 Clouds 10 1023 61 10000 2.6 80 10:18 20.03.2020
6324 Clouds 10 1023 61 10000 3.1 90 09:45 20.03.2020
6325 Clouds 9 1023 61 10000 3.1 60 09:21 20.03.2020
6326 Clouds 8 1023 61 10000 3.1 20 08:57 20.03.2020
6327 Clouds 8 1023 61 10000 3.1 20 08:38 20.03.2020
6328 Clouds 8 1023 70 10000 0.5 0 08:18 20.03.2020
6329 Clouds 7 1023 75 10000 1.96 56 07:39 20.03.2020
6330 Clouds 7 1023 75 10000 1.96 56 07:21 20.03.2020
6331 Clouds 6 1022 75 10000 1.96 56 06:42 20.03.2020
6332 Clouds 6 1022 80 10000 0.5 0 06:18 20.03.2020
6333 Clouds 6 1022 75 10000 2.1 40 04:38 20.03.2020
6334 Clouds 6 1022 70 10000 2.1 60 02:50 20.03.2020
6335 Clouds 6 1022 81 10000 1 0 01:50 20.03.2020
6336 Clouds 6 1022 81 10000 1.5 30 00:45 20.03.2020
6337 Clouds 6 1022 80 10000 2.6 350 00:23 20.03.2020
6338 Clouds 6 1022 75 10000 3.1 320 23:42 19.03.2020
6339 Clouds 6 1022 80 10000 3.1 330 23:23 19.03.2020
6340 Clouds 5 1022 80 10000 2.6 340 22:41 19.03.2020
6341 Clouds 6 1023 80 10000 2.6 350 22:23 19.03.2020
6342 Clouds 6 1022 80 10000 3.1 350 21:58 19.03.2020
6343 Clouds 6 1022 86 10000 3.6 340 21:38 19.03.2020
6344 Clouds 6 1022 86 10000 3.6 340 21:19 19.03.2020
6345 Clouds 6 1022 75 10000 3.6 350 20:44 19.03.2020
6346 Clouds 7 1023 70 10000 2.6 10 20:25 19.03.2020
6347 Clouds 7 1023 65 10000 3.1 20 19:59 19.03.2020
6348 Clouds 7 1023 65 10000 3.1 20 19:39 19.03.2020
6349 Clouds 8 1023 61 10000 3.1 40 19:21 19.03.2020
6350 Clouds 8 1023 60 10000 3.6 20 18:58 19.03.2020
6351 Clouds 8 1023 60 10000 3.6 20 18:40 19.03.2020
6352 Clouds 8 1023 60 10000 4.1 30 18:22 19.03.2020
6353 Clouds 9 1023 49 10000 5.1 20 17:54 19.03.2020
6354 Clouds 9 1023 65 10000 4.1 50 17:36 19.03.2020
6355 Clouds 9 1023 45 10000 7.2 10 17:18 19.03.2020
6356 Clouds 9 1023 49 10000 7.2 360 16:41 19.03.2020
6357 Clouds 10 1023 46 10000 8.2 10 16:21 19.03.2020
6358 Clouds 10 1023 39 10000 7.7 10 15:42 19.03.2020
6359 Clouds 10 1023 55 10000 7.7 10 15:23 19.03.2020
6360 Clouds 10 1023 55 10000 7.7 10 15:23 19.03.2020
6361 Clouds 10 1023 50 10000 7.7 350 14:43 19.03.2020
6362 Clouds 10 1024 55 10000 8.7 10 14:23 19.03.2020
6363 Clouds 10 1024 53 10000 8.7 360 13:57 19.03.2020
6364 Clouds 10 1024 53 10000 8.7 360 13:57 19.03.2020
6365 Clouds 10 1024 53 10000 8.7 360 13:37 19.03.2020
6366 Clouds 10 1024 46 10000 10.3 10 13:18 19.03.2020
6367 Clouds 9 1024 55 10000 10.3 360 12:41 19.03.2020
6368 Clouds 10 1024 57 10000 10.3 360 12:22 19.03.2020
6369 Clouds 10 1024 61 10000 9.8 360 11:57 19.03.2020
6370 Clouds 10 1024 61 10000 9.8 360 11:57 19.03.2020
6371 Clouds 9 1024 66 10000 9.3 360 11:38 19.03.2020
6372 Clouds 9 1024 66 10000 9.3 360 11:20 19.03.2020
6373 Clouds 9 1025 70 10000 7.2 10 10:41 19.03.2020
6374 Rain 8 1025 81 10000 5.1 10 10:20 19.03.2020
6375 Rain 8 1025 81 7000 9.3 350 09:57 19.03.2020
6376 Rain 8 1025 81 7000 9.3 350 09:37 19.03.2020
6377 Clouds 9 1024 57 10000 9.3 20 09:18 19.03.2020
6378 Clouds 8 1024 66 10000 9.3 10 08:45 19.03.2020
6379 Clouds 8 1024 61 10000 10.3 10 08:21 19.03.2020
6380 Clouds 8 1024 65 10000 9.3 360 07:46 19.03.2020
6381 Clouds 8 1024 65 10000 8.2 360 07:28 19.03.2020
6382 Clouds 8 1024 65 10000 7.7 360 06:49 19.03.2020
6383 Clouds 7 1024 70 10000 7.7 360 05:52 19.03.2020
6384 Clouds 7 1024 65 10000 8.2 360 04:59 19.03.2020
6385 Clouds 7 1024 65 10000 8.2 360 04:40 19.03.2020
6386 Clouds 6 1024 70 10000 8.2 10 02:50 19.03.2020
6387 Rain 6 1023 93 10000 0.5 0 01:27 19.03.2020
6388 Clouds 6 1025 75 10000 7.2 360 00:35 19.03.2020
6389 Clouds 6 1025 75 10000 6.7 360 23:57 18.03.2020
6390 Clouds 5 1025 86 10000 4.6 350 23:31 18.03.2020
6391 Clouds 6 1025 65 10000 11.3 20 22:58 18.03.2020
6392 Rain 5 1025 80 10000 4.1 30 22:40 18.03.2020
6393 Rain 5 1026 86 10000 5.7 10 22:21 18.03.2020
6394 Rain 5 1026 80 10000 6.7 40 21:43 18.03.2020
6395 Rain 6 1026 77 10000 8.7 20 21:22 18.03.2020
6396 Clouds 6 1026 77 10000 6.7 10 20:59 18.03.2020
6397 Clouds 6 1026 77 10000 6.7 10 20:40 18.03.2020
6398 Clouds 6 1026 77 10000 6.7 10 20:40 18.03.2020
6399 Clouds 6 1026 70 10000 6.7 10 20:20 18.03.2020
6400 Clouds 6 1026 70 10000 6.7 10 19:58 18.03.2020
6401 Clouds 6 1026 58 10000 6.2 20 19:39 18.03.2020
6402 Clouds 6 1026 70 10000 5.1 30 19:20 18.03.2020
6403 Clouds 5 1026 80 10000 3.1 70 18:42 18.03.2020
6404 Rain 5 1026 58 10000 7.2 360 18:21 18.03.2020
6405 Rain 5 1026 58 10000 7.2 360 18:21 18.03.2020
6406 Clouds 6 1026 58 10000 10.3 360 17:59 18.03.2020
6407 Clouds 6 1026 58 10000 10.3 360 17:41 18.03.2020
6408 Clouds 6 1025 56 10000 9.3 10 17:22 18.03.2020
6409 Rain 6 1026 55 10000 11.3 30 16:58 18.03.2020
6410 Clouds 7 1026 55 10000 8.2 360 16:40 18.03.2020
6411 Clouds 7 1026 55 10000 8.2 360 16:20 18.03.2020
6412 Clouds 8 1026 49 10000 8.2 360 15:45 18.03.2020
6413 Clouds 8 1026 42 10000 7.2 20 15:23 18.03.2020
6414 Clouds 9 1026 45 10000 8.2 30 14:56 18.03.2020
6415 Clouds 8 1026 42 10000 8.2 10 14:38 18.03.2020
6416 Clouds 8 1026 42 10000 8.2 10 14:19 18.03.2020
6417 Clouds 9 1026 45 10000 7.2 30 13:38 18.03.2020
6418 Clouds 9 1026 45 10000 7.2 30 13:19 18.03.2020
6419 Clouds 9 1027 49 10000 8.2 40 12:42 18.03.2020
6420 Clouds 9 1026 45 10000 9.3 360 12:20 18.03.2020
6421 Clouds 8 1027 52 10000 9.3 50 11:41 18.03.2020
6422 Clouds 8 1026 45 10000 7.2 50 11:22 18.03.2020
6423 Clouds 9 1026 49 10000 5.7 50 10:58 18.03.2020
6424 Clouds 9 1026 49 10000 5.7 50 10:39 18.03.2020
6425 Clouds 8 1026 52 10000 5.1 30 10:20 18.03.2020
6426 Clouds 8 1026 52 10000 5.1 30 10:20 18.03.2020
6427 Clouds 8 1026 49 10000 4.6 70 09:59 18.03.2020
6428 Clouds 8 1026 49 10000 4.6 70 09:39 18.03.2020
6429 Clouds 8 1027 49 10000 6.2 60 09:21 18.03.2020
6430 Clouds 7 1027 52 10000 5.7 60 08:40 18.03.2020
6431 Clouds 7 1027 56 10000 5.1 60 08:21 18.03.2020
6432 Clouds 6 1027 56 10000 4.6 50 07:49 18.03.2020
6433 Clouds 6 1027 56 10000 6.2 70 07:31 18.03.2020
6434 Clouds 4 1027 65 10000 4.1 70 06:54 18.03.2020
6435 Clouds 4 1027 65 10000 3.1 70 06:35 18.03.2020
6436 Clear 3 1026 69 10000 3.1 50 05:36 18.03.2020
6437 Clear 2 1026 64 10000 3.6 50 04:29 18.03.2020
6438 Clear 3 1025 64 10000 3.1 40 03:21 18.03.2020
6439 Clear 3 1026 64 10000 3.1 60 02:32 18.03.2020
6440 Clear 3 1026 60 10000 3.6 50 01:31 18.03.2020
6441 Clear 4 1026 60 10000 3.1 50 00:42 18.03.2020
6442 Clear 3 1027 60 10000 3.6 60 00:21 18.03.2020
6443 Clear 3 1027 64 10000 2.1 160 23:40 17.03.2020
6444 Clear 3 1027 56 10000 4.1 60 23:19 17.03.2020
6445 Clear 4 1027 60 10000 3.1 140 22:42 17.03.2020
6446 Clear 4 1028 56 10000 4.1 50 22:24 17.03.2020
6447 Clear 4 1028 56 10000 3.6 50 21:43 17.03.2020
6448 Clear 4 1028 56 10000 3.6 60 21:23 17.03.2020
6449 Clear 4 1027 56 10000 4.1 60 20:56 17.03.2020
6450 Clear 4 1027 56 10000 4.1 60 20:37 17.03.2020
6451 Clear 5 1028 52 10000 5.1 50 20:19 17.03.2020
6452 Clear 5 1028 48 10000 4.6 60 19:41 17.03.2020
6453 Clear 5 1028 52 10000 5.1 40 19:18 17.03.2020
6454 Clear 5 1028 60 10000 3.6 90 18:57 17.03.2020
6455 Clear 6 1028 56 10000 5.1 30 18:39 17.03.2020
6456 Clear 6 1027 52 10000 5.7 30 18:21 17.03.2020
6457 Clear 7 1027 48 10000 5.1 30 17:55 17.03.2020
6458 Clear 7 1027 48 10000 5.1 30 17:36 17.03.2020
6459 Clear 7 1027 45 10000 5.1 50 17:18 17.03.2020
6460 Clear 7 1027 39 10000 5.1 30 16:41 17.03.2020
6461 Clear 8 1028 34 10000 4.6 40 16:19 17.03.2020
6462 Clear 9 1028 34 10000 4.1 40 15:44 17.03.2020
6463 Clear 8 1028 31 10000 4.1 20 15:22 17.03.2020
6464 Clear 9 1028 34 10000 4.1 10 14:44 17.03.2020
6465 Clouds 9 1028 31 10000 4.1 60 14:24 17.03.2020
6466 Clouds 8 1029 31 10000 2.6 20 13:57 17.03.2020
6467 Clouds 9 1029 31 10000 2.6 20 13:39 17.03.2020
6468 Clouds 8 1029 37 10000 2.6 20 13:21 17.03.2020
6469 Clouds 8 1029 37 10000 2.6 20 13:21 17.03.2020
6470 Clouds 8 1029 36 10000 4.1 30 12:43 17.03.2020
6471 Clouds 8 1030 39 10000 5.1 80 12:24 17.03.2020
6472 Clouds 8 1030 42 10000 3.1 0 11:48 17.03.2020
6473 Clouds 8 1031 39 10000 5.1 30 11:29 17.03.2020
6474 Clouds 7 1031 42 10000 4.6 30 10:58 17.03.2020
6475 Clouds 7 1031 42 10000 4.6 30 10:40 17.03.2020
6476 Clouds 7 1031 45 10000 4.6 30 10:22 17.03.2020
6477 Clouds 7 1031 42 10000 6.2 50 09:59 17.03.2020
6478 Clouds 7 1031 42 10000 6.2 50 09:40 17.03.2020
6479 Clouds 7 1032 42 10000 5.7 20 09:19 17.03.2020
6480 Clouds 7 1032 45 10000 4.1 50 08:48 17.03.2020
6481 Clouds 6 1032 45 10000 5.1 60 08:23 17.03.2020
6482 Clouds 6 1032 45 10000 5.1 50 07:56 17.03.2020
6483 Clouds 6 1032 45 10000 5.1 50 07:38 17.03.2020
6484 Clouds 6 1032 45 10000 4.6 70 07:19 17.03.2020
6485 Clouds 5 1032 48 10000 4.1 70 06:38 17.03.2020
6486 Clouds 5 1032 48 10000 3.1 40 05:58 17.03.2020
6487 Clouds 5 1031 48 10000 5.1 50 03:58 17.03.2020
6488 Clouds 6 1031 45 10000 5.7 40 02:54 17.03.2020
6489 Clouds 6 1031 48 10000 6.2 20 01:49 17.03.2020
6490 Clouds 6 1031 48 10000 5.7 20 01:25 17.03.2020
6491 Clouds 6 1031 48 10000 5.1 20 00:46 17.03.2020
6492 Clouds 6 1032 48 10000 5.1 30 23:48 16.03.2020
6493 Clouds 6 1032 52 10000 6.7 40 23:30 16.03.2020
6494 Clouds 6 1032 48 10000 6.7 20 22:41 16.03.2020
6495 Clouds 6 1032 48 10000 6.7 30 22:23 16.03.2020
6496 Clouds 6 1032 48 10000 6.7 30 21:58 16.03.2020
6497 Clouds 5 1032 48 10000 6.2 30 21:40 16.03.2020
6498 Clouds 6 1032 45 10000 6.2 40 21:21 16.03.2020
6499 Clouds 6 1032 48 10000 6.7 30 20:56 16.03.2020
6500 Clouds 6 1032 48 10000 6.7 30 20:37 16.03.2020
6501 Clouds 6 1032 48 10000 6.7 20 20:19 16.03.2020
6502 Clouds 6 1032 45 10000 6.7 30 19:41 16.03.2020
6503 Clouds 6 1032 45 10000 7.2 40 19:20 16.03.2020
6504 Clouds 6 1032 48 10000 6.2 40 18:43 16.03.2020
6505 Clouds 6 1032 48 10000 7.7 40 18:21 16.03.2020
6506 Clouds 6 1032 45 10000 6.7 30 17:56 16.03.2020
6507 Clouds 6 1032 48 10000 10.8 40 17:56 16.03.2020
6508 Clouds 6 1032 45 10000 6.7 30 17:37 16.03.2020
6509 Clouds 6 1031 45 10000 8.2 20 17:18 16.03.2020
6510 Clouds 6 1031 48 10000 9.3 40 16:44 16.03.2020
6511 Clouds 6 1031 45 10000 9.8 40 16:24 16.03.2020
6512 Clouds 7 1031 45 10000 9.8 30 15:45 16.03.2020
6513 Clouds 7 1031 48 10000 10.3 20 15:27 16.03.2020
6514 Clouds 7 1030 48 10000 9.3 20 14:49 16.03.2020
6515 Clouds 7 1030 52 10000 9.3 30 14:28 16.03.2020
6516 Clouds 7 1030 52 10000 10.8 20 13:58 16.03.2020
6517 Clouds 7 1030 52 10000 10.8 20 13:40 16.03.2020
6518 Clouds 7 1030 56 10000 10.8 20 13:21 16.03.2020
6519 Clouds 7 1030 56 10000 9.3 40 12:44 16.03.2020
6520 Clouds 8 1030 52 10000 9.3 30 12:23 16.03.2020
6521 Clouds 8 1030 48 10000 9.3 30 11:46 16.03.2020
6522 Clouds 8 1030 52 10000 9.8 30 11:27 16.03.2020
6523 Clouds 7 1030 52 10000 9.8 30 11:27 16.03.2020
6524 Clouds 7 1030 56 10000 8.2 30 10:56 16.03.2020
6525 Clouds 7 1030 56 10000 8.2 30 10:37 16.03.2020
6526 Clouds 7 1030 56 10000 9.8 20 10:18 16.03.2020
6527 Clouds 7 1030 52 10000 10.3 30 09:42 16.03.2020
6528 Clouds 6 1030 52 10000 9.8 30 09:21 16.03.2020
6529 Clouds 7 1030 52 10000 9.3 30 08:49 16.03.2020
6530 Clouds 6 1030 56 10000 8.7 40 08:25 16.03.2020
6531 Clouds 6 1030 56 10000 8.2 30 07:45 16.03.2020
6532 Clouds 6 1029 56 10000 9.3 40 07:21 16.03.2020
6533 Clouds 6 1029 52 10000 10.3 40 06:51 16.03.2020
6534 Clouds 6 1028 56 10000 8.7 30 06:23 16.03.2020
6535 Clouds 6 1027 60 10000 7.7 30 04:54 16.03.2020
6536 Clouds 6 1026 60 10000 9.8 30 02:40 16.03.2020
6537 Clouds 6 1026 70 10000 9.3 30 00:49 16.03.2020
6538 Clouds 6 1026 70 10000 9.8 20 00:30 16.03.2020
6539 Clouds 6 1026 75 10000 9.3 20 23:42 15.03.2020
6540 Rain 6 1026 81 10000 8.7 30 23:20 15.03.2020
6541 Rain 6 1026 81 7000 9.8 30 22:42 15.03.2020
6542 Rain 6 1025 87 7000 9.3 30 22:22 15.03.2020
6543 Rain 6 1025 87 7000 8.2 40 21:55 15.03.2020
6544 Rain 6 1025 87 7000 8.2 40 21:37 15.03.2020
6545 Rain 6 1025 87 7000 8.2 40 21:18 15.03.2020
6546 Rain 6 1025 87 10000 8.2 50 20:42 15.03.2020
6547 Rain 6 1025 81 10000 8.2 50 20:20 15.03.2020
6548 Rain 6 1025 81 10000 8.2 50 19:56 15.03.2020
6549 Rain 6 1025 81 10000 8.7 30 19:38 15.03.2020
6550 Rain 6 1024 81 10000 8.2 30 19:19 15.03.2020
6551 Rain 6 1024 87 10000 9.3 30 18:55 15.03.2020
6552 Rain 6 1024 87 10000 9.3 30 18:36 15.03.2020
6553 Rain 6 1023 87 10000 9.3 30 18:18 15.03.2020
6554 Rain 6 1023 81 8000 9.3 30 17:40 15.03.2020
6555 Rain 7 1023 87 8000 9.3 30 17:21 15.03.2020
6556 Rain 7 1022 81 8000 8.7 20 16:56 15.03.2020
6557 Rain 7 1022 81 8000 8.7 20 16:38 15.03.2020
6558 Rain 7 1023 87 6000 13.4 50 16:19 15.03.2020
6559 Rain 7 1021 87 8000 8.2 30 15:43 15.03.2020
6560 Rain 8 1020 87 8000 8.2 30 15:25 15.03.2020
6561 Rain 8 1020 87 8000 8.7 30 14:55 15.03.2020
6562 Rain 8 1020 87 8000 8.7 30 14:37 15.03.2020
6563 Rain 8 1020 87 8000 7.7 20 14:18 15.03.2020
6564 Rain 8 1020 87 8000 8.2 20 13:40 15.03.2020
6565 Rain 8 1020 81 8000 6.7 20 13:21 15.03.2020
6566 Rain 9 1020 81 10000 6.7 20 12:59 15.03.2020
6567 Rain 9 1020 81 10000 6.7 20 12:39 15.03.2020
6568 Rain 9 1019 76 10000 7.2 30 12:21 15.03.2020
6569 Rain 8 1019 76 10000 9.3 20 11:43 15.03.2020
6570 Rain 9 1020 76 10000 8.2 30 11:24 15.03.2020
6571 Rain 9 1019 76 10000 9.3 30 10:57 15.03.2020
6572 Rain 9 1019 76 10000 9.3 30 10:38 15.03.2020
6573 Rain 9 1018 71 10000 11.3 40 10:20 15.03.2020
6574 Clouds 10 1019 66 10000 8.2 40 09:42 15.03.2020
6575 Clouds 9 1019 66 10000 8.2 30 09:22 15.03.2020
6576 Clouds 9 1019 66 10000 8.7 40 08:58 15.03.2020
6577 Clouds 9 1019 66 10000 8.7 40 08:39 15.03.2020
6578 Clouds 9 1018 66 10000 8.7 40 08:18 15.03.2020
6579 Clouds 10 1018 66 10000 8.2 40 07:44 15.03.2020
6580 Clouds 10 1017 76 10000 6.7 30 06:55 15.03.2020
6581 Clouds 10 1017 76 10000 6.7 30 06:35 15.03.2020
6582 Clouds 9 1017 76 10000 6.7 20 05:46 15.03.2020
6583 Clouds 10 1016 76 10000 6.7 30 04:49 15.03.2020
6584 Clouds 10 1016 76 10000 6.7 30 04:29 15.03.2020
6585 Clouds 10 1015 76 10000 7.7 40 03:55 15.03.2020
6586 Clouds 10 1015 76 10000 7.7 50 02:48 15.03.2020
6587 Clouds 9 1015 87 10000 7.2 40 01:50 15.03.2020
6588 Clouds 9 1015 87 10000 6.7 40 00:51 15.03.2020
6589 Clouds 9 1015 87 10000 6.7 40 00:51 15.03.2020
6590 Clouds 9 1016 81 10000 8.2 50 00:28 15.03.2020
6591 Clouds 9 1015 87 10000 7.2 20 23:58 14.03.2020
6592 Clouds 9 1015 87 10000 7.2 20 23:37 14.03.2020
6593 Clouds 9 1015 87 10000 6.7 20 23:18 14.03.2020
6594 Clouds 9 1015 87 10000 5.7 20 22:44 14.03.2020
6595 Clouds 9 1015 87 10000 6.7 20 22:26 14.03.2020
6596 Clouds 9 1015 87 10000 6.7 20 21:57 14.03.2020
6597 Clouds 9 1016 87 10000 6.2 20 21:37 14.03.2020
6598 Clouds 9 1016 87 10000 6.2 20 21:18 14.03.2020
6599 Clouds 9 1016 87 10000 6.2 20 20:59 14.03.2020
6600 Clouds 9 1016 81 10000 5.1 30 20:40 14.03.2020
6601 Clouds 9 1016 87 10000 4.6 30 20:19 14.03.2020
6602 Clouds 9 1016 87 10000 5.1 40 19:56 14.03.2020
6603 Clouds 9 1016 87 10000 5.1 40 19:38 14.03.2020
6604 Clouds 9 1016 87 10000 5.7 30 19:19 14.03.2020
6605 Clouds 10 1016 81 10000 5.7 30 18:37 14.03.2020
6606 Clouds 10 1016 81 10000 5.7 30 18:19 14.03.2020
6607 Clouds 10 1016 81 10000 5.7 30 18:19 14.03.2020
6608 Clouds 9 1016 87 10000 8.2 20 17:39 14.03.2020
6609 Clouds 10 1016 81 10000 7.2 40 17:21 14.03.2020
6610 Clouds 10 1016 81 10000 7.7 20 16:41 14.03.2020
6611 Clouds 10 1016 76 10000 7.2 30 16:23 14.03.2020
6612 Clouds 10 1016 76 10000 7.2 10 15:59 14.03.2020
6613 Clouds 10 1016 76 10000 7.7 10 15:27 14.03.2020
6614 Clouds 11 1016 71 10000 7.7 10 14:59 14.03.2020
6615 Clouds 11 1016 71 10000 7.7 10 14:37 14.03.2020
6616 Clouds 11 1016 71 10000 8.2 350 14:19 14.03.2020
6617 Clouds 11 1016 71 10000 7.7 350 13:54 14.03.2020
6618 Clouds 12 1016 71 10000 7.7 350 13:36 14.03.2020
6619 Clear 12 1016 71 10000 9.3 340 13:18 14.03.2020
6620 Clouds 12 1017 87 10000 7.2 30 12:42 14.03.2020
6621 Clouds 13 1016 67 10000 6.2 350 12:23 14.03.2020
6622 Clouds 12 1016 67 10000 6.2 350 11:43 14.03.2020
6623 Clouds 12 1016 67 10000 5.7 360 11:24 14.03.2020
6624 Clouds 12 1016 71 10000 6.2 360 10:47 14.03.2020
6625 Clouds 12 1016 71 10000 6.7 340 10:28 14.03.2020
6626 Clouds 11 1016 76 10000 6.7 350 09:59 14.03.2020
6627 Clear 12 1016 62 10000 6.7 350 09:40 14.03.2020
6628 Clear 12 1016 62 10000 6.7 350 09:20 14.03.2020
6629 Clear 11 1016 58 10000 4.1 360 08:46 14.03.2020
6630 Clear 11 1016 76 10000 2.6 190 08:26 14.03.2020
6631 Clear 11 1016 76 10000 0.5 0 07:40 14.03.2020
6632 Clear 10 1016 87 10000 0.61 220 07:21 14.03.2020
6633 Clear 9 1015 87 10000 0.61 220 06:45 14.03.2020
6634 Clear 9 1015 87 10000 0.61 220 06:45 14.03.2020
6635 Clear 8 1015 66 10000 2.1 270 06:26 14.03.2020
6636 Clear 6 1014 87 10000 0.53 165 04:55 14.03.2020
6637 Clear 6 1013 87 10000 1 340 03:34 14.03.2020
6638 Clear 7 1012 87 10000 0.53 165 02:48 14.03.2020
6639 Clear 7 1012 87 10000 1 0 01:46 14.03.2020
6640 Fog 8 1012 100 300 2.1 330 00:34 14.03.2020
6641 Fog 8 1012 100 3000 2.1 20 23:42 13.03.2020
6642 Clear 8 1012 81 10000 5.1 340 23:23 13.03.2020
6643 Clear 9 1012 76 10000 5.1 340 22:44 13.03.2020
6644 Clear 9 1011 75 10000 3.1 350 22:22 13.03.2020
6645 Clear 9 1011 70 10000 2.1 360 21:41 13.03.2020
6646 Clear 9 1011 66 10000 2.1 20 21:19 13.03.2020
6647 Clear 10 1011 62 10000 1.5 20 20:42 13.03.2020
6648 Mist 10 1011 87 4200 5.1 30 20:22 13.03.2020
6649 Clear 10 1011 54 10000 3.6 30 19:57 13.03.2020
6650 Clear 11 1011 54 10000 3.6 30 19:39 13.03.2020
6651 Clear 11 1011 54 10000 4.1 40 19:18 13.03.2020
6652 Clear 11 1011 58 10000 4.1 30 18:40 13.03.2020
6653 Clear 12 1010 54 10000 4.6 30 18:22 13.03.2020
6654 Clear 12 1011 71 10000 3.1 60 17:42 13.03.2020
6655 Clear 13 1010 47 10000 5.7 30 17:21 13.03.2020
6656 Clear 13 1011 44 10000 6.2 50 16:56 13.03.2020
6657 Clear 13 1011 44 10000 6.2 50 16:38 13.03.2020
6658 Clear 14 1011 44 10000 6.2 40 16:20 13.03.2020
6659 Clear 14 1011 44 10000 6.7 50 15:43 13.03.2020
6660 Clear 14 1011 42 10000 6.7 50 15:22 13.03.2020
6661 Clear 14 1011 42 10000 6.7 50 14:57 13.03.2020
6662 Clear 15 1011 45 10000 5.7 40 14:38 13.03.2020
6663 Clear 14 1011 48 10000 7.2 10 14:18 13.03.2020
6664 Clear 14 1012 45 10000 6.2 20 13:42 13.03.2020
6665 Clear 14 1012 45 10000 6.2 30 13:22 13.03.2020
6666 Clear 14 1012 48 10000 5.1 30 12:58 13.03.2020
6667 Clear 14 1012 48 10000 5.1 30 12:38 13.03.2020
6668 Clear 14 1013 55 10000 5.7 10 12:19 13.03.2020
6669 Clear 13 1013 55 10000 6.2 10 11:55 13.03.2020
6670 Clouds 13 1014 81 10000 4.6 40 11:36 13.03.2020
6671 Clouds 13 1014 81 10000 4.6 40 11:36 13.03.2020
6672 Clear 13 1013 55 10000 5.7 10 11:18 13.03.2020
6673 Clear 13 1013 58 10000 5.1 20 10:42 13.03.2020
6674 Clear 12 1014 62 10000 5.1 20 10:24 13.03.2020
6675 Clear 11 1014 62 10000 5.7 40 09:46 13.03.2020
6676 Clear 11 1014 66 10000 5.1 40 09:27 13.03.2020
6677 Clear 10 1015 76 10000 4.1 20 08:57 13.03.2020
6678 Clear 10 1015 76 10000 4.1 20 08:38 13.03.2020
6679 Clear 10 1015 76 10000 5.1 10 08:19 13.03.2020
6680 Clear 9 1015 81 10000 5.7 10 07:44 13.03.2020
6681 Clear 9 1015 81 10000 4.6 10 07:23 13.03.2020
6682 Clear 8 1015 87 10000 3.6 10 06:46 13.03.2020
6683 Fog 8 1014 93 2100 5.1 50 06:21 13.03.2020
6684 Fog 8 1015 100 700 4.6 10 05:44 13.03.2020
6685 Clear 8 1015 87 8000 4.1 360 04:39 13.03.2020
6686 -273 0 0 0 0 0 03:51 13.03.2020
6687 Clear 8 1016 87 10000 5.1 350 02:29 13.03.2020
6688 Clear